# Wetter Temperatur Luftdruck Luftfeuchtigkeit Sichtweite Windgeschwindigkeit Windrichtung Zeit
1 Clouds 21 1012 52 10000 2.6 30 08:25 14.07.2020
2 Clouds 20 1012 48 10000 2.6 50 07:59 14.07.2020
3 Clouds 20 1012 48 10000 2.6 50 07:38 14.07.2020
4 Clouds 19 1012 52 10000 2.6 50 07:18 14.07.2020
5 Clouds 19 1012 52 10000 2.1 60 06:47 14.07.2020
6 Clouds 18 1012 48 10000 2.6 50 06:24 14.07.2020
7 Clouds 18 1012 48 10000 2.1 40 05:42 14.07.2020
8 Clouds 20 1013 40 10000 3.1 60 04:38 14.07.2020
9 Clouds 20 1013 40 10000 3.1 60 03:52 14.07.2020
10 Clouds 20 1013 40 10000 2.6 50 03:18 14.07.2020
11 Clouds 21 1013 37 10000 3.6 30 02:26 14.07.2020
12 Clouds 22 1013 37 10000 3.6 30 01:38 14.07.2020
13 Clouds 23 1014 37 10000 3.1 40 00:58 14.07.2020
14 Clouds 23 1014 37 10000 3.1 40 00:40 14.07.2020
15 Clouds 23 1014 37 10000 2.6 360 00:20 14.07.2020
16 Clouds 24 1014 40 10000 3.1 350 23:38 13.07.2020
17 Clouds 24 1014 38 10000 2.6 360 23:19 13.07.2020
18 Clouds 24 1013 60 10000 0.5 0 22:56 13.07.2020
19 Clouds 25 1013 60 10000 0.5 0 22:38 13.07.2020
20 Clouds 25 1013 57 10000 2.6 190 22:19 13.07.2020
21 Clouds 25 1013 57 10000 2.1 210 21:54 13.07.2020
22 Clouds 25 1013 57 10000 2.1 210 21:36 13.07.2020
23 Clear 26 1013 57 10000 2.6 230 21:18 13.07.2020
24 Clouds 27 1012 26 10000 3.1 310 20:41 13.07.2020
25 Clouds 27 1012 26 10000 3.1 310 20:41 13.07.2020
26 Clear 27 1012 39 10000 5.1 270 20:23 13.07.2020
27 Clear 27 1012 39 10000 5.1 270 20:23 13.07.2020
28 Clear 28 1012 39 10000 5.1 270 19:58 13.07.2020
29 Clear 28 1012 39 10000 5.1 270 19:39 13.07.2020
30 Clear 28 1012 48 10000 6.2 240 19:21 13.07.2020
31 Clear 29 1012 48 10000 6.2 240 18:55 13.07.2020
32 Clear 30 1013 42 10000 6.2 240 18:36 13.07.2020
33 Clear 29 1013 42 10000 6.2 240 18:18 13.07.2020
34 Clear 30 1013 42 10000 6.2 240 17:42 13.07.2020
35 Clouds 30 1013 35 10000 7.7 240 17:21 13.07.2020
36 Clouds 30 1013 35 10000 7.7 240 16:59 13.07.2020
37 Clouds 30 1013 35 10000 7.7 240 16:40 13.07.2020
38 Clouds 31 1013 21 10000 4.6 290 16:20 13.07.2020
39 Clouds 31 1013 21 10000 4.6 290 15:57 13.07.2020
40 Clouds 31 1013 21 10000 4.6 290 15:38 13.07.2020
41 Clouds 31 1014 25 10000 3.6 300 15:19 13.07.2020
42 Clouds 31 1014 25 10000 3.6 300 14:57 13.07.2020
43 Clouds 32 1014 25 10000 3.6 300 14:38 13.07.2020
44 Clouds 31 1015 27 10000 2.6 30 14:19 13.07.2020
45 Clouds 31 1015 27 10000 2.6 30 13:43 13.07.2020
46 Clouds 30 1015 32 10000 2.6 40 13:22 13.07.2020
47 Clouds 30 1015 32 10000 2.6 40 12:57 13.07.2020
48 Clouds 30 1015 32 10000 2.6 40 12:39 13.07.2020
49 Clouds 29 1016 34 10000 3.1 360 12:20 13.07.2020
50 Clouds 29 1016 34 10000 3.1 360 11:42 13.07.2020
51 Clouds 28 1016 39 10000 4.1 40 11:24 13.07.2020
52 Clouds 28 1016 39 10000 4.1 40 11:24 13.07.2020
53 Clouds 28 1016 39 10000 4.1 40 10:54 13.07.2020
54 Clouds 27 1016 39 10000 4.1 40 10:36 13.07.2020
55 Clouds 26 1016 44 10000 3.1 10 10:18 13.07.2020
56 Clouds 25 1016 44 10000 3.1 10 09:41 13.07.2020
57 Clouds 24 1016 49 10000 2.1 350 09:22 13.07.2020
58 Clouds 23 1016 49 10000 2.1 350 08:50 13.07.2020
59 Clouds 23 1016 53 10000 3.6 30 08:32 13.07.2020
60 Clouds 22 1016 53 10000 3.6 50 07:34 13.07.2020
61 Clouds 22 1016 56 10000 3.6 40 06:55 13.07.2020
62 Clouds 22 1016 56 10000 3.6 40 06:36 13.07.2020
63 Clouds 22 1016 56 10000 3.6 50 05:59 13.07.2020
64 Clouds 22 1016 60 10000 4.1 50 04:30 13.07.2020
65 Clouds 23 1016 88 10000 2.1 210 01:49 13.07.2020
66 Clear 24 1016 83 10000 2.6 200 01:25 13.07.2020
67 Clear 25 1016 83 10000 0.5 0 00:46 13.07.2020
68 Clear 25 1016 83 10000 1 250 00:24 13.07.2020
69 Clear 25 1016 83 10000 1.5 230 23:56 12.07.2020
70 Clear 25 1016 83 10000 1.5 230 23:38 12.07.2020
71 Clear 26 1016 78 10000 1 0 23:19 12.07.2020
72 Clear 26 1016 78 10000 1.5 210 22:37 12.07.2020
73 Clear 26 1016 78 10000 2.1 230 22:19 12.07.2020
74 Clear 26 1016 78 10000 2.1 240 21:57 12.07.2020
75 Clear 27 1016 78 10000 2.1 240 21:39 12.07.2020
76 Clear 27 1016 78 10000 2.1 240 21:39 12.07.2020
77 Clear 27 1015 54 10000 2.6 220 21:20 12.07.2020
78 Clear 28 1015 54 10000 2.6 220 20:58 12.07.2020
79 Clear 28 1015 54 10000 2.6 220 20:39 12.07.2020
80 Clear 29 1015 51 10000 3.1 230 20:19 12.07.2020
81 Clear 29 1015 51 10000 3.1 230 19:54 12.07.2020
82 Clouds 29 1015 54 10000 3.6 250 19:36 12.07.2020
83 Clouds 30 1015 43 10000 3.6 230 19:18 12.07.2020
84 Clouds 31 1015 43 10000 3.6 230 18:40 12.07.2020
85 Clouds 32 1015 38 10000 5.1 220 18:19 12.07.2020
86 Clouds 31 1015 38 10000 5.1 220 17:41 12.07.2020
87 Clouds 32 1015 38 10000 5.1 240 17:22 12.07.2020
88 Clouds 32 1015 38 10000 5.1 240 16:58 12.07.2020
89 Clouds 32 1015 38 10000 5.1 240 16:40 12.07.2020
90 Clear 32 1015 38 10000 4.6 220 16:18 12.07.2020
91 Clear 32 1015 38 10000 4.6 220 15:43 12.07.2020
92 Clouds 32 1015 41 10000 3.6 200 15:23 12.07.2020
93 Clouds 32 1015 41 10000 3.6 200 14:44 12.07.2020
94 Clear 33 1015 36 10000 2.1 180 14:25 12.07.2020
95 Clear 32 1015 36 10000 2.1 180 13:54 12.07.2020
96 Clear 32 1015 36 10000 2.1 180 13:36 12.07.2020
97 Clear 31 1015 38 10000 2.1 190 13:18 12.07.2020
98 Clear 31 1015 38 10000 2.1 190 12:42 12.07.2020
99 Clear 30 1016 45 10000 1.5 0 12:20 12.07.2020
100 Clear 30 1016 45 10000 1.5 0 11:58 12.07.2020
101 Clear 30 1016 45 10000 1.5 0 11:40 12.07.2020
102 Clear 29 1016 54 10000 1.5 0 11:18 12.07.2020
103 Clear 29 1016 54 10000 1.5 0 10:41 12.07.2020
104 Clear 28 1016 61 10000 2.6 360 10:20 12.07.2020
105 Clear 27 1016 61 10000 2.6 360 09:43 12.07.2020
106 Clear 26 1015 73 10000 1 0 09:22 12.07.2020
107 Clear 26 1015 73 10000 1 0 09:22 12.07.2020
108 Clear 25 1015 73 10000 1 0 08:58 12.07.2020
109 Clear 25 1015 73 10000 1 0 08:39 12.07.2020
110 Clear 24 1015 78 10000 1 0 08:21 12.07.2020
111 Clear 23 1015 88 10000 1 20 07:50 12.07.2020
112 Clear 23 1015 88 10000 1 20 07:31 12.07.2020
113 Clear 22 1015 88 10000 1.5 10 06:56 12.07.2020
114 Clear 21 1015 88 10000 1.5 10 06:38 12.07.2020
115 Clear 21 1014 83 10000 1.5 60 06:19 12.07.2020
116 Clear 21 1014 83 10000 1.5 60 06:19 12.07.2020
117 Clear 22 1014 78 10000 1 90 04:59 12.07.2020
118 Clear 22 1014 83 10000 1 350 04:29 12.07.2020
119 Clear 23 1015 78 10000 1 70 03:46 12.07.2020
120 Clear 23 1014 83 10000 0.5 0 03:28 12.07.2020
121 Clear 23 1015 88 10000 1 360 02:26 12.07.2020
122 Clear 23 1015 88 10000 0.5 0 01:29 12.07.2020
123 Clear 24 1015 88 10000 0.78 322 00:39 12.07.2020
124 Clear 24 1016 94 10000 0.5 0 00:21 12.07.2020
125 Clear 24 1016 88 10000 1 250 23:41 11.07.2020
126 Clear 25 1016 88 10000 1 250 23:22 11.07.2020
127 Clear 25 1016 88 10000 1 250 23:00 11.07.2020
128 Clear 25 1016 88 10000 1.5 240 22:41 11.07.2020
129 Clear 25 1015 88 10000 1.5 230 22:23 11.07.2020
130 Clouds 26 1015 78 10000 2.6 230 21:56 11.07.2020
131 Clear 26 1014 58 10000 4.1 230 21:37 11.07.2020
132 Clear 27 1014 58 10000 4.1 230 21:19 11.07.2020
133 Clear 27 1014 58 10000 4.1 230 20:54 11.07.2020
134 Clear 28 1014 40 10000 3.1 220 20:36 11.07.2020
135 Clear 29 1014 40 10000 3.1 220 20:18 11.07.2020
136 Clear 29 1014 40 10000 3.1 220 19:46 11.07.2020
137 Clear 30 1014 40 10000 4.1 220 19:27 11.07.2020
138 Clear 31 1014 40 10000 4.1 220 18:58 11.07.2020
139 Clear 30 1014 40 10000 4.1 220 18:39 11.07.2020
140 Clear 31 1014 29 10000 3.6 230 18:20 11.07.2020
141 Clear 31 1014 29 10000 3.6 230 17:56 11.07.2020
142 Clear 31 1015 38 10000 5.1 260 17:38 11.07.2020
143 Clear 31 1015 38 10000 5.1 260 17:19 11.07.2020
144 Clear 31 1015 38 10000 5.1 260 16:44 11.07.2020
145 Clear 31 1014 40 10000 4.1 240 16:25 11.07.2020
146 Clear 32 1014 40 10000 4.1 240 15:59 11.07.2020
147 Clear 32 1014 40 10000 4.1 240 15:41 11.07.2020
148 Clear 32 1015 43 10000 4.6 270 15:20 11.07.2020
149 Clear 32 1015 40 10000 4.1 260 14:58 11.07.2020
150 Clear 32 1015 33 10000 3.1 220 14:39 11.07.2020
151 Clear 32 1015 33 10000 3.1 220 14:20 11.07.2020
152 Clear 32 1015 33 10000 3.1 220 13:43 11.07.2020
153 Clear 32 1015 38 10000 3.1 210 13:22 11.07.2020
154 Clear 31 1015 38 10000 3.1 210 12:58 11.07.2020
155 Clear 31 1015 45 10000 2.6 0 12:40 11.07.2020
156 Clear 31 1015 40 10000 1.5 0 12:20 11.07.2020
157 Clear 30 1015 40 10000 1.5 0 11:55 11.07.2020
158 Clear 30 1015 40 10000 1.5 0 11:36 11.07.2020
159 Clear 29 1015 47 10000 1.5 0 11:18 11.07.2020
160 Clear 28 1015 47 10000 1.5 0 10:40 11.07.2020
161 Clear 27 1015 57 10000 1.5 0 10:22 11.07.2020
162 Clear 27 1015 57 10000 1.5 0 09:44 11.07.2020
163 Clear 25 1015 68 10000 1.5 0 09:20 11.07.2020
164 Clear 25 1015 68 10000 1.5 0 08:49 11.07.2020
165 Clouds 24 1015 64 10000 1.5 20 08:31 11.07.2020
166 Clouds 24 1015 60 10000 1 0 07:59 11.07.2020
167 Clouds 23 1015 60 10000 1 0 07:40 11.07.2020
168 Clouds 21 1015 68 10000 1 360 07:19 11.07.2020
169 Clouds 20 1015 68 10000 1.5 340 06:51 11.07.2020
170 Clouds 21 1014 60 10000 1 110 06:20 11.07.2020
171 Clouds 21 1014 60 10000 2.1 100 05:20 11.07.2020
172 Clouds 21 1014 60 10000 1.5 80 04:54 11.07.2020
173 Clouds 21 1014 60 10000 1.5 80 04:31 11.07.2020
174 Clouds 23 1015 53 10000 1.5 170 02:58 11.07.2020
175 Clouds 22 1015 53 10000 1.5 170 02:36 11.07.2020
176 Clear 23 1015 64 10000 0.5 0 01:27 11.07.2020
177 Clear 24 1015 64 10000 1 220 00:59 11.07.2020
178 Clear 24 1015 64 10000 1 220 00:38 11.07.2020
179 Clear 24 1016 64 10000 2.1 200 00:19 11.07.2020
180 Clear 25 1015 60 10000 2.1 210 23:56 10.07.2020
181 Clear 25 1015 60 10000 2.1 210 23:38 10.07.2020
182 Clear 25 1015 57 10000 1.5 220 23:18 10.07.2020
183 Clear 25 1015 57 10000 1 0 22:42 10.07.2020
184 Clear 26 1015 53 10000 1.5 220 22:19 10.07.2020
185 Clear 26 1015 53 10000 1.5 240 21:40 10.07.2020
186 Clear 27 1013 37 10000 3.6 240 21:21 10.07.2020
187 Clear 28 1013 37 10000 3.6 240 20:59 10.07.2020
188 Clear 28 1013 37 10000 3.6 240 20:40 10.07.2020
189 Clouds 29 1013 31 10000 4.6 240 20:21 10.07.2020
190 Clouds 30 1013 31 10000 4.6 240 19:57 10.07.2020
191 Clouds 30 1013 31 10000 4.6 240 19:39 10.07.2020
192 Clouds 31 1013 24 10000 4.1 260 19:19 10.07.2020
193 Clouds 32 1013 24 10000 4.1 260 18:41 10.07.2020
194 Clouds 31 1014 35 10000 4.6 260 18:20 10.07.2020
195 Clouds 33 1014 33 10000 5.7 270 17:57 10.07.2020
196 Clouds 33 1014 33 10000 5.7 270 17:57 10.07.2020
197 Clear 33 1014 26 10000 4.6 260 17:38 10.07.2020
198 Clear 33 1014 26 10000 4.6 260 17:20 10.07.2020
199 Clear 34 1014 26 10000 4.6 260 16:42 10.07.2020
200 Clear 33 1014 24 10000 4.1 250 16:20 10.07.2020
201 Clear 34 1014 24 10000 4.1 250 15:45 10.07.2020
202 Clear 34 1014 23 10000 4.1 230 15:25 10.07.2020
203 Clear 34 1014 23 10000 4.1 230 14:55 10.07.2020
204 Clear 34 1014 23 10000 4.1 230 14:37 10.07.2020
205 Clear 33 1015 28 10000 2.6 210 14:19 10.07.2020
206 Clear 33 1015 28 10000 2.6 210 13:57 10.07.2020
207 Clear 33 1015 28 10000 2.6 210 13:38 10.07.2020
208 Clear 33 1015 31 10000 2.1 220 13:20 10.07.2020
209 Clear 33 1015 31 10000 2.1 220 12:44 10.07.2020
210 Clear 32 1015 33 10000 2.1 0 12:25 10.07.2020
211 Clear 32 1015 38 10000 2.6 190 11:59 10.07.2020
212 Clear 31 1015 40 10000 1.5 210 11:38 10.07.2020
213 Clear 31 1015 42 10000 1 0 11:19 10.07.2020
214 Clear 30 1015 42 10000 1 0 10:55 10.07.2020
215 Clear 29 1015 42 10000 1 0 10:36 10.07.2020
216 Clear 28 1015 45 10000 1 0 10:18 10.07.2020
217 Clear 29 1015 45 10000 1 0 09:38 10.07.2020
218 Clear 26 1015 64 10000 1 0 09:20 10.07.2020
219 Clear 24 1015 64 10000 1 0 08:58 10.07.2020
220 Clear 25 1015 64 10000 1 0 08:39 10.07.2020
221 Clear 25 1015 57 10000 2.6 20 08:21 10.07.2020
222 Clear 24 1015 64 10000 2.1 30 07:42 10.07.2020
223 Clear 24 1015 60 10000 1.5 80 07:22 10.07.2020
224 Clear 23 1015 64 10000 1 10 06:51 10.07.2020
225 Clear 22 1015 64 10000 2.1 60 06:24 10.07.2020
226 Clear 22 1015 64 10000 1 70 05:19 10.07.2020
227 Clear 23 1015 60 10000 0.5 0 03:39 10.07.2020
228 Clear 24 1016 64 10000 1.5 190 02:53 10.07.2020
229 Clear 24 1016 64 10000 1 200 01:50 10.07.2020
230 Clear 25 1016 57 10000 1 220 00:49 10.07.2020
231 Clear 25 1016 57 10000 1.5 220 00:21 10.07.2020
232 Clear 25 1016 54 10000 1.5 200 23:49 09.07.2020
233 Clear 26 1016 54 10000 2.1 190 23:24 09.07.2020
234 Clear 27 1016 54 10000 2.1 190 22:59 09.07.2020
235 Clear 27 1016 54 10000 3.1 200 22:41 09.07.2020
236 Clear 27 1016 54 10000 3.1 200 22:21 09.07.2020
237 Clear 28 1016 51 10000 2.6 230 21:57 09.07.2020
238 Clear 28 1016 51 10000 2.6 230 21:38 09.07.2020
239 Clear 29 1015 31 10000 4.1 270 21:19 09.07.2020
240 Clear 30 1015 31 10000 4.1 270 20:45 09.07.2020
241 Clear 31 1014 26 10000 4.6 270 20:26 09.07.2020
242 Clear 31 1014 26 10000 4.6 270 19:59 09.07.2020
243 Clear 31 1014 26 10000 4.6 270 19:41 09.07.2020
244 Clear 31 1014 27 10000 6.7 260 19:21 09.07.2020
245 Clear 31 1014 27 10000 6.7 260 18:43 09.07.2020
246 Clear 32 1015 30 10000 3.6 260 18:24 09.07.2020
247 Clear 33 1015 30 10000 3.6 260 17:56 09.07.2020
248 Clear 33 1015 30 10000 3.6 260 17:38 09.07.2020
249 Clouds 32 1015 31 10000 5.1 250 17:19 09.07.2020
250 Clouds 33 1015 31 10000 5.1 250 16:56 09.07.2020
251 Clouds 33 1015 31 10000 5.1 250 16:37 09.07.2020
252 Clouds 33 1015 38 10000 4.6 250 16:19 09.07.2020
253 Clouds 33 1015 38 10000 4.6 250 15:55 09.07.2020
254 Clouds 33 1015 38 10000 4.6 250 15:36 09.07.2020
255 Clouds 33 1015 30 10000 2.6 240 15:18 09.07.2020
256 Clouds 33 1015 30 10000 2.6 240 14:57 09.07.2020
257 Clouds 34 1015 30 10000 2.6 240 14:38 09.07.2020
258 Clouds 34 1016 33 10000 2.1 210 14:19 09.07.2020
259 Clouds 33 1016 33 10000 2.1 210 13:41 09.07.2020
260 Clouds 32 1016 38 10000 1 0 13:21 09.07.2020
261 Clouds 32 1016 38 10000 1 0 12:59 09.07.2020
262 Clouds 32 1016 38 10000 1 0 12:39 09.07.2020
263 Clear 32 1017 38 10000 2.1 0 12:20 09.07.2020
264 Clear 31 1017 45 10000 1.5 0 11:55 09.07.2020
265 Clear 31 1017 45 10000 1.5 0 11:37 09.07.2020
266 Clear 30 1017 58 10000 1 0 11:18 09.07.2020
267 Clear 29 1017 58 10000 1 0 10:42 09.07.2020
268 Clear 27 1017 73 10000 1 0 10:24 09.07.2020
269 Clear 27 1017 73 10000 1 0 09:59 09.07.2020
270 Clear 27 1017 73 10000 1 0 09:41 09.07.2020
271 Clear 25 1017 88 10000 1.5 0 09:21 09.07.2020
272 Clear 23 1017 88 10000 1.5 0 08:45 09.07.2020
273 Clear 23 1017 73 10000 1.5 20 08:25 09.07.2020
274 Clear 22 1016 73 10000 1.5 50 07:47 09.07.2020
275 Clear 21 1016 68 10000 1 0 07:24 09.07.2020
276 Clear 21 1016 73 10000 0.5 0 06:54 09.07.2020
277 Clear 21 1016 77 10000 0.5 0 06:20 09.07.2020
278 Clear 21 1016 68 10000 0.5 0 05:26 09.07.2020
279 Clear 21 1016 68 10000 1 60 04:28 09.07.2020
280 Clear 22 1016 78 10000 1 100 02:21 09.07.2020
281 Clear 22 1016 73 10000 1 100 01:39 09.07.2020
282 Clear 23 1016 83 10000 1 0 00:53 09.07.2020
283 Clear 23 1016 83 10000 1.5 240 00:25 09.07.2020
284 Clear 23 1016 83 10000 1 240 23:47 08.07.2020
285 Clear 24 1016 88 10000 1.5 230 23:28 08.07.2020
286 Clear 24 1016 88 10000 1.5 230 22:58 08.07.2020
287 Clear 24 1016 88 10000 2.1 220 22:40 08.07.2020
288 Clear 24 1016 78 10000 2.6 230 22:22 08.07.2020
289 Clear 25 1016 78 10000 2.1 240 21:58 08.07.2020
290 Clear 26 1015 58 10000 3.6 220 21:39 08.07.2020
291 Clear 26 1015 58 10000 3.6 220 21:20 08.07.2020
292 Clear 27 1015 58 10000 3.6 220 20:55 08.07.2020
293 Clear 27 1015 58 10000 3.6 220 20:37 08.07.2020
294 Clear 27 1014 58 10000 3.6 250 20:19 08.07.2020
295 Clear 28 1014 58 10000 3.6 250 19:43 08.07.2020
296 Clear 28 1014 48 10000 4.6 250 19:22 08.07.2020
297 Clear 28 1014 48 10000 4.6 250 19:22 08.07.2020
298 Clear 29 1014 48 10000 4.6 250 18:57 08.07.2020
299 Clear 30 1014 48 10000 4.6 250 18:39 08.07.2020
300 Clear 30 1015 45 10000 4.6 230 18:19 08.07.2020
301 Clear 30 1015 45 10000 4.6 230 17:55 08.07.2020
302 Clear 30 1015 45 10000 4.6 230 17:37 08.07.2020
303 Clear 30 1015 43 10000 4.6 210 17:19 08.07.2020
304 Clear 31 1015 43 10000 4.6 210 16:40 08.07.2020
305 Clear 31 1015 40 10000 3.6 240 16:22 08.07.2020
306 Clear 31 1015 40 10000 3.6 240 15:59 08.07.2020
307 Clear 31 1015 40 10000 3.6 240 15:41 08.07.2020
308 Clouds 29 1015 69 10000 3.1 250 15:19 08.07.2020
309 Clouds 29 1015 69 10000 3.1 250 14:49 08.07.2020
310 Clouds 29 1015 69 10000 3.1 250 14:30 08.07.2020
311 Clouds 31 1015 35 10000 1 0 13:59 08.07.2020
312 Clouds 31 1015 35 10000 1 0 13:41 08.07.2020
313 Clear 30 1015 39 10000 1.5 0 13:22 08.07.2020
314 Clear 30 1015 39 10000 1.5 0 12:45 08.07.2020
315 Clear 30 1015 45 10000 1.57 214 12:21 08.07.2020
316 Clear 29 1015 45 10000 1.57 214 11:57 08.07.2020
317 Clear 29 1015 45 10000 1.57 214 11:38 08.07.2020
318 Clear 29 1015 48 10000 1.5 0 11:20 08.07.2020
319 Clear 29 1015 48 10000 1.5 0 11:20 08.07.2020
320 Clear 27 1015 51 10000 1.5 0 10:44 08.07.2020
321 Clear 27 1015 51 10000 1.5 0 10:44 08.07.2020
322 Clear 27 1015 54 10000 1.5 0 10:26 08.07.2020
323 Clear 26 1015 53 10000 1.5 40 09:47 08.07.2020
324 Clear 25 1015 53 10000 2.1 30 09:26 08.07.2020
325 Clear 24 1015 53 10000 2.1 30 08:58 08.07.2020
326 Clear 23 1015 56 10000 2.6 30 08:39 08.07.2020
327 Clear 23 1015 56 10000 2.6 30 08:20 08.07.2020
328 Clear 23 1015 56 10000 2.6 30 08:20 08.07.2020
329 Clear 22 1014 60 10000 2.1 40 07:46 08.07.2020
330 Clear 21 1014 60 10000 2.6 50 07:22 08.07.2020
331 Clear 21 1014 60 10000 2.1 40 06:53 08.07.2020
332 Clear 21 1014 60 10000 2.1 50 06:32 08.07.2020
333 Clear 21 1014 64 10000 2.6 50 05:50 08.07.2020
334 Clear 21 1014 64 10000 1.5 50 04:58 08.07.2020
335 Clear 22 1014 64 10000 2.1 40 04:20 08.07.2020
336 Clear 23 1013 60 10000 2.1 40 02:20 08.07.2020
337 Clear 24 1013 60 10000 2.1 30 01:39 08.07.2020
338 Clear 24 1013 60 10000 2.1 350 00:56 08.07.2020
339 Clear 25 1013 57 10000 1 0 00:22 08.07.2020
340 Clear 25 1013 57 10000 1 270 23:44 07.07.2020
341 Clear 25 1013 57 10000 0.5 0 23:22 07.07.2020
342 Clear 26 1012 50 10000 0.5 0 22:58 07.07.2020
343 Clear 26 1012 50 10000 0.5 0 22:39 07.07.2020
344 Clear 26 1012 50 10000 1 220 22:20 07.07.2020
345 Clear 26 1012 50 10000 1 220 22:20 07.07.2020
346 Clear 27 1012 54 10000 2.1 250 21:58 07.07.2020
347 Clear 26 1012 54 10000 2.1 250 21:38 07.07.2020
348 Clear 26 1012 54 10000 2.1 250 21:38 07.07.2020
349 Clear 28 1011 42 10000 2.1 210 21:19 07.07.2020
350 Clear 28 1011 42 10000 2.1 210 20:55 07.07.2020
351 Clear 29 1011 42 10000 2.1 210 20:36 07.07.2020
352 Clear 29 1010 45 10000 3.1 240 20:18 07.07.2020
353 Clear 29 1010 45 10000 3.1 240 20:18 07.07.2020
354 Clear 30 1010 45 10000 3.1 240 19:39 07.07.2020
355 Clear 30 1010 38 10000 4.6 240 19:20 07.07.2020
356 Clear 30 1010 38 10000 4.6 240 18:55 07.07.2020
357 Clear 31 1010 38 10000 4.6 240 18:37 07.07.2020
358 Clear 31 1010 31 10000 5.7 230 18:19 07.07.2020
359 Clear 31 1010 31 10000 5.7 230 17:56 07.07.2020
360 Clear 31 1010 31 10000 5.7 230 17:37 07.07.2020
361 Clouds 32 1010 30 10000 5.1 230 17:18 07.07.2020
362 Clouds 32 1010 30 10000 5.1 230 16:42 07.07.2020
363 Clouds 32 1009 38 10000 7.2 240 16:22 07.07.2020
364 Clouds 32 1009 38 10000 7.2 240 15:56 07.07.2020
365 Clouds 32 1009 38 10000 7.2 240 15:37 07.07.2020
366 Clouds 33 1009 26 10000 3.1 290 15:19 07.07.2020
367 Clouds 33 1009 26 10000 3.1 290 14:45 07.07.2020
368 Clouds 32 1009 27 10000 2.6 190 14:24 07.07.2020
369 Clouds 32 1009 27 10000 2.6 190 13:44 07.07.2020
370 Clear 32 1009 31 10000 2.1 70 13:21 07.07.2020
371 Clear 32 1009 31 10000 2.1 70 12:57 07.07.2020
372 Clear 32 1009 31 10000 2.1 70 12:38 07.07.2020
373 Clear 31 1009 35 10000 1 0 12:20 07.07.2020
374 Clear 31 1009 35 10000 1 0 11:44 07.07.2020
375 Clear 30 1008 42 10000 1 0 11:22 07.07.2020
376 Clear 30 1008 42 10000 1 0 10:58 07.07.2020
377 Clear 30 1008 42 10000 1 0 10:40 07.07.2020
378 Clear 28 1008 57 10000 2.6 350 10:21 07.07.2020
379 Clear 27 1008 57 10000 2.6 350 09:43 07.07.2020
380 Clear 27 1008 57 10000 2.6 350 09:43 07.07.2020
381 Clear 26 1008 64 10000 1.5 0 09:22 07.07.2020
382 Clear 25 1008 64 10000 1.5 0 08:58 07.07.2020
383 Clear 24 1008 64 10000 1.5 0 08:39 07.07.2020
384 Clear 24 1007 60 10000 2.1 50 08:19 07.07.2020
385 Clear 22 1007 73 10000 1.5 30 07:38 07.07.2020
386 Clear 22 1007 77 10000 1 350 07:19 07.07.2020
387 Clear 22 1007 68 10000 1 0 06:46 07.07.2020
388 Clear 21 1007 88 10000 0.5 100 06:26 07.07.2020
389 Clear 21 1007 88 10000 0.5 0 05:47 07.07.2020
390 Clear 21 1007 68 10000 1 230 04:58 07.07.2020
391 Clear 21 1007 56 10000 1 160 03:54 07.07.2020
392 Clear 21 1007 56 10000 1 160 03:32 07.07.2020
393 Clear 22 1007 69 10000 1.5 200 01:55 07.07.2020
394 Clear 23 1007 64 10000 2.1 200 01:20 07.07.2020
395 Clear 24 1008 57 10000 2.1 200 00:41 07.07.2020
396 Clear 24 1008 53 10000 1.5 240 00:22 07.07.2020
397 Clear 25 1008 47 10000 1.5 210 23:44 06.07.2020
398 Clear 25 1007 44 10000 2.1 200 23:25 06.07.2020
399 Clear 26 1007 47 10000 2.1 200 22:59 06.07.2020
400 Clear 26 1007 47 10000 2.1 200 22:39 06.07.2020
401 Clear 26 1007 47 10000 1.5 210 22:19 06.07.2020
402 Clear 26 1007 47 10000 1.5 210 22:19 06.07.2020
403 Clear 26 1007 47 10000 1.5 220 21:57 06.07.2020
404 Clear 28 1006 30 10000 3.1 240 21:37 06.07.2020
405 Clear 28 1006 30 10000 3.1 240 21:18 06.07.2020
406 Clear 29 1006 30 10000 3.1 240 20:41 06.07.2020
407 Clear 29 1007 33 10000 5.1 250 20:22 06.07.2020
408 Clear 29 1007 33 10000 5.1 250 19:59 06.07.2020
409 Clear 30 1007 33 10000 5.1 250 19:41 06.07.2020
410 Clear 30 1007 31 10000 5.1 260 19:23 06.07.2020
411 Clear 31 1007 31 10000 5.1 260 18:58 06.07.2020
412 Clear 32 1007 31 10000 5.1 270 18:40 06.07.2020
413 Clear 32 1007 31 10000 5.1 270 18:22 06.07.2020
414 Clear 32 1007 31 10000 5.1 270 17:56 06.07.2020
415 Clear 32 1007 31 10000 5.1 270 17:37 06.07.2020
416 Clear 32 1007 29 10000 5.1 260 17:19 06.07.2020
417 Clear 32 1007 29 10000 5.1 260 16:43 06.07.2020
418 Clear 32 1007 24 10000 1 0 16:23 06.07.2020
419 Clear 32 1007 24 10000 1 0 15:57 06.07.2020
420 Clear 33 1007 24 10000 1 0 15:38 06.07.2020
421 Clear 32 1008 27 10000 2.1 170 15:19 06.07.2020
422 Clear 32 1008 27 10000 2.1 170 14:55 06.07.2020
423 Clear 32 1008 27 10000 2.1 170 14:36 06.07.2020
424 Clear 32 1009 29 10000 1.5 0 14:18 06.07.2020
425 Clear 32 1009 29 10000 1.5 0 13:40 06.07.2020
426 Clear 31 1009 31 10000 1 0 13:21 06.07.2020
427 Clear 31 1009 31 10000 1 0 12:44 06.07.2020
428 Clear 31 1009 35 10000 1.5 0 12:20 06.07.2020
429 Clear 30 1009 35 10000 1.5 0 11:59 06.07.2020
430 Clear 29 1009 35 10000 1.5 0 11:40 06.07.2020
431 Clear 29 1010 39 10000 3.1 350 11:22 06.07.2020
432 Clear 29 1010 39 10000 3.1 350 10:58 06.07.2020
433 Clear 29 1010 39 10000 3.1 350 10:58 06.07.2020
434 Clear 28 1010 39 10000 3.1 350 10:40 06.07.2020
435 Clear 28 1010 47 10000 3.1 40 10:19 06.07.2020
436 Clear 26 1010 53 10000 3.1 40 09:46 06.07.2020
437 Clear 25 1010 49 10000 2.1 350 09:22 06.07.2020
438 Clear 25 1010 49 10000 2.1 350 09:22 06.07.2020
439 Clear 24 1010 49 10000 2.1 350 08:59 06.07.2020
440 Clear 23 1010 49 10000 2.1 350 08:40 06.07.2020
441 Clear 23 1010 60 10000 3.6 50 08:20 06.07.2020
442 Clear 22 1010 64 10000 3.6 50 07:47 06.07.2020
443 Clear 22 1010 64 10000 2.6 60 07:29 06.07.2020
444 Clear 20 1010 64 10000 2.6 60 06:45 06.07.2020
445 Clear 20 1010 72 10000 2.1 50 06:27 06.07.2020
446 Clear 20 1010 68 10000 2.1 40 05:44 06.07.2020
447 Clear 21 1010 68 10000 1.5 50 05:25 06.07.2020
448 Clear 21 1011 64 10000 1 10 03:52 06.07.2020
449 Clear 23 1011 49 10000 1 0 02:25 06.07.2020
450 Clear 24 1012 50 10000 2.1 80 01:44 06.07.2020
451 Clear 24 1012 41 10000 2.1 40 00:39 06.07.2020
452 Clear 24 1012 44 10000 2.6 350 00:21 06.07.2020
453 Clear 26 1012 41 10000 2.6 360 23:45 05.07.2020
454 Clear 26 1012 47 10000 1.5 0 23:27 05.07.2020
455 Clear 25 1012 47 10000 1.5 0 22:59 05.07.2020
456 Clear 26 1012 57 10000 1 0 22:41 05.07.2020
457 Clear 26 1012 57 10000 1 0 22:41 05.07.2020
458 Clear 26 1011 61 10000 1.5 230 22:20 05.07.2020
459 Clear 26 1011 54 10000 1.5 0 21:58 05.07.2020
460 Clear 27 1011 54 10000 1.5 0 21:40 05.07.2020
461 Clear 30 1010 27 10000 5.1 360 21:18 05.07.2020
462 Clear 30 1010 27 10000 5.1 360 20:58 05.07.2020
463 Clear 30 1010 27 10000 5.1 360 20:39 05.07.2020
464 Clear 31 1011 24 10000 5.1 10 20:20 05.07.2020
465 Clear 31 1011 24 10000 5.1 10 20:20 05.07.2020
466 Clear 30 1011 24 10000 5.1 10 19:43 05.07.2020
467 Clear 31 1011 40 10000 4.1 260 19:22 05.07.2020
468 Clouds 31 1012 40 10000 4.1 260 18:58 05.07.2020
469 Clouds 32 1012 40 10000 4.1 260 18:40 05.07.2020
470 Clear 32 1012 21 10000 4.1 10 18:21 05.07.2020
471 Clear 32 1012 21 10000 4.1 10 17:55 05.07.2020
472 Clear 32 1012 21 10000 4.1 10 17:37 05.07.2020
473 Clear 32 1012 24 10000 1.5 0 17:18 05.07.2020
474 Clear 33 1012 24 10000 1.5 0 16:42 05.07.2020
475 Clear 33 1013 24 10000 1.5 0 16:24 05.07.2020
476 Clear 33 1013 24 10000 1.5 0 15:54 05.07.2020
477 Clear 33 1013 24 10000 1.5 0 15:36 05.07.2020
478 Clear 33 1013 25 10000 3.1 340 15:18 05.07.2020
479 Clear 32 1013 25 10000 3.1 340 14:40 05.07.2020
480 Clear 32 1014 27 10000 2.1 320 14:20 05.07.2020
481 Clear 32 1014 27 10000 2.1 320 14:20 05.07.2020
482 Clear 32 1014 27 10000 2.1 320 13:42 05.07.2020
483 Clear 31 1014 30 10000 2.6 360 13:23 05.07.2020
484 Clear 30 1014 30 10000 2.6 360 12:47 05.07.2020
485 Clear 29 1014 32 10000 0.92 13 12:27 05.07.2020
486 Clear 29 1014 32 10000 0.92 13 11:58 05.07.2020
487 Clear 29 1014 32 10000 0.92 13 11:58 05.07.2020
488 Clear 28 1014 32 10000 0.92 13 11:40 05.07.2020
489 Clear 28 1014 36 10000 5.1 10 11:21 05.07.2020
490 Clear 27 1014 36 10000 5.1 10 10:58 05.07.2020
491 Clear 27 1014 36 10000 5.1 10 10:39 05.07.2020
492 Clear 25 1014 56 10000 1.5 0 10:19 05.07.2020
493 Clear 24 1014 56 10000 1.5 0 09:55 05.07.2020
494 Clear 24 1014 56 10000 1.5 0 09:37 05.07.2020
495 Clear 23 1014 56 10000 4.6 30 09:18 05.07.2020
496 Clear 22 1014 64 10000 4.6 20 08:43 05.07.2020
497 Clear 21 1014 72 10000 4.1 40 08:25 05.07.2020
498 Clear 20 1014 68 10000 3.6 30 07:46 05.07.2020
499 Clear 20 1014 68 10000 4.1 40 07:27 05.07.2020
500 Clear 19 1014 77 10000 2.1 40 06:50 05.07.2020
501 Clear 20 1014 77 10000 3.1 40 05:18 05.07.2020
502 Clear 20 1015 88 10000 1 30 03:20 05.07.2020
503 Clear 20 1015 82 10000 1.5 20 02:41 05.07.2020
504 Clouds 21 1015 82 10000 2.1 30 01:59 05.07.2020
505 Clouds 21 1015 82 10000 1 20 01:32 05.07.2020
506 Clouds 21 1015 77 10000 2.1 60 00:54 05.07.2020
507 Clouds 22 1015 73 10000 1.5 80 00:31 05.07.2020
508 Clouds 22 1015 73 10000 1.5 40 23:59 04.07.2020
509 Clouds 22 1015 73 10000 1.5 40 23:41 04.07.2020
510 Clouds 23 1011 69 0 0.89 1 23:23 04.07.2020
511 Clouds 23 1011 66 0 2.09 356 22:43 04.07.2020
512 Clouds 23 1011 64 0 1.34 25 22:25 04.07.2020
513 Clouds 23 1011 64 0 0.45 344 21:59 04.07.2020
514 Clouds 24 1011 63 0 0.89 31 21:40 04.07.2020
515 Clouds 24 1011 61 0 0.89 346 21:22 04.07.2020
516 Clouds 25 1010 56 0 1.34 348 20:54 04.07.2020
517 Clouds 25 1011 54 0 1.34 1 20:36 04.07.2020
518 Clouds 26 1014 50 10000 4.1 350 20:18 04.07.2020
519 Clouds 26 1014 50 10000 4.1 350 19:41 04.07.2020
520 Rain 26 1014 50 10000 4.1 350 19:21 04.07.2020
521 Clouds 26 1015 60 10000 3.6 20 18:55 04.07.2020
522 Clouds 25 1015 69 10000 8.7 10 18:36 04.07.2020
523 Clouds 25 1015 69 10000 8.7 10 18:18 04.07.2020
524 Clouds 25 1015 69 10000 8.7 10 17:41 04.07.2020
525 Clouds 26 1015 73 10000 4.1 290 17:22 04.07.2020
526 Clouds 27 1015 73 10000 4.1 290 16:56 04.07.2020
527 Clouds 26 1015 73 10000 4.1 290 16:37 04.07.2020
528 Clouds 25 1013 78 10000 4.1 120 16:18 04.07.2020
529 Clouds 25 1013 78 10000 4.1 120 15:42 04.07.2020
530 Thunderstorm 24 1015 88 10000 2.6 270 15:24 04.07.2020
531 Thunderstorm 23 1015 88 10000 2.6 270 14:58 04.07.2020
532 Thunderstorm 23 1015 88 10000 2.6 270 14:37 04.07.2020
533 Rain 24 1014 83 6000 4.1 160 14:18 04.07.2020
534 Rain 24 1014 83 6000 4.1 160 13:56 04.07.2020
535 Rain 24 1014 83 6000 4.1 160 13:36 04.07.2020
536 Rain 26 1013 48 10000 2.1 80 13:18 04.07.2020
537 Rain 29 1013 48 10000 2.1 80 12:40 04.07.2020
538 Clouds 29 1014 48 10000 2.57 191 12:20 04.07.2020
539 Clouds 29 1014 48 10000 2.57 191 11:45 04.07.2020
540 Clouds 29 1014 58 10000 5.1 200 11:25 04.07.2020
541 Clouds 29 1014 58 10000 5.1 200 10:59 04.07.2020
542 Clouds 28 1014 61 10000 3.6 180 10:39 04.07.2020
543 Clouds 27 1013 69 10000 1.5 0 10:20 04.07.2020
544 Clouds 27 1013 69 10000 1.5 0 09:55 04.07.2020
545 Clouds 26 1013 69 10000 1.5 0 09:36 04.07.2020
546 Clouds 25 1013 69 10000 1.5 0 09:18 04.07.2020
547 Clouds 24 1013 69 10000 1.5 0 08:45 04.07.2020
548 Clouds 25 1013 78 8000 2.1 160 08:26 04.07.2020
549 Clouds 23 1013 88 8000 2.1 160 07:43 04.07.2020
550 Clouds 23 1013 94 10000 2.1 190 07:25 04.07.2020
551 Clouds 22 1013 94 10000 1 0 06:48 04.07.2020
552 Clear 22 1012 83 10000 1 0 06:20 04.07.2020
553 Clear 23 1012 83 10000 1.5 120 05:32 04.07.2020
554 Clouds 23 1013 88 10000 2.6 140 04:23 04.07.2020
555 Clouds 24 1013 94 10000 3.1 220 02:49 04.07.2020
556 Clouds 24 1013 88 10000 3.1 190 01:54 04.07.2020
557 Clear 24 1013 88 10000 3.1 200 01:24 04.07.2020
558 Clear 25 1013 88 10000 3.6 200 00:40 04.07.2020
559 Clear 25 1013 83 10000 3.1 190 00:21 04.07.2020
560 Clouds 25 1013 83 10000 2.6 190 23:39 03.07.2020
561 Clouds 26 1013 83 10000 3.1 190 23:18 03.07.2020
562 Clouds 26 1013 83 10000 3.1 190 23:18 03.07.2020
563 Clouds 26 1013 83 10000 3.1 200 22:54 03.07.2020
564 Clouds 26 1013 83 10000 3.1 200 22:36 03.07.2020
565 Clouds 26 1012 83 10000 2.6 210 22:18 03.07.2020
566 Clouds 26 1012 78 10000 2.6 230 21:39 03.07.2020
567 Clear 27 1010 61 10000 4.1 230 21:20 03.07.2020
568 Clear 28 1010 61 10000 4.1 230 20:55 03.07.2020
569 Clear 28 1010 61 10000 4.1 230 20:36 03.07.2020
570 Rain 29 1010 55 10000 3.1 240 20:18 03.07.2020
571 Rain 29 1010 55 10000 3.1 240 19:40 03.07.2020
572 Rain 30 1010 52 10000 3.1 230 19:19 03.07.2020
573 Rain 30 1010 52 10000 3.1 230 18:54 03.07.2020
574 Rain 31 1010 52 10000 3.1 230 18:36 03.07.2020
575 Rain 32 1010 58 10000 4.1 230 18:18 03.07.2020
576 Rain 32 1010 46 10000 5.1 220 17:41 03.07.2020
577 Clear 32 1010 49 10000 4.1 240 17:21 03.07.2020
578 Clear 32 1010 49 10000 4.1 240 16:41 03.07.2020
579 Clear 32 1010 49 10000 4.6 240 16:23 03.07.2020
580 Clear 32 1010 49 10000 4.6 240 15:47 03.07.2020
581 Clouds 32 1010 52 10000 3.6 220 15:24 03.07.2020
582 Clouds 32 1010 52 10000 3.6 220 14:58 03.07.2020
583 Clouds 32 1010 52 10000 3.6 220 14:39 03.07.2020
584 Clear 32 1011 38 10000 1.5 0 14:20 03.07.2020
585 Clear 32 1011 38 10000 1.5 0 13:47 03.07.2020
586 Clouds 32 1011 58 10000 4.6 220 13:29 03.07.2020
587 Clear 33 1011 45 10000 1.5 0 12:57 03.07.2020
588 Clear 32 1011 45 10000 1.5 0 12:38 03.07.2020
589 Clear 31 1011 62 10000 1.5 0 12:19 03.07.2020
590 Clear 30 1011 62 10000 1.5 0 11:42 03.07.2020
591 Clear 30 1011 74 10000 1 0 11:23 03.07.2020
592 Clear 29 1011 74 10000 1 0 10:58 03.07.2020
593 Clear 29 1011 74 10000 1 0 10:39 03.07.2020
594 Clear 29 1011 65 10000 2.1 0 10:20 03.07.2020
595 Clear 27 1011 65 10000 1.5 0 09:54 03.07.2020
596 Clear 27 1011 83 10000 1 0 09:36 03.07.2020
597 Clear 26 1011 83 10000 1 0 09:18 03.07.2020
598 Clear 24 1011 83 10000 1 0 08:39 03.07.2020
599 Clear 25 1011 78 10000 1 0 08:18 03.07.2020
600 Clear 24 1011 69 10000 0.5 0 07:48 03.07.2020
601 Clear 24 1011 69 10000 1 0 07:26 03.07.2020
602 Clear 23 1011 73 10000 1 0 06:49 03.07.2020
603 Clear 23 1011 83 10000 1 0 06:18 03.07.2020
604 Clouds 23 1011 88 10000 1.5 130 04:53 03.07.2020
605 Clouds 23 1011 94 10000 1 0 03:28 03.07.2020
606 Clouds 23 1011 94 10000 1.5 220 02:47 03.07.2020
607 Clouds 23 1011 94 10000 1 230 02:25 03.07.2020
608 Clear 24 1011 94 10000 1.5 250 01:28 03.07.2020
609 Clear 24 1011 88 10000 1 0 00:49 03.07.2020
610 Clear 24 1011 88 10000 0.5 0 00:28 03.07.2020
611 Clear 25 1011 83 10000 1.5 270 23:47 02.07.2020
612 Clear 25 1011 78 10000 2.1 250 23:20 02.07.2020
613 Clear 25 1011 73 10000 1 240 22:58 02.07.2020
614 Clear 26 1011 73 10000 1 240 22:39 02.07.2020
615 Clear 26 1011 73 10000 1.5 250 22:20 02.07.2020
616 Clear 26 1011 73 10000 1.5 250 22:20 02.07.2020
617 Clear 27 1011 69 10000 1.5 260 21:55 02.07.2020
618 Clear 27 1011 69 10000 1.5 260 21:37 02.07.2020
619 Clear 28 1010 54 10000 1.5 0 21:18 02.07.2020
620 Clear 28 1010 54 10000 1.5 0 20:57 02.07.2020
621 Clear 29 1010 54 10000 1.5 0 20:39 02.07.2020
622 Clear 29 1010 45 10000 3.6 230 20:18 02.07.2020
623 Clear 30 1010 45 10000 3.6 230 19:41 02.07.2020
624 Clear 31 1010 38 10000 4.1 260 19:22 02.07.2020
625 Clear 31 1010 38 10000 4.1 260 18:57 02.07.2020
626 Clear 31 1010 38 10000 4.1 260 18:39 02.07.2020
627 Clear 33 1010 33 10000 4.1 240 18:20 02.07.2020
628 Clear 32 1010 33 10000 4.1 240 17:40 02.07.2020
629 Clear 33 1010 31 10000 4.6 240 17:20 02.07.2020
630 Clear 33 1010 31 10000 4.6 240 17:20 02.07.2020
631 Clear 33 1010 31 10000 4.6 240 16:56 02.07.2020
632 Clear 33 1010 31 10000 4.6 240 16:56 02.07.2020
633 Clear 33 1010 31 10000 4.6 240 16:38 02.07.2020
634 Clear 33 1011 33 10000 4.6 230 16:19 02.07.2020
635 Clear 33 1011 33 10000 4.6 230 15:55 02.07.2020
636 Clear 33 1011 33 10000 4.6 230 15:36 02.07.2020
637 Clear 33 1011 33 10000 4.6 230 15:36 02.07.2020
638 Clear 34 1011 32 10000 2.1 240 15:18 02.07.2020
639 Clear 33 1011 32 10000 2.1 240 14:42 02.07.2020
640 Clear 33 1011 33 10000 2.1 240 14:19 02.07.2020
641 Clear 33 1011 33 10000 2.1 240 13:55 02.07.2020
642 Clear 33 1011 33 10000 2.1 240 13:36 02.07.2020
643 Clear 33 1011 38 10000 2.6 240 13:18 02.07.2020
644 Clear 33 1011 38 10000 2.6 240 12:40 02.07.2020
645 Clear 32 1011 48 10000 1 0 12:21 02.07.2020
646 Clear 32 1011 48 10000 1 0 11:44 02.07.2020
647 Clear 31 1011 58 10000 1.5 0 11:26 02.07.2020
648 Clear 30 1011 58 10000 1.5 0 10:57 02.07.2020
649 Clear 30 1011 58 10000 1.5 0 10:39 02.07.2020
650 Clear 29 1011 69 10000 2.1 360 10:21 02.07.2020
651 Clear 27 1011 69 10000 2.1 360 09:42 02.07.2020
652 Clear 25 1012 78 10000 1.5 0 09:21 02.07.2020
653 Clear 26 1012 78 10000 1.5 0 08:57 02.07.2020
654 Clear 25 1012 78 10000 1.5 0 08:38 02.07.2020
655 Clear 24 1012 73 10000 1.5 50 08:19 02.07.2020
656 Clear 24 1012 73 10000 2.1 70 07:41 02.07.2020
657 Clear 23 1012 83 10000 1 0 07:20 02.07.2020
658 Clear 23 1012 78 10000 0.5 0 06:41 02.07.2020
659 Clear 22 1011 78 10000 1 200 06:20 02.07.2020
660 Clear 23 1011 78 10000 1.5 210 05:47 02.07.2020
661 Clear 23 1011 78 10000 1 100 04:49 02.07.2020
662 Clear 23 1012 83 10000 1.5 160 03:33 02.07.2020
663 Clear 24 1013 88 10000 1.5 190 01:48 02.07.2020
664 Clear 25 1013 73 10000 1 0 00:27 02.07.2020
665 Clear 25 1013 73 10000 1.5 230 23:55 01.07.2020
666 Clear 24 1013 73 10000 1.5 230 23:37 01.07.2020
667 Clear 25 1013 73 10000 1 0 23:18 01.07.2020
668 Clear 25 1013 78 10000 1 240 22:54 01.07.2020
669 Clear 26 1013 78 10000 1 240 22:36 01.07.2020
670 Clear 26 1012 73 10000 2.1 210 22:18 01.07.2020
671 Clear 26 1012 73 10000 2.6 210 21:54 01.07.2020
672 Clear 26 1012 73 10000 2.6 210 21:36 01.07.2020
673 Clear 28 1012 48 10000 4.1 280 21:18 01.07.2020
674 Clear 28 1012 48 10000 4.1 280 20:43 01.07.2020
675 Clear 29 1012 45 10000 4.1 250 20:25 01.07.2020
676 Clear 30 1012 45 10000 4.1 250 19:56 01.07.2020
677 Clear 29 1012 45 10000 4.1 250 19:38 01.07.2020
678 Clear 30 1012 40 10000 4.1 260 19:19 01.07.2020
679 Clear 31 1012 40 10000 4.1 260 18:42 01.07.2020
680 Clear 32 1012 38 10000 3.6 220 18:21 01.07.2020
681 Clear 32 1012 38 10000 3.6 220 17:59 01.07.2020
682 Clear 32 1012 38 10000 3.6 220 17:40 01.07.2020
683 Clear 32 1012 35 10000 5.1 260 17:19 01.07.2020
684 Clear 32 1012 35 10000 5.1 260 16:48 01.07.2020
685 Clear 32 1012 38 10000 4.6 240 16:29 01.07.2020
686 Clear 32 1012 38 10000 4.6 240 15:57 01.07.2020
687 Clear 32 1012 38 10000 4.6 240 15:39 01.07.2020
688 Clear 33 1013 35 10000 3.1 270 15:20 01.07.2020
689 Clear 33 1013 35 10000 3.1 270 14:44 01.07.2020
690 Clear 33 1013 40 10000 4.18 220 14:22 01.07.2020
691 Clear 33 1013 40 10000 4.18 220 13:59 01.07.2020
692 Clear 32 1013 40 10000 4.18 220 13:39 01.07.2020
693 Clear 32 1013 42 10000 1 0 13:20 01.07.2020
694 Clear 32 1013 42 10000 1 0 12:57 01.07.2020
695 Clear 31 1013 42 10000 1 0 12:38 01.07.2020
696 Clear 31 1014 48 10000 1.5 0 12:20 01.07.2020
697 Clear 31 1014 48 10000 1.5 0 11:44 01.07.2020
698 Clear 30 1014 48 10000 1.5 0 11:44 01.07.2020
699 Clear 31 1014 48 10000 1.5 0 11:44 01.07.2020
700 Clear 30 1014 61 10000 2.61 197 11:24 01.07.2020
701 Clear 29 1014 61 10000 2.61 197 10:58 01.07.2020
702 Clear 28 1014 61 10000 2.61 197 10:40 01.07.2020
703 Clear 28 1014 73 10000 1.72 182 10:21 01.07.2020
704 Clear 27 1014 73 10000 1.72 182 09:54 01.07.2020
705 Clear 27 1014 73 10000 1.72 182 09:36 01.07.2020
706 Clear 26 1014 78 10000 1.5 0 09:18 01.07.2020
707 Clear 25 1014 78 10000 1.5 0 08:41 01.07.2020
708 Clear 24 1014 64 10000 2.6 60 08:21 01.07.2020
709 Clear 24 1014 64 10000 1 0 07:54 01.07.2020
710 Clear 23 1014 64 10000 1 0 07:36 01.07.2020
711 Clear 22 1014 73 10000 1.5 90 07:18 01.07.2020
712 Clear 22 1014 73 10000 1 60 06:48 01.07.2020
713 Clear 21 1014 73 10000 1 80 06:25 01.07.2020
714 Clear 22 1014 73 10000 0.5 0 04:30 01.07.2020
715 Clear 22 1014 69 10000 0.5 0 03:45 01.07.2020
716 Clear 22 1014 68 10000 1.5 110 03:26 01.07.2020
717 Clear 23 1014 69 10000 1.5 110 02:35 01.07.2020
718 Clear 23 1014 78 10000 1.5 150 01:26 01.07.2020
719 Clear 24 1014 78 10000 2.1 210 00:40 01.07.2020
720 Clear 24 1014 73 10000 2.1 210 00:21 01.07.2020
721 Clear 24 1014 73 10000 1.5 210 23:40 30.06.2020
722 Clear 25 1014 73 10000 2.1 210 23:21 30.06.2020
723 Clear 25 1014 73 10000 2.6 200 22:43 30.06.2020
724 Clear 25 1014 69 10000 2.1 220 22:20 30.06.2020
725 Clear 26 1014 69 10000 1.5 250 21:55 30.06.2020
726 Clear 26 1014 69 10000 1.5 250 21:37 30.06.2020
727 Clear 26 1013 57 10000 4.1 230 21:19 30.06.2020
728 Clear 26 1013 57 10000 4.1 230 20:43 30.06.2020
729 Clear 27 1013 54 10000 4.6 220 20:21 30.06.2020
730 Clear 27 1013 54 10000 4.6 220 19:47 30.06.2020
731 Clear 29 1013 51 10000 4.6 210 19:22 30.06.2020
732 Clear 29 1013 51 10000 4.6 210 18:59 30.06.2020
733 Clear 29 1013 51 10000 4.6 210 18:41 30.06.2020
734 Clear 30 1013 45 10000 3.1 200 18:20 30.06.2020
735 Clear 29 1013 45 10000 3.1 200 17:40 30.06.2020
736 Clear 30 1013 45 10000 5.7 210 17:21 30.06.2020
737 Clear 30 1013 45 10000 5.7 210 16:59 30.06.2020
738 Clear 30 1013 45 10000 5.7 210 16:40 30.06.2020
739 Clear 31 1013 48 10000 5.1 200 16:21 30.06.2020
740 Clear 31 1013 48 10000 5.1 200 16:21 30.06.2020
741 Clear 30 1013 48 10000 5.1 200 15:56 30.06.2020
742 Clear 30 1013 48 10000 5.1 200 15:38 30.06.2020
743 Clouds 31 1013 45 10000 5.1 220 15:19 30.06.2020
744 Clouds 31 1013 45 10000 5.1 220 14:43 30.06.2020
745 Clouds 30 1013 45 10000 5.7 210 14:22 30.06.2020
746 Clouds 30 1013 45 10000 5.7 210 13:58 30.06.2020
747 Clouds 30 1013 48 10000 5.1 220 13:37 30.06.2020
748 Clouds 30 1013 48 10000 5.1 220 13:19 30.06.2020
749 Clouds 30 1013 48 10000 5.1 220 12:56 30.06.2020
750 Clouds 30 1013 48 10000 5.1 220 12:38 30.06.2020
751 Clear 30 1014 51 10000 4.1 170 12:19 30.06.2020
752 Clear 30 1014 51 10000 4.1 170 11:56 30.06.2020
753 Clear 29 1014 51 10000 4.1 170 11:38 30.06.2020
754 Clear 29 1014 51 10000 3.1 170 11:18 30.06.2020
755 Clear 28 1014 51 10000 3.1 170 10:54 30.06.2020
756 Clear 33 1015 27 10000 5.1 230 16:38 28.06.2020
757 Clouds 33 1015 26 10000 3.1 260 16:18 28.06.2020
758 Clouds 34 1015 26 10000 3.1 260 15:54 28.06.2020
759 Clouds 34 1015 26 10000 3.1 260 15:36 28.06.2020
760 Clear 34 1015 24 10000 3.1 230 15:18 28.06.2020
761 Clear 33 1015 24 10000 3.1 230 14:41 28.06.2020
762 Clear 33 1015 27 10000 1 0 14:23 28.06.2020
763 Clear 33 1015 27 10000 1 0 13:40 28.06.2020
764 Clear 33 1016 29 10000 2.1 30 13:21 28.06.2020
765 Clear 33 1016 29 10000 2.1 30 12:58 28.06.2020
766 Clear 32 1016 35 10000 1.46 243 12:38 28.06.2020
767 Clear 33 1016 29 10000 2.1 30 12:38 28.06.2020
768 Clear 33 1016 29 10000 2.1 30 12:38 28.06.2020
769 Clear 32 1016 35 10000 1.46 243 12:19 28.06.2020
770 Clear 31 1016 35 10000 1.46 243 11:59 28.06.2020
771 Clear 31 1016 35 10000 1.46 243 11:59 28.06.2020
772 Clear 31 1016 35 10000 1.46 243 11:40 28.06.2020
773 Clouds 30 1016 42 10000 1.5 0 11:20 28.06.2020
774 Clouds 31 1016 35 10000 1 0 10:58 28.06.2020
775 Clouds 29 1016 42 10000 1.5 0 10:40 28.06.2020
776 Clouds 29 1016 37 10000 0.5 0 10:21 28.06.2020
777 Clouds 26 1016 57 10000 1.5 0 09:41 28.06.2020
778 Clear 24 1016 64 10000 1 0 09:23 28.06.2020
779 Clear 24 1016 64 10000 1 0 08:56 28.06.2020
780 Clear 24 1016 64 10000 1 0 08:36 28.06.2020
781 Clouds 24 1016 56 10000 2.6 50 08:18 28.06.2020
782 Clouds 23 1016 56 10000 2.1 50 07:33 28.06.2020
783 Clouds 21 1015 64 10000 1 50 06:56 28.06.2020
784 Clouds 20 1015 63 10000 1.5 30 06:32 28.06.2020
785 Clouds 20 1015 60 10000 1.5 60 05:45 28.06.2020
786 Clouds 21 1015 56 10000 1.5 20 04:24 28.06.2020
787 Clouds 22 1016 49 10000 1 80 02:56 28.06.2020
788 Clouds 22 1016 46 10000 2.1 90 02:19 28.06.2020
789 Clouds 22 1016 46 10000 1.5 90 01:27 28.06.2020
790 Clouds 23 1016 46 10000 2.1 100 00:53 28.06.2020
791 Clouds 23 1016 47 10000 0.5 70 00:29 28.06.2020
792 Clouds 24 1016 49 10000 0.5 0 23:46 27.06.2020
793 Clouds 24 1016 44 10000 1 230 23:24 27.06.2020
794 Clouds 24 1016 44 10000 1 230 22:59 27.06.2020
795 Clouds 24 1016 44 10000 1 230 22:59 27.06.2020
796 Clouds 25 1016 41 10000 0.5 0 22:41 27.06.2020
797 Clouds 25 1016 41 10000 1 240 22:23 27.06.2020
798 Clouds 25 1016 41 10000 1 240 21:57 27.06.2020
799 Clouds 26 1016 41 10000 1 240 21:39 27.06.2020
800 Clear 27 1015 32 10000 4.1 280 21:20 27.06.2020
801 Clear 27 1015 32 10000 4.1 280 20:45 27.06.2020
802 Clear 28 1015 27 10000 4.1 270 20:19 27.06.2020
803 Clear 29 1015 27 10000 4.1 270 19:57 27.06.2020
804 Clear 30 1015 27 10000 5.1 230 19:37 27.06.2020
805 Clear 30 1015 27 10000 5.1 230 19:18 27.06.2020
806 Clear 31 1015 27 10000 5.1 230 18:47 27.06.2020
807 Clear 31 1015 25 10000 4.6 240 18:28 27.06.2020
808 Clear 31 1015 25 10000 4.6 240 17:59 27.06.2020
809 Clear 31 1015 25 10000 4.6 240 17:59 27.06.2020
810 Clear 32 1015 25 10000 4.6 240 17:39 27.06.2020
811 Clouds 32 1016 31 10000 4.6 250 17:19 27.06.2020
812 Clouds 32 1016 31 10000 4.1 230 16:48 27.06.2020
813 Clear 33 1015 23 10000 5.1 220 16:30 27.06.2020
814 Clear 33 1015 23 10000 5.1 220 15:59 27.06.2020
815 Clear 33 1015 23 10000 5.1 220 15:41 27.06.2020
816 Clear 33 1015 21 10000 3.1 210 15:21 27.06.2020
817 Clear 33 1015 21 10000 3.1 210 14:43 27.06.2020
818 Clear 33 1016 21 10000 1 0 14:25 27.06.2020
819 Clear 33 1016 21 10000 1 0 13:59 27.06.2020
820 Clear 33 1016 21 10000 1 0 13:38 27.06.2020
821 Clear 33 1016 27 10000 0.5 0 13:19 27.06.2020
822 Clear 32 1016 27 10000 0.5 0 12:58 27.06.2020
823 Clear 32 1016 27 10000 0.5 0 12:39 27.06.2020
824 Clear 31 1016 35 10000 1.27 217 12:21 27.06.2020
825 Clear 31 1016 35 10000 1.27 217 11:55 27.06.2020
826 Clear 31 1016 35 10000 1.27 217 11:36 27.06.2020
827 Clear 30 1016 30 10000 1.5 0 11:18 27.06.2020
828 Clear 29 1016 37 10000 2.6 60 10:38 27.06.2020
829 Clear 28 1016 42 10000 2.6 50 10:19 27.06.2020
830 Clear 27 1017 44 10000 2.6 40 09:41 27.06.2020
831 Clear 25 1017 50 10000 2.6 40 09:22 27.06.2020
832 Clear 24 1017 72 10000 1.5 0 08:58 27.06.2020
833 Clear 23 1017 72 10000 1.5 0 08:39 27.06.2020
834 Clear 23 1017 56 10000 3.1 60 08:20 27.06.2020
835 Clear 21 1017 64 10000 3.1 60 07:42 27.06.2020
836 Clear 21 1017 64 10000 3.1 60 07:42 27.06.2020
837 Clear 21 1017 68 10000 2.1 60 07:24 27.06.2020
838 Clear 19 1017 68 10000 1.5 40 06:38 27.06.2020
839 Clear 19 1017 68 10000 1.5 40 06:20 27.06.2020
840 Clear 20 1016 60 10000 1.64 8 04:23 27.06.2020
841 Clear 20 1016 60 10000 2.6 100 03:52 27.06.2020
842 Clear 21 1017 60 10000 0.5 0 02:49 27.06.2020
843 Clear 21 1016 56 10000 0.5 0 02:30 27.06.2020
844 Clear 21 1016 56 10000 1 0 01:42 27.06.2020
845 Clear 22 1016 56 10000 0.5 0 00:57 27.06.2020
846 Clear 22 1016 56 10000 0.5 0 00:30 27.06.2020
847 Clear 23 1016 53 10000 0.5 0 23:44 26.06.2020
848 Clear 23 1017 53 10000 0.5 0 23:25 26.06.2020
849 Clear 24 1017 56 10000 1.5 240 22:56 26.06.2020
850 Clear 24 1017 56 10000 1.5 240 22:38 26.06.2020
851 Clear 25 1016 53 10000 1 250 22:19 26.06.2020
852 Clear 25 1016 50 10000 2.1 270 21:57 26.06.2020
853 Clear 25 1016 50 10000 2.1 270 21:37 26.06.2020
854 Clear 26 1016 32 10000 3.1 280 21:19 26.06.2020
855 Clear 27 1016 32 10000 3.1 280 20:43 26.06.2020
856 Clear 28 1016 30 10000 4.1 260 20:20 26.06.2020
857 Clear 28 1016 30 10000 4.1 260 19:44 26.06.2020
858 Clear 30 1016 28 10000 4.6 230 19:23 26.06.2020
859 Clear 29 1016 28 10000 4.6 230 18:57 26.06.2020
860 Clear 29 1016 28 10000 4.6 230 18:37 26.06.2020
861 Clear 30 1016 27 10000 5.1 250 18:18 26.06.2020
862 Clear 30 1016 27 10000 5.1 250 17:43 26.06.2020
863 Clear 31 1017 27 10000 5.1 230 17:24 26.06.2020
864 Clear 31 1017 27 10000 5.1 230 16:49 26.06.2020
865 Clear 30 1017 32 10000 5.1 260 16:26 26.06.2020
866 Clear 31 1017 33 10000 5.1 250 15:55 26.06.2020
867 Clear 31 1017 33 10000 5.1 250 15:37 26.06.2020
868 Clear 32 1016 31 10000 4.1 210 15:18 26.06.2020
869 Clear 32 1016 31 10000 4.1 210 14:56 26.06.2020
870 Clear 32 1016 31 10000 4.1 210 14:37 26.06.2020
871 Clouds 31 1017 31 10000 4.05 229 14:19 26.06.2020
872 Clouds 31 1017 31 10000 4.05 229 13:43 26.06.2020
873 Clear 31 1017 33 10000 2.1 10 13:19 26.06.2020
874 Clear 31 1017 33 10000 2.1 10 12:42 26.06.2020
875 Clear 31 1018 37 10000 1.5 0 12:24 26.06.2020
876 Clear 30 1018 37 10000 1.5 0 11:59 26.06.2020
877 Clear 30 1018 37 10000 1.5 0 11:40 26.06.2020
878 Clear 30 1018 37 10000 2.1 300 11:22 26.06.2020
879 Clear 29 1017 39 10000 1 0 10:58 26.06.2020
880 Clear 29 1017 39 10000 1 0 10:58 26.06.2020
881 Clear 29 1018 37 10000 2.1 300 10:58 26.06.2020
882 Clear 29 1017 39 10000 1 0 10:39 26.06.2020
883 Clear 27 1018 64 10000 1.5 0 10:19 26.06.2020
884 Clear 26 1018 64 10000 1.5 0 09:45 26.06.2020
885 Clear 25 1018 77 10000 1 0 09:26 26.06.2020
886 Clear 24 1018 77 10000 1 0 08:59 26.06.2020
887 Clear 23 1018 77 10000 1 0 08:41 26.06.2020
888 Clear 23 1018 64 10000 1.5 30 08:23 26.06.2020
889 Clear 22 1018 64 10000 1.5 30 07:44 26.06.2020
890 Clear 22 1018 56 10000 1 0 07:22 26.06.2020
891 Clear 20 1018 56 10000 1.5 80 06:47 26.06.2020
892 Clear 19 1018 56 10000 1.5 90 06:28 26.06.2020
893 Clear 20 1018 52 10000 1 0 05:49 26.06.2020
894 Clear 20 1018 60 10000 1 130 04:42 26.06.2020
895 Clear 21 1018 68 10000 1 0 02:22 26.06.2020
896 Clear 22 1018 77 10000 0.5 0 01:22 26.06.2020
897 Clear 22 1018 77 10000 0.5 0 00:42 26.06.2020
898 Clear 23 1018 83 10000 0.5 0 00:20 26.06.2020
899 Clear 23 1018 73 10000 1 250 23:45 25.06.2020
900 Clear 23 1018 73 10000 1.5 230 23:20 25.06.2020
901 Clear 23 1018 73 10000 1.5 230 23:20 25.06.2020
902 Clear 24 1018 73 10000 1.5 230 22:57 25.06.2020
903 Clear 24 1018 73 10000 1.5 230 22:38 25.06.2020
904 Clear 25 1018 69 10000 2.1 210 22:19 25.06.2020
905 Clear 25 1018 69 10000 2.1 240 21:56 25.06.2020
906 Clear 24 1018 69 10000 2.1 240 21:38 25.06.2020
907 Clear 26 1017 47 10000 3.1 250 21:19 25.06.2020
908 Clear 26 1017 47 10000 3.1 250 20:45 25.06.2020
909 Clear 27 1017 35 10000 4.1 210 20:24 25.06.2020
910 Clear 28 1017 35 10000 4.1 210 19:59 25.06.2020
911 Clear 28 1017 35 10000 4.1 210 19:40 25.06.2020
912 Clear 28 1017 35 10000 4.1 210 19:19 25.06.2020
913 Clear 28 1017 35 10000 4.1 210 19:19 25.06.2020
914 Clear 29 1017 35 10000 4.6 220 18:58 25.06.2020
915 Clear 29 1017 35 10000 4.6 220 18:38 25.06.2020
916 Clear 30 1017 27 10000 3.6 210 18:19 25.06.2020
917 Clear 30 1017 27 10000 3.6 210 17:41 25.06.2020
918 Clear 30 1017 29 10000 3.6 250 17:19 25.06.2020
919 Clear 31 1017 29 10000 3.6 250 16:57 25.06.2020
920 Clear 31 1017 29 10000 3.6 250 16:57 25.06.2020
921 Clear 31 1017 29 10000 3.6 250 16:37 25.06.2020
922 Clear 31 1018 30 10000 4.1 250 16:18 25.06.2020
923 Clear 30 1018 30 10000 4.1 250 15:41 25.06.2020
924 Clear 31 1018 29 10000 4.6 240 15:22 25.06.2020
925 Clear 31 1018 29 10000 4.6 240 14:44 25.06.2020
926 Clear 31 1018 29 10000 4.1 200 14:25 25.06.2020
927 Clear 31 1018 29 10000 4.1 200 13:59 25.06.2020
928 Clear 31 1018 29 10000 4.1 200 13:41 25.06.2020
929 Clear 31 1018 28 10000 4.1 240 13:19 25.06.2020
930 Clear 31 1018 28 10000 4.1 240 12:46 25.06.2020
931 Clear 29 1018 32 10000 2.1 260 12:21 25.06.2020
932 Clear 29 1018 32 10000 2.1 260 11:59 25.06.2020
933 Clear 29 1018 32 10000 2.1 260 11:40 25.06.2020
934 Clear 29 1018 44 10000 2.79 191 11:21 25.06.2020
935 Clear 28 1018 44 10000 2.79 191 10:43 25.06.2020
936 Clear 27 1018 56 10000 1 0 10:25 25.06.2020
937 Clear 26 1018 56 10000 1 0 09:42 25.06.2020
938 Clear 24 1018 64 10000 1.5 0 09:23 25.06.2020
939 Clear 24 1018 64 10000 1.5 0 09:23 25.06.2020
940 -273 0 0 0 0 0 08:59 25.06.2020
941 Clear 24 1018 64 10000 1.5 0 08:41 25.06.2020
942 Clear 23 1018 56 10000 1.5 40 08:18 25.06.2020
943 Clear 21 1018 60 10000 1.5 10 07:42 25.06.2020
944 Clear 20 1018 68 10000 1 10 07:24 25.06.2020
945 Clear 19 1018 63 10000 0.5 0 06:44 25.06.2020
946 Clear 20 1018 63 10000 1 20 06:24 25.06.2020
947 Clear 20 1018 63 10000 1 20 05:32 25.06.2020
948 Clear 20 1018 56 10000 1 0 03:42 25.06.2020
949 Clear 21 1018 53 10000 1 0 02:56 25.06.2020
950 Clear 21 1018 53 10000 1 0 02:37 25.06.2020
951 Clear 22 1019 56 10000 1.5 70 01:43 25.06.2020
952 Clear 22 1019 64 10000 0.5 0 00:51 25.06.2020
953 Clear 23 1019 64 10000 1 20 00:25 25.06.2020
954 Clear 22 1019 64 10000 0.5 0 23:59 24.06.2020
955 Clear 22 1019 64 10000 0.5 0 23:38 24.06.2020
956 Clear 23 1019 64 10000 0.5 0 23:20 24.06.2020
957 Clear 23 1019 64 10000 1.5 210 22:43 24.06.2020
958 Clear 24 1018 56 10000 2.1 250 22:22 24.06.2020
959 Clear 24 1018 53 10000 2.6 250 21:57 24.06.2020
960 Clear 24 1018 53 10000 2.6 250 21:38 24.06.2020
961 Clear 26 1018 28 10000 3.1 220 21:20 24.06.2020
962 Clear 26 1018 28 10000 3.1 220 20:59 24.06.2020
963 Clear 26 1018 28 10000 3.1 220 20:59 24.06.2020
964 Clear 27 1018 28 10000 3.1 220 20:41 24.06.2020
965 Clear 28 1017 25 10000 3.6 210 20:22 24.06.2020
966 Clear 28 1017 25 10000 3.6 210 19:59 24.06.2020
967 Clear 28 1017 25 10000 3.6 210 19:39 24.06.2020
968 Clear 29 1017 25 10000 4.1 190 19:21 24.06.2020
969 Clear 29 1017 25 10000 4.1 190 18:58 24.06.2020
970 Clear 29 1017 25 10000 4.1 190 18:58 24.06.2020
971 Clear 29 1017 25 10000 4.1 190 18:40 24.06.2020
972 Clear 29 1017 23 10000 5.1 240 18:21 24.06.2020
973 Clear 30 1017 23 10000 5.1 240 17:56 24.06.2020
974 Clear 30 1017 23 10000 5.1 240 17:56 24.06.2020
975 Clear 30 1017 23 10000 5.1 240 17:38 24.06.2020
976 Clear 30 1017 20 10000 6.2 270 17:19 24.06.2020
977 Clear 30 1017 20 10000 6.2 270 16:56 24.06.2020
978 Clear 30 1017 20 10000 6.2 270 16:37 24.06.2020
979 Clear 31 1017 25 10000 4.1 220 16:19 24.06.2020
980 Clear 31 1017 25 10000 4.1 220 15:55 24.06.2020
981 Clear 31 1017 25 10000 4.1 220 15:37 24.06.2020
982 Clear 31 1017 25 10000 4.1 220 15:37 24.06.2020
983 Clouds 31 1017 22 10000 2.1 360 15:19 24.06.2020
984 Clouds 31 1017 22 10000 2.1 360 14:42 24.06.2020
985 Clouds 30 1017 27 10000 3.1 200 14:23 24.06.2020
986 Clouds 30 1017 27 10000 3.1 200 13:43 24.06.2020
987 Clouds 30 1017 27 10000 3.1 200 13:22 24.06.2020
988 Clear 30 1017 27 10000 1.5 0 12:55 24.06.2020
989 Clear 30 1017 27 10000 1.5 0 12:55 24.06.2020
990 Clear 30 1018 30 10000 3.1 20 12:36 24.06.2020
991 Clear 30 1018 30 10000 3.1 20 12:18 24.06.2020
992 Clear 29 1018 30 10000 3.1 20 11:42 24.06.2020
993 Clear 29 1018 34 10000 2.6 20 11:24 24.06.2020
994 Clear 28 1018 34 10000 2.6 20 10:59 24.06.2020
995 Clear 28 1018 34 10000 2.6 20 10:40 24.06.2020
996 Clear 27 1018 47 10000 0.85 28 10:18 24.06.2020
997 Clear 26 1018 47 10000 0.85 28 09:42 24.06.2020
998 Clear 25 1018 60 10000 1.86 22 09:21 24.06.2020
999 Clear 24 1018 60 10000 1.86 22 08:42 24.06.2020
1000 Clear 23 1017 49 10000 3.1 60 08:20 24.06.2020
1001 Clear 23 1017 56 10000 1.5 20 07:50 24.06.2020
1002 Clear 22 1017 64 10000 1.5 350 07:31 24.06.2020
1003 Clear 21 1017 63 10000 1 0 06:50 24.06.2020
1004 Clear 20 1017 63 10000 1 0 06:25 24.06.2020
1005 Clear 20 1017 63 10000 2.1 30 05:54 24.06.2020
1006 Clear 21 1017 56 10000 1 0 04:42 24.06.2020
1007 Clear 21 1016 52 10000 1.5 90 04:18 24.06.2020
1008 Clear 21 1017 49 10000 1.5 50 03:34 24.06.2020
1009 Clear 22 1017 46 10000 1.5 80 02:43 24.06.2020
1010 Clear 23 1017 43 10000 1.5 30 01:29 24.06.2020
1011 Clear 24 1017 43 10000 2.1 30 00:47 24.06.2020
1012 Clear 24 1017 43 10000 2.6 360 00:27 24.06.2020
1013 Clear 25 1017 36 10000 2.1 60 23:44 23.06.2020
1014 Clear 26 1017 38 10000 2.1 60 23:19 23.06.2020
1015 Clear 27 1016 34 10000 1.5 50 22:42 23.06.2020
1016 Clear 28 1016 34 10000 2.6 50 22:19 23.06.2020
1017 Clear 28 1015 30 10000 3.6 20 21:59 23.06.2020
1018 Clear 29 1015 30 10000 3.6 20 21:39 23.06.2020
1019 Clear 29 1015 25 10000 5.1 360 21:19 23.06.2020
1020 Clear 30 1015 25 10000 5.1 360 20:55 23.06.2020
1021 Clear 30 1015 25 10000 5.1 360 20:37 23.06.2020
1022 Clouds 31 1015 22 10000 6.2 360 20:18 23.06.2020
1023 Clouds 31 1015 22 10000 6.2 360 20:18 23.06.2020
1024 Clouds 31 1015 22 10000 6.2 360 19:44 23.06.2020
1025 Clouds 32 1014 27 10000 7.7 20 19:25 23.06.2020
1026 Clouds 32 1014 25 10000 5.7 40 18:42 23.06.2020
1027 Clouds 33 1014 22 10000 6.7 360 18:19 23.06.2020
1028 Clouds 33 1014 22 10000 6.7 360 17:56 23.06.2020
1029 Clouds 33 1014 22 10000 6.7 360 17:38 23.06.2020
1030 Clouds 33 1015 24 10000 5.1 350 17:19 23.06.2020
1031 Clouds 33 1015 24 10000 5.1 350 16:55 23.06.2020
1032 Clouds 33 1015 24 10000 5.1 20 16:36 23.06.2020
1033 Clouds 33 1015 24 10000 5.1 20 16:18 23.06.2020
1034 Clouds 33 1015 26 10000 4.6 10 15:43 23.06.2020
1035 Clear 33 1015 24 10000 4.6 10 15:24 23.06.2020
1036 Clear 33 1015 24 10000 4.6 10 14:56 23.06.2020
1037 Clear 33 1015 24 10000 4.6 10 14:37 23.06.2020
1038 Clear 32 1016 25 10000 5.1 10 14:18 23.06.2020
1039 Clear 32 1016 25 10000 5.1 10 13:45 23.06.2020
1040 Clear 32 1016 25 10000 5.1 10 13:25 23.06.2020
1041 Clear 31 1016 27 10000 3.1 40 12:55 23.06.2020
1042 Clear 31 1016 30 10000 5.1 10 12:37 23.06.2020
1043 Clear 30 1016 32 10000 4.6 350 12:18 23.06.2020
1044 Clear 29 1016 32 10000 4.6 350 11:42 23.06.2020
1045 Clear 29 1016 36 10000 4.1 10 11:22 23.06.2020
1046 Clear 28 1016 36 10000 4.1 10 10:58 23.06.2020
1047 Clear 28 1016 36 10000 4.1 10 10:40 23.06.2020
1048 Clear 26 1017 50 10000 2.1 20 10:22 23.06.2020
1049 Clear 26 1017 50 10000 2.1 20 09:56 23.06.2020
1050 Clear 25 1017 50 10000 2.1 20 09:38 23.06.2020
1051 Clear 24 1017 60 10000 2.6 340 09:18 23.06.2020
1052 Clear 23 1017 60 10000 2.6 340 08:44 23.06.2020
1053 Clear 22 1017 53 10000 3.6 40 08:25 23.06.2020
1054 Clear 21 1016 56 10000 3.6 30 07:46 23.06.2020
1055 Clear 21 1016 52 10000 3.6 40 07:24 23.06.2020
1056 Clear 20 1016 52 10000 3.6 70 06:52 23.06.2020
1057 Clear 19 1016 56 10000 3.6 60 06:32 23.06.2020
1058 Clear 19 1016 60 10000 3.1 60 05:54 23.06.2020
1059 Clear 20 1016 56 10000 2.1 70 04:42 23.06.2020
1060 Clear 20 1016 56 10000 1.5 70 03:21 23.06.2020
1061 Clear 21 1016 56 10000 1 0 02:47 23.06.2020
1062 Clear 21 1016 56 10000 0.5 0 02:28 23.06.2020
1063 Clear 22 1016 49 10000 0.5 0 01:45 23.06.2020
1064 Clear 22 1016 60 10000 3.1 360 01:21 23.06.2020
1065 Clear 23 1016 56 10000 0.5 0 00:40 23.06.2020
1066 Clear 24 1016 53 10000 0.5 0 00:19 23.06.2020
1067 Clear 24 1016 53 10000 1 0 23:39 22.06.2020
1068 Clear 24 1016 53 10000 1 0 23:39 22.06.2020
1069 Clear 25 1015 47 10000 2.1 10 23:19 22.06.2020
1070 Clear 25 1015 47 10000 2.1 50 22:59 22.06.2020
1071 Clear 25 1015 47 10000 2.1 50 22:40 22.06.2020
1072 Clear 26 1015 39 10000 3.1 360 22:20 22.06.2020
1073 Clear 27 1014 36 10000 3.1 10 21:59 22.06.2020
1074 Clear 27 1014 36 10000 3.1 10 21:40 22.06.2020
1075 Clear 28 1014 28 10000 5.1 10 21:21 22.06.2020
1076 Clear 28 1014 28 10000 5.1 10 20:58 22.06.2020
1077 Clear 29 1014 28 10000 5.1 10 20:39 22.06.2020
1078 Clear 30 1013 25 10000 5.1 0 20:20 22.06.2020
1079 Clear 29 1013 25 10000 5.1 0 19:44 22.06.2020
1080 Clouds 30 1013 27 10000 5.1 10 19:19 22.06.2020
1081 Clouds 30 1013 27 10000 5.1 10 18:57 22.06.2020
1082 Clouds 30 1013 27 10000 5.1 10 18:37 22.06.2020
1083 Clouds 30 1013 27 10000 5.1 10 18:18 22.06.2020
1084 Clouds 30 1014 25 10000 3.1 70 17:55 22.06.2020
1085 Clouds 30 1014 25 10000 3.1 70 17:37 22.06.2020
1086 Clouds 30 1014 25 10000 3.1 70 17:18 22.06.2020
1087 Clouds 31 1014 30 10000 1.5 0 16:42 22.06.2020
1088 Clouds 31 1014 30 10000 1.5 0 16:18 22.06.2020
1089 Clouds 31 1015 29 10000 3.1 350 15:57 22.06.2020
1090 Clouds 31 1015 29 10000 3.1 350 15:39 22.06.2020
1091 Clouds 31 1015 29 10000 3.1 350 15:21 22.06.2020
1092 Clouds 30 1015 27 10000 1 0 14:39 22.06.2020
1093 Clouds 30 1015 27 10000 1 0 14:20 22.06.2020
1094 Clouds 30 1015 30 10000 3.1 30 13:56 22.06.2020
1095 Clouds 30 1015 30 10000 3.1 30 13:37 22.06.2020
1096 Clouds 29 1015 39 10000 5.1 20 13:19 22.06.2020
1097 Clouds 28 1015 42 10000 3.1 60 12:42 22.06.2020
1098 Clouds 28 1015 42 10000 3.1 60 12:42 22.06.2020
1099 Clouds 28 1015 39 10000 4.1 0 12:23 22.06.2020
1100 Clouds 27 1015 39 10000 4.1 0 11:58 22.06.2020
1101 Clouds 27 1015 39 10000 4.1 0 11:37 22.06.2020
1102 Clouds 26 1015 39 10000 4.1 0 11:18 22.06.2020
1103 Clouds 25 1015 57 10000 2.6 20 10:55 22.06.2020
1104 Clouds 25 1015 57 10000 2.6 20 10:36 22.06.2020
1105 Clouds 25 1015 57 10000 2.6 20 10:36 22.06.2020
1106 Clouds 23 1015 68 10000 3.6 10 10:18 22.06.2020
1107 Clouds 22 1015 68 10000 3.6 10 09:42 22.06.2020
1108 Clouds 22 1015 68 10000 3.6 10 09:20 22.06.2020
1109 Clouds 21 1015 72 10000 4.6 350 08:59 22.06.2020
1110 Clouds 20 1015 72 10000 4.6 350 08:39 22.06.2020
1111 Clouds 20 1015 72 10000 4.6 350 08:20 22.06.2020
1112 Clouds 19 1014 68 10000 4.6 60 07:52 22.06.2020
1113 Clouds 18 1014 77 10000 2.6 40 07:33 22.06.2020
1114 Clouds 17 1014 77 10000 2.1 90 06:46 22.06.2020
1115 Clouds 17 1014 77 10000 2.1 60 06:27 22.06.2020
1116 Clouds 17 1014 82 10000 2.6 50 05:58 22.06.2020
1117 Clouds 17 1014 82 10000 3.6 20 05:30 22.06.2020
1118 Clouds 17 1014 82 10000 3.1 20 02:55 22.06.2020
1119 Clouds 18 1014 77 10000 0.5 0 01:34 22.06.2020
1120 Clouds 18 1014 77 10000 1.5 360 00:41 22.06.2020
1121 Clouds 19 1014 72 10000 2.1 360 23:59 21.06.2020
1122 Clouds 19 1014 72 10000 2.1 360 23:59 21.06.2020
1123 Clouds 19 1014 68 10000 1.5 70 23:40 21.06.2020
1124 Clouds 19 1014 68 10000 1.5 70 23:21 21.06.2020
1125 Clouds 20 1014 64 10000 2.6 50 22:57 21.06.2020
1126 Clouds 19 1014 72 10000 2.6 360 22:38 21.06.2020
1127 Clouds 20 1014 72 10000 2.6 360 22:19 21.06.2020
1128 Clouds 20 1013 68 10000 2.6 260 22:19 21.06.2020
1129 Clouds 20 1013 68 10000 2.6 260 21:59 21.06.2020
1130 Clouds 21 1012 64 10000 1 0 21:40 21.06.2020
1131 Clouds 21 1013 77 10000 5.1 120 21:21 21.06.2020
1132 Clear 21 1013 77 10000 5.1 120 20:59 21.06.2020
1133 Clear 21 1013 77 10000 5.1 120 20:38 21.06.2020
1134 Rain 21 1013 77 10000 5.1 120 20:19 21.06.2020
1135 Rain 20 1013 82 10000 2.1 20 19:57 21.06.2020
1136 Rain 20 1013 82 10000 2.1 20 19:38 21.06.2020
1137 Rain 21 1013 82 10000 2.1 20 19:19 21.06.2020
1138 Clouds 22 1013 68 8000 8.2 350 18:55 21.06.2020
1139 Clouds 23 1013 68 8000 8.2 350 18:36 21.06.2020
1140 Clouds 24 1013 68 8000 8.2 350 18:18 21.06.2020
1141 Clouds 27 1011 32 9000 6.2 250 17:40 21.06.2020
1142 Clouds 28 1011 32 9000 6.2 250 17:20 21.06.2020
1143 Clouds 28 1012 32 10000 7.2 240 16:56 21.06.2020
1144 Clouds 28 1012 32 10000 7.2 240 16:56 21.06.2020
1145 Clouds 28 1012 32 10000 7.2 240 16:38 21.06.2020
1146 Clouds 28 1012 32 10000 7.2 240 16:19 21.06.2020
1147 Clouds 28 1012 30 10000 5.7 260 15:39 21.06.2020
1148 Clouds 28 1012 30 10000 5.7 260 15:39 21.06.2020
1149 Clouds 28 1012 30 10000 5.7 260 15:21 21.06.2020
1150 Clouds 28 1013 32 10000 4.6 240 14:55 21.06.2020
1151 Clouds 28 1013 32 10000 4.6 240 14:36 21.06.2020
1152 Clear 28 1013 32 10000 4.6 240 14:18 21.06.2020
1153 Clouds 29 1013 27 10000 1.5 0 13:41 21.06.2020
1154 Clouds 29 1013 27 10000 1.5 0 13:22 21.06.2020
1155 Clouds 28 1014 32 10000 1.5 0 12:57 21.06.2020
1156 Clouds 27 1014 32 10000 1.5 0 12:38 21.06.2020
1157 Clouds 28 1014 32 10000 1.5 0 12:20 21.06.2020
1158 Clear 27 1014 41 10000 2.1 170 11:42 21.06.2020
1159 Clear 27 1014 41 10000 2.1 170 11:24 21.06.2020
1160 Clear 26 1014 41 10000 1 0 10:58 21.06.2020
1161 Clear 25 1014 41 10000 1 0 10:39 21.06.2020
1162 Clear 25 1014 41 10000 1 0 10:21 21.06.2020
1163 Clear 23 1014 49 10000 1.5 0 09:44 21.06.2020
1164 Clouds 22 1014 49 10000 1.5 0 09:24 21.06.2020
1165 Clouds 21 1014 56 10000 1.5 0 08:58 21.06.2020
1166 Clouds 20 1014 56 10000 1.5 0 08:40 21.06.2020
1167 Clear 19 1014 56 10000 1.5 0 08:20 21.06.2020
1168 Clear 18 1014 68 10000 1.5 40 07:43 21.06.2020
1169 Clear 18 1014 68 10000 1.5 40 07:24 21.06.2020
1170 Clear 17 1014 72 10000 0.5 0 06:51 21.06.2020
1171 Clear 17 1013 67 10000 1.5 40 06:31 21.06.2020
1172 Clear 17 1013 67 10000 1.5 80 05:57 21.06.2020
1173 Clear 17 1014 72 10000 3.1 30 04:42 21.06.2020
1174 Clouds 18 1014 72 10000 2.1 60 03:19 21.06.2020
1175 Clouds 19 1014 82 10000 0.5 0 02:36 21.06.2020
1176 Clear 19 1014 82 10000 0.5 0 01:40 21.06.2020
1177 Clear 19 1014 82 10000 0.5 0 01:19 21.06.2020
1178 Clear 20 1014 82 10000 2.1 190 00:46 21.06.2020
1179 Clear 20 1014 82 10000 2.1 190 00:25 21.06.2020
1180 Clear 21 1014 82 10000 2.1 190 23:46 20.06.2020
1181 Clear 21 1014 82 10000 2.1 190 23:23 20.06.2020
1182 Clear 22 1014 77 10000 1.5 190 22:59 20.06.2020
1183 Clear 22 1014 77 10000 1.5 190 22:59 20.06.2020
1184 Clear 22 1014 77 10000 2.6 220 22:40 20.06.2020
1185 Clear 22 1014 77 10000 2.6 220 22:20 20.06.2020
1186 Clear 22 1014 77 10000 2.1 220 21:58 20.06.2020
1187 Clear 22 1014 68 10000 2.6 270 21:40 20.06.2020
1188 Clear 24 1013 50 10000 4.6 270 21:21 20.06.2020
1189 Clear 24 1013 50 10000 4.6 270 20:58 20.06.2020
1190 Clear 25 1013 50 10000 4.6 270 20:40 20.06.2020
1191 Clear 25 1013 50 10000 4.6 270 20:20 20.06.2020
1192 Clouds 25 1013 47 10000 5.1 260 19:58 20.06.2020
1193 Clouds 26 1013 47 10000 5.1 260 19:39 20.06.2020
1194 Clouds 26 1013 47 10000 5.1 260 19:20 20.06.2020
1195 Clouds 26 1013 28 10000 3.6 320 18:43 20.06.2020
1196 Clouds 28 1013 28 10000 3.6 320 18:21 20.06.2020
1197 Clouds 28 1013 23 10000 5.7 10 17:57 20.06.2020
1198 Clouds 29 1013 23 10000 5.7 10 17:39 20.06.2020
1199 Clouds 29 1013 23 10000 5.7 10 17:39 20.06.2020
1200 Clouds 29 1013 23 10000 5.7 10 17:20 20.06.2020
1201 Clouds 29 1013 23 10000 5.7 10 17:20 20.06.2020
1202 Clouds 29 1014 25 10000 5.1 350 16:42 20.06.2020
1203 Clouds 29 1014 25 10000 5.1 350 16:19 20.06.2020
1204 Clouds 29 1014 25 10000 5.7 340 15:58 20.06.2020
1205 Clouds 29 1014 25 10000 5.7 340 15:40 20.06.2020
1206 Clouds 29 1014 28 10000 3.6 360 15:18 20.06.2020
1207 Clouds 28 1014 28 10000 3.6 360 14:43 20.06.2020
1208 Clouds 29 1014 28 10000 3.6 360 14:21 20.06.2020
1209 Clear 28 1015 28 10000 4.1 340 13:46 20.06.2020
1210 Clear 28 1015 28 10000 4.1 340 13:26 20.06.2020
1211 Clear 27 1015 30 10000 2.6 20 12:59 20.06.2020
1212 Clear 27 1015 30 10000 2.6 20 12:40 20.06.2020
1213 Clear 27 1015 30 10000 2.6 20 12:20 20.06.2020
1214 Clear 26 1015 36 10000 2.6 20 11:55 20.06.2020
1215 Clear 26 1015 36 10000 2.6 20 11:37 20.06.2020
1216 Clear 25 1015 50 10000 3.1 20 11:19 20.06.2020
1217 Clear 24 1015 50 10000 3.1 20 10:46 20.06.2020
1218 Clear 23 1015 50 10000 3.1 20 10:22 20.06.2020
1219 Clear 22 1015 68 10000 2.1 10 09:55 20.06.2020
1220 Clear 21 1015 68 10000 2.1 10 09:36 20.06.2020
1221 Clear 21 1015 68 10000 2.1 10 09:18 20.06.2020
1222 Clear 19 1015 88 10000 1.5 0 08:45 20.06.2020
1223 Clear 19 1015 88 10000 1.5 0 08:27 20.06.2020
1224 Clear 18 1015 72 10000 2.6 30 07:51 20.06.2020
1225 Clear 17 1015 77 10000 2.1 30 07:27 20.06.2020
1226 Clear 16 1015 77 10000 2.1 60 06:54 20.06.2020
1227 Clear 16 1015 82 10000 2.6 60 06:23 20.06.2020
1228 Clear 16 1015 82 10000 2.6 60 06:23 20.06.2020
1229 Clouds 16 1015 82 10000 2.6 80 05:52 20.06.2020
1230 Clear 16 1015 82 10000 2.6 60 04:58 20.06.2020
1231 Clouds 17 1016 82 10000 1 0 02:27 20.06.2020
1232 Clouds 18 1016 88 10000 1 230 01:48 20.06.2020
1233 Clouds 18 1016 82 10000 1 230 00:55 20.06.2020
1234 Clouds 19 1016 77 10000 1 0 00:21 20.06.2020
1235 Clouds 19 1016 82 10000 2.1 120 23:55 19.06.2020
1236 Clouds 20 1016 88 10000 1 0 23:37 19.06.2020
1237 Clouds 20 1016 88 10000 1 0 23:18 19.06.2020
1238 Clouds 20 1016 77 10000 0.5 230 22:40 19.06.2020
1239 Clouds 20 1016 77 10000 0.5 230 22:22 19.06.2020
1240 Clouds 20 1016 72 10000 1.5 240 21:58 19.06.2020
1241 Clouds 21 1015 68 10000 1.5 220 21:38 19.06.2020
1242 Clouds 21 1015 60 10000 3.1 280 21:18 19.06.2020
1243 Clouds 22 1015 60 10000 3.1 280 20:58 19.06.2020
1244 Clouds 22 1015 60 10000 3.1 280 20:40 19.06.2020
1245 Clouds 22 1015 60 10000 3.1 280 20:21 19.06.2020
1246 Clouds 22 1015 53 10000 2.6 250 19:57 19.06.2020
1247 Clouds 23 1015 53 10000 2.6 250 19:38 19.06.2020
1248 Clouds 23 1015 53 10000 2.6 250 19:20 19.06.2020
1249 Clouds 23 1015 41 10000 2.1 250 18:41 19.06.2020
1250 Clouds 23 1015 41 10000 2.1 250 18:21 19.06.2020
1251 Clouds 23 1015 44 10000 2.6 240 17:58 19.06.2020
1252 Clouds 23 1015 44 10000 2.6 240 17:38 19.06.2020
1253 Clouds 23 1015 44 10000 2.6 240 17:20 19.06.2020
1254 Clouds 24 1016 44 10000 4.6 230 16:55 19.06.2020
1255 Clouds 24 1016 44 10000 4.6 230 16:37 19.06.2020
1256 Clouds 24 1016 44 10000 4.6 230 16:18 19.06.2020
1257 Clouds 25 1016 41 10000 3.6 240 15:42 19.06.2020
1258 Clouds 25 1016 41 10000 3.6 240 15:21 19.06.2020
1259 Clouds 26 1016 34 10000 3.1 260 14:56 19.06.2020
1260 Clouds 26 1016 34 10000 3.1 260 14:38 19.06.2020
1261 Clouds 26 1016 34 10000 3.1 260 14:19 19.06.2020
1262 Clouds 26 1016 42 10000 4.1 240 13:44 19.06.2020
1263 Clouds 26 1016 42 10000 4.1 240 13:26 19.06.2020
1264 Clouds 26 1016 39 10000 1.5 0 12:48 19.06.2020
1265 Clouds 26 1016 39 10000 1.5 0 12:23 19.06.2020
1266 Clouds 26 1016 41 10000 2.75 201 11:59 19.06.2020
1267 Clouds 25 1016 41 10000 2.75 201 11:39 19.06.2020
1268 Clouds 25 1016 41 10000 1.36 171 11:18 19.06.2020
1269 Clouds 25 1017 56 10000 1 0 11:18 19.06.2020
1270 Clouds 24 1017 56 10000 1 0 10:46 19.06.2020
1271 Clouds 24 1017 56 10000 1 0 10:27 19.06.2020
1272 Clouds 22 1017 77 10000 1.5 0 09:59 19.06.2020
1273 Clouds 22 1017 77 10000 1.5 0 09:41 19.06.2020
1274 Clouds 22 1017 77 10000 1.5 0 09:21 19.06.2020
1275 Clouds 21 1017 88 10000 1 0 08:45 19.06.2020
1276 Clouds 20 1017 88 10000 1 0 08:27 19.06.2020
1277 Clouds 19 1017 59 10000 1 0 07:57 19.06.2020
1278 Clouds 17 1017 63 10000 1 0 07:39 19.06.2020
1279 Clouds 17 1017 63 10000 1 0 07:39 19.06.2020
1280 Clear 17 1017 63 10000 1 0 07:20 19.06.2020
1281 Clear 16 1016 67 10000 1.5 100 06:28 19.06.2020
1282 Clear 16 1016 72 10000 1.5 130 05:50 19.06.2020
1283 Clear 17 1016 72 10000 1.5 80 04:27 19.06.2020
1284 Clear 17 1017 77 10000 2.1 100 02:52 19.06.2020
1285 Clear 18 1017 82 10000 2.1 200 00:59 19.06.2020
1286 Clear 18 1017 77 10000 2.1 200 00:40 19.06.2020
1287 Clear 18 1017 77 10000 2.1 200 00:21 19.06.2020
1288 Clear 19 1016 82 10000 2.6 200 23:41 18.06.2020
1289 Clear 19 1016 82 10000 2.6 200 23:23 18.06.2020
1290 Clear 19 1016 82 10000 2.6 210 22:59 18.06.2020
1291 Clear 19 1016 82 10000 3.1 210 22:39 18.06.2020
1292 Clouds 19 1016 82 10000 3.1 210 22:19 18.06.2020
1293 Clear 20 1015 77 10000 4.1 220 21:39 18.06.2020
1294 Clear 21 1015 77 10000 4.1 220 21:20 18.06.2020
1295 Clouds 21 1015 77 10000 4.6 220 20:58 18.06.2020
1296 Clouds 21 1015 73 10000 5.1 230 20:38 18.06.2020
1297 Clouds 22 1015 60 10000 4.6 220 20:19 18.06.2020
1298 Clouds 23 1015 60 10000 4.6 220 19:42 18.06.2020
1299 Clouds 23 1015 60 10000 4.6 220 19:22 18.06.2020
1300 Clouds 24 1015 53 10000 4.1 230 18:58 18.06.2020
1301 Clouds 24 1015 53 10000 4.1 230 18:37 18.06.2020
1302 Clouds 24 1015 53 10000 4.1 230 18:19 18.06.2020
1303 Clear 25 1014 47 10000 4.6 210 17:45 18.06.2020
1304 Clear 25 1014 47 10000 4.6 210 17:25 18.06.2020
1305 Clouds 24 1015 57 10000 4.6 220 16:56 18.06.2020
1306 Clouds 24 1015 53 10000 5.7 210 16:37 18.06.2020
1307 Clouds 25 1015 41 10000 4.1 200 16:18 18.06.2020
1308 Clouds 25 1015 41 10000 4.1 200 15:55 18.06.2020
1309 Clouds 25 1015 41 10000 4.1 200 15:37 18.06.2020
1310 Clouds 25 1015 41 10000 4.1 200 15:18 18.06.2020
1311 Clouds 25 1015 44 10000 4.6 200 14:41 18.06.2020
1312 Clouds 25 1015 44 10000 4.6 200 14:23 18.06.2020
1313 Clouds 25 1014 41 10000 1.5 0 13:59 18.06.2020
1314 Clouds 25 1014 41 10000 1.5 0 13:41 18.06.2020
1315 Clouds 25 1014 41 10000 1.5 0 13:22 18.06.2020
1316 Clouds 26 1015 47 10000 3.1 140 12:55 18.06.2020
1317 Clouds 25 1015 47 10000 3.1 140 12:37 18.06.2020
1318 Clouds 25 1015 47 10000 3.1 140 12:19 18.06.2020
1319 Clouds 24 1015 57 10000 2.6 160 11:46 18.06.2020
1320 Clouds 23 1015 57 10000 2.6 160 11:21 18.06.2020
1321 Clouds 23 1015 60 10000 3.1 170 10:41 18.06.2020
1322 Clouds 23 1015 60 10000 3.1 170 10:21 18.06.2020
1323 Clouds 21 1015 64 10000 4.6 170 09:59 18.06.2020
1324 Clouds 21 1015 73 10000 2.6 100 09:41 18.06.2020
1325 Clouds 21 1015 73 10000 2.6 100 09:22 18.06.2020
1326 Clouds 20 1015 73 10000 2.6 100 08:41 18.06.2020
1327 Clouds 20 1015 73 10000 2.6 100 08:23 18.06.2020
1328 Clouds 19 1014 77 10000 3.1 180 07:59 18.06.2020
1329 Clouds 18 1014 82 10000 2.6 170 07:40 18.06.2020
1330 Clouds 17 1014 82 10000 2.6 170 07:21 18.06.2020
1331 Clear 16 1014 82 10000 1.5 170 06:28 18.06.2020
1332 Clear 17 1013 82 10000 1.5 160 04:27 18.06.2020
1333 Clear 17 1014 88 10000 2.6 150 03:26 18.06.2020
1334 Clear 19 1014 88 10000 3.1 210 01:39 18.06.2020
1335 Clear 19 1014 88 10000 3.1 210 01:18 18.06.2020
1336 Clouds 19 1015 88 10000 3.1 200 00:48 18.06.2020
1337 Clouds 19 1015 88 10000 3.1 200 00:24 18.06.2020
1338 Clouds 19 1014 88 10000 3.1 200 23:46 17.06.2020
1339 Clouds 19 1014 88 10000 3.1 200 23:22 17.06.2020
1340 Clear 20 1014 82 10000 3.6 210 22:59 17.06.2020
1341 Clear 20 1013 77 10000 3.1 200 22:40 17.06.2020
1342 Clear 20 1013 77 10000 3.1 200 22:21 17.06.2020
1343 Clear 20 1013 77 10000 3.1 200 22:21 17.06.2020
1344 Clouds 21 1013 77 10000 2.6 200 21:57 17.06.2020
1345 Clouds 21 1013 73 10000 2.1 240 21:39 17.06.2020
1346 Clouds 22 1012 56 10000 3.1 230 21:20 17.06.2020
1347 Clouds 22 1012 56 10000 3.1 230 20:39 17.06.2020
1348 Clouds 23 1012 56 10000 3.1 230 20:20 17.06.2020
1349 Clear 23 1012 53 10000 4.1 210 19:59 17.06.2020
1350 Clear 23 1012 53 10000 4.1 210 19:59 17.06.2020
1351 Clear 23 1012 53 10000 4.1 210 19:39 17.06.2020
1352 Clear 23 1012 53 10000 4.1 210 19:19 17.06.2020
1353 Clouds 25 1012 53 10000 3.1 200 18:46 17.06.2020
1354 Clouds 25 1012 53 10000 3.1 200 18:27 17.06.2020
1355 Clouds 24 1012 50 10000 3.1 180 17:47 17.06.2020
1356 Clouds 24 1012 50 10000 3.1 180 17:23 17.06.2020
1357 Clouds 25 1012 50 10000 4.1 230 16:59 17.06.2020
1358 Clouds 25 1012 50 10000 4.1 230 16:40 17.06.2020
1359 Clouds 25 1011 50 10000 6.2 210 16:21 17.06.2020
1360 Clouds 25 1011 50 10000 6.2 210 15:58 17.06.2020
1361 Clouds 25 1011 50 10000 6.2 210 15:39 17.06.2020
1362 Clouds 25 1011 50 10000 6.2 210 15:21 17.06.2020
1363 Clouds 25 1011 57 10000 5.7 200 14:58 17.06.2020
1364 Clouds 25 1011 57 10000 5.7 200 14:39 17.06.2020
1365 Clouds 26 1011 57 10000 5.7 200 14:19 17.06.2020
1366 Clouds 26 1011 57 10000 5.7 200 14:19 17.06.2020
1367 Clouds 25 1012 69 10000 3.1 220 13:57 17.06.2020
1368 Clouds 25 1012 69 10000 3.1 220 13:38 17.06.2020
1369 Clouds 25 1012 69 10000 3.1 220 13:20 17.06.2020
1370 Clouds 25 1012 69 10000 2.1 150 13:20 17.06.2020
1371 Clouds 25 1012 69 10000 2.1 150 12:43 17.06.2020
1372 Clouds 25 1012 69 10000 2.1 150 12:23 17.06.2020
1373 Clouds 24 1012 83 10000 1.02 204 11:58 17.06.2020
1374 Clouds 23 1012 83 10000 1.02 204 11:38 17.06.2020
1375 Clouds 23 1012 83 10000 0.36 206 11:20 17.06.2020
1376 Clouds 23 1012 77 10000 4.6 190 10:39 17.06.2020
1377 Clouds 21 1012 77 10000 2.6 70 10:19 17.06.2020
1378 Clouds 21 1012 77 10000 2.6 70 09:58 17.06.2020
1379 Clouds 21 1012 77 10000 2.6 70 09:40 17.06.2020
1380 Clouds 21 1012 77 10000 2.6 70 09:20 17.06.2020
1381 Clouds 21 1012 93 8000 1 0 08:45 17.06.2020
1382 Clouds 19 1012 93 8000 1 0 08:21 17.06.2020
1383 Clouds 20 1011 82 10000 2.6 190 07:56 17.06.2020
1384 Clouds 20 1011 82 10000 2.1 160 07:38 17.06.2020
1385 Clouds 19 1011 82 10000 2.1 160 07:20 17.06.2020
1386 Clear 18 1011 88 10000 2.1 170 06:55 17.06.2020
1387 Clear 18 1011 88 10000 2.1 170 06:37 17.06.2020
1388 Clear 18 1011 88 10000 2.1 170 06:18 17.06.2020
1389 Clear 18 1011 82 10000 2.1 160 04:53 17.06.2020
1390 Clear 19 1012 82 10000 1.5 160 02:49 17.06.2020
1391 Clouds 19 1012 82 10000 1.5 210 01:29 17.06.2020
1392 Clouds 20 1012 77 10000 2.1 190 00:38 17.06.2020
1393 Clouds 20 1012 77 10000 2.1 190 00:19 17.06.2020
1394 Clouds 20 1012 72 10000 2.1 230 23:55 16.06.2020
1395 Clouds 21 1012 72 10000 1.5 240 23:37 16.06.2020
1396 Clouds 21 1012 72 10000 1.5 240 23:18 16.06.2020
1397 Clouds 21 1012 72 10000 2.6 210 22:40 16.06.2020
1398 Clouds 21 1012 72 10000 2.6 210 22:19 16.06.2020
1399 Clouds 21 1012 72 10000 2.6 210 22:19 16.06.2020
1400 Clouds 22 1012 68 10000 2.6 240 21:58 16.06.2020
1401 Clouds 22 1011 68 10000 2.6 260 21:40 16.06.2020
1402 Clouds 22 1011 68 10000 2.6 260 21:22 16.06.2020
1403 Clouds 22 1011 64 10000 2.6 250 20:57 16.06.2020
1404 Clouds 23 1011 60 10000 3.6 270 20:39 16.06.2020
1405 Clouds 24 1010 47 10000 3.6 240 20:18 16.06.2020
1406 Clouds 24 1010 47 10000 3.6 240 19:56 16.06.2020
1407 Clouds 25 1010 47 10000 3.6 240 19:37 16.06.2020
1408 Clouds 25 1010 47 10000 3.6 240 19:18 16.06.2020
1409 Clouds 26 1010 44 10000 4.6 230 18:44 16.06.2020
1410 Clouds 26 1010 44 10000 4.6 230 18:21 16.06.2020
1411 Rain 25 1010 44 10000 6.2 270 17:58 16.06.2020
1412 Thunderstorm 26 1010 44 10000 6.2 270 17:39 16.06.2020
1413 Thunderstorm 26 1010 44 10000 6.2 270 17:21 16.06.2020
1414 Thunderstorm 27 1010 44 10000 5.7 240 16:58 16.06.2020
1415 Clouds 27 1010 47 10000 4.1 240 16:39 16.06.2020
1416 Clouds 27 1010 47 10000 4.1 240 16:19 16.06.2020
1417 Clouds 27 1011 42 10000 4.6 270 15:57 16.06.2020
1418 Clouds 27 1011 42 10000 4.6 270 15:39 16.06.2020
1419 Clouds 27 1011 42 10000 4.6 270 15:21 16.06.2020
1420 Clouds 27 1011 54 10000 6.2 280 14:56 16.06.2020
1421 Clouds 27 1011 57 10000 6.7 280 14:37 16.06.2020
1422 Clouds 26 1011 36 10000 3.1 300 14:19 16.06.2020
1423 Clouds 26 1011 36 10000 3.1 300 13:45 16.06.2020
1424 Clouds 26 1011 36 10000 3.1 300 13:24 16.06.2020
1425 Clouds 26 1012 53 10000 1.5 0 12:42 16.06.2020
1426 Clouds 26 1012 53 10000 1.5 0 12:23 16.06.2020
1427 Clouds 25 1012 60 10000 1.5 0 11:58 16.06.2020
1428 Clouds 25 1012 60 10000 1.5 0 11:40 16.06.2020
1429 Clouds 25 1012 60 10000 1.5 0 11:22 16.06.2020
1430 Clouds 24 1013 69 10000 2.1 40 10:58 16.06.2020
1431 Clouds 23 1013 69 10000 2.1 40 10:38 16.06.2020
1432 Clouds 23 1013 69 10000 2.1 40 10:20 16.06.2020
1433 Clouds 21 1013 82 10000 2.6 10 09:44 16.06.2020
1434 Clouds 21 1013 82 10000 2.6 10 09:22 16.06.2020
1435 Clouds 20 1013 100 10000 0.5 0 08:53 16.06.2020
1436 Clouds 19 1013 100 10000 0.5 0 08:32 16.06.2020
1437 Clouds 18 1012 88 10000 2.6 30 07:52 16.06.2020
1438 Clouds 18 1012 93 10000 1.5 360 07:29 16.06.2020
1439 Clouds 17 1012 93 10000 1 350 06:57 16.06.2020
1440 Clouds 17 1012 93 10000 1.5 30 06:34 16.06.2020
1441 Clouds 17 1012 93 10000 2.1 30 05:50 16.06.2020
1442 Clear 17 1012 88 10000 2.1 60 04:54 16.06.2020
1443 Clear 18 1013 88 10000 2.1 40 03:55 16.06.2020
1444 Clear 19 1013 88 10000 2.1 50 02:35 16.06.2020
1445 Clear 19 1013 77 10000 1.5 30 01:33 16.06.2020
1446 Clear 20 1012 77 10000 1.5 40 00:55 16.06.2020
1447 Clear 20 1013 77 10000 2.1 20 00:22 16.06.2020
1448 Clear 21 1013 72 10000 2.1 30 23:55 15.06.2020
1449 Clear 21 1013 72 10000 2.1 30 23:37 15.06.2020
1450 Clear 21 1013 72 10000 2.1 30 23:19 15.06.2020
1451 Clear 21 1013 68 10000 3.6 40 22:42 15.06.2020
1452 Clear 22 1013 68 10000 3.6 40 22:22 15.06.2020
1453 Clear 22 1013 68 10000 2.1 290 21:58 15.06.2020
1454 Clear 22 1013 68 10000 2.1 290 21:58 15.06.2020
1455 Clear 22 1013 68 10000 2.1 290 21:58 15.06.2020
1456 Clouds 22 1013 60 10000 2.6 300 21:38 15.06.2020
1457 Clouds 23 1012 64 10000 3.6 360 21:20 15.06.2020
1458 Clouds 24 1012 64 10000 3.6 360 20:57 15.06.2020
1459 Clouds 24 1012 64 10000 3.6 360 20:38 15.06.2020
1460 Clouds 25 1012 64 10000 3.6 360 20:19 15.06.2020
1461 Clouds 25 1012 47 10000 3.6 250 19:57 15.06.2020
1462 Clouds 25 1012 47 10000 3.6 250 19:38 15.06.2020
1463 Clouds 25 1012 47 10000 3.6 250 19:20 15.06.2020
1464 Clouds 25 1011 39 10000 5.1 240 18:56 15.06.2020
1465 Clouds 26 1011 39 10000 5.1 240 18:37 15.06.2020
1466 Clouds 26 1011 39 10000 5.1 240 18:19 15.06.2020
1467 Thunderstorm 26 1011 41 10000 6.2 270 17:55 15.06.2020
1468 Thunderstorm 26 1011 41 10000 6.2 270 17:36 15.06.2020
1469 Thunderstorm 26 1011 41 10000 6.2 270 17:18 15.06.2020
1470 Clouds 27 1011 44 10000 6.2 250 16:41 15.06.2020
1471 Clouds 27 1011 44 10000 6.2 250 16:19 15.06.2020
1472 Clouds 27 1012 44 10000 3.1 250 15:56 15.06.2020
1473 Clouds 27 1012 44 10000 3.1 250 15:38 15.06.2020
1474 Clouds 27 1012 44 10000 3.1 250 15:19 15.06.2020
1475 Clouds 27 1013 47 10000 2.1 260 14:42 15.06.2020
1476 Clouds 27 1013 47 10000 2.1 260 14:21 15.06.2020
1477 Clouds 27 1013 42 10000 2.6 130 13:59 15.06.2020
1478 Clouds 26 1013 42 10000 2.6 130 13:41 15.06.2020
1479 Clouds 27 1013 42 10000 2.6 130 13:22 15.06.2020
1480 Clouds 26 1013 47 10000 3.6 300 12:58 15.06.2020
1481 Clouds 26 1013 47 10000 3.6 300 12:39 15.06.2020
1482 Clouds 25 1013 47 10000 3.6 300 12:21 15.06.2020
1483 Clouds 24 1014 53 10000 2.6 20 11:44 15.06.2020
1484 Clouds 24 1014 53 10000 2.6 20 11:25 15.06.2020
1485 Clouds 23 1013 68 10000 1.5 0 10:56 15.06.2020
1486 Clouds 23 1013 68 10000 1.5 0 10:36 15.06.2020
1487 Clouds 22 1013 68 10000 1.5 0 10:18 15.06.2020
1488 Clouds 21 1014 88 10000 1.5 0 09:41 15.06.2020
1489 Clouds 21 1014 88 10000 1.5 0 09:21 15.06.2020
1490 Clouds 20 1013 93 10000 1.5 0 08:42 15.06.2020
1491 Clouds 20 1013 93 10000 1.5 0 08:23 15.06.2020
1492 Clouds 19 1013 77 10000 1 0 07:48 15.06.2020
1493 Clouds 18 1013 72 10000 0.5 0 07:29 15.06.2020
1494 Clouds 17 1010 85 0 2.31 13 06:49 15.06.2020
1495 Clouds 16 1010 86 0 1.79 15 06:26 15.06.2020
1496 Clouds 16 1009 86 0 1.79 15 05:47 15.06.2020
1497 Clouds 16 1009 86 0 1.54 28 05:26 15.06.2020
1498 Clear 17 1009 85 0 1.16 48 04:20 15.06.2020
1499 Clear 17 1009 87 0 1.16 48 03:42 15.06.2020
1500 Clear 18 1009 86 0 1.27 94 02:54 15.06.2020
1501 Clear 18 1009 84 0 2.03 119 01:58 15.06.2020
1502 Clear 18 1010 84 0 2.03 119 01:35 15.06.2020
1503 Clear 19 1010 83 0 0.89 150 00:59 15.06.2020
1504 Clear 19 1010 83 0 0.45 148 00:39 15.06.2020
1505 Clouds 19 1013 88 10000 3.1 200 00:20 15.06.2020
1506 Clouds 19 1013 88 10000 3.1 200 23:47 14.06.2020
1507 Clouds 20 1013 88 10000 3.1 200 23:25 14.06.2020
1508 Clouds 20 1013 88 10000 2.1 180 22:58 14.06.2020
1509 Clouds 20 1013 82 10000 3.6 210 22:39 14.06.2020
1510 Clouds 20 1013 82 10000 3.6 210 22:20 14.06.2020
1511 Clouds 20 1013 82 10000 3.1 210 21:57 14.06.2020
1512 Clouds 21 1013 77 10000 3.6 210 21:39 14.06.2020
1513 Clouds 21 1011 64 10000 3.6 220 21:19 14.06.2020
1514 Clouds 21 1011 64 10000 3.6 220 20:58 14.06.2020
1515 Clouds 22 1011 64 10000 3.6 220 20:39 14.06.2020
1516 Clouds 21 1011 64 10000 3.6 220 20:20 14.06.2020
1517 Clouds 22 1012 56 10000 3.6 190 19:59 14.06.2020
1518 Clouds 22 1012 56 10000 3.6 190 19:38 14.06.2020
1519 Clouds 22 1012 56 10000 3.6 190 19:19 14.06.2020
1520 Clouds 23 1012 57 10000 3.6 220 18:57 14.06.2020
1521 Clouds 23 1012 57 10000 3.6 220 18:39 14.06.2020
1522 Clouds 24 1012 57 10000 3.6 220 18:20 14.06.2020
1523 Clouds 24 1012 57 10000 4.6 210 17:58 14.06.2020
1524 Clouds 24 1012 57 10000 4.6 210 17:39 14.06.2020
1525 Clouds 24 1012 57 10000 4.6 210 17:20 14.06.2020
1526 Clouds 24 1012 60 10000 5.1 220 16:41 14.06.2020
1527 Clouds 24 1012 60 10000 5.1 220 16:22 14.06.2020
1528 Clouds 25 1013 53 10000 5.1 250 15:59 14.06.2020
1529 Clouds 25 1013 53 10000 5.1 250 15:41 14.06.2020
1530 Clouds 24 1013 53 10000 5.1 250 15:19 14.06.2020
1531 Clouds 24 1013 57 10000 6.2 220 14:59 14.06.2020
1532 Clouds 24 1013 57 10000 6.2 220 14:40 14.06.2020
1533 Clouds 24 1013 57 10000 6.2 220 14:21 14.06.2020
1534 Clouds 24 1013 60 10000 4.6 240 13:56 14.06.2020
1535 Clouds 24 1013 60 10000 4.6 240 13:38 14.06.2020
1536 Clouds 24 1013 60 10000 4.6 240 13:19 14.06.2020
1537 Clouds 24 1013 53 10000 4.6 210 12:55 14.06.2020
1538 Clouds 24 1013 53 10000 4.6 210 12:37 14.06.2020
1539 Clouds 24 1013 53 10000 4.6 210 12:18 14.06.2020
1540 Clouds 23 1013 60 10000 5.1 240 11:56 14.06.2020
1541 Clouds 24 1013 60 10000 5.1 240 11:37 14.06.2020
1542 Clouds 23 1013 60 10000 5.1 240 11:18 14.06.2020
1543 Clouds 22 1013 68 10000 4.6 230 10:41 14.06.2020
1544 Clouds 22 1013 68 10000 4.6 230 10:19 14.06.2020
1545 Clouds 21 1013 77 10000 2.6 220 09:45 14.06.2020
1546 Clouds 21 1013 77 10000 2.6 220 09:25 14.06.2020
1547 Clouds 21 1013 83 10000 3.1 210 08:54 14.06.2020
1548 Clouds 21 1013 83 10000 3.1 210 08:36 14.06.2020
1549 Clouds 21 1013 83 10000 3.1 210 08:18 14.06.2020
1550 Clouds 19 1010 85 0 1.34 209 07:44 14.06.2020
1551 Clouds 19 1010 86 0 0.45 217 07:26 14.06.2020
1552 Rain 18 1010 89 0 0.45 194 06:26 14.06.2020
1553 Rain 18 1010 89 0 0.45 152 05:40 14.06.2020
1554 Rain 18 1010 87 0 0.88 185 04:53 14.06.2020
1555 Clouds 18 1010 87 0 1.34 209 04:28 14.06.2020
1556 Clouds 18 1010 85 0 0.68 88 02:53 14.06.2020
1557 Clouds 18 1010 85 0 0.89 192 02:23 14.06.2020
1558 Clouds 18 1011 87 0 1.14 39 01:36 14.06.2020
1559 Clouds 18 1011 86 0 1.29 46 00:52 14.06.2020
1560 Clouds 18 1011 84 0 1.29 46 00:34 14.06.2020
1561 Clouds 18 1011 83 0 1.13 22 23:59 13.06.2020
1562 Clouds 19 1011 82 0 1.13 22 23:41 13.06.2020
1563 Clouds 19 1011 83 0 1.34 175 23:22 13.06.2020
1564 Clouds 19 1011 83 0 0.89 175 22:56 13.06.2020
1565 Clouds 19 1011 83 0 0.45 193 22:36 13.06.2020
1566 Clouds 19 1011 85 0 0.45 210 22:18 13.06.2020
1567 Clouds 20 1011 88 0 0.45 181 21:43 13.06.2020
1568 Clouds 20 1015 94 8000 2.1 220 21:24 13.06.2020
1569 Rain 20 1015 94 8000 2.1 220 20:57 13.06.2020
1570 Rain 20 1015 94 8000 2.1 220 20:39 13.06.2020
1571 Rain 20 1015 94 8000 2.1 220 20:18 13.06.2020
1572 Rain 21 1015 83 6000 3.6 230 19:41 13.06.2020
1573 Rain 21 1015 83 6000 3.6 230 19:20 13.06.2020
1574 Rain 22 1014 64 10000 5.1 230 18:59 13.06.2020
1575 Clouds 23 1014 64 10000 5.1 230 18:40 13.06.2020
1576 Clouds 24 1014 64 10000 5.1 230 18:20 13.06.2020
1577 Clouds 24 1013 57 10000 6.2 230 17:58 13.06.2020
1578 Clouds 25 1013 57 10000 6.2 230 17:40 13.06.2020
1579 Clouds 25 1013 57 10000 6.2 230 17:22 13.06.2020
1580 Clouds 26 1013 48 10000 5.1 240 16:55 13.06.2020
1581 Clouds 26 1013 48 10000 5.1 240 16:37 13.06.2020
1582 Clouds 27 1013 48 10000 5.1 240 16:18 13.06.2020
1583 Clouds 28 1012 37 10000 3.1 220 15:44 13.06.2020
1584 Clouds 29 1012 37 10000 3.1 220 15:26 13.06.2020
1585 Clouds 28 1013 34 10000 4.1 230 14:45 13.06.2020
1586 Clouds 28 1013 34 10000 4.1 230 14:26 13.06.2020
1587 Clouds 28 1013 34 10000 1 0 13:59 13.06.2020
1588 Clouds 28 1013 34 10000 1 0 13:40 13.06.2020
1589 Clouds 28 1013 34 10000 1 0 13:22 13.06.2020
1590 Clouds 26 1014 38 10000 1.5 0 12:44 13.06.2020
1591 Clouds 26 1014 38 10000 1.5 0 12:44 13.06.2020
1592 Clouds 26 1014 38 10000 1.5 0 12:26 13.06.2020
1593 Clouds 26 1014 44 10000 2.1 240 11:59 13.06.2020
1594 Clouds 26 1014 44 10000 2.1 240 11:39 13.06.2020
1595 Clouds 25 1014 44 10000 2.1 240 11:19 13.06.2020
1596 Clouds 25 1010 43 0 1.79 199 10:56 13.06.2020
1597 Clouds 25 1010 41 0 0.89 190 10:38 13.06.2020
1598 Clouds 24 1014 60 10000 2.1 20 10:18 13.06.2020
1599 Clouds 22 1014 60 10000 2.1 20 09:44 13.06.2020
1600 Clouds 20 1015 100 10000 1.5 0 09:22 13.06.2020
1601 Clouds 20 1015 100 10000 1.5 0 08:49 13.06.2020
1602 Clouds 19 1015 100 10000 1.5 0 08:30 13.06.2020
1603 Clouds 18 1015 77 10000 2.6 80 07:54 13.06.2020
1604 Clear 17 1015 77 10000 2.1 50 07:28 13.06.2020
1605 Clear 16 1015 72 10000 1.5 200 06:50 13.06.2020
1606 Clear 16 1015 77 10000 2.1 190 06:30 13.06.2020
1607 Clear 15 1014 82 10000 1 180 05:47 13.06.2020
1608 Clear 16 1014 82 10000 1 180 05:25 13.06.2020
1609 Clear 16 1013 82 10000 2.1 100 03:48 13.06.2020
1610 Clear 17 1014 77 10000 0.5 0 02:54 13.06.2020
1611 Clear 17 1014 77 10000 0.5 0 02:34 13.06.2020
1612 Clear 17 1014 72 10000 1 0 01:45 13.06.2020
1613 Clear 18 1014 72 10000 1 0 01:19 13.06.2020
1614 Clear 18 1014 63 10000 2.1 180 00:42 13.06.2020
1615 Clear 18 1014 63 10000 2.1 180 00:23 13.06.2020
1616 Clear 19 1014 72 10000 1.5 210 23:41 12.06.2020
1617 Clear 19 1014 72 10000 1.5 210 23:19 12.06.2020
1618 Clear 20 1014 72 10000 2.1 200 22:58 12.06.2020
1619 Clear 20 1014 68 10000 1.5 240 22:39 12.06.2020
1620 Clear 20 1014 68 10000 1.5 240 22:19 12.06.2020
1621 Clear 20 1014 68 10000 2.1 240 21:47 12.06.2020
1622 Clear 21 1013 46 10000 2.6 220 21:24 12.06.2020
1623 Clear 22 1013 46 10000 2.6 220 20:58 12.06.2020
1624 Clear 22 1013 46 10000 2.6 220 20:40 12.06.2020
1625 Clear 22 1013 46 10000 2.6 220 20:22 12.06.2020
1626 Clear 23 1013 41 10000 2.6 240 19:56 12.06.2020
1627 Clear 24 1013 41 10000 2.6 240 19:38 12.06.2020
1628 Clear 24 1013 41 10000 4.1 240 19:18 12.06.2020
1629 Clear 24 1013 41 10000 4.1 240 18:39 12.06.2020
1630 Clear 24 1013 47 10000 4.1 210 18:18 12.06.2020
1631 Clouds 24 1014 49 10000 5.1 220 17:47 12.06.2020
1632 Clear 24 1013 47 10000 5.1 230 17:27 12.06.2020
1633 Clear 25 1013 47 10000 5.1 230 16:59 12.06.2020
1634 Clear 24 1013 47 10000 5.1 230 16:40 12.06.2020
1635 Clear 24 1013 47 10000 5.1 230 16:19 12.06.2020
1636 Clouds 26 1013 39 10000 1 0 15:45 12.06.2020
1637 Clouds 25 1013 39 10000 1 0 15:25 12.06.2020
1638 Clear 26 1013 41 10000 1.5 0 14:55 12.06.2020
1639 Clear 26 1013 41 10000 1.5 0 14:36 12.06.2020
1640 Clear 26 1013 41 10000 1.5 0 14:18 12.06.2020
1641 Clear 25 1014 44 10000 1 0 13:41 12.06.2020
1642 Clear 25 1014 44 10000 1 0 13:20 12.06.2020
1643 Clouds 24 1014 46 10000 2.1 110 12:40 12.06.2020
1644 Clear 24 1012 53 10000 1 0 12:20 12.06.2020
1645 Clear 24 1012 53 10000 1 0 11:57 12.06.2020
1646 Clear 23 1012 53 10000 1 0 11:38 12.06.2020
1647 Clear 23 1012 53 10000 1 0 11:19 12.06.2020
1648 Clouds 22 1014 60 10000 2.1 210 10:45 12.06.2020
1649 Clear 20 1014 100 10000 1 0 10:24 12.06.2020
1650 Clear 19 1014 100 10000 1 0 09:45 12.06.2020
1651 Clear 19 1014 100 10000 1 0 09:21 12.06.2020
1652 Clear 17 1014 100 10000 1 0 08:44 12.06.2020
1653 Clouds 16 1014 100 10000 1 0 08:25 12.06.2020
1654 Clouds 15 1014 76 10000 1 0 07:44 12.06.2020
1655 Clouds 15 1014 76 10000 1 0 07:44 12.06.2020
1656 Clouds 15 1014 76 10000 1 0 07:44 12.06.2020
1657 Clouds 14 1014 76 10000 1 0 07:25 12.06.2020
1658 Clouds 13 1013 71 10000 1 0 06:55 12.06.2020
1659 Clouds 13 1013 76 10000 1.33 44 06:30 12.06.2020
1660 Clouds 13 1013 71 10000 1 0 05:55 12.06.2020
1661 Clouds 13 1013 71 10000 1.5 130 05:30 12.06.2020
1662 Clouds 13 1013 76 10000 1.5 80 04:59 12.06.2020
1663 Clouds 14 1013 76 10000 0.5 0 03:24 12.06.2020
1664 Clear 15 1013 77 10000 2.1 150 01:55 12.06.2020
1665 Clear 15 1013 82 10000 1.5 160 01:27 12.06.2020
1666 Clear 16 1014 82 10000 2.6 130 00:45 12.06.2020
1667 Clear 16 1014 82 10000 2.6 130 00:25 12.06.2020
1668 Clear 16 1014 82 10000 2.6 120 23:59 11.06.2020
1669 Clear 16 1013 82 10000 2.1 140 23:41 11.06.2020
1670 Clear 16 1013 82 10000 2.1 140 23:21 11.06.2020
1671 Clear 17 1013 87 10000 2.1 120 22:59 11.06.2020
1672 Clouds 17 1013 82 10000 1 0 22:39 11.06.2020
1673 Clouds 17 1013 82 10000 1 0 22:39 11.06.2020
1674 Clouds 17 1013 82 10000 1 0 22:20 11.06.2020
1675 Clouds 17 1013 82 10000 1 250 21:56 11.06.2020
1676 Clouds 17 1013 82 10000 1 250 21:56 11.06.2020
1677 Clouds 18 1013 77 10000 1 260 21:38 11.06.2020
1678 Clouds 19 1012 68 10000 0.5 0 21:20 11.06.2020
1679 Clouds 19 1012 68 10000 0.5 0 20:45 11.06.2020
1680 Clouds 20 1012 68 10000 0.5 0 20:21 11.06.2020
1681 Clouds 20 1012 72 10000 1 0 19:55 11.06.2020
1682 Clouds 20 1012 68 10000 2.1 320 19:36 11.06.2020
1683 Clouds 20 1013 82 10000 0.5 0 19:18 11.06.2020
1684 Clouds 21 1013 82 10000 0.5 0 18:41 11.06.2020
1685 Rain 20 1013 93 10000 1.5 0 18:22 11.06.2020
1686 Rain 19 1013 93 10000 1.5 0 17:57 11.06.2020
1687 Rain 18 1013 93 10000 1.5 0 17:38 11.06.2020
1688 Rain 18 1013 93 4000 0.5 0 17:19 11.06.2020
1689 Rain 17 1013 93 4000 0.5 0 16:56 11.06.2020
1690 Rain 17 1013 93 4000 0.5 0 16:38 11.06.2020
1691 Rain 17 1013 93 4000 0.5 0 16:38 11.06.2020
1692 Rain 17 1013 93 8000 1 0 16:19 11.06.2020
1693 Rain 16 1013 93 8000 1 0 15:42 11.06.2020
1694 Thunderstorm 15 1013 93 5000 3.6 230 15:23 11.06.2020
1695 Thunderstorm 15 1013 93 5000 3.6 230 14:56 11.06.2020
1696 Thunderstorm 15 1013 93 5000 3.6 230 14:38 11.06.2020
1697 Thunderstorm 16 1012 82 5000 3.6 190 14:20 11.06.2020
1698 Thunderstorm 16 1012 82 5000 3.6 190 13:54 11.06.2020
1699 Rain 16 1012 93 7000 3.6 220 13:36 11.06.2020
1700 Rain 17 1012 88 10000 2.1 140 13:18 11.06.2020
1701 Rain 18 1012 88 10000 2.1 140 12:39 11.06.2020
1702 Rain 18 1012 88 10000 3.6 190 12:21 11.06.2020
1703 Rain 19 1011 60 10000 1 0 11:59 11.06.2020
1704 Rain 19 1011 60 10000 1 0 11:41 11.06.2020
1705 Rain 20 1011 68 10000 2.1 80 11:22 11.06.2020
1706 Clouds 21 1011 68 10000 2.1 80 10:59 11.06.2020
1707 Clouds 21 1011 68 10000 2.1 80 10:41 11.06.2020
1708 Rain 20 1011 77 10000 3.1 120 10:18 11.06.2020
1709 Rain 19 1011 77 10000 3.1 120 09:44 11.06.2020
1710 Rain 18 1011 82 10000 3.6 110 09:26 11.06.2020
1711 Rain 18 1011 82 10000 3.6 110 08:54 11.06.2020
1712 Rain 18 1011 82 10000 3.6 110 08:36 11.06.2020
1713 Clouds 17 1011 82 10000 2.6 160 08:18 11.06.2020
1714 Clouds 16 1011 87 10000 3.1 160 07:41 11.06.2020
1715 Clouds 16 1011 82 10000 3.1 150 07:22 11.06.2020
1716 Clouds 15 1011 93 10000 1.5 30 06:31 11.06.2020
1717 Clouds 15 1011 93 10000 1.5 30 06:31 11.06.2020
1718 Clouds 15 1011 93 10000 2.6 110 05:53 11.06.2020
1719 Rain 16 1011 93 8000 2.6 210 03:59 11.06.2020
1720 Rain 16 1012 87 10000 2.6 190 03:25 11.06.2020
1721 Rain 16 1012 87 10000 2.6 170 02:45 11.06.2020
1722 Clouds 16 1012 82 10000 3.6 190 01:56 11.06.2020
1723 Clouds 16 1012 82 10000 3.6 190 01:34 11.06.2020
1724 Clouds 16 1013 87 10000 2.6 170 00:52 11.06.2020
1725 Thunderstorm 16 1013 82 10000 3.1 180 00:32 11.06.2020
1726 Thunderstorm 16 1013 82 7000 3.6 240 23:56 10.06.2020
1727 Rain 17 1013 82 7000 3.6 240 23:37 10.06.2020
1728 Rain 18 1013 77 10000 2.6 250 23:18 10.06.2020
1729 Thunderstorm 19 1012 68 10000 3.1 190 22:40 10.06.2020
1730 Thunderstorm 19 1012 72 10000 2.6 200 22:22 10.06.2020
1731 Thunderstorm 19 1012 68 10000 2.6 220 21:58 10.06.2020
1732 Thunderstorm 19 1012 68 10000 2.6 220 21:40 10.06.2020
1733 Clouds 19 1012 56 10000 5.1 230 21:19 10.06.2020
1734 Clouds 19 1012 56 10000 5.1 230 20:58 10.06.2020
1735 Clouds 19 1012 56 10000 5.1 230 20:39 10.06.2020
1736 Clouds 20 1012 52 10000 5.7 230 20:21 10.06.2020
1737 Clouds 20 1012 52 10000 5.7 230 19:58 10.06.2020
1738 Clouds 20 1012 52 10000 5.7 230 19:37 10.06.2020
1739 Clouds 20 1012 52 10000 5.7 230 19:18 10.06.2020
1740 Clouds 22 1012 60 10000 5.7 240 18:42 10.06.2020
1741 Clouds 21 1012 60 10000 5.7 240 18:20 10.06.2020
1742 Rain 21 1012 64 10000 5.7 230 17:58 10.06.2020
1743 Rain 21 1012 64 10000 5.7 230 17:40 10.06.2020
1744 Clouds 22 1012 49 10000 6.2 240 17:20 10.06.2020
1745 Clouds 22 1012 49 10000 6.2 240 16:58 10.06.2020
1746 Clouds 22 1012 49 10000 6.2 240 16:40 10.06.2020
1747 Clouds 22 1012 46 10000 5.1 240 16:20 10.06.2020
1748 Clouds 22 1012 46 10000 5.1 240 16:20 10.06.2020
1749 Clouds 22 1012 46 10000 5.1 240 16:20 10.06.2020
1750 Clouds 22 1012 46 10000 5.1 240 16:20 10.06.2020
1751 Clouds 22 1012 46 10000 5.1 240 15:55 10.06.2020
1752 Clouds 23 1012 46 10000 5.1 240 15:36 10.06.2020
1753 Clouds 23 1012 46 10000 6.7 230 15:18 10.06.2020
1754 Clouds 23 1012 46 10000 6.7 230 14:40 10.06.2020
1755 Clouds 22 1012 53 10000 6.7 230 14:21 10.06.2020
1756 Clouds 22 1012 53 10000 6.7 230 13:44 10.06.2020
1757 Clouds 22 1012 56 10000 5.7 230 13:22 10.06.2020
1758 Clouds 22 1012 56 10000 5.7 230 12:58 10.06.2020
1759 Clouds 23 1012 56 10000 6.7 240 12:39 10.06.2020
1760 Clouds 22 1011 53 10000 6.2 200 12:18 10.06.2020
1761 Clouds 22 1011 53 10000 6.2 200 11:44 10.06.2020
1762 Clouds 22 1012 56 10000 4.6 200 11:20 10.06.2020
1763 Clouds 21 1012 56 10000 4.6 200 10:58 10.06.2020
1764 Clouds 21 1012 56 10000 4.6 200 10:40 10.06.2020
1765 Clouds 21 1012 56 10000 4.6 200 10:21 10.06.2020
1766 Clouds 21 1011 68 10000 3.1 200 09:44 10.06.2020
1767 Clouds 19 1011 82 9000 2.1 130 09:25 10.06.2020
1768 Clouds 19 1011 82 9000 2.1 130 08:59 10.06.2020
1769 Clouds 19 1011 82 9000 2.1 130 08:41 10.06.2020
1770 Clouds 19 1011 82 10000 2.6 200 08:22 10.06.2020
1771 Rain 18 1011 82 10000 3.6 180 07:42 10.06.2020
1772 Clouds 18 1011 77 10000 2.6 180 07:23 10.06.2020
1773 Clouds 17 1011 82 10000 3.6 180 06:52 10.06.2020
1774 Clouds 17 1011 77 10000 3.6 180 06:33 10.06.2020
1775 Clouds 17 1011 77 10000 3.6 180 05:59 10.06.2020
1776 -273 0 0 0 0 0 05:30 10.06.2020
1777 Clouds 17 1012 77 10000 3.1 180 04:48 10.06.2020
1778 Clouds 17 1012 72 10000 3.1 180 04:28 10.06.2020
1779 Clouds 17 1013 67 10000 2.6 210 02:24 10.06.2020
1780 Clouds 17 1013 67 10000 2.1 190 01:40 10.06.2020
1781 Clouds 18 1013 68 10000 1.5 190 00:42 10.06.2020
1782 Clouds 18 1013 72 10000 2.1 200 00:23 10.06.2020
1783 Clouds 18 1013 68 10000 2.6 200 23:59 09.06.2020
1784 Clouds 19 1013 68 10000 2.6 200 23:41 09.06.2020
1785 Clouds 19 1013 68 10000 2.6 200 23:23 09.06.2020
1786 Clouds 19 1013 68 10000 2.1 200 22:57 09.06.2020
1787 Clouds 19 1013 68 10000 2.1 200 22:38 09.06.2020
1788 Clouds 19 1012 68 10000 2.1 230 22:20 09.06.2020
1789 Clouds 19 1012 68 10000 2.1 230 21:57 09.06.2020
1790 Clouds 19 1012 68 10000 2.1 230 21:39 09.06.2020
1791 Clouds 20 1011 49 10000 4.1 250 21:20 09.06.2020
1792 Clouds 21 1011 49 10000 4.1 250 20:57 09.06.2020
1793 Clouds 21 1011 49 10000 4.1 250 20:38 09.06.2020
1794 Clouds 22 1012 56 10000 4.1 240 20:20 09.06.2020
1795 Clouds 21 1011 49 10000 4.1 230 19:57 09.06.2020
1796 Clouds 21 1011 49 10000 4.1 230 19:39 09.06.2020
1797 Clouds 22 1011 49 10000 2.1 220 19:20 09.06.2020
1798 Clouds 22 1011 49 10000 2.1 220 19:20 09.06.2020
1799 Clouds 23 1011 49 10000 2.1 220 18:57 09.06.2020
1800 Clouds 23 1011 49 10000 2.1 220 18:38 09.06.2020
1801 Clouds 22 1011 49 10000 4.6 240 18:19 09.06.2020
1802 Clouds 22 1011 49 10000 4.6 240 17:55 09.06.2020
1803 Clouds 22 1011 49 10000 4.6 240 17:55 09.06.2020
1804 Clouds 22 1011 49 10000 4.6 240 17:36 09.06.2020
1805 Clouds 23 1011 49 10000 4.6 220 17:18 09.06.2020
1806 Clouds 23 1011 49 10000 4.6 220 16:42 09.06.2020
1807 Clouds 23 1011 46 10000 6.2 230 16:23 09.06.2020
1808 Clouds 24 1011 46 10000 6.2 230 15:56 09.06.2020
1809 Clouds 24 1011 46 10000 6.2 230 15:37 09.06.2020
1810 Clouds 25 1011 41 10000 4.6 230 15:19 09.06.2020
1811 Clouds 25 1011 41 10000 4.6 230 14:41 09.06.2020
1812 Clouds 25 1011 44 10000 4.6 210 14:21 09.06.2020
1813 Clouds 25 1011 44 10000 4.6 210 13:59 09.06.2020
1814 Clouds 25 1011 44 10000 4.6 210 13:41 09.06.2020
1815 Clouds 25 1011 44 10000 4.6 210 13:21 09.06.2020
1816 Clouds 24 1011 56 10000 4.6 230 12:56 09.06.2020
1817 Clouds 24 1011 56 10000 4.6 230 12:37 09.06.2020
1818 Clouds 24 1010 53 10000 4.6 210 12:18 09.06.2020
1819 Clouds 24 1010 53 10000 4.6 210 11:55 09.06.2020
1820 Clouds 24 1010 53 10000 4.6 210 11:36 09.06.2020
1821 Clouds 24 1010 60 10000 4.1 180 11:18 09.06.2020
1822 Clouds 23 1010 60 10000 4.1 180 10:42 09.06.2020
1823 Clouds 22 1010 64 10000 3.6 160 10:24 09.06.2020
1824 Clouds 22 1010 64 10000 3.6 160 09:44 09.06.2020
1825 Clouds 20 1010 68 10000 5.7 180 09:25 09.06.2020
1826 Clouds 20 1010 68 10000 5.7 190 08:57 09.06.2020
1827 Clouds 20 1010 68 10000 5.7 190 08:38 09.06.2020
1828 Clouds 20 1010 68 10000 5.1 180 08:20 09.06.2020
1829 Clouds 19 1010 72 10000 3.1 180 07:38 09.06.2020
1830 Clouds 18 1009 77 10000 3.1 170 07:20 09.06.2020
1831 Clouds 17 1009 77 10000 3.1 180 06:54 09.06.2020
1832 Clouds 17 1009 77 10000 3.1 180 06:35 09.06.2020
1833 Clouds 18 1009 77 10000 2.6 180 05:36 09.06.2020
1834 Clouds 18 1009 77 10000 2.6 200 03:47 09.06.2020
1835 Clouds 19 1010 72 10000 3.6 160 01:44 09.06.2020
1836 Clouds 19 1010 77 10000 3.1 150 01:19 09.06.2020
1837 Rain 19 1010 77 10000 2.6 180 00:55 09.06.2020
1838 Rain 18 1010 77 10000 3.1 200 00:36 09.06.2020
1839 Clear 19 1010 77 10000 3.1 200 00:18 09.06.2020
1840 Clear 19 1009 72 10000 3.1 190 23:40 08.06.2020
1841 Clear 20 1010 72 10000 2.6 170 23:19 08.06.2020
1842 Clear 20 1009 72 10000 2.6 190 22:54 08.06.2020
1843 Clear 20 1009 72 10000 2.6 190 22:36 08.06.2020
1844 Clear 21 1009 72 10000 2.1 200 22:18 08.06.2020
1845 Clear 21 1009 77 10000 2.1 210 21:54 08.06.2020
1846 Clear 21 1009 77 10000 2.1 210 21:36 08.06.2020
1847 Clouds 21 1008 60 10000 3.1 210 21:18 08.06.2020
1848 Clouds 22 1008 60 10000 3.1 210 20:54 08.06.2020
1849 Clouds 21 1008 60 10000 3.1 210 20:36 08.06.2020
1850 Clouds 22 1008 53 10000 4.6 240 20:18 08.06.2020
1851 Clouds 23 1008 53 10000 4.6 240 19:41 08.06.2020
1852 Clouds 23 1008 53 10000 4.6 240 19:20 08.06.2020
1853 Clouds 24 1008 50 10000 5.7 270 18:41 08.06.2020
1854 Clouds 25 1008 41 10000 5.7 220 18:20 08.06.2020
1855 Clouds 25 1008 41 10000 5.7 220 17:57 08.06.2020
1856 Clouds 25 1008 41 10000 5.7 220 17:39 08.06.2020
1857 Clouds 25 1007 44 10000 6.2 210 17:20 08.06.2020
1858 Clouds 26 1007 44 10000 6.2 210 16:46 08.06.2020
1859 Clouds 26 1008 50 10000 4.6 210 16:25 08.06.2020
1860 Clouds 26 1008 50 10000 4.6 210 15:59 08.06.2020
1861 Clouds 26 1008 50 10000 4.6 210 15:41 08.06.2020
1862 Clouds 25 1007 57 10000 4.1 230 15:21 08.06.2020
1863 Clouds 25 1007 57 10000 4.1 230 15:21 08.06.2020
1864 Clouds 25 1007 57 10000 4.1 230 14:56 08.06.2020
1865 Clouds 25 1007 57 10000 4.1 230 14:38 08.06.2020
1866 Clouds 25 1007 57 10000 6.2 190 14:18 08.06.2020
1867 Clouds 25 1007 57 10000 6.2 190 13:42 08.06.2020
1868 Clouds 25 1008 61 10000 5.1 210 13:21 08.06.2020
1869 Clouds 25 1008 61 10000 5.1 210 12:42 08.06.2020
1870 Clouds 23 1008 69 10000 5.7 150 12:20 08.06.2020
1871 Clouds 24 1008 69 10000 5.7 150 12:19 08.06.2020
1872 Clouds 23 1008 69 10000 5.7 150 11:58 08.06.2020
1873 Clouds 24 1008 69 10000 5.7 150 11:39 08.06.2020
1874 Clouds 24 1008 78 10000 4.6 150 11:20 08.06.2020
1875 Clouds 23 1008 78 10000 4.6 150 10:56 08.06.2020
1876 Clouds 23 1008 78 10000 4.6 150 10:37 08.06.2020
1877 Clouds 22 1008 88 8000 2.1 180 10:19 08.06.2020
1878 Clouds 22 1008 88 8000 2.1 180 09:46 08.06.2020
1879 Clouds 21 1008 94 10000 1.5 0 09:23 08.06.2020
1880 Clouds 20 1008 94 10000 1.5 0 08:50 08.06.2020
1881 Clouds 20 1008 82 10000 5.1 180 08:24 08.06.2020
1882 Clouds 20 1008 82 10000 5.1 180 07:56 08.06.2020
1883 Clouds 20 1008 82 10000 5.1 180 07:56 08.06.2020
1884 Rain 20 1007 82 10000 5.1 170 07:38 08.06.2020
1885 Rain 20 1007 82 10000 5.1 170 07:19 08.06.2020
1886 Clouds 20 1007 77 10000 6.2 160 06:39 08.06.2020
1887 Clouds 20 1007 68 10000 6.2 170 05:55 08.06.2020
1888 Clouds 20 1007 68 10000 6.2 170 05:23 08.06.2020
1889 Clouds 20 1008 68 10000 7.2 160 03:24 08.06.2020
1890 Clouds 20 1008 64 10000 5.7 180 02:26 08.06.2020
1891 Rain 20 1008 64 10000 7.7 160 01:43 08.06.2020
1892 Clouds 21 1009 60 10000 4.1 190 00:57 08.06.2020
1893 Clouds 21 1008 64 10000 3.6 140 00:25 08.06.2020
1894 Clouds 21 1009 60 10000 4.1 170 23:39 07.06.2020
1895 Clouds 21 1009 60 10000 5.1 170 23:19 07.06.2020
1896 Clouds 20 1009 77 10000 5.1 170 22:57 07.06.2020
1897 Clouds 21 1009 77 10000 5.1 170 22:37 07.06.2020
1898 Clouds 21 1009 72 10000 4.6 180 22:18 07.06.2020
1899 Clouds 21 1009 64 10000 4.1 190 21:58 07.06.2020
1900 Clouds 21 1009 64 10000 4.1 190 21:36 07.06.2020
1901 Clouds 22 1009 53 10000 4.1 180 21:18 07.06.2020
1902 Clouds 22 1009 53 10000 4.1 180 20:39 07.06.2020
1903 Clouds 22 1009 50 10000 4.6 190 20:21 07.06.2020
1904 Clouds 23 1009 50 10000 4.6 190 19:57 07.06.2020
1905 Clouds 23 1009 50 10000 4.6 190 19:39 07.06.2020
1906 Clouds 23 1009 50 10000 4.6 190 19:21 07.06.2020
1907 Clouds 24 1009 50 10000 5.1 200 18:59 07.06.2020
1908 Clouds 24 1009 50 10000 5.1 200 18:38 07.06.2020
1909 Clouds 25 1009 41 10000 5.1 200 18:20 07.06.2020
1910 Clouds 25 1009 41 10000 5.1 200 17:57 07.06.2020
1911 Clouds 25 1009 41 10000 5.1 200 17:38 07.06.2020
1912 Clouds 26 1009 42 10000 3.6 190 17:20 07.06.2020
1913 Clouds 27 1009 42 10000 3.6 190 16:43 07.06.2020
1914 Clouds 27 1010 42 10000 5.1 180 16:22 07.06.2020
1915 Clouds 27 1010 42 10000 5.1 180 15:44 07.06.2020
1916 Clouds 27 1010 44 10000 4.1 180 15:22 07.06.2020
1917 Clouds 26 1010 44 10000 4.1 180 14:41 07.06.2020
1918 Clouds 26 1010 47 10000 4.6 170 14:23 07.06.2020
1919 Clouds 26 1010 47 10000 4.6 170 14:23 07.06.2020
1920 Clouds 26 1010 47 10000 4.6 170 14:23 07.06.2020
1921 Clouds 26 1010 47 10000 4.6 170 14:23 07.06.2020
1922 Clouds 26 1010 47 10000 4.6 170 13:55 07.06.2020
1923 Clouds 26 1011 44 10000 4.6 180 13:24 07.06.2020
1924 Clouds 26 1011 44 10000 4.6 180 12:59 07.06.2020
1925 Clouds 26 1011 44 10000 4.6 180 12:40 07.06.2020
1926 Clouds 25 1011 44 10000 4.6 180 12:22 07.06.2020
1927 Clouds 25 1011 44 10000 4.6 180 12:22 07.06.2020
1928 Clouds 24 1010 56 10000 3.6 180 11:55 07.06.2020
1929 Clouds 24 1010 56 10000 3.6 180 11:37 07.06.2020
1930 Clouds 24 1010 57 10000 3.6 160 11:19 07.06.2020
1931 Clouds 24 1010 57 10000 3.6 160 10:54 07.06.2020
1932 Clouds 24 1010 57 10000 3.6 160 10:36 07.06.2020
1933 Clouds 22 1010 64 10000 2.6 140 10:18 07.06.2020
1934 Clouds 23 1010 64 10000 2.6 140 09:41 07.06.2020
1935 Clouds 21 1010 73 10000 1.5 0 09:21 07.06.2020
1936 Clouds 21 1010 73 10000 1.5 0 08:59 07.06.2020
1937 Clouds 21 1010 73 10000 1.5 0 08:40 07.06.2020
1938 Clouds 21 1010 73 10000 1.5 0 08:40 07.06.2020
1939 Clouds 20 1010 72 10000 1.5 0 08:22 07.06.2020
1940 Clouds 19 1010 72 10000 1 0 07:41 07.06.2020
1941 Clear 17 1010 82 10000 3.1 110 06:56 07.06.2020
1942 Clear 17 1009 72 10000 4.6 140 06:21 07.06.2020
1943 Clear 17 1009 77 10000 3.6 130 04:22 07.06.2020
1944 Clear 17 1009 82 10000 3.1 160 03:50 07.06.2020
1945 Clear 18 1010 82 10000 2.1 200 02:19 07.06.2020
1946 Clear 18 1010 82 10000 1.5 190 01:26 07.06.2020
1947 Clear 18 1010 82 10000 3.1 180 00:59 07.06.2020
1948 Clear 18 1010 82 10000 3.1 180 00:39 07.06.2020
1949 Clear 18 1010 93 10000 3.6 200 00:18 07.06.2020
1950 Clear 19 1010 88 10000 2.6 190 23:38 06.06.2020
1951 Clear 18 1010 93 10000 3.1 200 23:20 06.06.2020
1952 Clear 19 1010 88 10000 3.1 200 22:58 06.06.2020
1953 Clear 20 1010 88 10000 3.1 200 22:39 06.06.2020
1954 Clear 20 1009 82 10000 3.1 210 22:20 06.06.2020
1955 Clear 21 1009 77 10000 2.6 210 21:56 06.06.2020
1956 Clear 22 1009 77 10000 2.6 210 21:38 06.06.2020
1957 Clear 22 1008 46 10000 3.6 220 21:19 06.06.2020
1958 Clear 23 1008 46 10000 3.6 220 20:40 06.06.2020
1959 Clear 23 1008 46 10000 3.6 220 20:40 06.06.2020
1960 Clear 24 1008 41 10000 4.1 250 20:20 06.06.2020
1961 Clear 24 1008 41 10000 4.1 250 19:58 06.06.2020
1962 Clear 24 1008 41 10000 4.1 250 19:40 06.06.2020
1963 Clear 25 1008 39 10000 3.6 260 19:21 06.06.2020
1964 Clear 25 1008 39 10000 3.6 260 18:56 06.06.2020
1965 Clear 25 1008 39 10000 3.6 260 18:37 06.06.2020
1966 Clear 26 1008 39 10000 6.2 250 18:18 06.06.2020
1967 Clear 26 1008 39 10000 6.2 250 17:43 06.06.2020
1968 Clear 26 1009 44 10000 5.7 270 17:20 06.06.2020
1969 Clouds 26 1009 41 10000 5.1 270 16:56 06.06.2020
1970 Clouds 26 1009 41 10000 5.1 270 16:38 06.06.2020
1971 Clouds 26 1007 39 10000 5.7 260 16:20 06.06.2020
1972 Clouds 26 1007 39 10000 5.7 260 15:44 06.06.2020
1973 Clear 27 1007 26 10000 4.1 270 15:20 06.06.2020
1974 Clear 27 1007 26 10000 4.1 270 14:59 06.06.2020
1975 Clear 27 1007 26 10000 4.1 270 14:38 06.06.2020
1976 Clear 28 1008 34 10000 2.1 360 14:19 06.06.2020
1977 Clear 27 1008 34 10000 2.1 360 13:47 06.06.2020
1978 Clear 27 1008 34 10000 2.1 360 13:19 06.06.2020
1979 Clear 26 1008 39 10000 4.1 360 12:58 06.06.2020
1980 Clear 26 1008 39 10000 4.1 360 12:39 06.06.2020
1981 Clear 25 1008 47 10000 3.6 20 12:20 06.06.2020
1982 Clear 25 1008 50 10000 2.6 10 11:55 06.06.2020
1983 Clear 25 1008 50 10000 2.6 10 11:37 06.06.2020
1984 Clear 25 1008 53 10000 3.6 360 11:18 06.06.2020
1985 Clear 24 1008 56 10000 3.1 40 10:56 06.06.2020
1986 Clear 23 1008 56 10000 3.1 40 10:38 06.06.2020
1987 Clear 23 1008 56 10000 3.1 40 10:19 06.06.2020
1988 Clear 21 1008 68 10000 1 0 09:44 06.06.2020
1989 Clear 20 1008 82 10000 1 0 09:25 06.06.2020
1990 Clear 19 1008 82 10000 1 0 08:48 06.06.2020
1991 Clear 18 1007 82 10000 1.5 20 08:25 06.06.2020
1992 Clear 17 1007 87 10000 1 0 07:57 06.06.2020
1993 Clear 17 1007 87 10000 1 0 07:39 06.06.2020
1994 Clear 16 1007 87 10000 2.6 50 07:20 06.06.2020
1995 Clear 15 1007 87 10000 2.6 50 06:45 06.06.2020
1996 Clear 15 1007 87 10000 3.1 70 06:26 06.06.2020
1997 Clear 15 1007 93 10000 1.5 340 05:44 06.06.2020
1998 Clear 15 1006 87 10000 1 0 05:23 06.06.2020
1999 Clear 16 1006 87 10000 1 0 03:46 06.06.2020
2000 Clear 16 1006 82 10000 1 100 02:36 06.06.2020
2001 Clear 17 1005 82 10000 0.5 0 01:23 06.06.2020
2002 Clear 17 1005 82 10000 0.5 0 00:58 06.06.2020
2003 Clear 17 1005 82 10000 0.5 0 00:40 06.06.2020
2004 Clear 17 1005 77 10000 1.5 150 00:21 06.06.2020
2005 Clear 18 1005 77 10000 1.5 210 23:40 05.06.2020
2006 Clear 18 1005 82 10000 1.5 170 23:20 05.06.2020
2007 Clear 19 1005 72 10000 1 0 22:57 05.06.2020
2008 Clear 19 1005 72 10000 1 0 22:39 05.06.2020
2009 Clear 19 1004 68 10000 1.5 130 22:20 05.06.2020
2010 Clear 20 1004 72 10000 2.1 200 21:54 05.06.2020
2011 Clear 20 1004 72 10000 2.1 200 21:54 05.06.2020
2012 Clear 20 1004 72 10000 2.1 200 21:36 05.06.2020
2013 Clouds 20 1002 53 10000 2.1 170 21:18 05.06.2020
2014 Clouds 21 1002 53 10000 2.1 170 20:44 05.06.2020
2015 Clouds 21 1002 53 10000 2.1 170 20:22 05.06.2020
2016 Clouds 22 1002 49 10000 4.1 150 19:44 05.06.2020
2017 Clouds 22 1001 53 10000 3.6 150 19:24 05.06.2020
2018 Clouds 22 1001 53 10000 3.6 150 18:59 05.06.2020
2019 Clouds 23 1001 53 10000 3.6 150 18:39 05.06.2020
2020 Clouds 23 1002 53 10000 4.1 210 18:20 05.06.2020
2021 Clouds 22 1002 53 10000 4.1 210 17:59 05.06.2020
2022 Clouds 22 1002 53 10000 4.1 210 17:40 05.06.2020
2023 Clouds 22 1001 56 10000 5.1 230 17:20 05.06.2020
2024 Clouds 22 1001 56 10000 5.1 230 16:43 05.06.2020
2025 Clouds 23 1002 56 10000 7.2 230 16:24 05.06.2020
2026 Clouds 22 1002 56 10000 7.2 230 15:59 05.06.2020
2027 Clouds 22 1002 56 10000 7.2 230 15:38 05.06.2020
2028 Clouds 22 1002 64 10000 6.2 240 15:20 05.06.2020
2029 Clouds 22 1002 64 10000 6.2 240 14:57 05.06.2020
2030 Clouds 22 1002 64 10000 6.2 240 14:39 05.06.2020
2031 Clouds 21 1002 68 8000 3.6 230 14:21 05.06.2020
2032 Clouds 21 1002 68 8000 3.6 230 13:44 05.06.2020
2033 Clouds 21 1002 68 10000 5.7 220 13:26 05.06.2020
2034 Clouds 21 1002 68 10000 5.7 220 12:55 05.06.2020
2035 Rain 21 1002 68 10000 5.7 220 12:37 05.06.2020
2036 Rain 20 1001 88 10000 4.6 200 12:18 05.06.2020
2037 Clouds 19 1001 88 10000 4.6 200 11:42 05.06.2020
2038 Rain 19 1001 93 10000 4.1 180 11:23 05.06.2020
2039 Rain 19 1001 93 10000 4.1 180 10:57 05.06.2020
2040 Rain 19 1001 93 10000 4.1 180 10:39 05.06.2020
2041 Rain 19 1001 88 10000 2.1 170 10:19 05.06.2020
2042 Rain 19 1001 88 10000 2.1 170 09:56 05.06.2020
2043 Rain 19 1001 88 10000 2.1 170 09:37 05.06.2020
2044 Clouds 19 1001 93 10000 1.5 0 09:18 05.06.2020
2045 Clouds 19 1001 93 10000 1.5 0 08:56 05.06.2020
2046 Clouds 19 1001 93 10000 1.5 0 08:38 05.06.2020
2047 Clouds 19 1001 93 10000 1.5 0 08:38 05.06.2020
2048 Rain 18 1001 88 10000 3.6 210 08:18 05.06.2020
2049 Rain 18 1000 93 10000 2.1 210 07:44 05.06.2020
2050 Rain 18 1000 93 10000 3.1 210 07:25 05.06.2020
2051 Rain 19 1000 100 8000 4.1 220 06:36 05.06.2020
2052 Rain 20 1000 94 8000 4.1 220 05:22 05.06.2020
2053 Clouds 20 1001 94 8000 6.7 220 04:27 05.06.2020
2054 Clouds 20 1001 94 8000 7.7 190 03:20 05.06.2020
2055 Rain 20 1001 82 10000 7.7 170 02:26 05.06.2020
2056 Clouds 21 1001 73 10000 8.7 170 01:57 05.06.2020
2057 Clouds 21 1002 64 10000 9.8 170 01:30 05.06.2020
2058 Clouds 22 1002 56 10000 9.8 170 00:42 05.06.2020
2059 Clouds 22 1002 53 10000 8.7 170 00:21 05.06.2020
2060 Clouds 22 1002 49 10000 11.3 170 23:46 04.06.2020
2061 Clouds 22 1002 49 10000 11.3 170 23:28 04.06.2020
2062 Rain 22 1002 49 10000 10.8 170 22:56 04.06.2020
2063 Rain 21 1002 49 10000 10.8 170 22:37 04.06.2020
2064 Clouds 21 1002 46 10000 8.7 180 22:18 04.06.2020
2065 Rain 21 1002 49 10000 11.3 160 21:56 04.06.2020
2066 Rain 22 1002 49 10000 11.3 160 21:37 04.06.2020
2067 Clouds 22 1003 53 10000 4.6 180 21:19 04.06.2020
2068 Clouds 22 1003 53 10000 4.6 180 20:54 04.06.2020
2069 Clouds 22 1003 53 10000 4.6 180 20:36 04.06.2020
2070 Clouds 22 1003 53 10000 4.6 180 20:18 04.06.2020
2071 Clouds 23 1004 53 10000 6.7 190 19:39 04.06.2020
2072 Clouds 23 1004 53 10000 6.7 190 19:39 04.06.2020
2073 Clouds 23 1004 53 10000 6.7 190 19:21 04.06.2020
2074 Clouds 24 1004 47 10000 7.2 190 18:56 04.06.2020
2075 Clouds 24 1004 53 10000 8.7 180 18:38 04.06.2020
2076 Clouds 24 1004 47 10000 7.2 190 18:38 04.06.2020
2077 Clouds 24 1004 44 10000 7.7 160 18:19 04.06.2020
2078 Clouds 25 1004 44 10000 7.7 160 17:42 04.06.2020
2079 Clouds 25 1005 47 10000 7.2 180 17:21 04.06.2020
2080 Clouds 25 1005 47 10000 7.2 180 17:21 04.06.2020
2081 Clouds 25 1005 47 10000 7.2 180 16:56 04.06.2020
2082 Clouds 25 1005 47 10000 7.2 180 16:38 04.06.2020
2083 Clouds 25 1005 41 10000 7.2 170 16:18 04.06.2020
2084 Clouds 25 1005 41 10000 7.2 170 15:42 04.06.2020
2085 Clouds 25 1006 41 10000 7.2 170 15:24 04.06.2020
2086 Clouds 25 1006 41 10000 7.2 170 14:40 04.06.2020
2087 Clouds 25 1006 44 10000 5.7 160 14:21 04.06.2020
2088 Clouds 25 1006 44 10000 5.7 160 13:56 04.06.2020
2089 Clouds 25 1006 44 10000 5.7 160 13:38 04.06.2020
2090 Clouds 25 1007 50 10000 6.2 150 13:20 04.06.2020
2091 Clouds 24 1007 50 10000 6.2 150 12:55 04.06.2020
2092 Clouds 25 1007 50 10000 6.2 150 12:37 04.06.2020
2093 Clouds 25 1007 50 10000 6.2 150 12:37 04.06.2020
2094 Clouds 24 1007 53 10000 5.7 150 12:18 04.06.2020
2095 Clouds 24 1007 53 10000 5.7 150 11:41 04.06.2020
2096 Clouds 22 1008 60 10000 5.1 160 11:20 04.06.2020
2097 Clouds 22 1008 60 10000 5.1 160 10:59 04.06.2020
2098 Clouds 22 1008 60 10000 5.1 160 10:39 04.06.2020
2099 Clouds 21 1008 68 10000 4.1 170 10:20 04.06.2020
2100 Clouds 22 1008 68 10000 4.1 170 09:46 04.06.2020
2101 Clouds 21 1008 77 9000 3.6 130 09:28 04.06.2020
2102 Clouds 20 1008 77 9000 3.6 130 08:57 04.06.2020
2103 Clouds 20 1008 77 9000 3.6 130 08:38 04.06.2020
2104 Clouds 20 1008 72 10000 5.1 170 08:20 04.06.2020
2105 Clouds 19 1008 77 10000 3.6 170 07:31 04.06.2020
2106 Clouds 18 1008 77 10000 4.6 170 06:47 04.06.2020
2107 Clouds 17 1008 82 10000 4.6 160 06:27 04.06.2020
2108 Clouds 17 1009 82 10000 3.1 170 05:52 04.06.2020
2109 Clouds 17 1009 82 10000 3.6 160 05:31 04.06.2020
2110 Clouds 18 1009 77 10000 3.1 170 03:34 04.06.2020
2111 Clouds 19 1010 77 10000 4.1 190 02:19 04.06.2020
2112 Clouds 18 1010 82 10000 2.6 180 01:20 04.06.2020
2113 Clouds 18 1010 82 10000 3.1 200 00:59 04.06.2020
2114 Clouds 19 1011 82 10000 3.1 200 23:58 03.06.2020
2115 Clouds 19 1011 82 10000 3.1 200 23:36 03.06.2020
2116 Clouds 20 1011 82 10000 3.1 200 23:18 03.06.2020
2117 Clouds 20 1010 82 10000 3.6 190 22:40 03.06.2020
2118 Clouds 20 1010 82 10000 3.6 200 22:19 03.06.2020
2119 Clouds 20 1010 82 10000 3.6 210 21:59 03.06.2020
2120 Clouds 20 1010 82 10000 3.6 210 21:41 03.06.2020
2121 Clear 21 1009 53 10000 3.6 220 21:22 03.06.2020
2122 Clouds 22 1009 53 10000 3.6 220 20:58 03.06.2020
2123 Clouds 22 1009 53 10000 3.6 220 20:40 03.06.2020
2124 Clear 23 1009 44 10000 3.6 230 20:20 03.06.2020
2125 Clear 23 1009 44 10000 3.6 230 19:57 03.06.2020
2126 Clear 23 1009 44 10000 3.6 230 19:38 03.06.2020
2127 Clear 24 1009 38 10000 4.6 240 19:19 03.06.2020
2128 Clear 24 1009 38 10000 4.6 240 18:57 03.06.2020
2129 Clear 25 1009 38 10000 4.6 240 18:38 03.06.2020
2130 Clear 25 1009 38 10000 4.6 240 18:18 03.06.2020
2131 Clear 25 1009 39 10000 3.6 220 17:44 03.06.2020
2132 Clear 26 1010 34 10000 4.6 230 17:22 03.06.2020
2133 Clear 26 1010 34 10000 4.6 230 17:22 03.06.2020
2134 Clear 26 1010 34 10000 4.6 230 16:57 03.06.2020
2135 Clear 27 1010 34 10000 4.6 230 16:39 03.06.2020
2136 Clouds 26 1010 39 10000 5.1 250 16:19 03.06.2020
2137 Clouds 26 1010 39 10000 5.1 250 15:41 03.06.2020
2138 Clear 26 1011 38 10000 4.6 250 15:21 03.06.2020
2139 Clear 27 1011 38 10000 5.1 250 14:59 03.06.2020
2140 Clear 27 1011 38 10000 5.1 250 14:40 03.06.2020
2141 Clouds 27 1011 32 10000 2.1 240 14:21 03.06.2020
2142 Clouds 26 1011 32 10000 2.1 240 13:40 03.06.2020
2143 Clear 26 1011 41 10000 1.5 0 13:20 03.06.2020
2144 Clear 26 1011 41 10000 1.5 0 12:44 03.06.2020
2145 Clear 25 1011 46 10000 1.99 226 12:23 03.06.2020
2146 Clear 25 1011 46 10000 1.99 226 11:59 03.06.2020
2147 Clear 25 1011 46 10000 1.99 226 11:40 03.06.2020
2148 Clear 24 1012 60 10000 0.5 0 11:22 03.06.2020
2149 Clear 23 1012 60 10000 0.5 0 10:42 03.06.2020
2150 Clear 22 1012 88 10000 1 0 10:24 03.06.2020
2151 Clear 21 1012 88 10000 1 0 09:47 03.06.2020
2152 Clear 21 1012 88 10000 1 0 09:47 03.06.2020
2153 Clear 20 1012 93 10000 1 0 09:22 03.06.2020
2154 Clear 19 1012 93 10000 1 0 08:59 03.06.2020
2155 Clear 18 1012 93 10000 1 0 08:40 03.06.2020
2156 Clear 18 1012 82 10000 1.5 40 08:20 03.06.2020
2157 Clear 17 1012 82 10000 2.1 70 07:43 03.06.2020
2158 Clouds 16 1012 87 10000 2.6 60 07:22 03.06.2020
2159 Clouds 15 1012 87 10000 2.6 50 06:54 03.06.2020
2160 Clear 15 1011 87 10000 1 350 06:33 03.06.2020
2161 Clear 15 1011 87 10000 1.5 80 05:48 03.06.2020
2162 Clear 16 1011 87 10000 1 0 04:59 03.06.2020
2163 Clear 16 1011 77 10000 1 0 03:51 03.06.2020
2164 Clear 16 1011 77 10000 0.5 0 03:21 03.06.2020
2165 Clouds 17 1012 68 10000 3.1 120 02:23 03.06.2020
2166 Clouds 19 1013 72 10000 1 20 00:47 03.06.2020
2167 Clouds 19 1013 72 10000 1 350 00:25 03.06.2020
2168 Clouds 19 1013 68 10000 1 0 23:52 02.06.2020
2169 Clouds 19 1013 68 10000 1 0 23:52 02.06.2020
2170 Clouds 19 1013 77 10000 1 0 23:28 02.06.2020
2171 Clouds 19 1013 72 10000 1.5 260 22:58 02.06.2020
2172 Clouds 20 1013 72 10000 1.5 260 22:39 02.06.2020
2173 Clouds 20 1013 72 10000 1.5 230 22:19 02.06.2020
2174 Clouds 20 1013 72 10000 1.5 230 22:19 02.06.2020
2175 Clouds 20 1013 68 10000 2.1 220 21:56 02.06.2020
2176 Clouds 20 1013 68 10000 2.1 220 21:38 02.06.2020
2177 Clouds 21 1012 53 10000 2.6 280 21:19 02.06.2020
2178 Clouds 22 1012 53 10000 2.6 280 20:58 02.06.2020
2179 Clouds 21 1012 53 10000 2.6 280 20:40 02.06.2020
2180 Clouds 22 1012 43 10000 3.6 250 20:20 02.06.2020
2181 Clouds 23 1012 43 10000 3.6 250 19:44 02.06.2020
2182 Clouds 23 1012 36 10000 3.6 230 19:25 02.06.2020
2183 Clouds 23 1012 36 10000 3.6 230 18:58 02.06.2020
2184 Clouds 24 1013 46 10000 3.6 230 18:40 02.06.2020
2185 Clouds 24 1013 38 10000 4.1 250 18:20 02.06.2020
2186 Clouds 25 1013 38 10000 4.1 250 17:55 02.06.2020
2187 Clouds 25 1013 38 10000 4.1 250 17:37 02.06.2020
2188 Clouds 25 1013 38 10000 4.1 250 17:37 02.06.2020
2189 Clouds 24 1013 36 10000 5.1 260 17:18 02.06.2020
2190 Clouds 24 1013 36 10000 5.1 260 16:54 02.06.2020
2191 Clouds 24 1013 36 10000 5.1 260 16:36 02.06.2020
2192 Clouds 24 1013 47 10000 5.1 240 16:18 02.06.2020
2193 Clouds 24 1013 47 10000 5.1 240 15:40 02.06.2020
2194 Clouds 26 1014 50 10000 4.1 210 15:20 02.06.2020
2195 Clouds 25 1014 50 10000 4.1 210 14:46 02.06.2020
2196 Clouds 25 1014 41 10000 2.1 200 14:27 02.06.2020
2197 Clouds 25 1014 41 10000 2.1 200 13:55 02.06.2020
2198 Clouds 26 1014 41 10000 2.1 200 13:36 02.06.2020
2199 Clouds 25 1014 44 10000 2.1 160 13:18 02.06.2020
2200 Clouds 25 1014 44 10000 2.1 160 12:55 02.06.2020
2201 Clouds 25 1014 44 10000 2.1 160 12:37 02.06.2020
2202 Clouds 24 1015 43 10000 1 0 12:18 02.06.2020
2203 Clouds 24 1015 43 10000 1 0 11:41 02.06.2020
2204 Clouds 24 1015 52 10000 1.5 0 11:22 02.06.2020
2205 Clouds 23 1015 52 10000 1.5 0 10:55 02.06.2020
2206 Clouds 23 1015 52 10000 1.5 0 10:37 02.06.2020
2207 Clouds 22 1015 63 10000 1.5 0 10:19 02.06.2020
2208 Clouds 21 1015 63 10000 1.5 0 09:42 02.06.2020
2209 Clouds 20 1015 77 10000 1 0 09:21 02.06.2020
2210 Clouds 19 1015 77 10000 1 0 08:53 02.06.2020
2211 Clouds 19 1015 77 10000 1 0 08:28 02.06.2020
2212 Clouds 18 1015 72 10000 1.5 30 07:58 02.06.2020
2213 Clouds 17 1015 77 10000 1.5 360 07:33 02.06.2020
2214 Clouds 16 1015 77 10000 1.5 140 06:59 02.06.2020
2215 Clouds 15 1015 77 10000 1.5 140 06:37 02.06.2020
2216 Clouds 15 1014 77 10000 1.5 60 05:37 02.06.2020
2217 Clouds 16 1015 67 10000 1 30 04:20 02.06.2020
2218 Clouds 17 1016 68 10000 3.1 170 02:37 02.06.2020
2219 Clouds 17 1016 68 10000 3.1 170 01:48 02.06.2020
2220 Clouds 18 1016 63 10000 3.6 190 00:40 02.06.2020
2221 Clouds 17 1015 72 10000 3.1 220 00:20 02.06.2020
2222 Clouds 18 1015 68 10000 2.1 210 23:39 01.06.2020
2223 Clouds 19 1015 63 10000 3.1 190 23:19 01.06.2020
2224 Clouds 19 1015 63 10000 2.6 190 22:56 01.06.2020
2225 Clouds 19 1015 63 10000 2.6 190 22:56 01.06.2020
2226 Clouds 19 1015 63 10000 2.6 190 22:37 01.06.2020
2227 Clouds 20 1015 68 10000 3.1 190 22:18 01.06.2020
2228 Clouds 20 1014 68 10000 3.6 200 21:41 01.06.2020
2229 Clouds 21 1014 46 10000 3.1 220 21:20 01.06.2020
2230 Clouds 21 1014 46 10000 3.1 220 20:59 01.06.2020
2231 Clouds 21 1014 46 10000 3.1 220 20:41 01.06.2020
2232 Clouds 22 1014 46 10000 4.6 230 20:20 01.06.2020
2233 Clouds 22 1014 46 10000 4.6 230 19:58 01.06.2020
2234 Clouds 23 1014 46 10000 4.6 230 19:39 01.06.2020
2235 Clouds 23 1014 46 10000 4.6 230 19:20 01.06.2020
2236 Clouds 23 1014 41 10000 4.1 220 18:57 01.06.2020
2237 Clouds 24 1014 41 10000 4.1 220 18:38 01.06.2020
2238 Clouds 24 1014 41 10000 4.1 220 18:18 01.06.2020
2239 Clouds 25 1014 31 10000 6.2 240 17:41 01.06.2020
2240 Clouds 25 1014 31 10000 2.6 220 17:20 01.06.2020
2241 Clouds 25 1014 31 10000 2.6 220 16:56 01.06.2020
2242 Clouds 25 1014 31 10000 2.6 220 16:38 01.06.2020
2243 Clouds 25 1014 31 10000 2.6 220 16:18 01.06.2020
2244 Clouds 25 1015 31 10000 1 0 15:44 01.06.2020
2245 Clouds 26 1015 29 10000 1.5 0 15:21 01.06.2020
2246 Clouds 26 1015 29 10000 1.5 0 14:59 01.06.2020
2247 Clouds 26 1015 29 10000 1.5 0 14:41 01.06.2020
2248 Clouds 25 1015 31 10000 2.1 160 14:21 01.06.2020
2249 Clouds 25 1015 31 10000 2.1 160 13:56 01.06.2020
2250 Clouds 25 1015 31 10000 2.1 160 13:38 01.06.2020
2251 Clear 25 1015 31 10000 2.1 160 13:19 01.06.2020
2252 Clear 24 1015 31 10000 1 0 12:57 01.06.2020
2253 Clear 24 1015 31 10000 1 0 12:38 01.06.2020
2254 Clear 23 1015 31 10000 1 0 12:20 01.06.2020
2255 Clear 23 1015 35 10000 2.1 20 11:40 01.06.2020
2256 Clear 23 1015 35 10000 2.1 20 11:22 01.06.2020
2257 Clear 22 1015 52 10000 1 0 10:57 01.06.2020
2258 Clear 21 1015 52 10000 1 0 10:38 01.06.2020
2259 Clear 21 1015 52 10000 1 0 10:19 01.06.2020
2260 Clear 20 1015 63 10000 2.1 360 09:55 01.06.2020
2261 Clear 19 1015 63 10000 2.1 360 09:37 01.06.2020
2262 Clear 19 1015 63 10000 2.1 360 09:37 01.06.2020
2263 Clear 19 1015 63 10000 2.1 360 09:19 01.06.2020
2264 Clear 18 1015 67 10000 2.6 20 08:42 01.06.2020
2265 Clear 17 1015 67 10000 2.6 20 08:23 01.06.2020
2266 Clear 16 1015 82 10000 1.5 40 07:44 01.06.2020
2267 Clear 16 1015 82 10000 2.1 60 07:26 01.06.2020
2268 Clear 14 1015 82 10000 2.1 20 06:52 01.06.2020
2269 Clear 14 1015 77 10000 1 80 06:20 01.06.2020
2270 Clear 14 1015 77 10000 1.5 80 05:49 01.06.2020
2271 Clear 15 1015 77 10000 1 260 04:23 01.06.2020
2272 Clouds 16 1015 67 10000 0.5 0 03:45 01.06.2020
2273 Clouds 16 1015 67 10000 1 0 02:59 01.06.2020
2274 Clouds 17 1015 63 10000 1.5 170 01:47 01.06.2020
2275 Clouds 17 1015 63 10000 2.1 150 01:27 01.06.2020
2276 Clouds 18 1015 68 10000 2.1 160 00:57 01.06.2020
2277 Clouds 18 1015 68 10000 2.1 160 00:57 01.06.2020
2278 Clouds 17 1015 68 10000 2.6 160 00:38 01.06.2020
2279 Clouds 17 1015 68 10000 2.6 160 00:20 01.06.2020
2280 Clouds 18 1015 68 10000 2.6 190 23:54 31.05.2020
2281 Clouds 18 1015 72 10000 3.1 200 23:36 31.05.2020
2282 Clouds 18 1015 72 10000 3.1 200 23:18 31.05.2020
2283 Clouds 19 1015 63 10000 2.6 200 22:42 31.05.2020
2284 Clouds 19 1015 63 10000 2.6 200 22:24 31.05.2020
2285 Clouds 19 1014 59 10000 2.1 190 21:57 31.05.2020
2286 Clouds 19 1014 59 10000 1 0 21:39 31.05.2020
2287 Clouds 20 1013 49 10000 3.6 280 21:21 31.05.2020
2288 Clouds 21 1013 49 10000 3.6 280 20:48 31.05.2020
2289 Clouds 21 1013 49 10000 3.6 280 20:25 31.05.2020
2290 Clouds 21 1013 46 10000 4.6 270 19:57 31.05.2020
2291 Clouds 22 1013 46 10000 4.6 270 19:38 31.05.2020
2292 Clouds 22 1013 46 10000 4.6 270 19:20 31.05.2020
2293 Clouds 22 1013 49 10000 4.6 260 18:58 31.05.2020
2294 Clouds 22 1013 49 10000 4.6 260 18:39 31.05.2020
2295 Clouds 22 1013 49 10000 4.6 260 18:21 31.05.2020
2296 Clouds 22 1013 49 10000 4.6 260 18:21 31.05.2020
2297 Clouds 22 1013 53 10000 4.1 270 17:42 31.05.2020
2298 Clouds 22 1013 53 10000 4.1 270 17:24 31.05.2020
2299 Clouds 23 1014 49 10000 6.7 260 16:42 31.05.2020
2300 Clouds 23 1014 49 10000 6.7 260 16:22 31.05.2020
2301 Clouds 24 1014 41 10000 4.6 280 15:57 31.05.2020
2302 Clouds 24 1014 41 10000 4.6 280 15:57 31.05.2020
2303 Clouds 25 1014 41 10000 4.6 280 15:37 31.05.2020
2304 Clouds 25 1014 41 10000 4.6 280 15:19 31.05.2020
2305 Clouds 24 1014 29 10000 2.1 330 14:44 31.05.2020
2306 Clouds 24 1014 29 10000 2.1 330 14:19 31.05.2020
2307 Clouds 25 1015 36 10000 2.1 20 13:56 31.05.2020
2308 Clouds 24 1015 36 10000 2.1 20 13:37 31.05.2020
2309 Clouds 24 1015 36 10000 2.1 20 13:19 31.05.2020
2310 Clouds 23 1015 46 10000 2.1 40 12:54 31.05.2020
2311 Clouds 23 1015 46 10000 2.1 40 12:36 31.05.2020
2312 Clouds 23 1015 46 10000 2.1 40 12:18 31.05.2020
2313 Clear 21 1015 52 10000 2.1 10 11:42 31.05.2020
2314 Clear 21 1015 52 10000 2.1 10 11:21 31.05.2020
2315 Clear 20 1016 72 10000 1.5 0 10:46 31.05.2020
2316 Clear 19 1016 72 10000 1.5 0 10:28 31.05.2020
2317 Clear 18 1015 63 10000 2.6 50 09:59 31.05.2020
2318 Clear 18 1015 67 10000 3.6 50 09:41 31.05.2020
2319 Fog 15 1016 100 400 2.1 360 09:21 31.05.2020
2320 Fog 14 1016 100 400 2.1 360 08:43 31.05.2020
2321 Fog 14 1016 100 400 2.1 360 08:24 31.05.2020
2322 Clear 14 1015 87 10000 3.1 50 07:52 31.05.2020
2323 Clear 13 1015 87 10000 1.5 40 07:22 31.05.2020
2324 Clear 13 1015 87 10000 1.5 40 07:22 31.05.2020
2325 Clear 12 1015 93 10000 1 50 06:58 31.05.2020
2326 Clear 12 1015 93 10000 2.1 20 06:36 31.05.2020
2327 Clear 12 1015 87 10000 1 0 05:56 31.05.2020
2328 Clear 12 1015 87 10000 1 0 05:37 31.05.2020
2329 Clear 12 1015 76 10000 1.5 60 04:20 31.05.2020
2330 Clear 12 1015 76 10000 1 40 03:45 31.05.2020
2331 Clear 13 1015 76 10000 1 110 02:50 31.05.2020
2332 Clear 13 1015 76 10000 1 160 01:47 31.05.2020
2333 Clear 14 1015 76 10000 1.5 160 00:52 31.05.2020
2334 Clear 14 1015 76 10000 1.5 130 00:28 31.05.2020
2335 Clear 15 1015 67 10000 1 0 23:43 30.05.2020
2336 Clear 15 1015 67 10000 1 0 23:25 30.05.2020
2337 Clear 16 1015 67 10000 1 0 22:58 30.05.2020
2338 Clear 16 1015 63 10000 1.5 90 22:40 30.05.2020
2339 Clear 16 1015 63 10000 1.5 90 22:21 30.05.2020
2340 Clear 16 1014 63 10000 2.1 60 21:55 30.05.2020
2341 Clouds 17 1014 67 10000 2.1 340 21:36 30.05.2020
2342 Clouds 17 1014 59 10000 0.5 0 21:18 30.05.2020
2343 Clouds 18 1014 59 10000 0.5 0 20:54 30.05.2020
2344 Clouds 18 1014 59 10000 0.5 0 20:36 30.05.2020
2345 Clouds 18 1014 59 10000 0.5 0 20:18 30.05.2020
2346 Clouds 18 1014 63 10000 0.5 0 19:41 30.05.2020
2347 Clouds 18 1014 63 10000 0.5 0 19:21 30.05.2020
2348 Clouds 18 1014 63 10000 0.5 0 19:21 30.05.2020
2349 Clouds 19 1014 68 10000 1 0 18:44 30.05.2020
2350 Clouds 19 1014 68 10000 1 0 18:21 30.05.2020
2351 Clouds 19 1014 72 10000 4.1 220 17:46 30.05.2020
2352 Clouds 19 1014 72 10000 4.1 220 17:26 30.05.2020
2353 Rain 17 1014 87 10000 4.1 180 16:59 30.05.2020
2354 Rain 17 1014 87 10000 4.1 180 16:59 30.05.2020
2355 Rain 17 1014 87 10000 4.1 180 16:41 30.05.2020
2356 Rain 17 1014 87 10000 4.1 180 16:21 30.05.2020
2357 Rain 18 1014 63 10000 3.6 170 15:45 30.05.2020
2358 Rain 19 1014 63 10000 3.6 170 15:26 30.05.2020
2359 Clouds 20 1014 40 10000 1 0 14:46 30.05.2020
2360 Clouds 20 1014 40 10000 1 0 14:27 30.05.2020
2361 Clouds 20 1015 43 10000 1 0 13:44 30.05.2020
2362 Clouds 20 1015 43 10000 1 0 13:26 30.05.2020
2363 Clouds 20 1015 55 10000 1 0 12:43 30.05.2020
2364 Clouds 20 1015 55 10000 1 0 12:23 30.05.2020
2365 Clouds 19 1015 63 10000 2.6 50 11:59 30.05.2020
2366 Clouds 19 1015 63 10000 2.6 50 11:41 30.05.2020
2367 Clouds 19 1015 63 10000 2.6 50 11:22 30.05.2020
2368 Clouds 18 1016 77 10000 0.48 53 10:55 30.05.2020
2369 Clouds 18 1016 77 10000 0.48 53 10:37 30.05.2020
2370 Clouds 17 1016 93 10000 2.1 30 10:19 30.05.2020
2371 Clouds 16 1016 93 10000 2.1 30 09:42 30.05.2020
2372 Clouds 16 1016 93 10000 2.1 30 09:24 30.05.2020
2373 Clouds 14 1016 100 10000 1.5 0 08:41 30.05.2020
2374 Clouds 14 1016 100 10000 1.5 0 08:21 30.05.2020
2375 Clouds 12 1016 93 10000 0.5 0 07:39 30.05.2020
2376 Clouds 12 1016 93 10000 0.5 0 07:18 30.05.2020
2377 Clouds 11 1015 93 10000 1.5 80 06:28 30.05.2020
2378 Clouds 12 1016 93 10000 1 80 05:49 30.05.2020
2379 Rain 12 1016 93 10000 1 0 04:47 30.05.2020
2380 Clouds 13 1017 87 10000 1 160 02:41 30.05.2020
2381 Clouds 13 1017 87 10000 1 160 02:19 30.05.2020
2382 Clouds 13 1017 87 10000 2.1 340 00:45 30.05.2020
2383 Clouds 13 1017 87 10000 2.1 340 00:24 30.05.2020
2384 Clouds 14 1017 87 10000 2.1 140 23:59 29.05.2020
2385 Clouds 14 1018 87 10000 1 110 23:38 29.05.2020
2386 Clouds 14 1018 87 10000 1 110 23:19 29.05.2020
2387 Clouds 14 1018 82 10000 2.1 140 22:54 29.05.2020
2388 Clouds 14 1018 82 10000 1.5 190 22:36 29.05.2020
2389 Clouds 14 1018 82 10000 1.5 190 22:18 29.05.2020
2390 Clouds 14 1018 82 10000 1.5 190 22:18 29.05.2020
2391 Clouds 15 1018 82 10000 2.1 220 21:39 29.05.2020
2392 Clouds 15 1018 87 10000 2.1 100 21:21 29.05.2020
2393 Clouds 15 1018 87 10000 2.1 100 21:21 29.05.2020
2394 Clouds 15 1018 87 10000 2.1 100 20:57 29.05.2020
2395 Clouds 15 1018 87 10000 2.1 100 20:38 29.05.2020
2396 Clouds 15 1018 87 10000 2.1 100 20:19 29.05.2020
2397 Rain 15 1018 87 10000 1.5 0 19:43 29.05.2020
2398 Rain 15 1018 87 10000 1.5 0 19:24 29.05.2020
2399 Rain 15 1018 87 10000 4.1 90 18:48 29.05.2020
2400 Rain 15 1018 87 10000 4.1 90 18:23 29.05.2020
2401 Rain 15 1019 93 8000 3.1 100 17:59 29.05.2020
2402 Rain 15 1019 93 8000 3.1 100 17:39 29.05.2020
2403 Rain 15 1020 87 8000 3.6 130 17:20 29.05.2020
2404 Rain 15 1020 87 8000 3.6 130 16:47 29.05.2020
2405 Rain 15 1020 87 8000 3.6 130 16:29 29.05.2020
2406 Clouds 14 1019 93 10000 2.1 110 15:59 29.05.2020
2407 Clouds 15 1019 93 10000 2.1 110 15:41 29.05.2020
2408 Clouds 15 1019 93 10000 2.1 110 15:21 29.05.2020
2409 Thunderstorm 15 1019 87 3000 2.6 110 14:57 29.05.2020
2410 Thunderstorm 17 1019 87 3000 2.6 110 14:38 29.05.2020
2411 Thunderstorm 17 1019 87 3000 2.6 110 14:19 29.05.2020
2412 Thunderstorm 18 1019 87 3000 5.1 10 13:43 29.05.2020
2413 Thunderstorm 19 1019 87 3000 5.1 10 13:22 29.05.2020
2414 Thunderstorm 20 1018 56 8000 2.6 260 12:56 29.05.2020
2415 Thunderstorm 20 1018 56 8000 2.6 260 12:56 29.05.2020
2416 Thunderstorm 21 1018 56 8000 2.6 260 12:37 29.05.2020
2417 Thunderstorm 21 1018 56 8000 2.6 260 12:18 29.05.2020
2418 Clouds 23 1018 43 10000 4.1 180 11:42 29.05.2020
2419 Clouds 23 1018 43 10000 4.1 180 11:42 29.05.2020
2420 Clouds 23 1018 43 10000 4.1 180 11:24 29.05.2020
2421 Rain 22 1018 49 10000 1.5 0 10:46 29.05.2020
2422 Clouds 22 1018 49 10000 1.5 0 10:24 29.05.2020
2423 Clouds 21 1019 63 10000 2.6 10 09:58 29.05.2020
2424 Clouds 21 1019 63 10000 2.6 10 09:40 29.05.2020
2425 Clouds 20 1019 63 10000 2.6 10 09:19 29.05.2020
2426 Clouds 18 1019 77 10000 3.1 360 08:47 29.05.2020
2427 Clear 17 1019 77 10000 3.1 360 08:24 29.05.2020
2428 Clouds 17 1018 72 10000 2.1 110 07:48 29.05.2020
2429 Clouds 16 1018 72 10000 3.6 160 07:30 29.05.2020
2430 Clouds 16 1019 77 10000 0.5 0 06:58 29.05.2020
2431 Clouds 16 1018 72 10000 1 0 06:39 29.05.2020
2432 Clouds 16 1018 72 10000 1 0 06:21 29.05.2020
2433 Clear 16 1018 72 10000 1.5 160 05:40 29.05.2020
2434 Clear 18 1019 63 10000 0.5 0 02:18 29.05.2020
2435 Clear 19 1019 68 10000 1.5 140 01:27 29.05.2020
2436 Clear 19 1020 63 10000 1 0 00:53 29.05.2020
2437 Clear 19 1020 63 10000 1.5 200 00:32 29.05.2020
2438 Clear 19 1020 63 10000 2.1 190 23:57 28.05.2020
2439 Clear 19 1020 63 10000 2.1 200 23:38 28.05.2020
2440 Clear 20 1020 63 10000 2.1 200 23:18 28.05.2020
2441 Clouds 20 1020 59 10000 2.6 200 22:42 28.05.2020
2442 Clouds 20 1020 59 10000 2.6 200 22:23 28.05.2020
2443 Clouds 20 1020 63 10000 2.6 190 21:56 28.05.2020
2444 Clouds 20 1020 63 10000 2.1 210 21:37 28.05.2020
2445 Clouds 20 1016 49 10000 3.1 220 21:19 28.05.2020
2446 Clouds 21 1016 49 10000 3.1 220 20:56 28.05.2020
2447 Clouds 21 1016 49 10000 3.1 220 20:37 28.05.2020
2448 Clouds 21 1016 49 10000 3.1 220 20:18 28.05.2020
2449 Clouds 21 1020 52 10000 5.1 230 20:18 28.05.2020
2450 Clouds 21 1020 52 10000 5.1 230 19:43 28.05.2020
2451 Clouds 21 1020 52 10000 5.1 230 19:20 28.05.2020
2452 Clouds 22 1020 49 10000 6.2 230 18:57 28.05.2020
2453 Clouds 23 1020 49 10000 6.2 230 18:39 28.05.2020
2454 Clouds 23 1020 49 10000 6.2 230 18:21 28.05.2020
2455 Clouds 23 1021 43 10000 7.2 240 17:41 28.05.2020
2456 Clouds 23 1021 43 10000 7.2 240 17:22 28.05.2020
2457 Clouds 24 1021 38 10000 5.7 240 16:56 28.05.2020
2458 Clouds 24 1021 38 10000 5.7 240 16:36 28.05.2020
2459 Clouds 24 1021 38 10000 5.7 240 16:18 28.05.2020
2460 Clouds 24 1021 33 10000 7.2 230 15:41 28.05.2020
2461 Clouds 25 1021 33 10000 7.2 230 15:23 28.05.2020
2462 Clouds 25 1022 20 10000 1.5 0 14:43 28.05.2020
2463 Clouds 25 1022 20 10000 1.5 0 14:24 28.05.2020
2464 Clouds 26 1023 22 10000 1 0 13:49 28.05.2020
2465 Clouds 25 1023 22 10000 1 0 13:30 28.05.2020
2466 Clouds 25 1023 23 10000 1.5 0 12:59 28.05.2020
2467 Clouds 24 1023 23 10000 1.5 0 12:38 28.05.2020
2468 Clouds 24 1023 23 10000 1.5 0 12:18 28.05.2020
2469 Clouds 24 1024 28 10000 1.5 0 11:42 28.05.2020
2470 Clouds 23 1024 28 10000 1.5 0 11:24 28.05.2020
2471 Clouds 23 1025 35 10000 1.5 0 10:56 28.05.2020
2472 Clouds 22 1025 35 10000 1.5 0 10:38 28.05.2020
2473 Clear 21 1025 35 10000 1.5 0 10:18 28.05.2020
2474 Clear 19 1025 48 10000 1.5 0 09:39 28.05.2020
2475 Clear 18 1025 48 10000 1.5 0 09:19 28.05.2020
2476 Clear 17 1025 58 10000 1.5 0 08:47 28.05.2020
2477 Clear 17 1025 58 10000 1.5 0 08:26 28.05.2020
2478 Clear 15 1025 58 10000 1 0 07:45 28.05.2020
2479 Clear 14 1025 58 10000 1 0 07:26 28.05.2020
2480 Clear 14 1025 62 10000 2.1 40 06:56 28.05.2020
2481 Clear 13 1025 62 10000 1 0 06:37 28.05.2020
2482 Clear 13 1025 58 10000 1.5 60 05:40 28.05.2020
2483 Clear 13 1025 62 10000 0.5 0 04:54 28.05.2020
2484 Clear 14 1025 66 10000 2.1 340 04:27 28.05.2020
2485 Clear 15 1025 54 10000 1 0 03:45 28.05.2020
2486 Clear 15 1025 51 10000 2.1 10 02:45 28.05.2020
2487 Clear 16 1025 54 10000 3.1 30 01:50 28.05.2020
2488 Clear 17 1025 45 10000 2.6 50 00:54 28.05.2020
2489 Clear 17 1025 45 10000 2.1 50 00:24 28.05.2020
2490 Clear 18 1025 42 10000 3.1 50 23:57 27.05.2020
2491 Clear 18 1025 39 10000 3.1 20 23:39 27.05.2020
2492 Clear 18 1025 39 10000 3.1 20 23:20 27.05.2020
2493 Clear 19 1025 37 10000 3.6 40 22:56 27.05.2020
2494 Clear 19 1025 34 10000 4.1 20 22:38 27.05.2020
2495 Clear 20 1025 34 10000 4.1 20 22:19 27.05.2020
2496 Clear 21 1024 52 10000 1 0 21:41 27.05.2020
2497 Clear 21 1024 27 10000 6.2 360 21:22 27.05.2020
2498 Clear 22 1024 27 10000 6.2 360 20:59 27.05.2020
2499 Clear 22 1024 27 10000 6.2 360 20:40 27.05.2020
2500 Clouds 22 1024 27 10000 6.2 360 20:21 27.05.2020
2501 Clouds 23 1023 25 10000 3.1 0 19:55 27.05.2020
2502 Clouds 23 1023 25 10000 3.1 0 19:37 27.05.2020
2503 Clouds 24 1023 25 10000 3.1 0 19:18 27.05.2020
2504 Clouds 24 1024 24 10000 3.6 20 18:39 27.05.2020
2505 Clouds 25 1024 24 10000 3.6 20 18:19 27.05.2020
2506 Clouds 25 1024 21 10000 3.1 0 17:45 27.05.2020
2507 Clouds 25 1024 21 10000 3.1 0 17:26 27.05.2020
2508 Clouds 25 1024 19 10000 3.6 50 16:57 27.05.2020
2509 Clouds 25 1024 19 10000 3.6 50 16:38 27.05.2020
2510 Clouds 25 1024 19 10000 3.6 50 16:20 27.05.2020
2511 Clouds 25 1024 19 10000 3.6 50 16:20 27.05.2020
2512 Clouds 25 1025 21 10000 3.6 360 15:59 27.05.2020
2513 Clouds 25 1025 21 10000 3.6 360 15:37 27.05.2020
2514 Clouds 25 1025 21 10000 3.6 360 15:18 27.05.2020
2515 Clouds 25 1025 22 10000 1 0 14:42 27.05.2020
2516 Clouds 24 1025 22 10000 1 0 14:20 27.05.2020
2517 Clouds 25 1026 22 10000 2.6 340 13:44 27.05.2020
2518 Clouds 25 1026 22 10000 2.6 340 13:25 27.05.2020
2519 Clouds 24 1026 28 10000 3.1 0 12:57 27.05.2020
2520 Clouds 23 1026 28 10000 2.1 0 12:39 27.05.2020
2521 Clouds 23 1023 28 10000 6.7 20 12:21 27.05.2020
2522 Clouds 23 1023 28 10000 6.7 20 11:39 27.05.2020
2523 Clouds 22 1023 28 10000 6.7 20 11:21 27.05.2020
2524 Clear 22 1026 30 10000 5.7 40 10:57 27.05.2020
2525 Clear 22 1026 30 10000 5.7 40 10:38 27.05.2020
2526 Clear 21 1026 30 10000 5.7 40 10:19 27.05.2020
2527 Clear 20 1026 39 10000 4.1 20 09:40 27.05.2020
2528 Clear 19 1026 39 10000 4.1 20 09:22 27.05.2020
2529 Clear 18 1026 42 10000 2.1 70 08:56 27.05.2020
2530 Clear 17 1026 42 10000 2.1 70 08:36 27.05.2020
2531 Clear 17 1026 42 10000 2.1 70 08:18 27.05.2020
2532 Clear 16 1025 47 10000 3.1 40 07:49 27.05.2020
2533 Clear 15 1025 47 10000 3.6 40 07:30 27.05.2020
2534 Clear 14 1025 50 10000 3.6 40 06:47 27.05.2020
2535 Clear 14 1025 54 10000 3.6 10 06:20 27.05.2020
2536 Clear 14 1025 44 10000 2.6 60 05:49 27.05.2020
2537 Clear 16 1025 44 10000 3.6 50 04:38 27.05.2020
2538 Clear 16 1025 44 10000 3.1 30 02:32 27.05.2020
2539 Clear 17 1025 44 10000 3.1 40 01:53 27.05.2020
2540 Clear 17 1025 42 10000 3.6 40 01:29 27.05.2020
2541 Clear 18 1025 39 10000 3.1 50 00:46 27.05.2020
2542 Clear 18 1024 34 10000 4.1 50 00:20 27.05.2020
2543 Clear 18 1024 31 10000 4.6 40 23:54 26.05.2020
2544 Clear 19 1024 50 10000 4.1 40 23:36 26.05.2020
2545 Clear 19 1024 53 10000 4.1 40 23:18 26.05.2020
2546 Clear 19 1024 53 10000 4.1 40 23:18 26.05.2020
2547 Clear 20 1023 53 10000 3.1 40 22:40 26.05.2020
2548 Clear 20 1023 50 10000 3.1 40 22:21 26.05.2020
2549 Clear 20 1023 28 10000 3.6 30 21:58 26.05.2020
2550 Clear 21 1022 50 10000 5.7 10 21:40 26.05.2020
2551 Clear 21 1022 43 10000 4.6 360 21:21 26.05.2020
2552 Clear 22 1022 58 10000 4.6 360 20:56 26.05.2020
2553 Clouds 23 1022 54 10000 4.6 360 20:37 26.05.2020
2554 Clouds 23 1022 54 10000 4.6 360 20:19 26.05.2020
2555 Clouds 24 1022 22 10000 6.7 350 19:40 26.05.2020
2556 Clouds 24 1022 22 10000 6.7 350 19:20 26.05.2020
2557 Clouds 25 1022 21 10000 6.2 360 18:44 26.05.2020
2558 Clouds 25 1022 21 10000 6.2 360 18:25 26.05.2020
2559 Clouds 25 1022 21 10000 6.2 340 17:59 26.05.2020
2560 Clouds 25 1022 21 10000 6.2 340 17:38 26.05.2020
2561 Clouds 25 1022 21 10000 6.2 340 17:20 26.05.2020
2562 Clouds 24 1022 44 10000 5.1 290 16:47 26.05.2020
2563 Clouds 24 1022 44 10000 5.1 290 16:20 26.05.2020
2564 Clouds 25 1022 21 10000 2.6 10 15:56 26.05.2020
2565 Clouds 26 1022 21 10000 2.6 10 15:38 26.05.2020
2566 Clouds 26 1022 21 10000 2.6 10 15:19 26.05.2020
2567 Clouds 26 1023 20 10000 3.6 10 14:43 26.05.2020
2568 Clouds 27 1023 20 10000 3.6 10 14:24 26.05.2020
2569 Clouds 26 1024 19 10000 2.1 20 13:57 26.05.2020
2570 Clouds 26 1024 19 10000 2.1 20 13:38 26.05.2020
2571 Clouds 26 1024 19 10000 2.1 20 13:20 26.05.2020
2572 Clouds 26 1024 21 10000 2.1 330 12:43 26.05.2020
2573 Clouds 26 1024 21 10000 2.1 330 12:22 26.05.2020
2574 Clear 25 1024 29 10000 1.5 0 11:59 26.05.2020
2575 Clear 25 1024 29 10000 1.5 0 11:40 26.05.2020
2576 Clear 25 1024 29 10000 1.5 0 11:19 26.05.2020
2577 Clear 24 1024 33 10000 2.6 350 10:44 26.05.2020
2578 Clear 24 1024 33 10000 2.6 350 10:19 26.05.2020
2579 Clear 22 1024 37 10000 3.1 20 09:41 26.05.2020
2580 Clear 21 1024 37 10000 3.1 20 09:20 26.05.2020
2581 Clear 20 1024 59 10000 2.1 350 08:44 26.05.2020
2582 Clear 19 1024 59 10000 2.1 350 08:23 26.05.2020
2583 Clear 18 1023 67 10000 1 0 07:58 26.05.2020
2584 Clear 17 1023 72 10000 0.5 0 07:39 26.05.2020
2585 Clear 17 1023 72 10000 0.5 0 07:21 26.05.2020
2586 Clear 16 1023 76 10000 0.5 0 06:46 26.05.2020
2587 Clear 15 1023 76 10000 0.5 0 06:23 26.05.2020
2588 Clear 15 1022 72 10000 0.5 0 05:35 26.05.2020
2589 Clear 15 1022 76 10000 0.5 0 04:56 26.05.2020
2590 Clear 15 1022 72 10000 1.5 50 04:37 26.05.2020
2591 Clear 16 1022 72 10000 1.5 50 04:18 26.05.2020
2592 Clear 17 1023 63 10000 0.5 0 02:52 26.05.2020
2593 Clear 18 1023 59 10000 1 0 02:21 26.05.2020
2594 Clear 18 1023 68 10000 0.5 0 01:40 26.05.2020
2595 Clouds 19 1023 63 10000 1.5 170 00:39 26.05.2020
2596 Clouds 19 1023 63 10000 1.5 170 00:20 26.05.2020
2597 Clouds 19 1023 68 10000 1.5 210 23:58 25.05.2020
2598 Clouds 20 1023 60 10000 1.5 190 23:38 25.05.2020
2599 Clouds 20 1023 60 10000 1.5 190 23:19 25.05.2020
2600 Clouds 20 1023 60 10000 1.5 190 23:19 25.05.2020
2601 Clouds 20 1023 63 10000 1.5 200 22:55 25.05.2020
2602 Clouds 20 1023 59 10000 1.5 220 22:37 25.05.2020
2603 Clouds 20 1023 59 10000 1.5 220 22:37 25.05.2020
2604 Clear 20 1023 59 10000 1.5 220 22:18 25.05.2020
2605 Clear 21 1022 56 10000 1.5 230 21:56 25.05.2020
2606 Clear 21 1022 56 10000 2.1 260 21:36 25.05.2020
2607 Clear 21 1022 40 10000 3.6 240 21:18 25.05.2020
2608 Clear 22 1022 40 10000 3.6 240 20:43 25.05.2020
2609 Clouds 23 1022 40 10000 3.6 240 20:22 25.05.2020
2610 Clouds 23 1021 41 10000 4.6 250 19:59 25.05.2020
2611 Clouds 24 1021 41 10000 4.6 250 19:41 25.05.2020
2612 Clouds 24 1021 41 10000 4.6 250 19:19 25.05.2020
2613 Clouds 25 1021 41 10000 5.1 260 18:58 25.05.2020
2614 Clouds 25 1021 41 10000 5.1 260 18:40 25.05.2020
2615 Clouds 25 1021 41 10000 5.1 260 18:20 25.05.2020
2616 Clouds 26 1021 41 10000 7.7 260 17:44 25.05.2020
2617 Clouds 26 1021 41 10000 7.7 260 17:44 25.05.2020
2618 Clouds 26 1021 41 10000 7.7 260 17:24 25.05.2020
2619 Clouds 26 1022 44 10000 6.2 250 16:58 25.05.2020
2620 Clouds 26 1022 44 10000 6.2 250 16:40 25.05.2020
2621 Clouds 26 1022 44 10000 6.2 250 16:20 25.05.2020
2622 Clouds 27 1022 42 10000 5.7 240 15:45 25.05.2020
2623 Clouds 26 1022 42 10000 5.7 240 15:20 25.05.2020
2624 Clouds 26 1022 34 10000 4.1 280 14:59 25.05.2020
2625 Clouds 27 1022 34 10000 4.1 280 14:39 25.05.2020
2626 Clouds 27 1022 34 10000 4.1 280 14:21 25.05.2020
2627 Rain 27 1023 23 10000 1.5 0 13:40 25.05.2020
2628 Rain 27 1023 23 10000 1.5 0 13:21 25.05.2020
2629 Rain 26 1023 32 10000 1.5 0 12:59 25.05.2020
2630 Rain 27 1023 32 10000 1.5 0 12:39 25.05.2020
2631 Rain 26 1023 32 10000 1.5 0 12:20 25.05.2020
2632 Rain 26 1024 36 10000 1.5 0 11:40 25.05.2020
2633 Rain 26 1024 36 10000 1.5 0 11:21 25.05.2020
2634 Rain 25 1024 43 10000 2.1 350 10:59 25.05.2020
2635 Rain 24 1024 43 10000 2.1 350 10:41 25.05.2020
2636 Clouds 24 1024 49 10000 4.6 40 10:20 25.05.2020
2637 Clouds 23 1024 49 10000 4.6 40 09:55 25.05.2020
2638 Clouds 22 1024 68 10000 2.6 350 09:36 25.05.2020
2639 Clouds 22 1024 68 10000 2.6 350 09:18 25.05.2020
2640 Clouds 21 1023 60 10000 2.6 60 08:40 25.05.2020
2641 Clouds 20 1024 72 10000 1.5 0 08:21 25.05.2020
2642 Clouds 20 1023 77 10000 2.1 30 07:56 25.05.2020
2643 Clouds 19 1023 82 10000 2.1 50 07:38 25.05.2020
2644 Clouds 19 1023 82 10000 2.1 50 07:38 25.05.2020
2645 Clouds 19 1023 82 10000 2.1 50 07:18 25.05.2020
2646 Clouds 18 1023 87 10000 1.5 20 06:38 25.05.2020
2647 Clouds 18 1023 77 10000 1 150 05:27 25.05.2020
2648 Clear 19 1023 77 10000 1.5 50 03:30 25.05.2020
2649 Clear 19 1023 77 10000 1.5 60 02:51 25.05.2020
2650 Clear 19 1023 88 10000 1.5 60 02:32 25.05.2020
2651 Clear 19 1023 82 10000 2.1 80 01:42 25.05.2020
2652 Clear 19 1023 77 10000 2.6 80 00:47 25.05.2020
2653 Clear 20 1023 77 10000 2.1 80 00:26 25.05.2020
2654 Clear 20 1024 82 10000 1.5 180 23:58 24.05.2020
2655 Clear 20 1023 82 10000 3.1 200 23:39 24.05.2020
2656 Clear 20 1023 82 10000 3.1 200 23:39 24.05.2020
2657 Clear 20 1023 82 10000 3.1 200 23:20 24.05.2020
2658 Clear 20 1023 82 10000 3.6 200 22:55 24.05.2020
2659 Clear 20 1023 82 10000 4.6 210 22:37 24.05.2020
2660 Clear 21 1023 77 10000 3.6 220 22:18 24.05.2020
2661 Clear 21 1023 77 10000 3.6 220 22:18 24.05.2020
2662 Clear 21 1023 77 10000 3.6 220 21:55 24.05.2020
2663 Clear 21 1023 72 10000 3.6 230 21:36 24.05.2020
2664 Clear 22 1022 64 10000 3.1 240 21:18 24.05.2020
2665 Clear 22 1022 64 10000 3.1 240 20:43 24.05.2020
2666 Clear 22 1022 64 10000 3.1 240 20:43 24.05.2020
2667 Clear 23 1022 64 10000 3.1 240 20:21 24.05.2020
2668 Clear 23 1022 53 10000 4.6 190 19:56 24.05.2020
2669 Clear 23 1022 53 10000 4.6 190 19:37 24.05.2020
2670 Clear 24 1021 47 10000 3.6 230 19:18 24.05.2020
2671 Clear 24 1021 47 10000 3.6 230 18:42 24.05.2020
2672 Clear 26 1021 47 10000 3.6 230 18:23 24.05.2020
2673 Clouds 27 1021 42 10000 4.6 210 17:57 24.05.2020
2674 Clouds 27 1021 42 10000 4.6 210 17:38 24.05.2020
2675 Clouds 27 1021 42 10000 4.6 210 17:19 24.05.2020
2676 Clear 27 1022 44 10000 4.6 230 16:56 24.05.2020
2677 Clear 27 1022 44 10000 4.6 230 16:37 24.05.2020
2678 Clear 27 1022 44 10000 4.6 230 16:19 24.05.2020
2679 Clear 27 1022 42 10000 3.6 230 15:55 24.05.2020
2680 Clear 28 1022 42 10000 3.6 230 15:37 24.05.2020
2681 Clear 28 1022 42 10000 3.6 230 15:18 24.05.2020
2682 Clouds 27 1022 45 10000 3.1 240 14:42 24.05.2020
2683 Clouds 28 1022 45 10000 3.1 240 14:22 24.05.2020
2684 Clouds 27 1023 44 10000 3.1 150 13:56 24.05.2020
2685 Clouds 27 1023 44 10000 3.1 150 13:38 24.05.2020
2686 Clouds 27 1023 44 10000 3.1 150 13:20 24.05.2020
2687 Clouds 26 1023 41 10000 3.6 150 12:57 24.05.2020
2688 Clouds 26 1023 41 10000 3.6 150 12:38 24.05.2020
2689 Clouds 26 1023 41 10000 3.6 150 12:19 24.05.2020
2690 Clouds 25 1024 50 10000 1 0 11:55 24.05.2020
2691 Clouds 24 1024 50 10000 1 0 11:37 24.05.2020
2692 Clouds 24 1024 50 10000 1 0 11:19 24.05.2020
2693 Clouds 23 1024 56 10000 1.5 0 10:43 24.05.2020
2694 Clouds 23 1024 56 10000 1.5 0 10:23 24.05.2020
2695 Clouds 21 1024 72 10000 1 0 09:58 24.05.2020
2696 Clouds 22 1024 46 10000 2.6 200 09:40 24.05.2020
2697 Clouds 22 1024 46 10000 2.6 200 09:18 24.05.2020
2698 Clouds 20 1023 46 10000 2.1 180 08:42 24.05.2020
2699 Clouds 19 1024 82 10000 1.5 0 08:24 24.05.2020
2700 Clouds 19 1023 45 10000 2.1 190 07:59 24.05.2020
2701 Clouds 18 1023 48 10000 2.1 190 07:40 24.05.2020
2702 Clouds 18 1023 48 10000 2.1 190 07:21 24.05.2020
2703 Clouds 17 1023 45 10000 3.1 190 06:45 24.05.2020
2704 Clouds 17 1023 52 10000 2.6 210 05:50 24.05.2020
2705 Clouds 18 1023 42 10000 3.1 160 03:58 24.05.2020
2706 Clouds 18 1024 42 10000 2.6 160 03:39 24.05.2020
2707 Clouds 18 1024 48 10000 2.1 170 02:30 24.05.2020
2708 Clear 18 1025 52 10000 2.1 160 01:32 24.05.2020
2709 Clear 19 1025 49 10000 1.5 180 00:38 24.05.2020
2710 Clouds 19 1025 49 10000 1.5 180 00:20 24.05.2020
2711 Clouds 20 1025 52 10000 2.6 160 23:40 23.05.2020
2712 Clear 20 1025 52 10000 2.6 160 23:21 23.05.2020
2713 Clear 20 1025 60 10000 2.1 180 22:57 23.05.2020
2714 Clear 20 1025 68 10000 2.6 210 22:37 23.05.2020
2715 Clear 21 1025 68 10000 2.6 210 22:19 23.05.2020
2716 Clear 21 1025 64 10000 2.6 220 21:57 23.05.2020
2717 Clear 22 1024 36 10000 3.6 220 21:37 23.05.2020
2718 Clear 22 1024 36 10000 3.6 220 21:19 23.05.2020
2719 Clear 23 1024 36 10000 3.6 220 20:55 23.05.2020
2720 Clouds 24 1024 36 10000 3.6 220 20:36 23.05.2020
2721 Clouds 25 1023 27 10000 3.6 260 20:18 23.05.2020
2722 Clouds 26 1023 27 10000 3.6 260 19:41 23.05.2020
2723 Clouds 26 1023 27 10000 3.6 260 19:19 23.05.2020
2724 Clouds 27 1024 26 10000 3.6 260 18:57 23.05.2020
2725 Clouds 27 1024 26 10000 3.6 260 18:39 23.05.2020
2726 Clouds 28 1024 26 10000 3.6 260 18:20 23.05.2020
2727 Clouds 28 1024 23 10000 5.1 260 17:54 23.05.2020
2728 Clouds 28 1024 23 10000 5.1 260 17:54 23.05.2020
2729 Clouds 28 1024 23 10000 5.1 260 17:36 23.05.2020
2730 Clouds 28 1024 23 10000 5.1 260 17:18 23.05.2020
2731 Clouds 28 1024 23 10000 5.1 260 17:18 23.05.2020
2732 Clouds 28 1025 24 10000 5.7 240 16:55 23.05.2020
2733 Clouds 28 1025 24 10000 5.7 240 16:37 23.05.2020
2734 Clouds 28 1025 24 10000 5.7 240 16:18 23.05.2020
2735 Clouds 28 1025 28 10000 6.2 250 15:41 23.05.2020
2736 Clouds 29 1025 28 10000 6.2 250 15:23 23.05.2020
2737 Clouds 29 1025 26 10000 4.1 250 14:43 23.05.2020
2738 Clouds 29 1025 26 10000 4.1 250 14:24 23.05.2020
2739 Clouds 28 1026 32 10000 1.5 0 13:57 23.05.2020
2740 Clouds 28 1026 32 10000 1.5 0 13:38 23.05.2020
2741 Clouds 28 1026 34 10000 1 0 13:18 23.05.2020
2742 Clouds 28 1026 34 10000 1 0 12:41 23.05.2020
2743 Clear 28 1026 34 10000 1 0 12:20 23.05.2020
2744 Clear 27 1026 41 10000 1.5 0 11:59 23.05.2020
2745 Clear 27 1026 41 10000 1.5 0 11:41 23.05.2020
2746 Clear 26 1026 41 10000 1.5 0 11:19 23.05.2020
2747 Clear 25 1026 53 10000 1 0 10:56 23.05.2020
2748 Clear 24 1026 53 10000 1 0 10:37 23.05.2020
2749 Clear 24 1026 53 10000 1 0 10:19 23.05.2020
2750 Clear 22 1026 68 10000 1 0 09:55 23.05.2020
2751 Clear 21 1026 68 10000 1 0 09:37 23.05.2020
2752 Clear 21 1026 68 10000 1 0 09:18 23.05.2020
2753 Clear 19 1026 82 10000 1 0 08:41 23.05.2020
2754 Clouds 19 1026 82 10000 1 0 08:19 23.05.2020
2755 Clouds 18 1022 72 0 0.45 1 07:45 23.05.2020
2756 Clouds 17 1022 72 0 1.52 9 07:27 23.05.2020
2757 Clouds 17 1022 76 0 1.52 9 06:44 23.05.2020
2758 Clouds 16 1022 75 0 0.45 43 05:59 23.05.2020
2759 Clouds 17 1022 78 0 1.63 11 04:27 23.05.2020
2760 Clouds 18 1022 77 0 1.59 9 03:26 23.05.2020
2761 Clouds 18 1022 76 0 1.59 9 02:42 23.05.2020
2762 Clouds 18 1022 75 0 1.27 358 01:50 23.05.2020
2763 Clouds 19 1022 74 0 0.87 330 01:19 23.05.2020
2764 Clouds 19 1022 73 0 0.87 330 00:43 23.05.2020
2765 Clouds 19 1026 68 10000 3.1 190 00:21 23.05.2020
2766 Clouds 20 1026 68 10000 3.1 190 23:45 22.05.2020
2767 Clouds 20 1026 68 10000 3.1 190 23:22 22.05.2020
2768 Clouds 20 1025 68 10000 3.1 200 22:59 22.05.2020
2769 Clouds 20 1025 68 10000 3.1 200 22:41 22.05.2020
2770 Clouds 20 1025 68 10000 3.1 200 22:21 22.05.2020
2771 Clouds 20 1025 68 10000 2.6 220 21:55 22.05.2020
2772 Clouds 20 1025 68 10000 2.6 220 21:55 22.05.2020
2773 Clouds 21 1023 49 10000 4.1 240 21:36 22.05.2020
2774 Clouds 21 1023 49 10000 4.1 240 21:18 22.05.2020
2775 Clouds 22 1023 49 10000 4.1 240 20:42 22.05.2020
2776 Clouds 22 1023 49 10000 4.1 240 20:20 22.05.2020
2777 Clouds 22 1023 49 10000 4.1 240 20:20 22.05.2020
2778 Clouds 23 1023 36 10000 5.7 240 19:45 22.05.2020
2779 Clouds 23 1023 36 10000 5.7 240 19:26 22.05.2020
2780 Clouds 24 1022 29 10000 5.7 240 18:57 22.05.2020
2781 Clouds 25 1022 29 10000 5.7 240 18:38 22.05.2020
2782 Clear 25 1022 29 10000 5.7 240 18:19 22.05.2020
2783 Clear 25 1022 29 10000 5.7 240 18:19 22.05.2020
2784 Clear 26 1023 31 10000 6.7 290 17:41 22.05.2020
2785 Clear 27 1022 22 10000 4.6 280 17:20 22.05.2020
2786 Clear 27 1022 22 10000 4.6 280 16:58 22.05.2020
2787 Clear 27 1022 22 10000 4.6 280 16:39 22.05.2020
2788 Clear 28 1022 22 10000 4.6 280 16:20 22.05.2020
2789 Clear 28 1022 21 10000 1.5 0 15:56 22.05.2020
2790 Clear 28 1022 21 10000 1.5 0 15:38 22.05.2020
2791 Clear 29 1022 21 10000 1.5 0 15:18 22.05.2020
2792 Clear 29 1023 20 10000 2.1 80 14:40 22.05.2020
2793 Clear 29 1023 20 10000 2.1 80 14:21 22.05.2020
2794 Clear 28 1023 18 10000 1 0 13:44 22.05.2020
2795 Clear 28 1023 18 10000 1 0 13:19 22.05.2020
2796 Clear 27 1023 22 10000 3.1 10 12:43 22.05.2020
2797 Clear 27 1023 22 10000 3.1 10 12:25 22.05.2020
2798 Clear 26 1023 27 10000 4.6 20 11:55 22.05.2020
2799 Clear 25 1023 27 10000 4.6 20 11:36 22.05.2020
2800 Clear 25 1023 27 10000 4.6 20 11:18 22.05.2020
2801 Clear 23 1023 33 10000 3.1 20 10:40 22.05.2020
2802 Clear 23 1023 33 10000 3.1 20 10:21 22.05.2020
2803 Clear 21 1023 42 10000 3.1 10 09:57 22.05.2020
2804 Clear 21 1023 42 10000 3.1 10 09:38 22.05.2020
2805 Clear 20 1023 42 10000 3.1 10 09:18 22.05.2020
2806 Clear 19 1022 52 10000 1.5 0 08:43 22.05.2020
2807 Clear 18 1022 52 10000 1.5 0 08:20 22.05.2020
2808 Clear 17 1021 51 10000 1.5 30 07:52 22.05.2020
2809 Clear 16 1021 54 10000 2.6 20 07:24 22.05.2020
2810 Clear 15 1018 52 0 1.34 32 06:54 22.05.2020
2811 Clear 15 1017 53 0 0.89 20 06:32 22.05.2020
2812 Clear 15 1017 52 0 1.34 41 05:38 22.05.2020
2813 Clear 16 1017 52 0 1.34 11 04:50 22.05.2020
2814 Clear 16 1017 51 0 1.79 11 04:19 22.05.2020
2815 Clear 16 1016 51 0 0.89 353 03:41 22.05.2020
2816 Clear 17 1016 51 0 0.45 48 02:59 22.05.2020
2817 Clear 18 1016 43 0 1.79 29 01:49 22.05.2020
2818 Clear 18 1015 41 0 2.68 6 01:24 22.05.2020
2819 Clear 19 1015 40 0 2.24 15 00:34 22.05.2020
2820 Clear 19 1017 37 10000 3.1 20 23:59 21.05.2020
2821 Clear 20 1017 37 10000 3.1 20 23:40 21.05.2020
2822 Clear 20 1017 37 10000 3.1 20 23:22 21.05.2020
2823 Clear 21 1017 37 10000 5.1 360 22:57 21.05.2020
2824 Clear 21 1016 35 10000 3.6 360 22:37 21.05.2020
2825 Clear 21 1016 35 10000 3.6 360 22:37 21.05.2020
2826 Clear 22 1016 35 10000 3.6 360 22:19 21.05.2020
2827 Clear 22 1016 46 10000 2.6 340 21:48 21.05.2020
2828 Clear 23 1014 27 10000 5.1 360 21:27 21.05.2020
2829 Clear 24 1014 27 10000 5.1 360 20:58 21.05.2020
2830 Clear 24 1014 27 10000 5.1 360 20:40 21.05.2020
2831 Clear 24 1014 27 10000 5.1 360 20:21 21.05.2020
2832 Clear 25 1014 25 10000 6.7 0 19:40 21.05.2020
2833 Clear 25 1014 25 10000 6.7 0 19:20 21.05.2020
2834 Clear 27 1013 22 10000 6.2 350 18:58 21.05.2020
2835 Clear 27 1013 22 10000 6.2 350 18:37 21.05.2020
2836 Clear 27 1013 22 10000 6.2 350 18:18 21.05.2020
2837 Clear 28 1013 23 10000 5.7 330 17:54 21.05.2020
2838 Clear 28 1013 23 10000 5.7 330 17:36 21.05.2020
2839 Clear 28 1013 23 10000 5.7 330 17:18 21.05.2020
2840 Clear 28 1013 24 10000 5.1 360 16:40 21.05.2020
2841 Clear 28 1013 24 10000 5.1 360 16:21 21.05.2020
2842 Clouds 28 1014 39 10000 3.1 0 15:41 21.05.2020
2843 Clouds 27 1013 30 10000 3.6 20 15:22 21.05.2020
2844 Clouds 27 1013 30 10000 3.6 20 14:41 21.05.2020
2845 Clouds 27 1013 30 10000 3.6 20 14:23 21.05.2020
2846 Clear 27 1013 30 10000 5.7 10 13:56 21.05.2020
2847 Clear 27 1013 30 10000 5.7 10 13:37 21.05.2020
2848 Clear 27 1013 30 10000 5.7 10 13:18 21.05.2020
2849 Clouds 26 1013 34 10000 5.1 20 12:39 21.05.2020
2850 Clear 25 1013 38 10000 5.1 360 12:20 21.05.2020
2851 Clear 25 1013 38 10000 5.1 360 11:57 21.05.2020
2852 Clear 25 1013 38 10000 5.1 360 11:39 21.05.2020
2853 Clear 25 1013 38 10000 5.1 360 11:39 21.05.2020
2854 Clear 24 1013 38 10000 5.1 360 11:20 21.05.2020
2855 Clear 23 1013 40 10000 6.7 10 10:43 21.05.2020
2856 Clear 23 1013 40 10000 6.7 10 10:23 21.05.2020
2857 Clear 22 1012 46 10000 5.1 350 09:59 21.05.2020
2858 Clear 21 1012 46 10000 5.1 350 09:40 21.05.2020
2859 Clear 21 1012 46 10000 5.1 350 09:22 21.05.2020
2860 Clear 20 1012 52 10000 6.2 350 08:50 21.05.2020
2861 Clear 18 1012 52 10000 6.2 350 08:31 21.05.2020
2862 Clouds 18 1012 67 10000 1.5 60 07:59 21.05.2020
2863 Clouds 17 1012 67 10000 1.5 60 07:37 21.05.2020
2864 Clouds 17 1012 67 10000 1.5 60 07:18 21.05.2020
2865 Clouds 17 1008 65 0 1.34 96 06:30 21.05.2020
2866 Clouds 17 1008 64 0 1.34 43 05:50 21.05.2020
2867 Clouds 18 1007 67 0 1.79 32 03:47 21.05.2020
2868 Clouds 18 1007 68 0 2.24 11 03:20 21.05.2020
2869 Clouds 18 1007 74 0 1.79 22 02:31 21.05.2020
2870 Clouds 18 1007 73 0 1.79 6 01:50 21.05.2020
2871 Clouds 18 1007 73 0 3.13 304 01:24 21.05.2020
2872 Clouds 18 1007 76 0 1.34 30 00:54 21.05.2020
2873 Clouds 18 1010 82 10000 4.1 40 00:26 21.05.2020
2874 Clouds 18 1010 82 10000 4.1 40 23:58 20.05.2020
2875 Clouds 18 1010 82 10000 4.1 40 23:38 20.05.2020
2876 Clouds 18 1010 82 10000 4.1 40 23:18 20.05.2020
2877 Clouds 18 1009 88 10000 3.6 20 22:42 20.05.2020
2878 Clouds 18 1009 88 10000 3.6 20 22:42 20.05.2020
2879 Clouds 18 1009 88 10000 3.6 20 22:24 20.05.2020
2880 Clouds 18 1009 82 10000 3.6 40 21:56 20.05.2020
2881 Clouds 18 1008 82 10000 4.1 30 21:37 20.05.2020
2882 Rain 19 1008 72 6000 5.7 20 21:19 20.05.2020
2883 Rain 19 1008 72 6000 5.7 20 20:41 20.05.2020
2884 Rain 19 1008 72 6000 5.7 20 20:23 20.05.2020
2885 Rain 19 1008 72 6000 5.7 20 20:23 20.05.2020
2886 Clouds 20 1008 72 10000 3.6 40 19:42 20.05.2020
2887 Clouds 20 1008 72 10000 3.6 40 19:24 20.05.2020
2888 Clouds 21 1007 64 10000 2.6 40 18:58 20.05.2020
2889 Clouds 21 1007 64 10000 2.6 40 18:39 20.05.2020
2890 Clouds 22 1007 64 10000 2.6 40 18:20 20.05.2020
2891 Clouds 22 1007 53 10000 5.1 10 17:39 20.05.2020
2892 Clouds 22 1007 53 10000 5.1 10 17:21 20.05.2020
2893 Rain 23 1007 53 10000 6.2 10 16:43 20.05.2020
2894 Rain 23 1007 53 10000 6.2 10 16:24 20.05.2020
2895 Clouds 24 1007 47 10000 7.2 10 15:59 20.05.2020
2896 Clouds 25 1006 44 10000 5.1 340 15:40 20.05.2020
2897 Clouds 25 1006 44 10000 5.1 340 15:22 20.05.2020
2898 Clouds 25 1007 39 10000 2.6 320 14:43 20.05.2020
2899 Clouds 25 1007 39 10000 2.6 320 14:43 20.05.2020
2900 Clouds 25 1007 39 10000 2.6 320 14:21 20.05.2020
2901 Clouds 24 1007 47 10000 2.6 360 13:42 20.05.2020
2902 Clouds 24 1007 47 10000 2.6 360 13:21 20.05.2020
2903 Clouds 23 1008 50 10000 1.5 0 12:59 20.05.2020
2904 Clouds 24 1008 50 10000 1.5 0 12:39 20.05.2020
2905 Clouds 24 1008 50 10000 1.5 0 12:20 20.05.2020
2906 Clouds 23 1008 56 10000 2.6 10 11:37 20.05.2020
2907 Clouds 22 1008 64 10000 3.1 360 11:18 20.05.2020
2908 Clouds 22 1008 64 10000 3.1 360 10:43 20.05.2020
2909 Clouds 21 1008 64 10000 3.1 360 10:21 20.05.2020
2910 Clouds 20 1008 82 10000 3.1 30 09:46 20.05.2020
2911 Clouds 20 1008 82 10000 3.1 30 09:46 20.05.2020
2912 Clouds 20 1008 82 10000 3.1 30 09:22 20.05.2020
2913 Clouds 19 1008 82 10000 3.1 30 08:59 20.05.2020
2914 Clouds 18 1008 82 10000 3.1 30 08:41 20.05.2020
2915 Clouds 18 1008 82 10000 3.1 30 08:19 20.05.2020
2916 Clouds 17 1008 87 10000 2.6 350 07:49 20.05.2020
2917 Clouds 17 1008 93 10000 2.1 20 07:21 20.05.2020
2918 Clouds 16 1008 87 10000 2.1 50 06:45 20.05.2020
2919 Rain 17 1008 87 10000 3.1 50 05:25 20.05.2020
2920 Rain 17 1009 82 10000 2.1 240 04:34 20.05.2020
2921 Rain 17 1008 77 10000 0.5 0 03:53 20.05.2020
2922 Clouds 17 1009 82 10000 1 0 02:32 20.05.2020
2923 Clouds 18 1010 82 10000 2.6 80 01:31 20.05.2020
2924 Clouds 19 1011 77 10000 2.1 10 00:45 20.05.2020
2925 Clouds 19 1011 77 10000 1.5 350 00:24 20.05.2020
2926 Clouds 19 1011 82 10000 2.1 270 23:45 19.05.2020
2927 Clouds 19 1011 82 10000 2.6 270 23:21 19.05.2020
2928 Clouds 19 1011 82 10000 2.6 270 22:56 19.05.2020
2929 Clouds 19 1011 82 10000 2.6 270 22:38 19.05.2020
2930 Clouds 19 1011 82 10000 2.6 270 22:20 19.05.2020
2931 Clouds 19 1011 82 10000 2.6 270 22:20 19.05.2020
2932 Clouds 19 1011 82 10000 2.6 270 22:20 19.05.2020
2933 Clouds 19 1011 82 10000 1 0 21:58 19.05.2020
2934 Clouds 19 1011 82 10000 2.6 230 21:38 19.05.2020
2935 Clouds 20 1011 68 10000 4.1 250 21:20 19.05.2020
2936 Clouds 20 1011 68 10000 4.1 250 20:58 19.05.2020
2937 Clouds 20 1011 68 10000 4.1 250 20:58 19.05.2020
2938 Clouds 20 1011 68 10000 4.1 250 20:40 19.05.2020
2939 Clouds 20 1011 68 10000 4.1 250 20:21 19.05.2020
2940 Clouds 21 1010 56 10000 4.1 250 19:55 19.05.2020
2941 Clouds 22 1010 56 10000 4.1 250 19:37 19.05.2020
2942 Clouds 22 1010 56 10000 4.1 250 19:37 19.05.2020
2943 Clouds 22 1010 56 10000 4.1 250 19:19 19.05.2020
2944 Clouds 22 1010 56 10000 4.6 210 18:42 19.05.2020
2945 Clouds 23 1010 56 10000 4.6 210 18:20 19.05.2020
2946 Clouds 23 1010 53 10000 5.1 230 17:44 19.05.2020
2947 Clouds 24 1010 53 10000 5.1 230 17:22 19.05.2020
2948 Clouds 24 1010 53 10000 5.1 250 16:59 19.05.2020
2949 Clouds 24 1010 53 10000 5.1 250 16:39 19.05.2020
2950 Clouds 24 1010 53 10000 5.1 250 16:20 19.05.2020
2951 Clouds 24 1011 47 10000 4.1 220 15:47 19.05.2020
2952 Clouds 25 1011 47 10000 4.1 220 15:23 19.05.2020
2953 Clouds 26 1011 50 10000 4.1 220 14:58 19.05.2020
2954 Clouds 26 1011 50 10000 4.1 220 14:40 19.05.2020
2955 Clouds 25 1011 50 10000 4.1 220 14:21 19.05.2020
2956 Clouds 25 1012 57 10000 3.6 240 13:58 19.05.2020
2957 Clouds 25 1012 57 10000 3.6 240 13:39 19.05.2020
2958 Clouds 25 1012 57 10000 3.6 240 13:21 19.05.2020
2959 Clouds 25 1013 53 10000 5.7 220 12:57 19.05.2020
2960 Clouds 24 1013 53 10000 5.7 220 12:38 19.05.2020
2961 Clouds 23 1013 53 10000 5.7 220 12:20 19.05.2020
2962 Clouds 24 1013 53 10000 3.6 190 11:55 19.05.2020
2963 Clouds 24 1013 53 10000 3.6 190 11:37 19.05.2020
2964 Clouds 24 1013 53 10000 3.6 190 11:18 19.05.2020
2965 Clouds 23 1013 64 10000 4.6 220 10:43 19.05.2020
2966 Clouds 22 1012 77 10000 3.6 200 10:23 19.05.2020
2967 Clouds 22 1012 77 10000 3.6 200 09:55 19.05.2020
2968 Clouds 21 1012 77 10000 3.6 200 09:37 19.05.2020
2969 Clouds 20 1012 77 10000 3.6 200 09:18 19.05.2020
2970 Clouds 20 1012 82 10000 3.1 220 08:41 19.05.2020
2971 Clouds 20 1012 82 10000 3.1 220 08:23 19.05.2020
2972 Clouds 19 1009 81 0 0.45 162 07:42 19.05.2020
2973 Clouds 19 1009 81 0 1.34 238 07:24 19.05.2020
2974 Clouds 19 1008 83 0 0.89 194 06:41 19.05.2020
2975 Clouds 18 1008 84 0 2.24 162 06:22 19.05.2020
2976 Clouds 18 1008 84 0 0.89 154 05:40 19.05.2020
2977 Clouds 19 1008 84 0 0.89 205 04:55 19.05.2020
2978 Clouds 19 1008 82 0 1.34 194 03:45 19.05.2020
2979 Clear 22 1007 67 0 1.34 169 01:23 19.05.2020
2980 Clear 22 1010 68 10000 5.1 110 00:43 19.05.2020
2981 Clear 22 1010 41 10000 3.1 150 00:21 19.05.2020
2982 Clear 23 1010 41 10000 3.1 150 23:40 18.05.2020
2983 Rain 23 1010 41 10000 3.1 150 23:21 18.05.2020
2984 Rain 23 1010 44 10000 2.6 110 23:00 18.05.2020
2985 Rain 24 1010 39 10000 4.1 170 22:40 18.05.2020
2986 Rain 24 1010 39 10000 4.1 170 22:21 18.05.2020
2987 Rain 24 1009 60 10000 1.5 330 21:43 18.05.2020
2988 Rain 25 1010 57 10000 2.1 30 21:22 18.05.2020
2989 Rain 25 1010 57 10000 2.1 30 20:58 18.05.2020
2990 Rain 25 1010 57 10000 2.1 30 20:58 18.05.2020
2991 Rain 25 1010 57 10000 2.1 30 20:40 18.05.2020
2992 Rain 26 1009 57 10000 3.6 10 20:21 18.05.2020
2993 Rain 26 1009 57 10000 3.6 10 20:21 18.05.2020
2994 Rain 26 1009 57 10000 3.6 10 19:57 18.05.2020
2995 Rain 26 1009 57 10000 3.6 10 19:38 18.05.2020
2996 Rain 27 1009 57 10000 3.6 10 19:18 18.05.2020
2997 Rain 27 1010 54 10000 3.6 360 18:45 18.05.2020
2998 Clouds 27 1011 57 10000 3.6 10 18:24 18.05.2020
2999 Rain 27 1011 57 10000 3.6 10 17:40 18.05.2020
3000 Clouds 28 1011 57 10000 3.6 10 17:18 18.05.2020
3001 Clouds 28 1011 53 10000 3.1 350 16:57 18.05.2020
3002 Clouds 28 1011 53 10000 3.1 350 16:38 18.05.2020
3003 Clouds 28 1011 53 10000 3.1 350 16:20 18.05.2020
3004 Clouds 28 1012 51 10000 3.1 10 15:57 18.05.2020
3005 Clouds 28 1012 51 10000 3.1 10 15:57 18.05.2020
3006 Clouds 29 1012 51 10000 3.1 10 15:38 18.05.2020
3007 Clouds 29 1013 44 10000 4.1 350 15:19 18.05.2020
3008 Clouds 29 1013 44 10000 4.1 350 14:43 18.05.2020
3009 Clouds 28 1013 44 10000 4.1 350 14:25 18.05.2020
3010 Clouds 29 1014 42 10000 3.1 360 13:59 18.05.2020
3011 Clouds 28 1014 42 10000 3.1 360 13:39 18.05.2020
3012 Clouds 28 1014 42 10000 3.1 360 13:20 18.05.2020
3013 Clouds 27 1014 44 10000 4.1 20 12:57 18.05.2020
3014 Clouds 27 1014 44 10000 4.1 20 12:39 18.05.2020
3015 Clouds 27 1014 44 10000 4.1 20 12:19 18.05.2020
3016 Clouds 26 1015 69 10000 2.1 10 11:47 18.05.2020
3017 Clouds 25 1015 69 10000 2.1 10 11:27 18.05.2020
3018 Clouds 24 1015 73 10000 2.6 20 10:58 18.05.2020
3019 Clouds 23 1015 73 10000 2.6 20 10:40 18.05.2020
3020 Clouds 23 1015 73 10000 2.6 20 10:22 18.05.2020
3021 Clouds 21 1016 88 10000 1 0 09:44 18.05.2020
3022 Clouds 21 1016 88 10000 1 0 09:25 18.05.2020
3023 Clouds 20 1016 77 9000 1.5 250 08:45 18.05.2020
3024 Clouds 20 1016 77 9000 1.5 250 08:27 18.05.2020
3025 Clouds 20 1016 56 10000 3.1 240 07:55 18.05.2020
3026 Clouds 19 1012 78 0 0.89 1 07:26 18.05.2020
3027 Clouds 19 1012 78 0 0.89 252 06:54 18.05.2020
3028 Clouds 19 1012 76 0 3.2 30 06:34 18.05.2020
3029 Clouds 19 1012 76 0 2.68 76 05:49 18.05.2020
3030 Clouds 19 1012 75 0 0.89 103 05:21 18.05.2020
3031 Clear 19 1011 73 0 0.45 60 03:31 18.05.2020
3032 Clouds 20 1012 71 0 3.01 17 02:22 18.05.2020
3033 Clouds 20 1012 75 0 0.89 24 01:22 18.05.2020
3034 Clouds 20 1016 72 10000 0.5 0 00:25 18.05.2020
3035 Clouds 20 1016 72 10000 0.5 0 23:57 17.05.2020
3036 Clouds 20 1016 72 10000 0.5 0 23:39 17.05.2020
3037 Clouds 21 1016 72 10000 0.5 0 23:20 17.05.2020
3038 Clouds 21 1016 72 10000 1.5 340 22:56 17.05.2020
3039 Clouds 21 1016 72 10000 2.1 300 22:37 17.05.2020
3040 Clouds 22 1016 64 10000 2.1 270 22:19 17.05.2020
3041 Clouds 23 1016 64 10000 2.1 270 21:55 17.05.2020
3042 Clouds 23 1016 60 10000 2.1 230 21:37 17.05.2020
3043 Clouds 24 1015 60 10000 2.6 230 21:18 17.05.2020
3044 Clouds 25 1015 60 10000 2.6 230 20:42 17.05.2020
3045 Clouds 24 1015 60 10000 2.6 230 20:21 17.05.2020
3046 Clouds 26 1015 57 10000 2.1 240 19:57 17.05.2020
3047 Clouds 26 1015 57 10000 2.1 240 19:38 17.05.2020
3048 Clouds 25 1015 57 10000 2.1 240 19:19 17.05.2020
3049 Clouds 26 1012 61 10000 2.1 250 18:42 17.05.2020
3050 Clouds 26 1012 61 10000 2.1 250 18:23 17.05.2020
3051 Clouds 26 1015 57 10000 3.1 210 17:59 17.05.2020
3052 Clouds 27 1015 57 10000 3.1 210 17:39 17.05.2020
3053 Clouds 27 1015 57 10000 3.1 210 17:19 17.05.2020
3054 Clouds 27 1015 57 10000 3.1 210 17:19 17.05.2020
3055 Clouds 27 1015 54 10000 2.1 230 16:40 17.05.2020
3056 Clouds 27 1015 54 10000 2.1 230 16:21 17.05.2020
3057 Clouds 28 1014 48 10000 2.1 230 15:59 17.05.2020
3058 Clouds 28 1014 48 10000 2.1 230 15:59 17.05.2020
3059 Clouds 28 1014 48 10000 2.1 230 15:39 17.05.2020
3060 Clouds 28 1014 48 10000 2.1 230 15:20 17.05.2020
3061 Clouds 28 1015 45 10000 2.6 200 14:43 17.05.2020
3062 Clouds 28 1015 45 10000 2.6 200 14:25 17.05.2020
3063 Clouds 28 1015 42 10000 4.6 200 13:59 17.05.2020
3064 Clouds 28 1015 42 10000 4.6 200 13:40 17.05.2020
3065 Clouds 28 1015 42 10000 4.6 200 13:19 17.05.2020
3066 Clouds 24 1010 60 10000 3.6 160 04:47 17.05.2020
3067 Rain 25 1006 46 0 1.4 137 02:46 17.05.2020
3068 Rain 25 1006 46 0 0.47 184 02:20 17.05.2020
3069 Rain 24 1007 47 0 2.24 75 01:47 17.05.2020
3070 Clouds 23 1009 56 0 2.24 85 00:40 17.05.2020
3071 Clouds 24 1013 44 10000 3.6 60 00:20 17.05.2020
3072 Clouds 24 1013 44 10000 3.6 60 23:40 16.05.2020
3073 Clouds 24 1013 44 10000 3.6 60 23:20 16.05.2020
3074 Clouds 24 1013 44 10000 3.1 20 22:58 16.05.2020
3075 Clouds 25 1012 47 10000 4.6 30 22:40 16.05.2020
3076 Clouds 25 1012 47 10000 4.6 30 22:20 16.05.2020
3077 Clouds 25 1011 44 10000 4.1 60 21:46 16.05.2020
3078 Clouds 25 1011 47 10000 4.1 10 21:28 16.05.2020
3079 Clouds 25 1011 47 10000 4.1 10 20:59 16.05.2020
3080 Clouds 25 1011 47 10000 4.1 10 20:41 16.05.2020
3081 Clouds 25 1011 47 10000 4.1 10 20:22 16.05.2020
3082 Clouds 26 1012 44 9000 5.7 10 19:58 16.05.2020
3083 Clouds 26 1012 44 9000 5.7 10 19:40 16.05.2020
3084 Clouds 26 1012 44 9000 5.7 10 19:22 16.05.2020
3085 Clouds 27 1012 36 10000 5.7 20 18:43 16.05.2020
3086 Clouds 27 1012 39 10000 4.1 350 18:25 16.05.2020
3087 Clouds 27 1012 36 10000 5.7 20 18:25 16.05.2020
3088 Clouds 27 1012 39 10000 4.1 350 17:57 16.05.2020
3089 Clouds 27 1012 39 10000 4.1 350 17:39 16.05.2020
3090 Clouds 27 1012 39 10000 4.1 350 17:20 16.05.2020
3091 Clouds 28 1012 34 9000 5.1 10 16:42 16.05.2020
3092 Clouds 29 1012 34 9000 5.1 10 16:23 16.05.2020
3093 Clouds 30 1014 37 10000 5.1 20 15:58 16.05.2020
3094 Clouds 30 1014 37 10000 5.1 20 15:58 16.05.2020
3095 Clouds 29 1014 37 10000 5.1 20 15:40 16.05.2020
3096 Clouds 30 1014 37 10000 5.1 20 15:19 16.05.2020
3097 Clouds 28 1015 47 10000 4.1 10 14:48 16.05.2020
3098 Clouds 27 1015 47 10000 4.1 10 14:21 16.05.2020
3099 Clouds 25 1015 56 10000 2.1 10 13:59 16.05.2020
3100 Clouds 25 1015 56 10000 2.1 10 13:59 16.05.2020
3101 Clouds 24 1015 56 10000 2.1 10 13:40 16.05.2020
3102 Clouds 24 1015 56 10000 2.1 10 13:22 16.05.2020
3103 Clouds 23 1016 60 10000 4.1 340 12:45 16.05.2020
3104 Clouds 23 1016 60 10000 4.1 340 12:23 16.05.2020
3105 Clouds 23 1016 46 10000 5.7 60 12:00 16.05.2020
3106 Clouds 22 1016 49 10000 5.1 20 11:39 16.05.2020
3107 Clouds 21 1016 72 10000 2.6 10 11:20 16.05.2020
3108 Clouds 21 1016 72 10000 2.6 10 10:56 16.05.2020
3109 Clouds 20 1016 72 10000 2.6 10 10:37 16.05.2020
3110 Clouds 20 1016 72 10000 2.6 10 10:19 16.05.2020
3111 Clouds 20 1016 68 10000 3.1 30 09:45 16.05.2020
3112 Clouds 20 1016 68 10000 3.1 30 09:27 16.05.2020
3113 Clouds 19 1016 77 10000 2.6 10 08:44 16.05.2020
3114 Clouds 19 1016 77 10000 2.6 10 08:22 16.05.2020
3115 Clouds 19 1016 55 10000 2.6 30 07:55 16.05.2020
3116 Clouds 19 1013 64 0 1.79 1 07:37 16.05.2020
3117 Clouds 19 1012 66 0 1.79 1 07:19 16.05.2020
3118 Clouds 19 1012 67 0 2.24 54 06:44 16.05.2020
3119 Clouds 19 1012 66 0 1.79 31 06:18 16.05.2020
3120 Clouds 19 1012 66 0 2.24 57 05:40 16.05.2020
3121 Clouds 19 1012 68 0 1.79 333 04:31 16.05.2020
3122 Clouds 20 1013 72 0 3.58 187 03:21 16.05.2020
3123 Clouds 20 1013 69 0 1.79 144 02:27 16.05.2020
3124 Clouds 21 1014 61 0 1.34 160 01:56 16.05.2020
3125 Clouds 21 1014 58 0 1.79 127 01:35 16.05.2020
3126 Clouds 21 1013 56 0 1.34 90 00:55 16.05.2020
3127 Clouds 21 1017 46 10000 2.1 140 00:37 16.05.2020
3128 Clouds 21 1017 46 10000 2.1 140 00:18 16.05.2020
3129 Clouds 21 1017 46 10000 2.1 140 23:37 15.05.2020
3130 Clouds 21 1017 46 10000 2.1 140 23:18 15.05.2020
3131 Clouds 21 1017 46 10000 3.1 60 22:40 15.05.2020
3132 Clouds 21 1017 46 10000 3.1 60 22:20 15.05.2020
3133 Clouds 22 1017 46 10000 2.1 50 21:55 15.05.2020
3134 Clouds 22 1016 46 10000 3.6 50 21:36 15.05.2020
3135 Clouds 22 1016 52 10000 2.1 20 21:18 15.05.2020
3136 Clouds 22 1016 52 10000 2.1 20 20:43 15.05.2020
3137 Clouds 22 1016 52 10000 2.1 20 20:25 15.05.2020
3138 Clouds 23 1016 49 10000 1 0 19:59 15.05.2020
3139 Clouds 23 1016 49 10000 1 0 19:41 15.05.2020
3140 Clouds 23 1016 49 10000 1 0 19:22 15.05.2020
3141 Clouds 24 1016 40 10000 4.1 280 18:47 15.05.2020
3142 Clouds 24 1016 40 10000 4.1 280 18:27 15.05.2020
3143 Clouds 24 1016 40 10000 3.6 250 17:57 15.05.2020
3144 Clouds 25 1016 40 10000 3.6 250 17:36 15.05.2020
3145 Clouds 24 1016 40 10000 3.6 250 17:18 15.05.2020
3146 Clouds 23 1016 40 10000 2.6 240 16:54 15.05.2020
3147 Clouds 23 1016 40 10000 4.1 250 16:36 15.05.2020
3148 Clouds 24 1016 40 10000 4.1 250 16:18 15.05.2020
3149 Clouds 23 1016 41 10000 3.6 230 15:40 15.05.2020
3150 Clouds 24 1016 44 10000 3.1 220 15:20 15.05.2020
3151 Clouds 24 1016 44 10000 3.1 220 14:55 15.05.2020
3152 Clouds 24 1016 44 10000 3.1 220 14:36 15.05.2020
3153 Clouds 24 1016 46 10000 5.1 240 14:18 15.05.2020
3154 Clouds 24 1016 46 10000 5.1 240 14:18 15.05.2020
3155 Clouds 24 1016 46 10000 5.1 240 13:41 15.05.2020
3156 Clouds 24 1016 46 10000 5.1 240 13:20 15.05.2020
3157 Clouds 23 1016 46 10000 5.1 220 12:41 15.05.2020
3158 Clouds 22 1015 46 10000 5.1 210 12:21 15.05.2020
3159 Clouds 22 1015 46 10000 5.1 210 11:59 15.05.2020
3160 Clouds 22 1015 46 10000 5.1 210 11:40 15.05.2020
3161 Clouds 22 1015 46 10000 5.1 210 11:21 15.05.2020
3162 Clouds 22 1015 46 10000 5.1 210 11:21 15.05.2020
3163 Clouds 22 1015 46 10000 5.1 240 10:59 15.05.2020
3164 Clouds 22 1015 46 10000 5.1 240 10:41 15.05.2020
3165 Clouds 22 1015 46 10000 5.1 240 10:23 15.05.2020
3166 Clouds 21 1014 60 10000 3.1 220 09:59 15.05.2020
3167 Clouds 21 1014 60 10000 3.1 220 09:38 15.05.2020
3168 Clouds 20 1014 60 10000 3.1 220 09:19 15.05.2020
3169 Clouds 20 1013 68 10000 0.5 0 08:58 15.05.2020
3170 Clouds 19 1013 68 10000 0.5 0 08:37 15.05.2020
3171 Clouds 19 1013 68 10000 0.5 0 08:18 15.05.2020
3172 Clouds 18 1013 82 10000 1.5 260 07:44 15.05.2020
3173 Clouds 18 1013 82 10000 1.5 260 07:24 15.05.2020
3174 Clouds 18 1012 82 10000 2.1 280 06:52 15.05.2020
3175 Clouds 18 1011 88 10000 0.5 0 05:49 15.05.2020
3176 Clouds 19 1011 88 10000 1.5 250 04:28 15.05.2020
3177 Clouds 19 1010 82 10000 3.6 260 03:47 15.05.2020
3178 Clouds 20 1009 72 10000 3.1 210 02:30 15.05.2020
3179 Clouds 21 1009 64 10000 3.1 210 01:21 15.05.2020
3180 Clouds 21 1009 64 10000 4.1 210 00:50 15.05.2020
3181 Clouds 21 1009 64 10000 2.1 250 00:30 15.05.2020
3182 Clouds 21 1008 64 10000 3.1 240 23:45 14.05.2020
3183 Clouds 21 1008 64 10000 3.1 240 23:24 14.05.2020
3184 Clouds 22 1008 60 10000 3.1 240 23:00 14.05.2020
3185 Clouds 23 1007 49 10000 3.6 200 22:40 14.05.2020
3186 Clouds 23 1007 49 10000 3.6 200 22:19 14.05.2020
3187 Clouds 22 1006 49 10000 4.6 210 21:58 14.05.2020
3188 Clouds 23 1006 49 10000 2.6 250 21:39 14.05.2020
3189 Clouds 23 1006 64 10000 4.1 190 21:19 14.05.2020
3190 Clouds 24 1006 64 10000 4.1 190 20:55 14.05.2020
3191 Clouds 24 1006 64 10000 4.1 190 20:55 14.05.2020
3192 Clouds 24 1006 64 10000 4.1 190 20:36 14.05.2020
3193 Clouds 24 1006 64 10000 4.1 190 20:18 14.05.2020
3194 Clouds 26 1005 41 10000 6.2 180 19:41 14.05.2020
3195 Clouds 26 1005 41 10000 6.2 180 19:21 14.05.2020
3196 Clouds 26 1005 41 10000 8.2 190 18:59 14.05.2020
3197 Clouds 27 1005 39 10000 8.2 180 18:38 14.05.2020
3198 Clouds 27 1004 35 10000 4.1 180 18:20 14.05.2020
3199 Clouds 28 1004 35 10000 4.1 180 17:59 14.05.2020
3200 Clouds 28 1004 35 10000 4.1 180 17:37 14.05.2020
3201 Clouds 28 1004 35 10000 4.1 180 17:19 14.05.2020
3202 Clouds 28 1005 35 10000 7.7 190 16:58 14.05.2020
3203 Clouds 29 1005 35 10000 7.7 190 16:38 14.05.2020
3204 Clouds 29 1005 35 10000 7.7 190 16:19 14.05.2020
3205 Clouds 28 1005 37 10000 6.2 180 15:56 14.05.2020
3206 Clouds 28 1005 34 10000 6.7 170 15:38 14.05.2020
3207 Clouds 28 1005 34 10000 6.7 170 15:18 14.05.2020
3208 Clouds 28 1006 34 10000 6.2 180 14:55 14.05.2020
3209 Clouds 28 1006 32 10000 6.7 170 14:36 14.05.2020
3210 Clouds 28 1006 32 10000 6.7 170 14:18 14.05.2020
3211 Clouds 27 1005 32 10000 7.2 170 13:42 14.05.2020
3212 Clouds 27 1005 57 10000 0.5 0 13:20 14.05.2020
3213 Clouds 27 1005 57 10000 0.5 0 12:59 14.05.2020
3214 Clouds 27 1005 57 10000 0.5 0 12:39 14.05.2020
3215 Clouds 27 1005 57 10000 0.5 0 12:20 14.05.2020
3216 Clouds 26 1005 73 10000 1.5 0 11:58 14.05.2020
3217 Clouds 26 1005 73 10000 1.5 0 11:39 14.05.2020
3218 Clouds 25 1005 73 10000 1.5 0 11:21 14.05.2020
3219 Clouds 25 1005 77 10000 1.5 0 10:56 14.05.2020
3220 Clouds 24 1005 77 10000 1.5 0 10:37 14.05.2020
3221 Clouds 25 1005 39 10000 0.5 0 10:19 14.05.2020
3222 Clouds 24 1006 50 10000 1 0 09:42 14.05.2020
3223 Clouds 21 1007 88 10000 1 0 09:22 14.05.2020
3224 Clouds 22 1007 88 10000 1 0 08:41 14.05.2020
3225 Clouds 21 1007 88 10000 1 0 08:21 14.05.2020
3226 Clouds 21 1007 49 9000 3.1 150 07:46 14.05.2020
3227 Clouds 21 1007 49 9000 3.1 150 07:25 14.05.2020
3228 Clouds 21 1007 49 9000 4.1 140 06:54 14.05.2020
3229 Clouds 21 1007 53 9000 3.6 150 06:31 14.05.2020
3230 Rain 20 1007 56 10000 4.6 140 05:56 14.05.2020
3231 Rain 20 1008 64 10000 3.1 130 05:35 14.05.2020
3232 Clouds 20 1009 60 10000 1 0 04:25 14.05.2020
3233 Rain 20 1009 60 10000 4.1 150 03:27 14.05.2020
3234 Rain 21 1009 60 10000 6.2 170 02:41 14.05.2020
3235 Clouds 21 1009 64 10000 7.7 170 01:56 14.05.2020
3236 Rain 21 1011 64 10000 5.7 190 01:23 14.05.2020
3237 Rain 20 1011 72 10000 3.1 210 00:44 14.05.2020
3238 Rain 20 1011 72 10000 3.1 210 00:23 14.05.2020
3239 Rain 20 1011 68 10000 4.1 170 23:42 13.05.2020
3240 Rain 21 1011 68 10000 4.1 170 23:21 13.05.2020
3241 Rain 20 1010 72 10000 4.1 150 22:54 13.05.2020
3242 Rain 21 1011 68 10000 6.7 180 22:36 13.05.2020
3243 Rain 21 1011 68 10000 6.7 180 22:18 13.05.2020
3244 Rain 21 1010 68 10000 7.2 190 21:55 13.05.2020
3245 Rain 21 1009 68 10000 6.2 170 21:36 13.05.2020
3246 Clouds 22 1009 60 10000 5.1 160 21:18 13.05.2020
3247 Clouds 22 1009 60 10000 5.1 160 20:40 13.05.2020
3248 Clouds 22 1009 60 10000 5.1 160 20:22 13.05.2020
3249 Clouds 22 1009 56 10000 5.1 180 19:43 13.05.2020
3250 Clouds 22 1009 56 10000 5.1 180 19:24 13.05.2020
3251 Clouds 23 1010 53 10000 5.1 160 18:55 13.05.2020
3252 Clouds 24 1010 53 10000 5.1 160 18:37 13.05.2020
3253 Clouds 23 1010 53 10000 5.1 160 18:18 13.05.2020
3254 Clouds 24 1010 44 10000 6.2 190 17:39 13.05.2020
3255 Clouds 25 1010 44 10000 6.2 190 17:19 13.05.2020
3256 Clouds 25 1010 28 10000 7.2 170 16:55 13.05.2020
3257 Clouds 26 1010 28 10000 7.2 170 16:37 13.05.2020
3258 Clouds 26 1009 25 10000 6.2 180 16:18 13.05.2020
3259 Clouds 27 1009 25 10000 6.2 180 15:42 13.05.2020
3260 Clouds 28 1010 23 10000 7.7 160 15:19 13.05.2020
3261 Clouds 28 1010 23 10000 7.7 160 14:57 13.05.2020
3262 Clouds 28 1010 23 10000 7.7 160 14:39 13.05.2020
3263 Clouds 28 1010 23 10000 7.7 160 14:20 13.05.2020
3264 Clouds 28 1010 25 10000 6.2 160 13:55 13.05.2020
3265 Clouds 28 1010 25 10000 6.2 160 13:37 13.05.2020
3266 Clouds 28 1010 25 10000 6.2 160 13:19 13.05.2020
3267 Clouds 27 1011 36 10000 2.6 210 12:43 13.05.2020
3268 Clouds 27 1011 36 10000 2.6 210 12:21 13.05.2020
3269 Clouds 26 1011 36 10000 5.1 130 11:57 13.05.2020
3270 Clouds 26 1011 36 10000 5.1 130 11:38 13.05.2020
3271 Clouds 25 1011 36 10000 5.1 130 11:20 13.05.2020
3272 Clouds 24 1011 43 10000 5.1 120 10:59 13.05.2020
3273 Clouds 23 1011 43 10000 5.1 120 10:39 13.05.2020
3274 Clouds 23 1011 43 10000 5.1 120 10:20 13.05.2020
3275 Clouds 22 1012 56 9000 1.5 10 09:57 13.05.2020
3276 Clouds 20 1012 77 10000 2.6 360 09:38 13.05.2020
3277 Clouds 19 1012 77 10000 2.6 360 09:20 13.05.2020
3278 Clouds 18 1013 82 10000 1.5 0 08:40 13.05.2020
3279 Clouds 17 1013 82 10000 1.5 0 08:21 13.05.2020
3280 Clouds 17 1013 67 10000 1 0 07:58 13.05.2020
3281 Clouds 17 1009 71 0 0.89 113 07:36 13.05.2020
3282 Clouds 16 1010 69 0 0.89 138 06:55 13.05.2020
3283 Clouds 16 1010 69 0 0.89 147 06:36 13.05.2020
3284 Clouds 16 1010 70 0 0.45 207 05:48 13.05.2020
3285 Clouds 17 1010 71 0 0.45 253 04:21 13.05.2020
3286 Clouds 17 1011 64 0 2.12 81 02:43 13.05.2020
3287 Clouds 17 1011 62 0 2.34 106 01:47 13.05.2020
3288 Clouds 17 1011 63 0 2.61 116 01:20 13.05.2020
3289 Clouds 18 1015 49 10000 4.6 170 00:30 13.05.2020
3290 Clouds 19 1015 49 10000 4.6 170 23:59 12.05.2020
3291 Clouds 19 1015 49 10000 4.6 170 23:39 12.05.2020
3292 Clouds 19 1015 49 10000 4.6 170 23:20 12.05.2020
3293 Clouds 20 1015 45 10000 4.6 170 22:43 12.05.2020
3294 Clear 20 1015 45 10000 4.6 170 22:23 12.05.2020
3295 Clear 20 1015 45 10000 4.6 170 22:23 12.05.2020
3296 Clear 20 1015 45 10000 4.6 160 21:59 12.05.2020
3297 Clear 20 1015 46 10000 5.1 170 21:40 12.05.2020
3298 Clouds 20 1014 46 10000 3.6 190 21:22 12.05.2020
3299 Clouds 21 1014 46 10000 3.6 190 20:59 12.05.2020
3300 Clouds 21 1014 46 10000 3.6 190 20:41 12.05.2020
3301 Clear 21 1014 46 10000 3.6 190 20:23 12.05.2020
3302 Clouds 22 1014 46 10000 4.6 220 19:59 12.05.2020
3303 Clouds 22 1014 46 10000 4.6 220 19:41 12.05.2020
3304 Clouds 22 1014 46 10000 4.6 220 19:22 12.05.2020
3305 Clouds 23 1014 44 10000 4.1 250 18:58 12.05.2020
3306 Clouds 24 1014 44 10000 4.1 250 18:39 12.05.2020
3307 Clouds 23 1014 44 10000 4.1 250 18:21 12.05.2020
3308 Clouds 23 1013 49 10000 3.6 230 17:43 12.05.2020
3309 Clouds 24 1013 49 10000 3.6 230 17:24 12.05.2020
3310 Clouds 24 1014 49 10000 3.6 240 16:47 12.05.2020
3311 Clouds 23 1014 49 10000 3.6 240 16:26 12.05.2020
3312 Clouds 23 1014 49 10000 4.6 250 15:57 12.05.2020
3313 Clouds 23 1014 49 10000 4.6 250 15:39 12.05.2020
3314 Clouds 23 1014 49 10000 4.6 250 15:20 12.05.2020
3315 Clouds 23 1014 53 10000 4.6 240 14:58 12.05.2020
3316 Clouds 23 1014 53 10000 4.6 240 14:39 12.05.2020
3317 Clouds 24 1014 53 10000 4.6 240 14:21 12.05.2020
3318 Clouds 24 1013 53 10000 4.6 200 13:59 12.05.2020
3319 Clouds 24 1013 53 10000 4.6 200 13:41 12.05.2020
3320 Clouds 24 1013 53 10000 4.6 200 13:20 12.05.2020
3321 Clouds 23 1013 56 10000 4.6 210 12:58 12.05.2020
3322 Clouds 23 1013 56 10000 4.6 210 12:40 12.05.2020
3323 Clouds 23 1013 56 10000 4.6 210 12:40 12.05.2020
3324 Clouds 23 1013 56 10000 4.6 210 12:40 12.05.2020
3325 Clouds 22 1013 56 10000 4.6 210 12:22 12.05.2020
3326 Clouds 22 1013 60 10000 3.6 160 11:58 12.05.2020
3327 Clouds 22 1013 60 10000 3.6 160 11:39 12.05.2020
3328 Clouds 22 1013 60 10000 3.6 160 11:21 12.05.2020
3329 Clouds 21 1012 64 10000 4.1 200 10:59 12.05.2020
3330 Clouds 21 1012 64 10000 4.1 200 10:40 12.05.2020
3331 Clouds 21 1012 64 10000 4.1 200 10:22 12.05.2020
3332 Clouds 20 1012 68 10000 2.6 160 09:59 12.05.2020
3333 Clouds 20 1012 68 10000 2.6 160 09:40 12.05.2020
3334 Clouds 19 1012 68 10000 2.6 160 09:21 12.05.2020
3335 Clouds 20 1012 72 10000 3.1 140 08:57 12.05.2020
3336 Clouds 19 1012 72 10000 3.1 140 08:38 12.05.2020
3337 Clouds 19 1012 72 10000 3.1 140 08:19 12.05.2020
3338 Clouds 18 1011 77 10000 3.1 180 07:41 12.05.2020
3339 Clouds 18 1011 77 10000 3.1 180 07:22 12.05.2020
3340 Clouds 17 1011 82 10000 3.1 170 06:49 12.05.2020
3341 Clear 17 1011 82 10000 2.6 170 06:27 12.05.2020
3342 Clear 17 1011 82 10000 3.1 190 05:50 12.05.2020
3343 Clear 17 1010 82 10000 3.1 190 05:30 12.05.2020
3344 Clear 17 1010 88 10000 4.1 180 03:27 12.05.2020
3345 Clear 17 1010 88 10000 3.1 190 02:41 12.05.2020
3346 Clouds 17 1010 88 10000 3.1 190 02:18 12.05.2020
3347 Clouds 18 1010 82 10000 3.1 190 01:27 12.05.2020
3348 Clouds 18 1010 82 10000 4.1 190 00:27 12.05.2020
3349 Rain 18 1010 77 10000 5.1 180 23:58 11.05.2020
3350 Clouds 18 1010 77 10000 4.6 180 23:40 11.05.2020
3351 Clouds 19 1010 77 10000 4.6 180 23:20 11.05.2020
3352 Clouds 19 1010 82 10000 5.1 170 22:58 11.05.2020
3353 Clouds 19 1010 82 10000 5.1 180 22:40 11.05.2020
3354 Clouds 19 1010 82 10000 5.1 180 22:20 11.05.2020
3355 Clouds 19 1010 77 10000 4.6 200 21:58 11.05.2020
3356 Clouds 19 1009 77 10000 4.1 190 21:39 11.05.2020
3357 Clouds 19 1009 60 10000 3.6 220 21:19 11.05.2020
3358 Clouds 19 1009 60 10000 3.6 220 20:57 11.05.2020
3359 Clouds 19 1009 60 10000 3.6 220 20:57 11.05.2020
3360 Clouds 19 1009 60 10000 3.6 220 20:57 11.05.2020
3361 Clouds 20 1009 60 10000 3.6 220 20:39 11.05.2020
3362 Clear 20 1009 60 10000 3.6 220 20:20 11.05.2020
3363 Clear 21 1009 49 10000 3.6 250 19:55 11.05.2020
3364 Clear 21 1009 49 10000 3.6 250 19:36 11.05.2020
3365 Clear 21 1009 49 10000 3.6 250 19:18 11.05.2020
3366 Clear 22 1009 49 10000 4.6 210 18:55 11.05.2020
3367 Clear 22 1009 49 10000 4.6 210 18:36 11.05.2020
3368 Clear 22 1009 49 10000 4.6 210 18:18 11.05.2020
3369 Clear 22 1009 49 10000 4.6 210 18:18 11.05.2020
3370 Clear 23 1009 49 10000 5.1 230 17:41 11.05.2020
3371 Clear 23 1009 49 10000 5.1 230 17:22 11.05.2020
3372 Clear 23 1008 44 10000 4.1 240 16:59 11.05.2020
3373 Clear 23 1008 44 10000 4.1 240 16:39 11.05.2020
3374 Clear 23 1008 44 10000 4.1 240 16:21 11.05.2020
3375 Clear 23 1008 38 10000 3.6 250 15:57 11.05.2020
3376 Clear 24 1008 38 10000 3.6 250 15:39 11.05.2020
3377 Clear 24 1008 38 10000 3.6 250 15:18 11.05.2020
3378 Clear 24 1008 41 10000 5.1 240 14:42 11.05.2020
3379 Clear 24 1008 41 10000 5.1 240 14:42 11.05.2020
3380 Clouds 24 1008 41 10000 5.1 240 14:23 11.05.2020
3381 Clouds 24 1008 49 10000 3.6 230 13:59 11.05.2020
3382 Clouds 24 1008 49 10000 3.6 230 13:41 11.05.2020
3383 Clouds 24 1008 49 10000 3.6 230 13:19 11.05.2020
3384 Clouds 23 1008 60 10000 3.1 240 12:58 11.05.2020
3385 Clouds 23 1008 60 10000 3.1 240 12:39 11.05.2020
3386 Clouds 22 1008 60 10000 3.1 240 12:21 11.05.2020
3387 Clouds 22 1008 64 10000 2.6 220 11:55 11.05.2020
3388 Rain 21 1008 64 10000 2.6 220 11:37 11.05.2020
3389 Rain 21 1008 64 10000 2.6 220 11:18 11.05.2020
3390 Rain 21 1008 64 10000 2.6 220 11:18 11.05.2020
3391 Clouds 20 1008 68 10000 2.1 280 10:54 11.05.2020
3392 Clouds 20 1008 68 10000 2.1 280 10:36 11.05.2020
3393 Clouds 19 1008 68 10000 2.1 280 10:18 11.05.2020
3394 Clouds 18 1008 63 10000 1.7 258 09:42 11.05.2020
3395 Clouds 18 1008 63 10000 1.64 308 09:22 11.05.2020
3396 Clouds 17 1008 77 10000 0.5 0 08:58 11.05.2020
3397 Clouds 17 1008 77 10000 0.5 0 08:58 11.05.2020
3398 Clouds 16 1008 77 10000 0.5 0 08:38 11.05.2020
3399 Clouds 16 1008 77 10000 0.5 0 08:18 11.05.2020
3400 Clouds 16 1007 87 10000 1.5 270 07:50 11.05.2020
3401 Clouds 16 1007 87 10000 1 0 07:31 11.05.2020
3402 Clouds 15 1006 87 10000 1 0 06:53 11.05.2020
3403 Rain 16 1006 67 10000 3.1 60 06:18 11.05.2020
3404 Thunderstorm 17 1008 55 10000 1.5 140 05:30 11.05.2020
3405 Clouds 17 1008 51 10000 5.1 100 04:43 11.05.2020
3406 Clouds 16 1009 55 10000 2.1 80 03:35 11.05.2020
3407 Clouds 17 1010 55 10000 2.1 50 02:34 11.05.2020
3408 Clouds 17 1010 51 10000 2.1 60 01:46 11.05.2020
3409 Clouds 18 1010 42 10000 0.5 0 00:53 11.05.2020
3410 Clouds 19 1010 37 10000 2.1 150 00:21 11.05.2020
3411 Clouds 19 1009 39 10000 1.5 310 23:45 10.05.2020
3412 Clouds 19 1009 39 10000 1.5 10 23:26 10.05.2020
3413 Clouds 20 1009 32 10000 3.1 60 22:57 10.05.2020
3414 Clouds 20 1009 26 10000 5.1 150 22:39 10.05.2020
3415 Clouds 20 1009 26 10000 5.1 150 22:20 10.05.2020
3416 Clouds 20 1010 34 10000 2.6 190 21:44 10.05.2020
3417 Clouds 20 1009 37 10000 5.1 240 21:20 10.05.2020
3418 Clouds 20 1009 37 10000 5.1 240 20:56 10.05.2020
3419 Clouds 21 1009 37 10000 5.1 240 20:38 10.05.2020
3420 Clouds 21 1009 37 10000 5.1 240 20:19 10.05.2020
3421 Clouds 24 1009 31 10000 3.1 210 19:41 10.05.2020
3422 Clouds 24 1009 31 10000 3.1 210 19:22 10.05.2020
3423 Clouds 25 1009 26 10000 2.1 220 18:57 10.05.2020
3424 Clouds 25 1009 26 10000 2.1 220 18:37 10.05.2020
3425 Clouds 26 1009 26 10000 2.1 220 18:19 10.05.2020
3426 Clouds 25 1010 31 10000 2.6 260 17:59 10.05.2020
3427 Clouds 25 1010 31 10000 2.6 260 17:40 10.05.2020
3428 Clouds 25 1010 31 10000 2.6 260 17:22 10.05.2020
3429 Clouds 25 1011 29 10000 4.1 240 16:58 10.05.2020
3430 Clouds 25 1011 29 10000 4.1 240 16:40 10.05.2020
3431 Clouds 25 1011 29 10000 4.1 240 16:19 10.05.2020
3432 Clouds 26 1011 26 10000 1 0 15:55 10.05.2020
3433 Clouds 27 1011 26 10000 1 0 15:36 10.05.2020
3434 Clear 26 1011 26 10000 1 0 15:18 10.05.2020
3435 Clear 26 1012 29 10000 1 0 14:38 10.05.2020
3436 Clouds 26 1012 29 10000 1 0 14:20 10.05.2020
3437 Clouds 26 1012 29 10000 1 0 14:20 10.05.2020
3438 Clouds 26 1012 29 10000 1 0 14:20 10.05.2020
3439 Clouds 26 1012 29 10000 1 0 14:20 10.05.2020
3440 Clouds 25 1013 31 10000 1.5 0 13:59 10.05.2020
3441 Clouds 25 1013 31 10000 1.5 0 13:38 10.05.2020
3442 Clouds 26 1013 31 10000 1.5 0 13:20 10.05.2020
3443 Clouds 24 1013 46 10000 3.6 80 12:58 10.05.2020
3444 Clouds 24 1013 46 10000 3.6 80 12:40 10.05.2020
3445 Clouds 24 1013 46 10000 3.6 80 12:21 10.05.2020
3446 Clouds 23 1014 49 10000 1 0 11:57 10.05.2020
3447 Clouds 22 1014 49 10000 1 0 11:39 10.05.2020
3448 Clouds 22 1014 49 10000 1 0 11:20 10.05.2020
3449 Clouds 20 1014 56 10000 1.5 0 10:47 10.05.2020
3450 Clouds 20 1014 56 10000 1.5 0 10:29 10.05.2020
3451 Clouds 20 1013 68 10000 3.1 190 09:59 10.05.2020
3452 Clouds 18 1013 68 10000 3.1 190 09:40 10.05.2020
3453 Clouds 18 1013 68 10000 3.1 190 09:21 10.05.2020
3454 Clouds 17 1013 82 9000 1.5 0 08:51 10.05.2020
3455 Clouds 17 1013 82 9000 1.5 0 08:24 10.05.2020
3456 Clouds 16 1012 67 10000 3.1 220 07:45 10.05.2020
3457 Clouds 16 1012 72 10000 2.1 290 07:21 10.05.2020
3458 Clouds 16 1012 72 10000 1.5 240 06:58 10.05.2020
3459 Clouds 16 1012 67 10000 1.5 60 06:35 10.05.2020
3460 Clouds 16 1012 63 10000 1 0 05:52 10.05.2020
3461 Clouds 16 1013 67 10000 1 0 04:58 10.05.2020
3462 Clouds 16 1013 67 10000 1 0 04:38 10.05.2020
3463 Clouds 16 1013 67 10000 1 0 04:20 10.05.2020
3464 Clouds 17 1015 67 10000 1.5 130 03:39 10.05.2020
3465 Clouds 17 1015 67 10000 1.5 130 02:53 10.05.2020
3466 Clouds 16 1015 67 10000 2.1 200 02:24 10.05.2020
3467 Clouds 17 1015 59 10000 1 230 01:42 10.05.2020
3468 Clouds 17 1015 59 10000 1 230 01:21 10.05.2020
3469 Clouds 17 1015 63 10000 1.5 210 00:55 10.05.2020
3470 Clouds 17 1015 63 10000 1.5 230 00:29 10.05.2020
3471 Clouds 17 1015 63 10000 1 0 23:59 09.05.2020
3472 Clouds 17 1015 63 10000 1 220 23:39 09.05.2020
3473 Clouds 17 1015 63 10000 1 220 23:20 09.05.2020
3474 Clouds 18 1015 63 10000 1.5 200 22:44 09.05.2020
3475 Clouds 18 1015 63 10000 1.5 200 22:25 09.05.2020
3476 Clouds 18 1015 63 10000 1.5 200 22:25 09.05.2020
3477 Clouds 18 1015 63 10000 1.5 220 21:59 09.05.2020
3478 Clouds 18 1015 59 10000 1.5 250 21:41 09.05.2020
3479 Clouds 19 1015 45 10000 0.99 235 21:22 09.05.2020
3480 Clouds 19 1015 45 10000 1.85 241 20:58 09.05.2020
3481 Clouds 20 1015 45 10000 1.85 241 20:39 09.05.2020
3482 Clouds 20 1015 45 10000 2.34 232 20:20 09.05.2020
3483 Clouds 22 1015 37 10000 3.6 260 19:58 09.05.2020
3484 Clouds 22 1015 37 10000 3.6 260 19:38 09.05.2020
3485 Clouds 21 1015 37 10000 3.6 260 19:19 09.05.2020
3486 Clouds 22 1015 40 10000 3.6 270 18:45 09.05.2020
3487 Clouds 23 1015 40 10000 3.6 270 18:26 09.05.2020
3488 Clouds 24 1015 33 10000 4.1 210 17:56 09.05.2020
3489 Clouds 24 1015 33 10000 4.1 210 17:36 09.05.2020
3490 Clouds 24 1015 33 10000 4.1 210 17:18 09.05.2020
3491 Clouds 24 1015 29 10000 3.1 220 16:41 09.05.2020
3492 Clear 24 1015 29 10000 3.1 220 16:20 09.05.2020
3493 Clear 24 1016 31 10000 3.1 260 15:45 09.05.2020
3494 Clear 25 1016 31 10000 3.1 260 15:26 09.05.2020
3495 Clear 24 1017 33 10000 1 0 14:59 09.05.2020
3496 Clear 24 1017 33 10000 1 0 14:40 09.05.2020
3497 Clouds 24 1017 33 10000 1 0 14:19 09.05.2020
3498 Clouds 25 1018 33 10000 2.1 220 13:57 09.05.2020
3499 Clouds 25 1018 33 10000 2.1 220 13:39 09.05.2020
3500 Clouds 25 1018 33 10000 2.1 220 13:20 09.05.2020
3501 Clouds 24 1019 33 10000 2.6 270 12:42 09.05.2020
3502 Clouds 23 1019 33 10000 2.6 270 12:22 09.05.2020
3503 Clouds 23 1018 46 10000 1 0 11:56 09.05.2020
3504 Clouds 23 1018 46 10000 1 0 11:37 09.05.2020
3505 Clouds 22 1018 46 10000 1 0 11:18 09.05.2020
3506 Clouds 21 1018 59 10000 2 192 10:43 09.05.2020
3507 Clouds 21 1018 59 10000 0.78 178 10:25 09.05.2020
3508 Clouds 19 1019 82 10000 1 0 09:57 09.05.2020
3509 Clouds 17 1019 82 10000 1 0 09:38 09.05.2020
3510 Clouds 17 1019 82 10000 1 0 09:19 09.05.2020
3511 Clouds 15 1019 93 10000 2.1 350 08:51 09.05.2020
3512 Clouds 14 1019 93 10000 2.1 350 08:31 09.05.2020
3513 Clouds 13 1018 71 10000 1 0 07:50 09.05.2020
3514 Clear 13 1018 93 10000 2.6 100 07:31 09.05.2020
3515 Clear 13 1018 93 10000 1.5 70 06:49 09.05.2020
3516 Clear 13 1015 75 0 1.46 46 06:24 09.05.2020
3517 Clear 12 1018 93 10000 1.5 60 05:45 09.05.2020
3518 Clear 12 1019 100 10000 1.5 90 03:55 09.05.2020
3519 Clear 12 1019 100 10000 0.5 0 03:36 09.05.2020
3520 Clear 13 1019 100 10000 1.5 70 02:42 09.05.2020
3521 Clouds 13 1020 93 10000 1.5 50 01:54 09.05.2020
3522 Clouds 14 1016 77 0 1.27 7 01:24 09.05.2020
3523 Clouds 15 1020 87 10000 1.5 70 00:54 09.05.2020
3524 Clouds 15 1020 87 10000 1.5 90 00:36 09.05.2020
3525 Clouds 16 1020 59 10000 1.5 100 23:54 08.05.2020
3526 Clouds 16 1020 59 10000 1.5 100 23:36 08.05.2020
3527 Clouds 16 1020 59 10000 1.5 100 23:18 08.05.2020
3528 Clouds 17 1020 63 10000 0.5 0 22:42 08.05.2020
3529 Clouds 17 1020 63 10000 0.5 0 22:20 08.05.2020
3530 Clouds 17 1020 59 10000 1 230 21:59 08.05.2020
3531 Clouds 18 1020 55 10000 1.5 220 21:40 08.05.2020
3532 Clouds 18 1020 52 10000 1.5 0 21:19 08.05.2020
3533 Clouds 19 1020 52 10000 1.5 0 20:58 08.05.2020
3534 Clouds 19 1020 52 10000 1.5 0 20:39 08.05.2020
3535 Clouds 19 1020 52 10000 1.5 0 20:21 08.05.2020
3536 Clouds 20 1020 49 10000 2.6 240 19:45 08.05.2020
3537 Clouds 21 1020 49 10000 2.6 240 19:24 08.05.2020
3538 Clouds 22 1020 40 10000 3.1 250 18:57 08.05.2020
3539 Clouds 22 1020 40 10000 3.1 250 18:39 08.05.2020
3540 Clouds 22 1020 40 10000 3.1 250 18:21 08.05.2020
3541 Clouds 24 1020 33 10000 4.1 230 17:42 08.05.2020
3542 Clouds 24 1021 31 10000 3.6 250 17:19 08.05.2020
3543 Clouds 24 1021 31 10000 3.6 250 16:46 08.05.2020
3544 Clouds 23 1021 31 10000 3.6 250 16:27 08.05.2020
3545 Clouds 24 1021 31 10000 4.6 230 15:58 08.05.2020
3546 Clouds 24 1021 31 10000 4.6 230 15:40 08.05.2020
3547 Clouds 24 1021 31 10000 4.6 230 15:18 08.05.2020
3548 Clouds 24 1021 38 10000 4.1 220 14:54 08.05.2020
3549 Clouds 24 1021 38 10000 4.1 220 14:54 08.05.2020
3550 Clouds 24 1021 38 10000 4.1 220 14:36 08.05.2020
3551 Clouds 24 1021 38 10000 4.1 220 14:18 08.05.2020
3552 Clouds 25 1021 33 10000 1 0 13:40 08.05.2020
3553 Clouds 25 1021 33 10000 1 0 13:20 08.05.2020
3554 Clouds 24 1022 46 10000 1 0 12:54 08.05.2020
3555 Clouds 23 1022 46 10000 1 0 12:36 08.05.2020
3556 Clouds 24 1022 46 10000 1 0 12:36 08.05.2020
3557 Clouds 23 1022 46 10000 1 0 12:18 08.05.2020
3558 Clouds 22 1022 49 10000 1 0 11:43 08.05.2020
3559 Clouds 22 1022 49 10000 1 0 11:22 08.05.2020
3560 Clouds 22 1023 59 10000 1.5 0 10:57 08.05.2020
3561 Clouds 21 1023 59 10000 1.5 0 10:39 08.05.2020
3562 Clouds 20 1023 59 10000 1.5 0 10:18 08.05.2020
3563 Clouds 20 1023 59 10000 1.5 0 10:18 08.05.2020
3564 Clouds 18 1023 72 10000 1.5 0 09:42 08.05.2020
3565 Clear 17 1023 72 10000 1.5 0 09:19 08.05.2020
3566 Clear 16 1023 87 10000 1 0 08:57 08.05.2020
3567 Clear 15 1023 87 10000 1 0 08:39 08.05.2020
3568 Clouds 15 1023 87 10000 1 0 08:20 08.05.2020
3569 Clouds 14 1019 71 0 1.24 44 07:40 08.05.2020
3570 Clear 14 1019 72 0 1.32 33 07:20 08.05.2020
3571 Clear 13 1018 73 0 1.32 33 06:47 08.05.2020
3572 Clear 12 1018 73 0 0.45 52 06:20 08.05.2020
3573 Clear 13 1018 73 0 0.89 69 05:34 08.05.2020
3574 Clear 14 1018 83 0 1.69 36 03:50 08.05.2020
3575 Clear 14 1018 81 0 0.88 27 02:30 08.05.2020
3576 Clear 15 1018 80 0 0.89 160 01:41 08.05.2020
3577 Clear 15 1018 81 0 0.89 142 01:21 08.05.2020
3578 Clear 16 1018 80 0 0.47 322 00:48 08.05.2020
3579 Clear 16 1021 82 10000 2.6 200 00:27 08.05.2020
3580 Clear 16 1021 82 10000 2.6 200 23:57 07.05.2020
3581 Clear 16 1021 82 10000 2.6 200 23:38 07.05.2020
3582 Clear 16 1021 82 10000 2.6 200 23:20 07.05.2020
3583 Clear 17 1021 82 10000 2.6 190 22:42 07.05.2020
3584 Clear 17 1021 82 10000 2.6 190 22:42 07.05.2020
3585 Clear 17 1021 82 10000 2.6 190 22:20 07.05.2020
3586 Clear 17 1021 77 10000 3.1 210 21:57 07.05.2020
3587 Clear 18 1020 72 10000 2.6 210 21:39 07.05.2020
3588 Clear 18 1019 45 10000 2.6 200 21:20 07.05.2020
3589 Clear 19 1019 45 10000 2.6 200 20:57 07.05.2020
3590 Clear 19 1019 45 10000 2.6 200 20:38 07.05.2020
3591 Clear 20 1019 45 10000 2.6 200 20:19 07.05.2020
3592 Clear 21 1019 40 10000 4.6 240 19:47 07.05.2020
3593 Clear 21 1019 40 10000 4.6 240 19:23 07.05.2020
3594 Clear 22 1019 31 10000 4.1 230 18:57 07.05.2020
3595 Clear 23 1019 31 10000 4.1 230 18:38 07.05.2020
3596 Clear 23 1019 31 10000 4.1 230 18:20 07.05.2020
3597 Clear 23 1019 31 10000 4.6 240 17:41 07.05.2020
3598 Clear 24 1019 31 10000 4.6 240 17:20 07.05.2020
3599 Clear 24 1019 31 10000 6.2 230 16:43 07.05.2020
3600 Clear 24 1019 31 10000 6.2 230 16:19 07.05.2020
3601 Clear 25 1019 21 10000 2.1 30 15:58 07.05.2020
3602 Clear 25 1019 21 10000 2.1 30 15:39 07.05.2020
3603 Clear 25 1019 21 10000 2.1 30 15:39 07.05.2020
3604 Clear 25 1019 21 10000 2.1 30 15:19 07.05.2020
3605 Clear 26 1019 22 10000 1.5 0 14:59 07.05.2020
3606 Clear 25 1019 22 10000 1.5 0 14:41 07.05.2020
3607 Clouds 25 1019 22 10000 1.5 0 14:18 07.05.2020
3608 Clouds 25 1019 22 10000 2.1 10 13:42 07.05.2020
3609 Clouds 25 1019 22 10000 2.1 10 13:24 07.05.2020
3610 Clouds 24 1019 23 10000 2.6 120 12:43 07.05.2020
3611 Clouds 24 1019 23 10000 2.6 120 12:20 07.05.2020
3612 Clouds 23 1018 26 10000 2.1 20 11:57 07.05.2020
3613 Clouds 23 1018 26 10000 2.1 20 11:38 07.05.2020
3614 Clouds 22 1018 26 10000 2.1 20 11:20 07.05.2020
3615 Clouds 21 1018 32 10000 3.6 10 10:40 07.05.2020
3616 Clouds 20 1018 32 10000 3.6 10 10:21 07.05.2020
3617 Clouds 18 1018 42 10000 4.1 30 09:41 07.05.2020
3618 Clear 18 1018 42 10000 4.1 30 09:20 07.05.2020
3619 Clear 16 1018 54 10000 2.6 10 08:56 07.05.2020
3620 Clear 16 1018 54 10000 2.6 10 08:38 07.05.2020
3621 Clouds 16 1018 54 10000 2.6 10 08:19 07.05.2020
3622 Clouds 15 1016 54 10000 3.1 30 07:43 07.05.2020
3623 Clouds 15 1016 54 10000 3.1 30 07:43 07.05.2020
3624 Clouds 15 1016 54 10000 3.1 30 07:25 07.05.2020
3625 Clouds 15 1016 54 10000 3.6 50 06:45 07.05.2020
3626 Clouds 15 1016 54 10000 4.1 30 06:23 07.05.2020
3627 Clouds 15 1016 54 10000 3.1 30 05:29 07.05.2020
3628 Clear 16 1015 58 10000 3.6 30 03:55 07.05.2020
3629 Clear 16 1015 67 10000 3.1 30 03:24 07.05.2020
3630 Clear 16 1015 87 10000 2.1 360 02:42 07.05.2020
3631 Rain 17 1014 82 10000 2.1 240 01:41 07.05.2020
3632 Rain 17 1014 82 10000 2.1 240 01:41 07.05.2020
3633 Rain 17 1014 82 10000 2.1 240 01:23 07.05.2020
3634 Rain 17 1014 77 10000 1 0 00:45 07.05.2020
3635 Rain 18 1014 77 10000 1.5 120 00:26 07.05.2020
3636 Rain 18 1013 77 10000 2.1 190 23:46 06.05.2020
3637 Clear 18 1013 77 10000 2.1 190 23:25 06.05.2020
3638 Clear 18 1013 77 10000 2.1 190 22:57 06.05.2020
3639 Clear 19 1013 82 10000 2.1 220 22:39 06.05.2020
3640 Clear 19 1013 82 10000 2.1 220 22:19 06.05.2020
3641 Clear 19 1013 77 10000 2.1 220 21:56 06.05.2020
3642 Clear 19 1012 72 10000 2.1 220 21:38 06.05.2020
3643 Rain 19 1011 72 10000 3.6 250 21:38 06.05.2020
3644 Clear 19 1012 72 10000 2.1 220 21:38 06.05.2020
3645 Clear 20 1011 72 10000 3.6 250 21:19 06.05.2020
3646 Clear 20 1011 72 10000 3.6 250 20:42 06.05.2020
3647 Rain 21 1011 72 10000 3.6 250 20:23 06.05.2020
3648 Rain 22 1011 64 10000 4.1 260 19:58 06.05.2020
3649 Rain 23 1011 64 10000 4.1 260 19:39 06.05.2020
3650 Rain 23 1011 64 10000 4.1 260 19:20 06.05.2020
3651 Rain 24 1011 53 10000 4.6 250 18:59 06.05.2020
3652 Rain 23 1011 53 10000 4.6 250 18:39 06.05.2020
3653 Clear 24 1011 53 10000 4.6 250 18:21 06.05.2020
3654 Clouds 24 1011 50 10000 2.1 250 17:58 06.05.2020
3655 Clouds 24 1011 50 10000 2.1 250 17:39 06.05.2020
3656 Clouds 24 1011 50 10000 2.1 250 17:21 06.05.2020
3657 Clouds 24 1011 47 10000 3.1 250 16:58 06.05.2020
3658 Clouds 24 1011 47 10000 3.1 250 16:40 06.05.2020
3659 Clouds 24 1011 47 10000 3.1 250 16:21 06.05.2020
3660 Clouds 23 1011 53 10000 5.1 270 15:58 06.05.2020
3661 Clouds 23 1011 53 10000 5.1 270 15:40 06.05.2020
3662 Clouds 25 1011 53 10000 5.1 270 15:20 06.05.2020
3663 Clouds 26 1012 47 10000 2.6 210 14:42 06.05.2020
3664 Clouds 26 1012 47 10000 2.6 210 14:42 06.05.2020
3665 Clouds 25 1012 47 10000 2.6 210 14:19 06.05.2020
3666 Clouds 25 1012 56 10000 3.1 220 13:59 06.05.2020
3667 Clouds 24 1012 56 10000 3.1 220 13:40 06.05.2020
3668 Clouds 24 1012 56 10000 3.1 220 13:22 06.05.2020
3669 Clouds 24 1012 53 10000 0.5 0 12:54 06.05.2020
3670 Clouds 24 1012 53 10000 0.5 0 12:36 06.05.2020
3671 Clouds 24 1012 53 10000 0.5 0 12:18 06.05.2020
3672 Clouds 23 1012 56 10000 2.6 220 11:40 06.05.2020
3673 Clouds 23 1012 56 10000 2.6 220 11:21 06.05.2020
3674 Clouds 22 1013 56 10000 1 0 10:56 06.05.2020
3675 Clouds 21 1013 56 10000 1 0 10:37 06.05.2020
3676 Clouds 20 1013 56 10000 1 0 10:18 06.05.2020
3677 Clouds 19 1013 72 10000 0.5 0 09:41 06.05.2020
3678 Clouds 17 1013 72 10000 0.5 0 09:22 06.05.2020
3679 Clouds 17 1013 77 10000 0.5 0 08:45 06.05.2020
3680 Clouds 16 1013 77 10000 0.5 0 08:23 06.05.2020
3681 Clouds 16 1013 77 10000 0.5 0 08:23 06.05.2020
3682 Clouds 16 1013 67 10000 0.5 0 07:59 06.05.2020
3683 Clouds 15 1013 87 10000 1.5 70 07:39 06.05.2020
3684 Clouds 15 1013 87 10000 1.5 70 07:20 06.05.2020
3685 Clouds 15 1013 82 10000 2.6 110 06:51 06.05.2020
3686 Clouds 15 1013 87 10000 3.1 110 06:21 06.05.2020
3687 Clouds 15 1014 87 10000 2.1 90 05:54 06.05.2020
3688 Clouds 15 1010 74 0 1.34 82 05:35 06.05.2020
3689 Clouds 16 1011 70 0 0.89 88 04:31 06.05.2020
3690 Clouds 16 1013 87 10000 3.6 120 03:38 06.05.2020
3691 Clouds 16 1013 87 10000 3.6 120 03:19 06.05.2020
3692 Clouds 17 1015 87 10000 3.1 130 02:29 06.05.2020
3693 Clouds 16 1015 87 10000 2.1 130 01:54 06.05.2020
3694 Clouds 16 1015 87 10000 2.6 130 01:30 06.05.2020
3695 Clouds 17 1015 87 10000 2.6 120 00:53 06.05.2020
3696 Clouds 17 1016 59 10000 1.5 150 00:23 06.05.2020
3697 Clouds 17 1016 59 10000 1.5 150 23:55 05.05.2020
3698 Clouds 17 1016 59 10000 1.5 150 23:37 05.05.2020
3699 Clouds 18 1016 59 10000 1.5 150 23:18 05.05.2020
3700 Clouds 17 1016 63 10000 2.1 220 22:41 05.05.2020
3701 Clouds 18 1016 63 10000 2.1 220 22:19 05.05.2020
3702 Clouds 18 1016 63 10000 2.1 230 21:57 05.05.2020
3703 Clouds 18 1016 55 10000 2.1 230 21:38 05.05.2020
3704 Clouds 19 1016 55 10000 2.1 230 21:19 05.05.2020
3705 Clouds 19 1016 55 10000 2.6 240 20:56 05.05.2020
3706 Clouds 20 1016 55 10000 3.1 230 20:38 05.05.2020
3707 Clouds 20 1016 40 10000 3.1 230 20:18 05.05.2020
3708 Clouds 21 1016 40 10000 3.1 230 19:42 05.05.2020
3709 Clouds 21 1016 40 10000 3.1 230 19:24 05.05.2020
3710 Clouds 22 1016 37 10000 3.6 220 18:58 05.05.2020
3711 Clouds 22 1016 37 10000 3.6 220 18:40 05.05.2020
3712 Clouds 23 1016 37 10000 3.6 220 18:20 05.05.2020
3713 Clouds 24 1017 33 10000 3.1 230 17:58 05.05.2020
3714 Clouds 24 1017 33 10000 3.1 230 17:58 05.05.2020
3715 Clouds 23 1017 33 10000 3.1 230 17:39 05.05.2020
3716 Clouds 23 1017 33 10000 3.1 230 17:21 05.05.2020
3717 Clouds 24 1017 31 10000 4.1 230 16:56 05.05.2020
3718 Clouds 23 1017 31 10000 4.1 230 16:36 05.05.2020
3719 Clouds 23 1017 31 10000 4.1 230 16:18 05.05.2020
3720 Clouds 23 1017 31 10000 4.1 230 16:18 05.05.2020
3721 Clouds 23 1017 31 10000 4.1 230 15:41 05.05.2020
3722 Clouds 25 1017 31 10000 4.1 230 15:22 05.05.2020
3723 Clouds 25 1017 31 10000 3.1 200 14:57 05.05.2020
3724 Clouds 25 1017 31 10000 3.1 200 14:38 05.05.2020
3725 Clouds 25 1017 31 10000 3.1 200 14:20 05.05.2020
3726 Clouds 24 1018 43 10000 3.6 230 13:58 05.05.2020
3727 Clouds 24 1018 43 10000 3.6 230 13:39 05.05.2020
3728 Clouds 24 1018 43 10000 3.6 230 13:20 05.05.2020
3729 Clouds 23 1018 49 10000 3.1 210 12:58 05.05.2020
3730 Clouds 23 1018 49 10000 3.1 210 12:38 05.05.2020
3731 Clouds 23 1018 49 10000 3.1 210 12:19 05.05.2020
3732 Clouds 22 1018 56 10000 1.5 0 11:42 05.05.2020
3733 Clouds 22 1018 56 10000 1.5 0 11:42 05.05.2020
3734 Clouds 22 1018 56 10000 1.5 0 11:20 05.05.2020
3735 Clouds 22 1018 56 10000 1.5 0 11:20 05.05.2020
3736 Clouds 21 1018 67 10000 1.5 0 10:59 05.05.2020
3737 Clouds 20 1018 67 10000 1.5 0 10:38 05.05.2020
3738 Clouds 19 1018 67 10000 1.5 0 10:19 05.05.2020
3739 Clouds 18 1018 82 10000 1.5 0 09:57 05.05.2020
3740 Clear 17 1018 82 10000 1.5 0 09:39 05.05.2020
3741 Clouds 17 1018 82 10000 1.5 0 09:20 05.05.2020
3742 Clear 16 1018 93 10000 1 0 08:41 05.05.2020
3743 Clouds 16 1018 93 10000 1 0 08:20 05.05.2020
3744 Clouds 16 1017 50 10000 0.5 0 07:57 05.05.2020
3745 Clouds 13 1017 87 10000 1 0 07:38 05.05.2020
3746 Clouds 13 1017 87 10000 1 0 07:18 05.05.2020
3747 Clouds 12 1017 87 10000 0.5 70 06:42 05.05.2020
3748 Clear 11 1017 87 10000 0.5 70 06:20 05.05.2020
3749 Clear 12 1014 71 0 1.18 57 05:35 05.05.2020
3750 Clear 13 1014 68 0 0.89 81 03:34 05.05.2020
3751 Clear 14 1019 87 10000 1.5 60 01:27 05.05.2020
3752 Clear 15 1018 82 10000 2.1 100 00:50 05.05.2020
3753 Clear 15 1018 51 10000 1 160 00:20 05.05.2020
3754 Clear 16 1018 51 10000 1 160 23:43 04.05.2020
3755 Clear 16 1018 51 10000 1 160 23:21 04.05.2020
3756 Clear 16 1019 44 10000 1 150 22:56 04.05.2020
3757 Clear 17 1019 54 10000 1 0 22:38 04.05.2020
3758 Clear 16 1019 54 10000 1 0 22:19 04.05.2020
3759 Clear 18 1018 48 10000 1.5 190 21:53 04.05.2020
3760 Clear 18 1018 48 10000 1.5 190 21:53 04.05.2020
3761 Clear 18 1018 51 10000 2.1 220 21:30 04.05.2020
3762 Clear 19 1018 52 10000 2.6 250 20:54 04.05.2020
3763 Clear 18 1018 52 10000 2.6 250 20:36 04.05.2020
3764 Clear 20 1018 52 10000 2.6 250 20:18 04.05.2020
3765 Clear 20 1018 40 10000 4.1 240 19:41 04.05.2020
3766 Clear 20 1018 40 10000 4.1 240 19:21 04.05.2020
3767 Clear 21 1018 43 10000 5.1 250 18:56 04.05.2020
3768 Clear 21 1018 43 10000 5.1 250 18:38 04.05.2020
3769 Clear 20 1018 43 10000 5.1 250 18:18 04.05.2020
3770 Clear 21 1018 43 10000 3.6 240 17:55 04.05.2020
3771 Clear 21 1018 43 10000 3.6 240 17:37 04.05.2020
3772 Clear 22 1018 43 10000 3.6 240 17:18 04.05.2020
3773 Clear 23 1018 43 10000 5.1 270 16:42 04.05.2020
3774 Clear 21 1018 43 10000 5.1 270 16:21 04.05.2020
3775 Clear 22 1018 40 10000 4.6 270 15:47 04.05.2020
3776 Clear 22 1018 40 10000 4.6 270 15:26 04.05.2020
3777 Clear 23 1018 23 10000 3.1 310 15:00 04.05.2020
3778 Clear 23 1018 23 10000 3.1 310 14:41 04.05.2020
3779 Clear 23 1018 23 10000 3.1 310 14:41 04.05.2020
3780 Clear 23 1018 23 10000 3.1 310 14:19 04.05.2020
3781 Clear 23 1019 35 10000 2.1 260 12:49 04.05.2020
3782 Clear 23 1019 35 10000 2.1 260 12:49 04.05.2020
3783 Clear 23 1019 35 10000 2.1 260 12:49 04.05.2020
3784 Clear 22 1019 35 10000 2.1 260 12:25 04.05.2020
3785 Clear 22 1019 35 10000 2.1 260 12:25 04.05.2020
3786 Clear 22 1019 35 10000 2.1 260 12:25 04.05.2020
3787 Clear 22 1019 35 10000 2.1 260 12:25 04.05.2020
3788 Clear 22 1019 35 10000 2.1 260 12:25 04.05.2020
3789 Clear 19 1019 39 10000 1.5 0 10:34 04.05.2020
3790 Clear 16 1019 47 10000 1.5 0 09:26 04.05.2020
3791 Clear 16 1019 47 10000 1.5 0 09:26 04.05.2020
3792 Clear 16 1019 47 10000 1.5 0 09:26 04.05.2020
3793 Clear 16 1019 47 10000 1.5 0 09:26 04.05.2020
3794 Clear 16 1019 47 10000 1.5 0 09:26 04.05.2020
3795 Clear 13 1017 58 10000 1.5 50 07:52 04.05.2020
3796 Clear 11 1017 66 10000 1.5 60 07:33 04.05.2020
3797 Clear 11 1017 66 10000 1.5 60 07:33 04.05.2020
3798 Clear 11 1017 66 10000 1.5 60 07:33 04.05.2020
3799 Clear 11 1017 66 10000 1.5 60 07:33 04.05.2020
3800 Clear 11 1017 66 10000 1.5 60 07:33 04.05.2020
3801 Clear 11 1016 54 10000 2.1 70 04:58 04.05.2020
3802 Clear 12 1016 58 10000 2.6 40 03:27 04.05.2020
3803 Clear 14 1015 50 10000 3.1 40 02:32 04.05.2020
3804 Clear 15 1015 51 10000 3.6 10 00:45 04.05.2020
3805 Clear 17 1014 45 10000 5.1 10 23:46 03.05.2020
3806 Clear 17 1014 45 10000 5.1 10 23:25 03.05.2020
3807 Clear 17 1014 51 10000 2.1 30 22:57 03.05.2020
3808 Clear 18 1014 42 10000 2.6 30 22:39 03.05.2020
3809 Clear 18 1014 42 10000 2.6 30 22:21 03.05.2020
3810 Clear 18 1013 77 10000 0.5 0 21:41 03.05.2020
3811 Clear 18 1013 77 10000 0.5 0 21:41 03.05.2020
3812 Clear 20 1012 40 10000 5.7 350 21:21 03.05.2020
3813 Clear 21 1012 40 10000 5.7 350 20:47 03.05.2020
3814 Clear 20 1012 40 10000 5.7 350 20:47 03.05.2020
3815 Clear 21 1012 40 10000 5.7 350 20:23 03.05.2020
3816 Clear 22 1011 38 10000 6.7 350 19:56 03.05.2020
3817 Clear 22 1011 38 10000 6.7 350 19:56 03.05.2020
3818 Clear 23 1011 38 10000 6.7 350 19:38 03.05.2020
3819 Clear 23 1011 38 10000 6.7 350 19:18 03.05.2020
3820 Clouds 24 1011 53 10000 3.1 260 18:39 03.05.2020
3821 Clouds 23 1011 53 10000 3.1 260 18:20 03.05.2020
3822 Clouds 23 1011 53 10000 3.1 260 18:20 03.05.2020
3823 Clouds 23 1010 50 10000 4.1 290 17:56 03.05.2020
3824 Clouds 23 1010 50 10000 4.1 290 17:37 03.05.2020
3825 Clouds 25 1010 50 10000 4.1 290 17:19 03.05.2020
3826 Clouds 25 1010 50 10000 4.1 290 17:19 03.05.2020
3827 Clouds 25 1010 50 10000 4.1 290 17:19 03.05.2020
3828 Clouds 25 1010 50 10000 5.1 280 16:40 03.05.2020
3829 Clouds 25 1010 50 10000 5.1 280 16:40 03.05.2020
3830 Clouds 25 1010 50 10000 5.1 280 16:19 03.05.2020
3831 Clouds 26 1011 44 10000 3.6 310 15:57 03.05.2020
3832 Clouds 26 1011 44 10000 3.6 310 15:38 03.05.2020
3833 Clouds 26 1011 44 10000 3.6 310 15:38 03.05.2020
3834 Clouds 26 1011 44 10000 3.6 310 15:38 03.05.2020
3835 Clouds 26 1011 44 10000 3.6 310 15:19 03.05.2020
3836 Clouds 25 1011 47 10000 3.6 290 14:56 03.05.2020
3837 Clouds 25 1011 47 10000 3.6 290 14:38 03.05.2020
3838 Clouds 25 1011 47 10000 3.6 290 14:19 03.05.2020
3839 Clouds 25 1011 47 10000 3.1 270 13:37 03.05.2020
3840 Clouds 25 1011 47 10000 3.1 270 13:37 03.05.2020
3841 Clouds 25 1011 47 10000 1 0 12:52 03.05.2020
3842 Clouds 23 1011 47 10000 1 0 12:29 03.05.2020
3843 Clear 23 1011 53 10000 1 0 11:58 03.05.2020
3844 Clear 23 1011 53 10000 1 0 11:40 03.05.2020
3845 Clear 23 1011 53 10000 1 0 11:40 03.05.2020
3846 Clear 23 1011 53 10000 1 0 11:40 03.05.2020
3847 Clear 23 1011 53 10000 1 0 11:40 03.05.2020
3848 Clear 23 1011 53 10000 1 0 11:40 03.05.2020
3849 Clear 23 1011 53 10000 1 0 11:21 03.05.2020
3850 Clear 21 1011 68 10000 1 0 10:54 03.05.2020
3851 Clear 20 1011 68 10000 1 0 10:25 03.05.2020
3852 Clear 17 1011 87 10000 1 0 09:41 03.05.2020
3853 Clear 17 1011 87 10000 1 0 09:41 03.05.2020
3854 Clear 17 1011 87 10000 1 0 09:41 03.05.2020
3855 Clear 18 1011 87 10000 1 0 09:41 03.05.2020
3856 Clouds 15 1011 93 10000 2.1 350 09:00 03.05.2020
3857 Clouds 15 1011 93 10000 2.1 350 09:00 03.05.2020
3858 Clouds 15 1011 93 10000 2.1 350 08:35 03.05.2020
3859 Clouds 13 1010 93 10000 3.1 30 07:45 03.05.2020
3860 Clouds 13 1010 93 10000 3.1 30 07:45 03.05.2020
3861 Clouds 13 1010 93 10000 3.1 30 07:45 03.05.2020
3862 Clouds 13 1010 93 10000 3.1 30 07:45 03.05.2020
3863 Clouds 13 1010 93 10000 3.1 30 07:45 03.05.2020
3864 Clouds 12 1010 100 10000 2.1 20 07:12 03.05.2020
3865 Clouds 12 1010 100 10000 2.1 20 07:03 03.05.2020
3866 Clouds 12 1010 100 10000 2.1 20 07:03 03.05.2020
3867 Clouds 13 1010 93 10000 1 0 05:57 03.05.2020
3868 Clouds 13 1010 100 10000 1.5 80 05:38 03.05.2020
3869 Clear 13 1010 93 10000 1 0 04:28 03.05.2020
3870 Clear 14 1010 93 10000 1.5 90 03:46 03.05.2020
3871 Clear 14 1011 93 10000 1.5 50 02:36 03.05.2020
3872 Clouds 15 1011 93 10000 0.5 0 02:18 03.05.2020
3873 Clouds 16 1010 87 10000 2.1 260 01:39 03.05.2020
3874 Clouds 16 1010 87 10000 2.1 260 01:21 03.05.2020
3875 Clouds 16 1011 87 10000 2.1 120 00:40 03.05.2020
3876 Clouds 16 1011 87 10000 2.1 120 00:40 03.05.2020
3877 Clouds 16 1011 77 10000 2.6 210 00:20 03.05.2020
3878 Clouds 16 1011 77 10000 2.6 210 23:49 02.05.2020
3879 Clouds 16 1011 77 10000 2.6 210 23:30 02.05.2020
3880 Clouds 17 1011 72 10000 2.6 210 22:57 02.05.2020
3881 Clouds 17 1011 72 10000 2.6 180 22:39 02.05.2020
3882 Clouds 17 1011 72 10000 2.6 180 22:21 02.05.2020
3883 Clouds 18 1010 67 10000 2.1 210 21:43 02.05.2020
3884 Clouds 19 1009 60 10000 2.6 280 21:21 02.05.2020
3885 Clouds 19 1009 60 10000 2.6 280 20:59 02.05.2020
3886 Clouds 20 1009 60 10000 2.6 280 20:39 02.05.2020
3887 Clouds 20 1009 60 10000 2.6 280 20:20 02.05.2020
3888 Clouds 21 1008 49 10000 4.6 280 19:59 02.05.2020
3889 Clouds 22 1008 49 10000 4.6 280 19:39 02.05.2020
3890 Clouds 22 1008 49 10000 4.6 280 19:20 02.05.2020
3891 Clouds 22 1008 46 10000 5.1 260 18:56 02.05.2020
3892 Clouds 22 1008 46 10000 5.1 260 18:38 02.05.2020
3893 Clouds 22 1008 46 10000 5.1 260 18:20 02.05.2020
3894 Clouds 22 1008 46 10000 5.7 270 17:56 02.05.2020
3895 Clouds 22 1008 46 10000 5.7 270 17:38 02.05.2020
3896 Clouds 22 1008 46 10000 5.7 270 17:19 02.05.2020
3897 Clouds 23 1009 46 10000 5.7 290 16:46 02.05.2020
3898 Clouds 23 1009 47 10000 4.6 300 16:27 02.05.2020
3899 Clouds 23 1009 47 10000 4.6 300 15:56 02.05.2020
3900 Clouds 23 1009 47 10000 4.6 300 15:38 02.05.2020
3901 Clouds 23 1009 47 10000 4.6 300 15:19 02.05.2020
3902 Clouds 23 1009 47 10000 4.6 300 15:19 02.05.2020
3903 Clouds 24 1009 69 10000 3.1 260 14:42 02.05.2020
3904 Clouds 24 1009 69 10000 3.1 260 14:24 02.05.2020
3905 Clouds 23 1010 49 10000 3.1 300 13:58 02.05.2020
3906 Clouds 24 1011 53 10000 3.89 329 13:38 02.05.2020
3907 Clouds 24 1011 53 10000 3.89 329 13:18 02.05.2020
3908 Clouds 23 1011 53 10000 3.89 329 12:40 02.05.2020
3909 Clouds 23 1011 53 10000 2.5 318 12:20 02.05.2020
3910 Clouds 22 1010 64 10000 1 0 11:57 02.05.2020
3911 Clouds 21 1010 64 10000 1 0 11:38 02.05.2020
3912 Clouds 21 1010 64 10000 1 0 11:20 02.05.2020
3913 Clouds 20 1010 68 9000 1.5 0 10:40 02.05.2020
3914 Clouds 20 1010 68 9000 1.5 0 10:22 02.05.2020
3915 Clouds 20 1010 68 9000 1.5 0 10:22 02.05.2020
3916 Clouds 19 1010 82 8000 1.5 0 09:59 02.05.2020
3917 Clouds 19 1010 82 8000 1.5 0 09:40 02.05.2020
3918 Clouds 19 1010 82 8000 1.5 0 09:21 02.05.2020
3919 Clouds 18 1010 100 8000 1 0 08:55 02.05.2020
3920 Clouds 17 1010 100 8000 1 0 08:37 02.05.2020
3921 Clouds 17 1010 100 8000 1 0 08:18 02.05.2020
3922 Clouds 16 1009 82 10000 2.6 180 07:42 02.05.2020
3923 Clouds 16 1009 82 10000 2.6 180 07:22 02.05.2020
3924 Clouds 16 1010 82 10000 2.1 190 06:42 02.05.2020
3925 Clouds 17 1010 82 10000 3.1 190 05:28 02.05.2020
3926 Clouds 17 1010 82 10000 3.6 200 04:27 02.05.2020
3927 Clouds 17 1011 77 10000 4.1 200 03:40 02.05.2020
3928 Clouds 17 1011 77 10000 4.6 190 02:41 02.05.2020
3929 Clouds 17 1011 77 10000 5.7 170 01:58 02.05.2020
3930 Clouds 17 1011 77 10000 5.7 180 01:26 02.05.2020
3931 Clouds 18 1011 72 10000 4.6 190 00:43 02.05.2020
3932 Clouds 18 1011 72 10000 4.6 190 00:21 02.05.2020
3933 Clouds 18 1012 72 10000 3.6 200 23:55 01.05.2020
3934 Clouds 18 1012 68 10000 5.1 190 23:37 01.05.2020
3935 Clouds 18 1012 68 10000 5.1 190 23:18 01.05.2020
3936 Clouds 18 1012 68 10000 5.1 200 22:38 01.05.2020
3937 Clouds 18 1012 68 10000 5.1 200 22:19 01.05.2020
3938 Clouds 18 1012 63 10000 5.1 190 21:57 01.05.2020
3939 Clouds 18 1012 63 10000 5.1 190 21:39 01.05.2020
3940 Clouds 19 1012 52 10000 3.6 190 21:20 01.05.2020
3941 Clouds 19 1012 52 10000 3.6 190 20:57 01.05.2020
3942 Clouds 19 1012 52 10000 3.6 190 20:38 01.05.2020
3943 Clouds 19 1012 52 10000 3.6 190 20:19 01.05.2020
3944 Clouds 19 1012 55 10000 3.6 230 19:55 01.05.2020
3945 Clouds 20 1012 55 10000 3.6 230 19:37 01.05.2020
3946 Clouds 20 1012 55 10000 3.6 230 19:19 01.05.2020
3947 Clouds 21 1012 52 10000 2.6 230 18:55 01.05.2020
3948 Clouds 20 1012 52 10000 2.6 230 18:36 01.05.2020
3949 Clouds 21 1012 52 10000 2.6 230 18:18 01.05.2020
3950 Clouds 21 1012 49 10000 4.6 240 17:40 01.05.2020
3951 Clouds 22 1012 49 10000 4.6 240 17:21 01.05.2020
3952 Clouds 22 1012 43 10000 5.1 230 16:57 01.05.2020
3953 Clouds 22 1012 43 10000 5.1 230 16:39 01.05.2020
3954 Clouds 22 1012 43 10000 5.1 230 16:20 01.05.2020
3955 Clouds 22 1012 52 10000 4.6 220 15:57 01.05.2020
3956 Clouds 22 1012 52 10000 4.6 220 15:38 01.05.2020
3957 Clouds 21 1012 52 10000 4.6 220 15:19 01.05.2020
3958 Clouds 22 1012 56 10000 3.6 210 14:43 01.05.2020
3959 Clouds 22 1012 56 10000 3.6 210 14:24 01.05.2020
3960 Clouds 22 1013 60 10000 4.6 230 13:54 01.05.2020
3961 Clouds 22 1013 60 10000 4.6 230 13:36 01.05.2020
3962 Clouds 22 1013 60 10000 4.6 230 13:18 01.05.2020
3963 Clouds 21 1013 68 10000 3.1 190 12:40 01.05.2020
3964 Clouds 20 1013 68 10000 3.1 190 12:21 01.05.2020
3965 Clouds 20 1013 68 10000 3.6 210 11:59 01.05.2020
3966 Clouds 20 1013 68 10000 3.6 210 11:41 01.05.2020
3967 Clouds 20 1013 68 10000 3.6 210 11:21 01.05.2020
3968 Clouds 19 1013 72 10000 2.6 180 10:56 01.05.2020
3969 Clouds 19 1013 72 10000 2.6 180 10:37 01.05.2020
3970 Clouds 19 1013 72 10000 2.6 180 10:19 01.05.2020
3971 Clouds 18 1013 72 10000 2.1 160 09:43 01.05.2020
3972 Clouds 18 1013 72 10000 2.1 160 09:19 01.05.2020
3973 Clouds 17 1012 72 10000 2.1 110 08:47 01.05.2020
3974 Clouds 17 1012 72 10000 2.1 110 08:28 01.05.2020
3975 Clouds 17 1012 77 10000 4.1 170 07:59 01.05.2020
3976 Clouds 16 1012 82 10000 3.6 140 07:40 01.05.2020
3977 Clouds 16 1012 82 10000 3.6 140 07:20 01.05.2020
3978 Clouds 16 1011 87 10000 4.1 140 06:30 01.05.2020
3979 Clouds 16 1012 82 10000 5.1 140 05:26 01.05.2020
3980 Clouds 16 1012 87 10000 3.6 160 03:45 01.05.2020
3981 Clouds 16 1012 82 10000 5.7 150 02:54 01.05.2020
3982 Clouds 16 1012 82 10000 6.7 140 02:35 01.05.2020
3983 Clouds 16 1013 82 10000 4.1 160 01:53 01.05.2020
3984 Clouds 16 1013 87 10000 5.1 150 01:27 01.05.2020
3985 Clouds 16 1013 87 10000 5.7 140 00:40 01.05.2020
3986 Clouds 16 1014 72 10000 4.1 180 00:21 01.05.2020
3987 Clouds 16 1014 72 10000 4.1 180 23:57 30.04.2020
3988 Clouds 16 1014 72 10000 4.1 180 23:39 30.04.2020
3989 Clouds 16 1014 72 10000 4.1 180 23:21 30.04.2020
3990 Clouds 16 1014 77 10000 4.6 180 22:57 30.04.2020
3991 Clouds 16 1014 77 10000 3.6 190 22:38 30.04.2020
3992 Clouds 16 1014 77 10000 3.6 190 22:18 30.04.2020
3993 Clouds 17 1014 72 10000 3.6 190 21:42 30.04.2020
3994 Clouds 17 1013 55 10000 3.6 220 21:23 30.04.2020
3995 Clouds 17 1013 55 10000 3.6 220 20:58 30.04.2020
3996 Clouds 18 1013 55 10000 3.6 220 20:40 30.04.2020
3997 Clouds 18 1013 55 10000 3.6 220 20:18 30.04.2020
3998 Clouds 19 1013 59 10000 3.1 210 19:46 30.04.2020
3999 Clouds 18 1013 59 10000 3.1 210 19:26 30.04.2020
4000 Clouds 19 1013 55 10000 4.1 230 18:59 30.04.2020
4001 Clouds 20 1013 55 10000 4.1 230 18:39 30.04.2020
4002 Clouds 20 1013 55 10000 4.1 230 18:21 30.04.2020
4003 Clouds 19 1013 60 10000 4.6 240 17:58 30.04.2020
4004 Clouds 20 1013 60 10000 4.6 240 17:40 30.04.2020
4005 Clouds 20 1013 60 10000 4.6 240 17:21 30.04.2020
4006 Clouds 19 1014 59 10000 5.1 240 16:57 30.04.2020
4007 Clouds 20 1014 59 10000 5.1 240 16:38 30.04.2020
4008 Clouds 20 1014 59 10000 5.1 240 16:19 30.04.2020
4009 Clouds 21 1014 46 10000 4.1 220 15:48 30.04.2020
4010 Clouds 21 1014 46 10000 4.1 220 15:48 30.04.2020
4011 Clouds 22 1014 46 10000 4.1 220 15:25 30.04.2020
4012 Clouds 22 1014 49 10000 4.1 230 14:58 30.04.2020
4013 Clouds 22 1014 49 10000 4.1 230 14:39 30.04.2020
4014 Clouds 22 1014 49 10000 4.1 230 14:19 30.04.2020
4015 Clouds 22 1014 43 10000 3.1 240 13:55 30.04.2020
4016 Clouds 22 1014 43 10000 3.1 240 13:37 30.04.2020
4017 Clouds 22 1014 43 10000 3.1 240 13:19 30.04.2020
4018 Clouds 21 1014 49 10000 1 0 12:41 30.04.2020
4019 Clouds 21 1014 49 10000 1 0 12:20 30.04.2020
4020 Clouds 20 1014 55 10000 1.5 0 11:58 30.04.2020
4021 Clouds 20 1014 55 10000 1.5 0 11:36 30.04.2020
4022 Clouds 19 1014 55 10000 1.5 0 11:18 30.04.2020
4023 Clouds 17 1014 82 10000 1.26 203 10:41 30.04.2020
4024 Clouds 17 1014 82 10000 0.31 243 10:22 30.04.2020
4025 Clouds 17 1014 82 10000 0.31 243 10:22 30.04.2020
4026 Clouds 15 1014 100 10000 0.5 0 09:58 30.04.2020
4027 Clouds 14 1014 100 10000 0.5 0 09:39 30.04.2020
4028 Clouds 14 1014 100 10000 0.5 0 09:21 30.04.2020
4029 Clouds 13 1014 100 10000 0.99 117 08:48 30.04.2020
4030 Clear 13 1014 100 10000 1.5 69 08:27 30.04.2020
4031 Clear 12 1014 87 10000 0.5 0 07:57 30.04.2020
4032 Clear 12 1013 93 10000 1.5 130 07:39 30.04.2020
4033 Clear 11 1013 93 10000 1.5 130 07:19 30.04.2020
4034 Clear 11 1013 93 10000 1.5 30 06:32 30.04.2020
4035 Clear 11 1013 100 10000 1 90 05:47 30.04.2020
4036 Clouds 11 1013 93 10000 1 0 04:48 30.04.2020
4037 Clouds 11 1013 100 10000 1.5 10 04:24 30.04.2020
4038 Clear 12 1013 100 10000 1.5 20 02:52 30.04.2020
4039 Clouds 12 1013 100 10000 1 330 02:28 30.04.2020
4040 Clouds 13 1013 100 10000 2.6 60 01:37 30.04.2020
4041 Clouds 13 1013 93 10000 2.1 40 00:53 30.04.2020
4042 Clouds 14 1012 82 10000 3.1 140 00:24 30.04.2020
4043 Clouds 14 1012 82 10000 3.1 140 00:24 30.04.2020
4044 Clouds 14 1012 82 10000 3.1 140 23:59 29.04.2020
4045 Clouds 14 1012 82 10000 3.1 140 23:41 29.04.2020
4046 Clouds 15 1012 82 10000 3.1 140 23:22 29.04.2020
4047 Clouds 15 1012 77 10000 2.6 160 22:58 29.04.2020
4048 Clouds 15 1012 77 10000 2.6 140 22:39 29.04.2020
4049 Clouds 16 1012 77 10000 2.6 140 22:19 29.04.2020
4050 Clouds 16 1012 77 10000 1.5 210 21:38 29.04.2020
4051 Clouds 16 1011 93 10000 2.6 230 21:20 29.04.2020
4052 Clouds 16 1011 93 10000 2.6 230 20:58 29.04.2020
4053 Clouds 16 1011 93 10000 2.6 230 20:39 29.04.2020
4054 Clouds 16 1011 93 10000 2.6 230 20:19 29.04.2020
4055 Clouds 17 1011 72 10000 3.1 250 19:54 29.04.2020
4056 Clouds 18 1011 72 10000 3.1 250 19:36 29.04.2020
4057 Clouds 18 1011 72 10000 3.1 250 19:18 29.04.2020
4058 Clouds 19 1011 63 10000 4.1 230 18:41 29.04.2020
4059 Clouds 19 1011 63 10000 4.1 230 18:20 29.04.2020
4060 Clouds 20 1011 63 10000 4.6 230 17:55 29.04.2020
4061 Clouds 20 1011 63 10000 4.6 230 17:55 29.04.2020
4062 Clouds 20 1011 63 10000 4.6 230 17:37 29.04.2020
4063 Clouds 20 1011 63 10000 4.6 230 17:18 29.04.2020
4064 Clouds 21 1011 56 10000 5.7 240 16:37 29.04.2020
4065 Clouds 21 1012 60 10000 5.7 240 16:18 29.04.2020
4066 Clouds 21 1012 60 10000 5.7 240 15:56 29.04.2020
4067 Clouds 21 1012 60 10000 5.7 240 15:38 29.04.2020
4068 Clouds 21 1012 60 10000 5.7 240 15:19 29.04.2020
4069 Clouds 20 1012 64 10000 6.2 240 14:45 29.04.2020
4070 Clouds 20 1012 64 10000 6.2 240 14:26 29.04.2020
4071 Clouds 20 1012 63 10000 6.2 240 13:58 29.04.2020
4072 Clouds 19 1012 63 10000 6.2 240 13:39 29.04.2020
4073 Clouds 19 1012 63 10000 6.2 240 13:20 29.04.2020
4074 Clouds 19 1012 63 10000 4.6 220 12:56 29.04.2020
4075 Clouds 19 1012 63 10000 4.6 220 12:37 29.04.2020
4076 Clouds 20 1012 63 10000 4.6 220 12:18 29.04.2020
4077 Clouds 19 1012 72 10000 4.6 230 11:39 29.04.2020
4078 Clouds 19 1012 72 10000 4.6 230 11:39 29.04.2020
4079 Clouds 19 1012 72 10000 4.6 230 11:20 29.04.2020
4080 Clouds 18 1012 77 10000 3.6 230 10:55 29.04.2020
4081 Clouds 18 1012 77 10000 3.6 230 10:37 29.04.2020
4082 Clouds 18 1012 77 10000 3.6 230 10:18 29.04.2020
4083 Clouds 17 1012 82 10000 3.6 230 09:41 29.04.2020
4084 Clouds 17 1012 82 10000 3.6 230 09:21 29.04.2020
4085 Clouds 17 1012 82 10000 2.1 190 08:44 29.04.2020
4086 Clouds 17 1012 82 10000 2.1 190 08:26 29.04.2020
4087 Clouds 16 1012 87 10000 2.6 190 07:56 29.04.2020
4088 Clouds 15 1012 93 10000 2.6 180 07:37 29.04.2020
4089 Clouds 15 1012 93 10000 2.6 180 07:18 29.04.2020
4090 Rain 15 1012 87 10000 3.1 190 06:45 29.04.2020
4091 Clouds 15 1012 87 10000 3.1 200 06:26 29.04.2020
4092 Clouds 15 1012 82 10000 2.6 190 05:20 29.04.2020
4093 Clouds 16 1012 87 10000 2.1 210 04:20 29.04.2020
4094 Clouds 16 1012 82 10000 2.6 220 03:54 29.04.2020
4095 Clouds 16 1012 82 10000 4.1 170 02:32 29.04.2020
4096 Clouds 16 1013 93 10000 4.1 210 01:44 29.04.2020
4097 Clouds 16 1013 93 10000 4.1 210 01:20 29.04.2020
4098 Clouds 16 1012 87 10000 3.1 230 00:39 29.04.2020
4099 Clouds 16 1012 87 10000 3.1 230 00:18 29.04.2020
4100 Clouds 16 1012 82 10000 3.6 200 23:45 28.04.2020
4101 Clouds 16 1012 82 10000 4.1 180 23:22 28.04.2020
4102 Clouds 17 1013 82 10000 6.2 190 22:40 28.04.2020
4103 Clouds 17 1013 82 10000 6.2 190 22:22 28.04.2020
4104 Clouds 17 1013 82 10000 6.2 190 22:22 28.04.2020
4105 Clouds 17 1013 87 10000 5.1 180 21:59 28.04.2020
4106 Clouds 17 1012 77 10000 5.7 180 21:41 28.04.2020
4107 Clouds 17 1012 77 10000 3.6 190 21:23 28.04.2020
4108 Clouds 17 1012 77 10000 3.6 190 20:59 28.04.2020
4109 Clouds 18 1012 77 10000 3.6 190 20:40 28.04.2020
4110 Clouds 18 1012 77 10000 3.6 190 20:20 28.04.2020
4111 Clouds 18 1012 72 10000 4.1 180 19:57 28.04.2020
4112 Clouds 18 1012 72 10000 4.1 180 19:39 28.04.2020
4113 Clouds 19 1012 72 10000 4.1 180 19:20 28.04.2020
4114 Clouds 19 1012 72 10000 4.6 210 18:57 28.04.2020
4115 Clouds 20 1012 72 10000 4.6 210 18:38 28.04.2020
4116 Clouds 20 1012 72 10000 4.6 210 18:18 28.04.2020
4117 Clouds 20 1012 68 10000 6.2 200 17:37 28.04.2020
4118 Clouds 20 1012 68 10000 6.2 200 17:37 28.04.2020
4119 Clouds 20 1012 68 10000 6.2 200 17:19 28.04.2020
4120 Clouds 21 1013 64 10000 6.7 210 16:58 28.04.2020
4121 Clouds 21 1013 64 10000 6.7 210 16:39 28.04.2020
4122 Clouds 21 1013 64 10000 6.7 210 16:21 28.04.2020
4123 Clouds 21 1013 64 10000 5.7 190 15:56 28.04.2020
4124 Clouds 21 1013 64 10000 5.7 190 15:38 28.04.2020
4125 Clouds 21 1013 64 10000 5.7 190 15:20 28.04.2020
4126 Clouds 21 1013 64 10000 4.1 210 14:55 28.04.2020
4127 Clouds 21 1013 64 10000 4.1 210 14:36 28.04.2020
4128 Clouds 21 1013 64 10000 4.1 210 14:18 28.04.2020
4129 Clouds 21 1014 72 10000 4.6 180 13:55 28.04.2020
4130 Clouds 21 1014 72 10000 4.6 180 13:36 28.04.2020
4131 Clouds 21 1014 72 10000 4.6 180 13:18 28.04.2020
4132 Clouds 20 1014 72 10000 4.1 170 12:43 28.04.2020
4133 Clouds 20 1014 72 10000 4.1 170 12:23 28.04.2020
4134 Clouds 19 1014 82 10000 2.6 190 11:43 28.04.2020
4135 Clouds 19 1014 82 10000 2.6 190 11:23 28.04.2020
4136 Clouds 18 1014 100 10000 1.5 0 10:58 28.04.2020
4137 Clouds 18 1014 100 10000 1.5 0 10:38 28.04.2020
4138 Clouds 17 1014 100 10000 1.5 0 10:38 28.04.2020
4139 Clouds 17 1014 100 10000 1.5 0 10:18 28.04.2020
4140 Clouds 17 1014 100 10000 0.5 0 09:44 28.04.2020
4141 Clouds 17 1014 100 10000 0.5 0 09:25 28.04.2020
4142 Clouds 16 1014 100 10000 1.5 0 08:57 28.04.2020
4143 Clouds 16 1014 100 10000 1.5 0 08:38 28.04.2020
4144 Clouds 16 1014 100 10000 1.5 0 08:20 28.04.2020
4145 Clouds 15 1014 82 10000 1.5 20 07:42 28.04.2020
4146 Clouds 15 1014 82 10000 1.5 20 07:18 28.04.2020
4147 Clouds 14 1014 76 10000 1.5 100 06:41 28.04.2020
4148 Clouds 14 1014 82 10000 1.5 120 05:52 28.04.2020
4149 Clouds 14 1014 82 10000 1 0 05:34 28.04.2020
4150 Clouds 14 1014 82 10000 2.1 110 04:33 28.04.2020
4151 Clouds 14 1015 82 10000 0.5 0 02:39 28.04.2020
4152 Clouds 14 1015 82 10000 1.5 110 01:53 28.04.2020
4153 Clouds 14 1015 87 10000 1.5 150 01:22 28.04.2020
4154 Clouds 15 1015 87 10000 1.5 160 00:42 28.04.2020
4155 Clouds 15 1015 82 10000 2.1 190 23:58 27.04.2020
4156 Clouds 15 1015 87 10000 1.5 190 23:40 27.04.2020
4157 Clouds 15 1015 87 10000 1.5 190 23:20 27.04.2020
4158 Clouds 16 1015 87 10000 2.1 220 22:43 27.04.2020
4159 Clouds 16 1015 87 10000 2.1 220 22:23 27.04.2020
4160 Clouds 16 1014 82 10000 1.5 220 21:57 27.04.2020
4161 Clouds 17 1014 82 10000 2.1 230 21:39 27.04.2020
4162 Clouds 17 1014 72 10000 2.6 250 21:20 27.04.2020
4163 Clouds 17 1014 72 10000 2.6 250 20:58 27.04.2020
4164 Clouds 18 1014 72 10000 2.6 250 20:39 27.04.2020
4165 Clear 18 1014 72 10000 2.6 250 20:21 27.04.2020
4166 Clear 19 1014 63 10000 3.6 240 19:57 27.04.2020
4167 Clear 19 1014 63 10000 3.6 240 19:37 27.04.2020
4168 Clear 19 1014 63 10000 3.6 240 19:19 27.04.2020
4169 Clear 20 1013 60 10000 3.6 260 18:56 27.04.2020
4170 Clear 20 1013 60 10000 3.6 260 18:37 27.04.2020
4171 Clear 20 1013 60 10000 3.6 260 18:18 27.04.2020
4172 Clear 20 1013 52 10000 2.6 220 17:41 27.04.2020
4173 Clear 21 1013 52 10000 2.6 220 17:20 27.04.2020
4174 Clear 21 1013 52 10000 4.1 260 16:54 27.04.2020
4175 Clear 21 1013 52 10000 4.1 260 16:36 27.04.2020
4176 Clear 21 1013 52 10000 4.1 260 16:18 27.04.2020
4177 Clear 21 1013 56 10000 5.7 250 15:55 27.04.2020
4178 Clear 21 1013 56 10000 5.7 250 15:36 27.04.2020
4179 Clear 22 1013 56 10000 5.7 250 15:18 27.04.2020
4180 Clouds 22 1014 56 10000 3.6 250 14:40 27.04.2020
4181 Clouds 22 1014 56 10000 3.6 250 14:19 27.04.2020
4182 Clouds 22 1014 53 10000 2.1 150 13:57 27.04.2020
4183 Clouds 22 1014 53 10000 2.1 150 13:57 27.04.2020
4184 Clouds 22 1014 53 10000 2.1 150 13:37 27.04.2020
4185 Clouds 22 1014 53 10000 2.1 150 13:18 27.04.2020
4186 Clouds 22 1014 56 10000 3.6 230 12:43 27.04.2020
4187 Clouds 21 1014 56 10000 3.6 230 12:22 27.04.2020
4188 Clear 20 1014 55 10000 1 0 11:56 27.04.2020
4189 Clear 20 1014 55 10000 1 0 11:37 27.04.2020
4190 Clear 19 1014 55 10000 1 0 11:18 27.04.2020
4191 Clear 18 1014 77 10000 0.8 194 10:42 27.04.2020
4192 Clear 17 1014 77 10000 0.8 194 10:24 27.04.2020
4193 Clear 18 1014 77 10000 0.8 194 10:24 27.04.2020
4194 Clear 16 1014 93 10000 1 0 09:58 27.04.2020
4195 Clear 16 1014 93 10000 1 0 09:39 27.04.2020
4196 Clear 15 1014 93 10000 1 0 09:18 27.04.2020
4197 Clear 14 1014 100 10000 1 0 08:48 27.04.2020
4198 Clear 11 1014 100 10000 1 0 08:30 27.04.2020
4199 Clear 10 1013 87 10000 2.1 20 07:45 27.04.2020
4200 Clear 10 1013 87 10000 2.1 20 07:25 27.04.2020
4201 Clear 11 1013 76 10000 1 70 06:58 27.04.2020
4202 Clear 11 1013 71 10000 1 0 06:30 27.04.2020
4203 Clear 11 1013 81 10000 1.5 60 05:56 27.04.2020
4204 Clear 11 1013 87 10000 1.5 50 05:18 27.04.2020
4205 Clear 11 1013 81 10000 1 150 04:39 27.04.2020
4206 Clouds 12 1013 87 10000 1 150 03:45 27.04.2020
4207 Clouds 12 1013 87 10000 1 150 03:45 27.04.2020
4208 Clouds 13 1013 82 10000 1 0 02:30 27.04.2020
4209 Clear 13 1014 82 10000 1 0 01:20 27.04.2020
4210 Clear 14 1013 76 10000 1 180 00:40 27.04.2020
4211 Clear 14 1013 76 10000 1 180 00:40 27.04.2020
4212 Clear 14 1013 76 10000 1 180 00:18 27.04.2020
4213 Clear 14 1013 82 10000 1 0 23:55 26.04.2020
4214 Clear 14 1013 82 10000 2.1 160 23:36 26.04.2020
4215 Clear 14 1013 82 10000 2.1 160 23:36 26.04.2020
4216 Clear 15 1013 82 10000 2.1 160 23:18 26.04.2020
4217 Clear 15 1012 82 10000 2.1 210 22:40 26.04.2020
4218 Clear 15 1012 82 10000 2.1 210 22:21 26.04.2020
4219 Clear 16 1012 76 10000 2.1 210 21:59 26.04.2020
4220 Clear 16 1012 76 10000 2.1 210 21:59 26.04.2020
4221 Clear 16 1012 72 10000 1.5 230 21:40 26.04.2020
4222 Clouds 16 1011 59 10000 3.1 260 21:19 26.04.2020
4223 Clouds 16 1011 59 10000 3.1 260 20:59 26.04.2020
4224 Clouds 17 1011 59 10000 3.1 260 20:39 26.04.2020
4225 Clouds 17 1011 59 10000 3.1 260 20:20 26.04.2020
4226 Clouds 18 1010 48 10000 3.1 260 19:58 26.04.2020
4227 Clouds 19 1010 48 10000 3.1 260 19:37 26.04.2020
4228 Clouds 19 1010 48 10000 3.1 260 19:19 26.04.2020
4229 Clouds 19 1010 42 10000 3.6 260 18:44 26.04.2020
4230 Clear 19 1010 42 10000 3.6 260 18:25 26.04.2020
4231 Clear 19 1010 42 10000 3.6 260 18:25 26.04.2020
4232 Clear 19 1010 40 10000 4.6 270 17:56 26.04.2020
4233 Clear 20 1010 40 10000 4.6 270 17:38 26.04.2020
4234 Clear 20 1010 40 10000 4.6 270 17:18 26.04.2020
4235 Clouds 20 1010 43 10000 4.1 250 16:40 26.04.2020
4236 Clouds 20 1010 43 10000 4.1 250 16:21 26.04.2020
4237 Clear 20 1010 49 10000 4.6 280 15:58 26.04.2020
4238 Clear 21 1010 49 10000 4.6 280 15:38 26.04.2020
4239 Clouds 21 1010 49 10000 4.6 280 15:20 26.04.2020
4240 Clouds 21 1011 46 10000 1.5 0 14:55 26.04.2020
4241 Clouds 20 1011 46 10000 1.5 0 14:36 26.04.2020
4242 Clouds 20 1011 46 10000 1.5 0 14:18 26.04.2020
4243 Clouds 20 1011 43 10000 1 0 13:43 26.04.2020
4244 Clouds 21 1011 43 10000 1 0 13:23 26.04.2020
4245 Clouds 20 1011 40 10000 1 0 12:58 26.04.2020
4246 Clouds 20 1011 40 10000 1 0 12:40 26.04.2020
4247 Clouds 20 1011 40 10000 1 0 12:21 26.04.2020
4248 Clouds 19 1011 67 10000 1 0 11:58 26.04.2020
4249 Clouds 19 1011 67 10000 1 0 11:39 26.04.2020
4250 Clouds 19 1011 48 10000 2.1 10 11:21 26.04.2020
4251 Clouds 18 1011 48 10000 2.1 10 10:55 26.04.2020
4252 Clouds 17 1011 100 10000 1.5 0 10:37 26.04.2020
4253 Clouds 17 1011 59 10000 1.5 30 10:18 26.04.2020
4254 Clouds 15 1010 71 10000 2.1 30 09:39 26.04.2020
4255 Clouds 15 1010 71 10000 2.1 30 09:21 26.04.2020
4256 Fog 13 1011 100 5000 1.5 0 08:46 26.04.2020
4257 Fog 12 1011 100 5000 1.5 0 08:23 26.04.2020
4258 Clouds 11 1010 87 10000 1.5 50 07:59 26.04.2020
4259 Clouds 11 1010 100 10000 2.1 50 07:40 26.04.2020
4260 Clouds 10 1010 100 10000 2.1 50 07:20 26.04.2020
4261 Clouds 10 1010 100 10000 1.5 50 06:40 26.04.2020
4262 Fog 10 1010 100 8000 1.5 60 05:55 26.04.2020
4263 Clouds 10 1010 100 10000 1.5 60 05:37 26.04.2020
4264 Clouds 10 1011 100 10000 2.1 70 04:56 26.04.2020
4265 Clouds 11 1011 93 10000 1 40 03:56 26.04.2020
4266 Clouds 12 1011 100 10000 0.5 0 02:46 26.04.2020
4267 Clouds 11 1011 100 10000 0.5 0 02:26 26.04.2020
4268 Clouds 12 1012 100 10000 1.5 60 01:40 26.04.2020
4269 Clouds 13 1012 100 10000 1.5 60 01:21 26.04.2020
4270 Clouds 14 1012 93 10000 1 90 00:39 26.04.2020
4271 Clouds 13 1012 82 10000 2.1 110 00:18 26.04.2020
4272 Clouds 14 1012 82 10000 2.1 110 23:38 25.04.2020
4273 Clouds 14 1012 82 10000 2.1 110 23:20 25.04.2020
4274 Clouds 15 1012 87 10000 1.5 150 22:57 25.04.2020
4275 Clouds 15 1012 82 10000 1 0 22:39 25.04.2020
4276 Clouds 15 1012 82 10000 1 0 22:18 25.04.2020
4277 Clouds 15 1012 82 10000 1 0 22:18 25.04.2020
4278 Clouds 15 1012 87 10000 2.6 210 21:40 25.04.2020
4279 Clouds 16 1011 77 10000 3.6 240 21:20 25.04.2020
4280 Clouds 16 1011 77 10000 3.6 240 20:58 25.04.2020
4281 Clouds 16 1011 77 10000 3.6 240 20:40 25.04.2020
4282 Clouds 16 1011 77 10000 3.6 240 20:21 25.04.2020
4283 Clouds 18 1011 52 10000 3.1 250 19:42 25.04.2020
4284 Clouds 18 1011 52 10000 3.1 250 19:23 25.04.2020
4285 Clouds 19 1011 49 10000 3.1 240 18:59 25.04.2020
4286 Clouds 19 1011 49 10000 3.1 240 18:39 25.04.2020
4287 Clear 19 1011 49 10000 3.1 240 18:21 25.04.2020
4288 Clear 19 1011 49 10000 2.6 230 17:58 25.04.2020
4289 Clear 19 1011 42 10000 3.6 250 17:38 25.04.2020
4290 Clear 19 1011 42 10000 3.6 250 17:38 25.04.2020
4291 Clear 20 1012 43 10000 3.6 250 17:19 25.04.2020
4292 Clear 20 1012 43 10000 3.6 250 17:19 25.04.2020
4293 Clear 19 1012 43 10000 3.6 250 16:55 25.04.2020
4294 Clear 20 1012 43 10000 3.6 250 16:37 25.04.2020
4295 Clear 20 1012 43 10000 3.6 250 16:18 25.04.2020
4296 Clear 20 1012 49 10000 5.7 250 15:41 25.04.2020
4297 Clear 20 1012 49 10000 5.7 250 15:41 25.04.2020
4298 Clear 20 1012 49 10000 5.7 250 15:20 25.04.2020
4299 Clouds 20 1012 43 10000 2.6 270 14:58 25.04.2020
4300 Clouds 20 1012 43 10000 2.6 270 14:58 25.04.2020
4301 Clouds 20 1012 43 10000 2.6 270 14:58 25.04.2020
4302 Clouds 20 1012 43 10000 2.6 270 14:39 25.04.2020
4303 Clouds 21 1012 43 10000 2.6 270 14:20 25.04.2020
4304 Clouds 21 1013 52 10000 2.6 250 13:43 25.04.2020
4305 Clouds 20 1013 52 10000 2.6 250 13:22 25.04.2020
4306 Clear 21 1013 52 10000 1.5 0 12:58 25.04.2020
4307 Clear 20 1013 52 10000 1.5 0 12:40 25.04.2020
4308 Clear 19 1013 52 10000 1.5 0 12:21 25.04.2020
4309 Clear 19 1013 59 10000 2.6 280 11:58 25.04.2020
4310 Clear 19 1013 63 10000 1.5 230 11:39 25.04.2020
4311 Clear 19 1013 63 10000 1.5 230 11:21 25.04.2020
4312 Mist 16 1014 100 4000 1 0 10:44 25.04.2020
4313 Mist 16 1014 100 4000 1 0 10:24 25.04.2020
4314 Fog 15 1014 100 600 1 0 09:50 25.04.2020
4315 Fog 14 1014 100 600 1 0 09:30 25.04.2020
4316 Fog 13 1014 100 800 1.5 0 08:59 25.04.2020
4317 Fog 13 1014 100 800 1.5 0 08:40 25.04.2020
4318 Fog 13 1014 100 800 1.5 0 08:21 25.04.2020
4319 Clear 11 1013 100 8000 1 0 07:58 25.04.2020
4320 Clear 11 1013 100 7000 1.5 60 07:40 25.04.2020
4321 Mist 11 1013 100 4000 1.5 70 06:55 25.04.2020
4322 Clear 11 1013 100 6000 1.5 60 06:36 25.04.2020
4323 Fog 11 1014 100 7000 1 30 05:42 25.04.2020
4324 Fog 11 1014 100 7000 1 30 05:21 25.04.2020
4325 Fog 12 1014 100 6000 1.5 100 02:59 25.04.2020
4326 Fog 13 1014 100 7000 0.5 0 02:25 25.04.2020
4327 Fog 13 1014 100 8000 0.5 350 01:54 25.04.2020
4328 Clouds 13 1014 93 10000 2.1 50 01:34 25.04.2020
4329 Clouds 14 1014 93 10000 1.5 280 00:58 25.04.2020
4330 Clouds 14 1014 100 10000 1.5 280 00:34 25.04.2020
4331 Clear 14 1014 87 10000 2.1 180 23:55 24.04.2020
4332 Clear 14 1014 87 10000 2.1 180 23:55 24.04.2020
4333 Clear 14 1014 87 10000 2.1 180 23:36 24.04.2020
4334 Clear 15 1014 87 10000 2.1 180 23:18 24.04.2020
4335 Clear 15 1014 93 10000 2.6 190 22:40 24.04.2020
4336 Clear 15 1014 93 10000 2.6 190 22:19 24.04.2020
4337 Clear 15 1014 87 10000 2.6 210 21:57 24.04.2020
4338 Clear 16 1014 87 10000 3.1 200 21:38 24.04.2020
4339 Clear 16 1013 67 10000 2.6 220 21:20 24.04.2020
4340 Clear 16 1013 67 10000 2.6 220 20:56 24.04.2020
4341 Clear 17 1013 67 10000 2.6 220 20:38 24.04.2020
4342 Clear 17 1013 67 10000 2.6 220 20:18 24.04.2020
4343 Clear 18 1013 55 10000 4.1 260 19:40 24.04.2020
4344 Clear 18 1013 55 10000 4.1 260 19:22 24.04.2020
4345 Clear 19 1013 49 10000 3.6 260 18:46 24.04.2020
4346 Clear 19 1013 49 10000 3.6 260 18:28 24.04.2020
4347 Clear 19 1014 60 10000 4.1 250 17:58 24.04.2020
4348 Clear 19 1014 60 10000 4.1 250 17:39 24.04.2020
4349 Clear 19 1014 60 10000 4.1 250 17:20 24.04.2020
4350 Clear 20 1014 52 10000 4.1 250 16:58 24.04.2020
4351 Clear 20 1014 52 10000 4.1 250 16:40 24.04.2020
4352 Clear 20 1014 52 10000 4.1 250 16:21 24.04.2020
4353 Clouds 21 1014 60 10000 3.6 260 15:42 24.04.2020
4354 Clouds 21 1014 60 10000 3.6 260 15:21 24.04.2020
4355 Clouds 20 1015 49 10000 0.5 0 14:59 24.04.2020
4356 Clouds 20 1015 49 10000 0.5 0 14:38 24.04.2020
4357 Clouds 21 1015 49 10000 0.5 0 14:20 24.04.2020
4358 Clouds 20 1016 46 10000 1.5 0 13:42 24.04.2020
4359 Clouds 20 1016 46 10000 1.5 0 13:22 24.04.2020
4360 Clear 20 1016 52 10000 2.73 238 12:59 24.04.2020
4361 Clear 20 1016 52 10000 2.73 238 12:41 24.04.2020
4362 Clear 20 1016 52 10000 0.26 103 12:20 24.04.2020
4363 Clear 19 1017 77 10000 1 0 11:56 24.04.2020
4364 Clear 18 1017 77 10000 1 0 11:37 24.04.2020
4365 Clear 18 1017 77 10000 1 0 11:18 24.04.2020
4366 Clear 17 1016 67 10000 1 0 10:38 24.04.2020
4367 Clear 17 1016 67 10000 1 0 10:20 24.04.2020
4368 Clear 16 1016 77 10000 1.5 30 09:58 24.04.2020
4369 Clear 14 1017 100 8000 1.5 0 09:39 24.04.2020
4370 Clear 14 1017 100 8000 1.5 0 09:20 24.04.2020
4371 Fog 12 1017 100 300 2.6 10 08:43 24.04.2020
4372 Fog 12 1017 100 300 2.6 10 08:23 24.04.2020
4373 Clear 11 1016 93 10000 2.1 360 07:59 24.04.2020
4374 Fog 11 1016 100 7000 0.5 70 07:41 24.04.2020
4375 Fog 10 1016 100 7000 0.5 70 07:23 24.04.2020
4376 Fog 10 1016 100 5000 1.5 90 06:48 24.04.2020
4377 Rain 10 1016 100 5000 1.5 90 06:30 24.04.2020
4378 Fog 10 1016 100 7000 1 60 05:39 24.04.2020
4379 Fog 11 1016 100 8000 1 30 03:41 24.04.2020
4380 Clear 12 1017 93 8000 1.5 60 02:55 24.04.2020
4381 Clear 12 1017 93 10000 2.6 60 02:37 24.04.2020
4382 Clear 12 1017 93 10000 1.5 360 01:47 24.04.2020
4383 Clear 13 1017 93 10000 0.5 0 00:56 24.04.2020
4384 Clear 13 1017 93 10000 2.6 160 00:20 24.04.2020
4385 Clear 14 1017 93 10000 2.6 160 23:48 23.04.2020
4386 Clear 14 1017 93 10000 2.6 160 23:28 23.04.2020
4387 Clear 14 1017 93 10000 1.5 200 22:59 23.04.2020
4388 Clouds 15 1017 87 10000 1.5 230 22:41 23.04.2020
4389 Clouds 15 1017 87 10000 1.5 230 22:41 23.04.2020
4390 Clouds 15 1017 87 10000 1.5 230 22:21 23.04.2020
4391 Clouds 15 1017 87 10000 2.1 240 21:58 23.04.2020
4392 Clouds 15 1017 87 10000 1 240 21:39 23.04.2020
4393 Clouds 15 1017 87 10000 1 240 21:39 23.04.2020
4394 Rain 15 1016 77 10000 2.6 210 21:20 23.04.2020
4395 Rain 15 1016 77 10000 2.6 210 20:58 23.04.2020
4396 Rain 16 1016 77 10000 2.6 210 20:40 23.04.2020
4397 Rain 16 1016 77 10000 2.6 210 20:20 23.04.2020
4398 Rain 16 1015 67 10000 2.6 220 19:56 23.04.2020
4399 Rain 17 1015 67 10000 2.6 220 19:38 23.04.2020
4400 Rain 17 1015 67 10000 2.6 220 19:20 23.04.2020
4401 Rain 17 1015 59 10000 4.1 210 18:43 23.04.2020
4402 Rain 18 1015 59 10000 4.1 210 18:25 23.04.2020
4403 Clouds 17 1015 64 10000 2.6 230 17:59 23.04.2020
4404 Clouds 17 1015 64 10000 2.6 230 17:59 23.04.2020
4405 Clouds 17 1015 64 10000 2.6 230 17:40 23.04.2020
4406 Clouds 17 1015 64 10000 2.6 230 17:22 23.04.2020
4407 Clouds 17 1015 72 10000 4.6 220 16:57 23.04.2020
4408 Clouds 17 1015 72 10000 4.6 220 16:38 23.04.2020
4409 Clouds 17 1015 72 10000 4.6 220 16:18 23.04.2020
4410 Clouds 17 1015 63 10000 5.7 200 15:42 23.04.2020
4411 Clouds 17 1015 63 10000 5.7 200 15:23 23.04.2020
4412 Rain 18 1014 43 10000 1.5 0 14:57 23.04.2020
4413 Rain 18 1014 43 10000 1.5 0 14:38 23.04.2020
4414 Clouds 18 1014 43 10000 1.5 0 14:19 23.04.2020
4415 Rain 19 1015 46 10000 1 0 13:55 23.04.2020
4416 Clouds 19 1015 46 10000 1 0 13:36 23.04.2020
4417 Clouds 20 1015 46 10000 1 0 13:18 23.04.2020
4418 Rain 19 1015 55 10000 1 0 12:42 23.04.2020
4419 Clouds 19 1015 55 10000 1 0 12:24 23.04.2020
4420 Clouds 18 1015 63 10000 1.5 0 11:56 23.04.2020
4421 Clouds 18 1015 63 10000 1.5 0 11:38 23.04.2020
4422 Clouds 18 1015 63 10000 1.5 0 11:18 23.04.2020
4423 Clouds 16 1015 77 10000 2.6 20 10:41 23.04.2020
4424 Clouds 16 1015 77 10000 2.6 20 10:21 23.04.2020
4425 Clouds 14 1015 87 10000 1 0 09:41 23.04.2020
4426 Rain 14 1015 87 10000 1 0 09:20 23.04.2020
4427 Rain 13 1015 93 10000 3.18 360 08:57 23.04.2020
4428 Rain 13 1015 93 10000 3.18 360 08:39 23.04.2020
4429 Rain 13 1015 93 10000 3.18 360 08:21 23.04.2020
4430 Rain 12 1014 87 10000 2.1 340 07:42 23.04.2020
4431 Rain 12 1014 87 10000 2.1 340 07:23 23.04.2020
4432 Rain 13 1014 87 10000 1.5 330 06:47 23.04.2020
4433 Rain 13 1013 87 10000 1.5 20 05:58 23.04.2020
4434 Rain 13 1014 87 10000 1.5 360 05:22 23.04.2020
4435 Rain 13 1013 87 10000 1 70 04:50 23.04.2020
4436 Rain 13 1014 93 10000 1 0 02:24 23.04.2020
4437 Clouds 13 1014 93 9000 1.5 40 01:41 23.04.2020
4438 Drizzle 13 1014 93 9000 2.1 20 01:18 23.04.2020
4439 Drizzle 14 1014 93 9000 2.6 20 00:45 23.04.2020
4440 Drizzle 14 1014 93 9000 2.6 20 00:45 23.04.2020
4441 Rain 14 1014 100 9000 1 0 00:18 23.04.2020
4442 Rain 14 1014 100 9000 1 0 23:47 22.04.2020
4443 Rain 14 1014 100 9000 1 0 23:23 22.04.2020
4444 Rain 14 1013 100 10000 2.6 30 22:55 22.04.2020
4445 Clouds 14 1013 100 10000 1 350 22:36 22.04.2020
4446 Clouds 14 1013 100 10000 0.5 330 22:18 22.04.2020
4447 Clouds 14 1013 100 10000 0.5 330 21:55 22.04.2020
4448 Clouds 14 1013 100 10000 0.5 330 21:55 22.04.2020
4449 Clouds 15 1013 93 8000 1.5 340 21:36 22.04.2020
4450 Clouds 15 1012 93 9000 1.5 0 21:18 22.04.2020
4451 Clouds 15 1012 93 9000 1.5 0 20:43 22.04.2020
4452 Clouds 15 1012 93 9000 1.5 0 20:19 22.04.2020
4453 Clouds 15 1011 93 8000 1.5 0 19:57 22.04.2020
4454 Clouds 15 1011 93 8000 1.5 0 19:38 22.04.2020
4455 Clouds 15 1011 93 8000 1.5 0 19:38 22.04.2020
4456 Clouds 15 1011 93 8000 1.5 0 19:18 22.04.2020
4457 Rain 15 1011 93 5000 2.6 20 18:58 22.04.2020
4458 Rain 15 1011 93 5000 2.6 20 18:40 22.04.2020
4459 Rain 15 1011 93 5000 2.6 20 18:22 22.04.2020
4460 Rain 15 1011 87 10000 2.6 30 17:45 22.04.2020
4461 Rain 15 1011 87 10000 2.6 30 17:26 22.04.2020
4462 Clouds 15 1011 93 10000 2.1 360 16:58 22.04.2020
4463 Clouds 15 1011 93 10000 2.1 360 16:40 22.04.2020
4464 Clouds 15 1011 93 10000 2.1 360 16:22 22.04.2020
4465 Rain 15 1011 93 10000 3.1 10 15:42 22.04.2020
4466 Rain 15 1011 93 10000 3.1 10 15:42 22.04.2020
4467 Rain 15 1011 93 10000 3.1 10 15:23 22.04.2020
4468 Clouds 15 1011 93 9000 3.6 10 14:58 22.04.2020
4469 Rain 15 1011 93 9000 3.6 10 14:38 22.04.2020
4470 Rain 15 1011 93 9000 3.6 10 14:20 22.04.2020
4471 Rain 15 1011 93 7000 4.6 360 13:55 22.04.2020
4472 Rain 15 1011 93 7000 4.6 360 13:36 22.04.2020
4473 Rain 15 1011 87 10000 5.1 30 13:18 22.04.2020
4474 Rain 15 1011 87 10000 5.1 30 12:39 22.04.2020
4475 Rain 15 1011 87 10000 5.1 30 12:21 22.04.2020
4476 Rain 15 1010 87 10000 3.1 30 11:40 22.04.2020
4477 Rain 15 1010 87 10000 3.1 30 11:20 22.04.2020
4478 Rain 15 1010 87 9000 1.5 0 10:59 22.04.2020
4479 Rain 14 1010 87 9000 1.5 0 10:39 22.04.2020
4480 Clouds 14 1010 87 9000 1.5 0 10:19 22.04.2020
4481 Clouds 14 1010 93 10000 1 0 09:39 22.04.2020
4482 Clouds 13 1010 93 10000 1 0 09:21 22.04.2020
4483 Clouds 13 1009 100 10000 2.12 56 08:56 22.04.2020
4484 Clouds 13 1009 100 10000 2.12 56 08:38 22.04.2020
4485 Clouds 13 1009 100 10000 2.12 56 08:20 22.04.2020
4486 Rain 13 1009 93 10000 1 0 07:53 22.04.2020
4487 Rain 12 1009 100 10000 1 0 07:28 22.04.2020
4488 Rain 13 1008 93 10000 2.1 360 06:53 22.04.2020
4489 Rain 13 1008 93 10000 1.5 350 06:18 22.04.2020
4490 Rain 13 1009 93 8000 2.6 30 05:35 22.04.2020
4491 Rain 13 1009 93 8000 2.6 50 04:20 22.04.2020
4492 Rain 14 1009 93 8000 0.5 0 02:43 22.04.2020
4493 Rain 14 1009 93 8000 1 0 01:50 22.04.2020
4494 Rain 15 1009 93 10000 1 360 01:25 22.04.2020
4495 Rain 15 1009 87 10000 0.5 0 00:47 22.04.2020
4496 Rain 15 1008 87 10000 0.5 0 00:22 22.04.2020
4497 Clouds 15 1008 87 10000 0.5 0 23:59 21.04.2020
4498 Clouds 16 1008 87 10000 1.61 86 23:40 21.04.2020
4499 Clouds 15 1008 87 10000 1.61 86 23:18 21.04.2020
4500 Clouds 16 1008 87 10000 0.5 0 22:40 21.04.2020
4501 Clouds 16 1008 87 10000 0.5 0 22:21 21.04.2020
4502 Clouds 16 1007 87 10000 1 0 21:58 21.04.2020
4503 Clouds 16 1007 87 10000 2.1 50 21:40 21.04.2020
4504 Clouds 16 1007 87 10000 2.1 50 21:40 21.04.2020
4505 Clouds 16 1006 87 10000 1 0 21:22 21.04.2020
4506 Clouds 16 1006 87 10000 1 0 20:54 21.04.2020
4507 Clouds 16 1006 87 10000 1 0 20:36 21.04.2020
4508 Clouds 16 1006 87 10000 1 0 20:36 21.04.2020
4509 Clouds 16 1006 87 10000 1 0 20:18 21.04.2020
4510 Clouds 17 1006 93 10000 2.6 350 19:40 21.04.2020
4511 Clouds 16 1006 93 10000 2.6 350 19:19 21.04.2020
4512 Clouds 17 1006 88 10000 1.5 0 18:56 21.04.2020
4513 Clouds 17 1006 88 10000 1.5 0 18:38 21.04.2020
4514 Clouds 17 1006 88 10000 1.5 0 18:18 21.04.2020
4515 Rain 17 1006 82 10000 2.1 300 17:41 21.04.2020
4516 Rain 17 1006 82 10000 2.1 300 17:22 21.04.2020
4517 Clouds 17 1006 72 8000 1.5 250 16:59 21.04.2020
4518 Clouds 17 1006 72 8000 1.5 250 16:39 21.04.2020
4519 Clouds 17 1006 72 8000 1.5 250 16:19 21.04.2020
4520 Clouds 18 1006 88 8000 1.5 0 15:57 21.04.2020
4521 Clouds 17 1006 88 8000 1.5 0 15:38 21.04.2020
4522 Clouds 17 1006 88 8000 1.5 0 15:19 21.04.2020
4523 Rain 18 1005 68 10000 3.6 10 14:45 21.04.2020
4524 Rain 18 1005 68 10000 3.6 10 14:25 21.04.2020
4525 Rain 18 1005 82 10000 3.1 190 13:59 21.04.2020
4526 Rain 19 1005 64 10000 4.1 10 13:40 21.04.2020
4527 Rain 19 1005 64 10000 4.1 10 13:22 21.04.2020
4528 Clouds 19 1005 82 10000 2.1 0 12:54 21.04.2020
4529 Clouds 19 1005 82 10000 2.1 0 12:36 21.04.2020
4530 Clouds 19 1005 82 10000 2.1 0 12:18 21.04.2020
4531 Clouds 19 1005 82 10000 2.1 0 12:18 21.04.2020
4532 Clouds 19 1005 88 10000 1.5 0 11:54 21.04.2020
4533 Clouds 18 1005 88 10000 1.5 0 11:36 21.04.2020
4534 Clouds 18 1005 88 10000 1.5 0 11:18 21.04.2020
4535 Clouds 18 1005 88 10000 1.5 0 11:18 21.04.2020
4536 Clouds 17 1005 93 10000 1 0 10:54 21.04.2020
4537 Clouds 17 1005 93 10000 1 0 10:36 21.04.2020
4538 Clouds 17 1004 100 10000 1.96 60 10:18 21.04.2020
4539 Clouds 16 1004 100 10000 1.96 60 09:37 21.04.2020
4540 Clouds 16 1004 100 10000 1.09 52 09:18 21.04.2020
4541 Clouds 15 1004 93 10000 0.5 0 08:47 21.04.2020
4542 Clouds 15 1004 93 10000 0.5 0 08:27 21.04.2020
4543 Clouds 15 1004 93 10000 0.5 0 08:27 21.04.2020
4544 Fog 15 1004 93 350 2.6 200 07:56 21.04.2020
4545 Fog 15 1003 87 6000 2.6 190 07:37 21.04.2020
4546 Fog 15 1003 87 6000 2.6 190 07:19 21.04.2020
4547 Clouds 15 1003 87 10000 4.1 40 06:43 21.04.2020
4548 Clouds 15 1003 87 10000 3.6 20 06:18 21.04.2020
4549 Clouds 15 1003 82 10000 4.1 80 05:44 21.04.2020
4550 Rain 15 1004 93 8000 0.5 0 03:48 21.04.2020
4551 Clouds 16 1006 93 10000 0.5 0 02:47 21.04.2020
4552 Rain 16 1006 93 10000 2.6 220 01:33 21.04.2020
4553 Rain 16 1006 82 10000 3.6 120 00:47 21.04.2020
4554 Rain 16 1005 82 10000 3.1 60 00:23 21.04.2020
4555 Clouds 16 1005 82 10000 4.6 60 23:44 20.04.2020
4556 Clouds 16 1005 82 10000 4.6 60 23:23 20.04.2020
4557 Clouds 16 1006 82 8000 3.1 70 22:57 20.04.2020
4558 Clouds 16 1006 82 8000 4.1 120 22:37 20.04.2020
4559 Clouds 16 1006 82 8000 4.1 120 22:19 20.04.2020
4560 Rain 16 1006 93 8000 4.1 80 21:55 20.04.2020
4561 Rain 16 1006 100 7000 1.5 350 21:37 20.04.2020
4562 Rain 16 1006 93 5000 2.63 111 21:18 20.04.2020
4563 Rain 16 1006 93 5000 2.63 111 20:55 20.04.2020
4564 Rain 17 1006 93 5000 2.63 111 20:37 20.04.2020
4565 Rain 17 1006 93 5000 2.63 111 20:18 20.04.2020
4566 Rain 17 1006 93 4000 2.1 120 19:41 20.04.2020
4567 Rain 17 1006 93 4000 2.1 120 19:23 20.04.2020
4568 Rain 17 1006 100 5000 1.5 0 18:59 20.04.2020
4569 Rain 18 1006 100 5000 1.5 0 18:41 20.04.2020
4570 Rain 18 1006 100 5000 1.5 0 18:21 20.04.2020
4571 Rain 18 1006 100 5000 1 0 17:55 20.04.2020
4572 Rain 18 1006 100 5000 1 0 17:36 20.04.2020
4573 Rain 18 1006 100 5000 2.1 60 17:18 20.04.2020
4574 Clouds 18 1006 100 5000 2.1 60 16:43 20.04.2020
4575 Clouds 18 1006 100 5000 2.1 60 16:21 20.04.2020
4576 Clouds 18 1006 100 5000 2.1 30 15:57 20.04.2020
4577 Clouds 18 1006 100 5000 2.1 30 15:39 20.04.2020
4578 Clouds 18 1006 100 5000 2.1 30 15:20 20.04.2020
4579 Rain 18 1006 93 5000 2.6 20 14:42 20.04.2020
4580 Rain 18 1006 93 5000 2.6 20 14:20 20.04.2020
4581 Clouds 18 1007 100 4000 2.1 60 13:59 20.04.2020
4582 Clouds 17 1007 100 4000 2.1 60 13:40 20.04.2020
4583 Rain 17 1007 100 4000 2.1 60 13:22 20.04.2020
4584 Rain 17 1008 93 4000 3.6 50 12:44 20.04.2020
4585 Clouds 17 1008 93 4000 3.6 50 12:25 20.04.2020
4586 Rain 16 1009 100 4000 2.6 90 11:58 20.04.2020
4587 Rain 16 1009 100 4000 2.6 90 11:39 20.04.2020
4588 Rain 16 1009 100 4000 2.6 90 11:20 20.04.2020
4589 Rain 16 1009 100 8000 0.5 0 10:55 20.04.2020
4590 Rain 16 1009 100 3000 2.1 110 10:37 20.04.2020
4591 Rain 16 1009 100 3000 2.1 110 10:37 20.04.2020
4592 Rain 16 1009 100 3000 2.1 110 10:18 20.04.2020
4593 Rain 15 1009 100 2000 0.36 34 09:44 20.04.2020
4594 Rain 15 1009 100 2000 1.79 32 09:26 20.04.2020
4595 -273 0 0 0 0 0 08:59 20.04.2020
4596 Rain 15 1009 100 2000 1.5 0 08:41 20.04.2020
4597 Rain 15 1009 100 2000 1.5 0 08:19 20.04.2020
4598 Rain 15 1008 93 7000 2.1 70 07:52 20.04.2020
4599 Rain 15 1005 94 0 1.34 21 07:29 20.04.2020
4600 Rain 15 1005 94 0 1.79 43 06:55 20.04.2020
4601 Rain 15 1005 94 0 1.34 45 06:35 20.04.2020
4602 Rain 16 1006 92 0 0.46 98 05:33 20.04.2020
4603 Rain 16 1007 91 0 0.46 98 03:45 20.04.2020
4604 Clouds 16 1007 89 0 1.34 76 02:44 20.04.2020
4605 Rain 17 1008 88 0 1 25 01:32 20.04.2020
4606 Rain 17 1008 88 0 1 25 01:32 20.04.2020
4607 Rain 17 1008 86 0 1 25 00:59 20.04.2020
4608 Rain 17 1009 86 0 1 25 00:34 20.04.2020
4609 Clouds 17 1011 82 10000 3.6 260 23:55 19.04.2020
4610 Clouds 17 1011 82 10000 3.6 260 23:37 19.04.2020
4611 Clouds 17 1011 82 10000 3.6 260 23:19 19.04.2020
4612 Clouds 18 1011 77 10000 1.5 40 22:39 19.04.2020
4613 Clouds 18 1011 77 10000 1.5 40 22:39 19.04.2020
4614 Clouds 18 1011 77 10000 1.5 40 22:21 19.04.2020
4615 Clouds 18 1010 77 10000 4.1 50 21:56 19.04.2020
4616 Clouds 18 1011 77 10000 3.6 70 21:37 19.04.2020
4617 Clouds 18 1012 72 10000 1 0 21:18 19.04.2020
4618 Clouds 18 1012 72 10000 1 0 20:41 19.04.2020
4619 Clouds 18 1012 72 10000 1 0 20:21 19.04.2020
4620 Clouds 18 1012 77 10000 2.1 260 19:59 19.04.2020
4621 Clouds 19 1012 77 10000 2.1 260 19:41 19.04.2020
4622 Clouds 19 1012 77 10000 2.1 260 19:22 19.04.2020
4623 Clouds 19 1012 72 10000 1 0 18:58 19.04.2020
4624 Clouds 19 1012 72 10000 1 0 18:58 19.04.2020
4625 Clouds 19 1012 72 10000 1 0 18:39 19.04.2020
4626 Clouds 20 1012 72 10000 1 0 18:20 19.04.2020
4627 Clouds 19 1013 77 10000 1.5 0 17:57 19.04.2020
4628 Clouds 19 1013 77 10000 1.5 0 17:38 19.04.2020
4629 Clouds 19 1013 77 10000 1.5 0 17:20 19.04.2020
4630 Clouds 19 1014 72 10000 3.6 240 16:56 19.04.2020
4631 Clouds 20 1014 72 10000 3.6 240 16:38 19.04.2020
4632 Clouds 20 1014 72 10000 3.6 240 16:19 19.04.2020
4633 Clouds 20 1014 68 10000 3.6 250 15:42 19.04.2020
4634 Clouds 20 1014 68 10000 3.6 250 15:42 19.04.2020
4635 Clouds 20 1014 68 10000 3.6 250 15:22 19.04.2020
4636 Clouds 21 1014 64 10000 5.1 220 14:55 19.04.2020
4637 Clouds 22 1014 64 10000 5.1 220 14:37 19.04.2020
4638 Clouds 22 1014 64 10000 5.1 220 14:18 19.04.2020
4639 Clouds 22 1014 60 10000 3.6 230 13:39 19.04.2020
4640 Clouds 23 1014 60 10000 3.6 230 13:20 19.04.2020
4641 Clouds 22 1015 64 10000 1 0 12:50 19.04.2020
4642 Clouds 22 1015 64 10000 1 0 12:25 19.04.2020
4643 Clouds 22 1015 64 10000 1 0 12:25 19.04.2020
4644 Clouds 21 1015 72 10000 0.5 0 11:59 19.04.2020
4645 Clouds 21 1015 72 10000 0.5 0 11:37 19.04.2020
4646 Clouds 21 1015 72 10000 0.5 0 11:19 19.04.2020
4647 Clouds 19 1015 88 9000 1.5 0 10:55 19.04.2020
4648 Clouds 18 1015 88 9000 1.5 0 10:37 19.04.2020
4649 Clouds 18 1015 100 10000 2.09 189 10:18 19.04.2020
4650 Clouds 17 1015 100 10000 2.09 189 09:45 19.04.2020
4651 Clouds 16 1015 100 10000 1.33 40 09:26 19.04.2020
4652 Clouds 15 1016 100 10000 0.5 0 08:41 19.04.2020
4653 Clouds 15 1016 100 10000 0.5 0 08:41 19.04.2020
4654 Clouds 15 1016 100 10000 0.5 0 08:21 19.04.2020
4655 Clouds 15 1015 93 10000 1 250 07:58 19.04.2020
4656 Clouds 15 1015 93 10000 1 260 07:40 19.04.2020
4657 Clouds 15 1015 93 10000 1 260 07:21 19.04.2020
4658 Clouds 15 1015 93 10000 0.5 0 06:27 19.04.2020
4659 Clouds 15 1015 93 10000 1 320 05:47 19.04.2020
4660 Clouds 15 1016 93 10000 1 0 04:28 19.04.2020
4661 Clouds 15 1016 93 10000 0.5 0 02:59 19.04.2020
4662 Clouds 15 1016 93 10000 1 350 02:21 19.04.2020
4663 Clouds 15 1017 82 10000 1.5 240 01:37 19.04.2020
4664 Clouds 16 1017 82 10000 1.5 270 00:42 19.04.2020
4665 Clouds 16 1017 82 10000 1.5 270 00:22 19.04.2020
4666 Clouds 16 1017 82 10000 1.67 304 23:47 18.04.2020
4667 Clouds 16 1018 87 10000 1 0 23:22 18.04.2020
4668 Clouds 16 1018 87 10000 1 0 22:58 18.04.2020
4669 Clouds 16 1018 87 10000 1.5 230 22:38 18.04.2020
4670 Clouds 16 1018 87 10000 1.5 230 22:20 18.04.2020
4671 Clouds 16 1018 87 10000 2.6 260 21:56 18.04.2020
4672 Clouds 16 1018 82 10000 2.1 250 21:37 18.04.2020
4673 Rain 16 1016 77 10000 0.7 40 21:19 18.04.2020
4674 Rain 17 1016 77 10000 0.7 40 20:41 18.04.2020
4675 Rain 17 1016 77 10000 0.7 40 20:22 18.04.2020
4676 Rain 17 1017 77 10000 2.6 250 19:54 18.04.2020
4677 Rain 17 1017 77 10000 2.6 250 19:54 18.04.2020
4678 Rain 18 1017 77 10000 2.6 250 19:36 18.04.2020
4679 Rain 18 1017 77 10000 2.6 250 19:18 18.04.2020
4680 Rain 18 1017 72 10000 3.1 240 18:37 18.04.2020
4681 Clouds 18 1017 72 10000 3.1 240 18:19 18.04.2020
4682 Clouds 18 1017 68 10000 3.1 260 17:43 18.04.2020
4683 Clouds 19 1017 68 10000 3.1 260 17:21 18.04.2020
4684 Clouds 20 1017 68 10000 3.6 240 16:57 18.04.2020
4685 Clouds 20 1017 68 10000 3.6 240 16:38 18.04.2020
4686 Clouds 21 1017 68 10000 3.6 240 16:19 18.04.2020
4687 Clouds 21 1018 64 10000 2.6 250 15:39 18.04.2020
4688 Clouds 21 1018 64 10000 2.6 250 15:39 18.04.2020
4689 Clouds 21 1018 64 10000 2.6 250 15:21 18.04.2020
4690 Clouds 22 1018 60 10000 1.5 0 14:46 18.04.2020
4691 Clouds 21 1018 60 10000 1.5 0 14:27 18.04.2020
4692 Clouds 21 1019 68 10000 1 0 13:58 18.04.2020
4693 Clouds 21 1019 68 10000 1 0 13:40 18.04.2020
4694 Clouds 21 1019 68 10000 1 0 13:19 18.04.2020
4695 Clouds 19 1020 82 10000 1.5 0 12:42 18.04.2020
4696 Clouds 19 1020 82 10000 1.5 0 12:42 18.04.2020
4697 Clouds 19 1020 82 10000 1.5 0 12:23 18.04.2020
4698 Clouds 18 1020 93 6000 0.86 255 11:55 18.04.2020
4699 Clouds 18 1020 93 6000 0.86 255 11:36 18.04.2020
4700 Clouds 17 1020 93 6000 0.86 255 11:18 18.04.2020
4701 Mist 15 1020 100 3500 0.86 255 10:40 18.04.2020
4702 Mist 15 1020 100 3500 0.86 255 10:19 18.04.2020
4703 Mist 14 1020 100 2500 0.86 255 09:58 18.04.2020
4704 Mist 14 1020 100 2500 0.55 245 09:38 18.04.2020
4705 Mist 13 1020 100 2500 1.71 28 09:20 18.04.2020
4706 Mist 14 1020 100 2500 1.71 28 09:20 18.04.2020
4707 Mist 13 1020 100 2000 1.5 0 08:39 18.04.2020
4708 Mist 13 1020 100 2000 1.5 0 08:21 18.04.2020
4709 Fog 13 1019 100 500 2.1 70 07:41 18.04.2020
4710 Fog 13 1019 100 500 2.1 70 07:19 18.04.2020
4711 Fog 13 1019 100 500 1.5 360 06:30 18.04.2020
4712 Fog 13 1019 100 500 1.5 250 05:43 18.04.2020
4713 Mist 13 1018 100 1500 1 0 04:47 18.04.2020
4714 Mist 13 1018 100 1500 1 0 04:47 18.04.2020
4715 Mist 13 1018 100 2000 1.5 280 04:28 18.04.2020
4716 Clouds 14 1018 93 10000 1 0 02:57 18.04.2020
4717 Clouds 14 1019 100 8000 1 0 02:37 18.04.2020
4718 Clouds 14 1019 100 8000 1 0 02:19 18.04.2020
4719 Clouds 14 1019 93 10000 1 290 01:36 18.04.2020
4720 Clouds 14 1019 93 10000 1 0 00:51 18.04.2020
4721 Clouds 14 1019 87 10000 1 0 00:24 18.04.2020
4722 Clouds 15 1019 87 10000 1 140 23:57 17.04.2020
4723 Clouds 15 1019 93 10000 1 250 23:38 17.04.2020
4724 Clouds 15 1019 93 10000 1 250 23:19 17.04.2020
4725 Clouds 15 1019 93 10000 2.1 260 22:56 17.04.2020
4726 Clouds 15 1019 93 10000 1.5 270 22:37 17.04.2020
4727 Clouds 16 1019 93 10000 1.5 270 22:19 17.04.2020
4728 Clouds 16 1019 87 10000 2.6 280 21:43 17.04.2020
4729 Clouds 16 1019 82 10000 3.1 250 21:22 17.04.2020
4730 Clouds 16 1019 82 10000 3.1 250 20:58 17.04.2020
4731 Clouds 16 1019 82 10000 3.1 250 20:38 17.04.2020
4732 Clouds 17 1019 82 10000 3.1 250 20:19 17.04.2020
4733 Clouds 17 1019 82 10000 3.1 250 20:19 17.04.2020
4734 Clouds 17 1018 72 10000 4.1 250 19:58 17.04.2020
4735 Clouds 18 1018 72 10000 4.1 250 19:40 17.04.2020
4736 Clouds 17 1018 72 10000 4.1 250 19:22 17.04.2020
4737 Clouds 19 1018 63 10000 4.1 230 18:44 17.04.2020
4738 Clouds 20 1018 63 10000 4.1 230 18:24 17.04.2020
4739 Clouds 20 1018 63 10000 4.1 230 18:24 17.04.2020
4740 Clouds 20 1018 63 10000 4.1 230 18:24 17.04.2020
4741 Clouds 20 1018 56 10000 5.1 240 17:55 17.04.2020
4742 Clouds 20 1018 56 10000 5.1 240 17:36 17.04.2020
4743 Clouds 20 1018 56 10000 5.1 240 17:18 17.04.2020
4744 Clouds 20 1018 56 10000 5.1 240 17:18 17.04.2020
4745 Clouds 21 1018 49 10000 2.1 250 16:42 17.04.2020
4746 Clouds 21 1018 49 10000 2.1 250 16:22 17.04.2020
4747 Clouds 21 1018 49 10000 2.1 250 16:22 17.04.2020
4748 Clouds 22 1019 52 10000 3.1 250 15:42 17.04.2020
4749 Clouds 21 1019 52 10000 3.1 250 15:24 17.04.2020
4750 Clouds 21 1020 52 10000 3.1 260 14:57 17.04.2020
4751 Clouds 22 1020 52 10000 3.1 260 14:38 17.04.2020
4752 Clouds 22 1020 52 10000 3.1 260 14:20 17.04.2020
4753 Clouds 21 1020 49 10000 1.5 0 13:41 17.04.2020
4754 Clouds 20 1020 49 10000 1.5 0 13:22 17.04.2020
4755 Clouds 19 1021 48 10000 1.5 0 12:59 17.04.2020
4756 Clouds 19 1021 48 10000 1.5 0 12:41 17.04.2020
4757 Clouds 19 1021 48 10000 1.5 0 12:22 17.04.2020
4758 Clouds 18 1021 59 10000 0.25 72 11:40 17.04.2020
4759 Clouds 17 1021 59 10000 0.25 72 11:19 17.04.2020
4760 Clouds 17 1021 62 10000 1.5 0 10:55 17.04.2020
4761 Clouds 16 1021 62 10000 1.5 0 10:37 17.04.2020
4762 Clouds 16 1021 62 10000 1.5 0 10:18 17.04.2020
4763 Clouds 14 1022 87 10000 1.5 0 09:40 17.04.2020
4764 Clouds 13 1022 87 10000 1.5 0 09:20 17.04.2020
4765 Clouds 12 1021 71 10000 2.1 60 08:56 17.04.2020
4766 Clouds 11 1021 71 10000 2.1 60 08:37 17.04.2020
4767 Clouds 10 1021 76 10000 2.1 70 08:18 17.04.2020
4768 Clouds 9 1021 70 10000 3.1 90 07:43 17.04.2020
4769 Clouds 8 1021 87 9000 2.1 90 07:20 17.04.2020
4770 Clouds 8 1021 93 9000 1.5 80 06:45 17.04.2020
4771 Clouds 8 1020 93 10000 1.5 90 06:22 17.04.2020
4772 Clouds 8 1021 100 10000 1.5 80 04:27 17.04.2020
4773 Clouds 8 1021 93 10000 1.5 80 03:19 17.04.2020
4774 Clouds 9 1022 93 10000 1.5 80 01:58 17.04.2020
4775 Clouds 9 1022 87 10000 2.1 50 01:24 17.04.2020
4776 Clouds 10 1022 87 10000 1.5 90 00:45 17.04.2020
4777 Clouds 10 1022 71 10000 1.5 210 00:18 17.04.2020
4778 Clouds 10 1022 71 10000 1.5 210 23:40 16.04.2020
4779 Clouds 11 1022 71 10000 1.5 210 23:22 16.04.2020
4780 Clouds 11 1022 66 10000 1.5 240 22:56 16.04.2020
4781 Clouds 11 1022 66 10000 1.5 240 22:37 16.04.2020
4782 Clouds 11 1022 66 10000 1.5 240 22:37 16.04.2020
4783 Clouds 12 1021 71 10000 1.5 210 22:19 16.04.2020
4784 Clouds 12 1021 66 10000 1.5 210 21:41 16.04.2020
4785 Clouds 13 1021 58 10000 2.1 260 21:20 16.04.2020
4786 Clouds 13 1021 58 10000 2.1 260 20:58 16.04.2020
4787 Clouds 14 1021 58 10000 2.1 260 20:39 16.04.2020
4788 Clouds 15 1021 48 10000 3.6 240 20:19 16.04.2020
4789 Clouds 15 1021 48 10000 3.6 240 19:54 16.04.2020
4790 Clouds 15 1021 48 10000 3.6 240 19:36 16.04.2020
4791 Clouds 16 1021 48 10000 3.6 240 19:18 16.04.2020
4792 Clouds 17 1021 48 10000 4.1 250 18:41 16.04.2020
4793 Clouds 17 1021 48 10000 4.1 250 18:21 16.04.2020
4794 Clouds 17 1022 48 10000 4.1 230 17:56 16.04.2020
4795 Clouds 18 1022 48 10000 4.1 220 17:38 16.04.2020
4796 Clouds 18 1022 48 10000 5.1 240 17:18 16.04.2020
4797 Clouds 18 1022 48 10000 5.1 240 16:42 16.04.2020
4798 Clouds 18 1022 49 10000 4.1 240 16:20 16.04.2020
4799 Clouds 18 1022 49 10000 4.1 240 15:45 16.04.2020
4800 Clouds 19 1022 49 10000 4.6 230 15:20 16.04.2020
4801 Clouds 19 1022 49 10000 4.6 230 14:58 16.04.2020
4802 Clouds 19 1022 49 10000 4.6 230 14:39 16.04.2020
4803 Clouds 19 1023 37 10000 3.89 221 14:20 16.04.2020
4804 Clouds 18 1023 37 10000 3.89 221 13:57 16.04.2020
4805 Clouds 18 1023 37 10000 3.89 221 13:37 16.04.2020
4806 Clouds 18 1023 45 10000 3.89 221 13:19 16.04.2020
4807 Clouds 18 1023 45 10000 3.89 221 12:56 16.04.2020
4808 Clouds 18 1023 45 10000 3.89 221 12:38 16.04.2020
4809 Clouds 17 1024 58 10000 1.71 176 12:19 16.04.2020
4810 Clouds 17 1024 58 10000 1.71 176 11:55 16.04.2020
4811 Clouds 17 1024 58 10000 1.71 176 11:37 16.04.2020
4812 Clouds 16 1024 71 10000 1.5 0 11:18 16.04.2020
4813 Clouds 15 1024 71 10000 1.5 0 10:40 16.04.2020
4814 Clouds 14 1023 66 10000 1 0 10:19 16.04.2020
4815 Clouds 13 1023 71 10000 1.5 20 09:59 16.04.2020
4816 Clear 13 1024 93 10000 1.5 0 09:38 16.04.2020
4817 Clouds 11 1024 100 10000 1.5 0 09:19 16.04.2020
4818 Clouds 10 1024 100 10000 1.5 0 08:43 16.04.2020
4819 Clouds 9 1023 87 10000 1 0 08:23 16.04.2020
4820 Clouds 8 1023 87 10000 1 0 07:46 16.04.2020
4821 Clouds 7 1023 100 10000 1.5 50 07:28 16.04.2020
4822 Clouds 8 1023 100 10000 1.5 50 07:28 16.04.2020
4823 Fog 7 1023 100 10000 2.1 60 06:46 16.04.2020
4824 Clear 8 1023 93 10000 1.5 40 06:27 16.04.2020
4825 Clear 7 1023 100 10000 2.1 50 05:59 16.04.2020
4826 Clear 8 1023 93 10000 1.5 330 04:44 16.04.2020
4827 Clear 8 1023 100 10000 2.1 20 03:25 16.04.2020
4828 Clear 8 1023 93 10000 1 330 02:55 16.04.2020
4829 Clear 8 1023 93 10000 1 330 02:33 16.04.2020
4830 Clear 9 1023 93 10000 1.5 350 01:21 16.04.2020
4831 Clear 9 1023 93 10000 1 70 00:38 16.04.2020
4832 Clear 9 1023 71 10000 2.1 110 00:18 16.04.2020
4833 Clear 10 1023 71 10000 2.1 110 23:43 15.04.2020
4834 Clear 10 1023 71 10000 2.1 110 23:22 15.04.2020
4835 Clear 10 1023 71 10000 1 0 22:58 15.04.2020
4836 Clear 10 1023 71 10000 1 0 22:37 15.04.2020
4837 Clear 11 1023 71 10000 0.5 0 22:19 15.04.2020
4838 Clear 11 1023 71 10000 0.5 0 21:41 15.04.2020
4839 Clear 12 1022 58 10000 3.1 240 21:23 15.04.2020
4840 Clear 12 1022 58 10000 3.1 240 20:59 15.04.2020
4841 Clear 13 1022 58 10000 3.1 240 20:41 15.04.2020
4842 Clear 14 1021 54 10000 4.6 240 20:22 15.04.2020
4843 Clear 14 1021 54 10000 4.6 240 19:57 15.04.2020
4844 Clear 14 1021 54 10000 4.6 240 19:39 15.04.2020
4845 Clear 15 1021 54 10000 4.6 240 19:18 15.04.2020
4846 Clear 16 1020 51 10000 4.6 250 18:40 15.04.2020
4847 Clear 17 1020 51 10000 4.6 250 18:22 15.04.2020
4848 Clear 17 1020 42 10000 5.1 240 17:56 15.04.2020
4849 Clear 17 1020 42 10000 5.1 240 17:38 15.04.2020
4850 Clear 18 1020 37 10000 5.7 260 17:20 15.04.2020
4851 Clear 18 1020 37 10000 5.7 260 16:55 15.04.2020
4852 Clear 17 1020 37 10000 5.7 260 16:36 15.04.2020
4853 Clear 18 1021 15 10000 2.6 130 16:18 15.04.2020
4854 Clear 18 1021 15 10000 2.6 130 15:55 15.04.2020
4855 Clear 18 1021 15 10000 2.6 130 15:37 15.04.2020
4856 Clouds 17 1021 38 10000 1.5 0 15:18 15.04.2020
4857 Clouds 18 1021 38 10000 1.5 0 14:54 15.04.2020
4858 Clouds 18 1021 38 10000 1.5 0 14:36 15.04.2020
4859 Clear 17 1021 29 10000 3.1 10 14:18 15.04.2020
4860 Clear 17 1021 29 10000 3.1 10 13:40 15.04.2020
4861 Clear 17 1021 36 10000 3.1 10 13:21 15.04.2020
4862 Clear 16 1021 36 10000 3.1 10 12:59 15.04.2020
4863 Clear 16 1021 36 10000 3.1 10 12:41 15.04.2020
4864 Clear 16 1021 33 10000 6.7 30 12:22 15.04.2020
4865 Clear 15 1021 33 10000 6.7 30 11:58 15.04.2020
4866 Clear 15 1021 33 10000 6.7 30 11:38 15.04.2020
4867 Clear 14 1021 41 10000 7.2 20 11:20 15.04.2020
4868 Clear 13 1021 41 10000 7.2 20 10:38 15.04.2020
4869 Clear 13 1020 41 10000 5.7 20 10:20 15.04.2020
4870 Clear 12 1020 41 10000 5.7 20 09:57 15.04.2020
4871 Clear 12 1020 41 10000 5.7 20 09:38 15.04.2020
4872 Clouds 10 1020 64 10000 6.7 30 09:20 15.04.2020
4873 Clouds 10 1020 64 10000 6.7 30 08:55 15.04.2020
4874 Clouds 9 1020 64 10000 6.7 30 08:36 15.04.2020
4875 Clouds 9 1019 64 10000 4.6 40 08:18 15.04.2020
4876 Clouds 8 1019 64 10000 3.1 40 07:46 15.04.2020
4877 Clouds 8 1018 64 10000 3.6 50 07:27 15.04.2020
4878 Clouds 7 1018 64 10000 4.1 50 06:29 15.04.2020
4879 Rain 7 1017 65 10000 3.6 40 05:49 15.04.2020
4880 Clouds 7 1017 70 10000 3.1 40 04:48 15.04.2020
4881 Clouds 8 1016 70 10000 4.6 30 04:22 15.04.2020
4882 Clear 8 1016 66 10000 4.1 40 03:22 15.04.2020
4883 Clear 8 1016 66 10000 2.6 70 02:49 15.04.2020
4884 Clear 9 1016 75 10000 3.1 30 01:52 15.04.2020
4885 Clear 9 1015 70 10000 2.1 50 01:25 15.04.2020
4886 Clear 10 1015 71 10000 3.1 50 00:49 15.04.2020
4887 Clear 10 1014 66 10000 3.6 60 00:27 15.04.2020
4888 Clear 10 1014 71 10000 3.6 60 23:56 14.04.2020
4889 Clear 10 1014 71 10000 3.6 60 23:38 14.04.2020
4890 Clear 10 1013 71 10000 3.1 60 23:20 14.04.2020
4891 Clear 11 1013 81 10000 3.1 50 22:56 14.04.2020
4892 Clear 11 1013 81 10000 3.1 50 22:38 14.04.2020
4893 Clear 11 1013 87 10000 3.1 70 22:20 14.04.2020
4894 Clear 11 1013 87 10000 2.6 60 21:56 14.04.2020
4895 Clear 12 1013 87 10000 2.6 60 21:38 14.04.2020
4896 Clouds 12 1010 82 10000 2.1 320 21:19 14.04.2020
4897 Clouds 12 1010 82 10000 2.1 320 20:57 14.04.2020
4898 Clouds 12 1010 82 10000 2.1 320 20:38 14.04.2020
4899 Clouds 13 1010 82 10000 3.35 351 20:19 14.04.2020
4900 Clouds 13 1010 82 10000 3.35 351 19:41 14.04.2020
4901 Clouds 13 1010 82 10000 3.86 351 19:41 14.04.2020
4902 Clouds 13 1010 87 10000 3.86 351 19:22 14.04.2020
4903 Clouds 14 1010 87 10000 3.86 351 18:57 14.04.2020
4904 Clouds 14 1010 87 10000 3.35 351 18:39 14.04.2020
4905 Clouds 13 1010 82 10000 2.6 360 18:21 14.04.2020
4906 Clouds 13 1010 82 10000 2.6 360 17:58 14.04.2020
4907 Clouds 13 1010 82 10000 2.6 360 17:38 14.04.2020
4908 Clouds 13 1011 76 10000 3.1 10 17:19 14.04.2020
4909 Clouds 13 1011 76 10000 3.1 10 17:19 14.04.2020
4910 Clouds 14 1011 76 10000 3.1 10 16:55 14.04.2020
4911 Clouds 14 1011 76 10000 3.1 10 16:37 14.04.2020
4912 Clouds 14 1011 82 10000 3.6 20 16:19 14.04.2020
4913 Clouds 14 1011 82 10000 3.6 20 15:42 14.04.2020
4914 Clouds 14 1010 72 10000 3.6 70 15:23 14.04.2020
4915 Clouds 14 1011 77 10000 4.1 60 14:59 14.04.2020
4916 Clouds 14 1011 77 10000 4.1 60 14:41 14.04.2020
4917 Clouds 13 1011 87 10000 2.6 20 14:22 14.04.2020
4918 Clouds 13 1011 87 10000 2.6 20 13:58 14.04.2020
4919 Clouds 13 1011 87 10000 2.6 20 13:40 14.04.2020
4920 -273 0 0 0 0 0 13:21 14.04.2020
4921 Rain 12 1011 87 8000 2.6 10 12:42 14.04.2020
4922 Rain 12 1011 87 10000 2.46 28 12:22 14.04.2020
4923 Clouds 12 1011 87 10000 2.46 28 11:57 14.04.2020
4924 Clouds 12 1011 87 10000 2.46 28 11:39 14.04.2020
4925 Rain 12 1011 87 8000 1.5 0 11:20 14.04.2020
4926 Rain 12 1011 87 8000 1.5 0 10:47 14.04.2020
4927 Rain 12 1012 87 8000 2.1 140 10:28 14.04.2020
4928 Rain 12 1012 87 8000 2.1 140 09:58 14.04.2020
4929 Rain 12 1012 87 8000 2.1 140 09:40 14.04.2020
4930 Rain 12 1012 87 10000 2.1 180 09:22 14.04.2020
4931 Rain 12 1012 87 10000 2.1 180 08:44 14.04.2020
4932 Rain 12 1012 81 8000 1.5 130 08:24 14.04.2020
4933 Rain 11 1012 71 8000 2.6 160 07:58 14.04.2020
4934 Rain 12 1012 71 8000 2.6 160 07:40 14.04.2020
4935 Rain 12 1012 76 8000 1.5 90 07:21 14.04.2020
4936 Clouds 12 1011 76 10000 1.5 70 06:35 14.04.2020
4937 Rain 13 1013 82 10000 1.5 190 04:49 14.04.2020
4938 Clouds 14 1014 64 0 0.99 93 03:22 14.04.2020
4939 Clouds 13 1013 76 10000 2.1 170 02:19 14.04.2020
4940 Clouds 14 1014 82 10000 1.5 190 01:26 14.04.2020
4941 Clouds 14 1014 87 10000 2.1 220 00:49 14.04.2020
4942 Clouds 14 1014 82 10000 2.1 220 00:23 14.04.2020
4943 Clouds 14 1014 82 10000 2.1 220 23:55 13.04.2020
4944 Clouds 14 1014 82 10000 2.1 220 23:36 13.04.2020
4945 Clouds 14 1014 82 10000 2.1 210 23:18 13.04.2020
4946 Clouds 14 1014 77 10000 1 0 22:41 13.04.2020
4947 Clouds 14 1014 77 10000 1.5 190 22:22 13.04.2020
4948 Clouds 15 1014 72 10000 3.1 200 21:57 13.04.2020
4949 Clouds 15 1014 72 10000 3.1 200 21:38 13.04.2020
4950 Clouds 15 1014 55 10000 1.5 0 21:20 13.04.2020
4951 Clouds 15 1014 55 10000 1.5 0 20:56 13.04.2020
4952 Clouds 15 1014 55 10000 1.5 0 20:56 13.04.2020
4953 Clouds 15 1014 55 10000 1.5 0 20:38 13.04.2020
4954 Clouds 16 1015 52 10000 2.6 230 20:19 13.04.2020
4955 Clouds 16 1015 52 10000 2.6 230 19:54 13.04.2020
4956 Clouds 16 1015 52 10000 2.6 230 19:36 13.04.2020
4957 Clouds 17 1015 48 10000 4.6 230 19:18 13.04.2020
4958 Clouds 17 1015 48 10000 4.6 230 18:54 13.04.2020
4959 Clouds 17 1015 48 10000 4.6 230 18:36 13.04.2020
4960 Clouds 17 1015 48 10000 4.6 230 18:18 13.04.2020
4961 Clouds 18 1016 39 10000 4.6 230 17:54 13.04.2020
4962 Clouds 18 1016 39 10000 4.6 230 17:36 13.04.2020
4963 Clouds 18 1016 30 10000 4.1 200 17:18 13.04.2020
4964 Clouds 18 1016 30 10000 4.1 200 16:55 13.04.2020
4965 Clouds 19 1016 30 10000 4.1 200 16:36 13.04.2020
4966 Clouds 19 1016 30 10000 4.1 200 16:36 13.04.2020
4967 Clouds 19 1016 30 10000 5.1 200 16:18 13.04.2020
4968 Clouds 19 1016 30 10000 5.1 200 16:18 13.04.2020
4969 Clouds 20 1016 30 10000 5.1 200 15:43 13.04.2020
4970 Clouds 20 1017 35 10000 3.1 190 15:25 13.04.2020
4971 Clouds 20 1017 35 10000 3.1 190 14:56 13.04.2020
4972 Clouds 20 1017 35 10000 3.1 190 14:38 13.04.2020
4973 Clouds 20 1017 40 10000 3.6 160 14:20 13.04.2020
4974 Clouds 20 1017 40 10000 3.6 160 13:55 13.04.2020
4975 Clouds 20 1017 40 10000 3.6 160 13:55 13.04.2020
4976 Clouds 20 1017 40 10000 3.6 160 13:37 13.04.2020
4977 Clouds 20 1017 40 10000 3.6 160 13:37 13.04.2020
4978 Clouds 20 1018 52 8000 2.1 200 13:19 13.04.2020
4979 Clouds 20 1018 52 8000 2.1 200 12:57 13.04.2020
4980 Clouds 20 1018 52 8000 2.1 200 12:57 13.04.2020
4981 Clouds 19 1018 52 8000 2.1 200 12:38 13.04.2020
4982 Clouds 19 1019 77 6000 2.1 230 12:19 13.04.2020
4983 Clouds 18 1019 77 6000 2.1 230 11:44 13.04.2020
4984 Clouds 18 1019 68 10000 2.1 240 11:19 13.04.2020
4985 Clouds 17 1018 93 10000 0.5 0 10:56 13.04.2020
4986 Clouds 17 1018 93 10000 0.5 0 10:56 13.04.2020
4987 Clouds 17 1018 93 10000 0.5 0 10:38 13.04.2020
4988 Clouds 16 1019 100 2000 1 0 10:20 13.04.2020
4989 Clouds 15 1019 100 2000 1 0 09:55 13.04.2020
4990 Clouds 14 1019 100 2000 1 0 09:37 13.04.2020
4991 Fog 13 1019 100 700 2.6 10 09:19 13.04.2020
4992 Fog 13 1019 100 700 2.6 10 08:44 13.04.2020
4993 Fog 12 1019 93 100 2.1 40 08:26 13.04.2020
4994 Fog 11 1018 100 100 1.5 50 07:43 13.04.2020
4995 Clouds 11 1018 100 6000 3.1 130 07:25 13.04.2020
4996 Clouds 10 1018 100 6000 3.1 130 06:48 13.04.2020
4997 Clouds 11 1018 100 6000 2.6 120 06:29 13.04.2020
4998 Rain 11 1018 100 6000 3.1 120 05:40 13.04.2020
4999 Rain 11 1018 100 5000 3.1 120 05:18 13.04.2020
5000 Mist 11 1018 100 5000 2.1 80 04:28 13.04.2020
5001 Mist 11 1018 100 5000 2.1 90 03:53 13.04.2020
5002 Mist 11 1018 100 5000 2.1 90 03:33 13.04.2020
5003 Fog 11 1018 100 5000 1.5 80 02:39 13.04.2020
5004 Fog 12 1019 100 5000 2.1 90 01:45 13.04.2020
5005 Mist 12 1019 100 5000 2.1 90 01:27 13.04.2020
5006 Mist 12 1019 100 5000 1.5 90 00:44 13.04.2020
5007 Clouds 12 1019 82 10000 2.1 210 00:24 13.04.2020
5008 Clouds 12 1019 82 10000 2.1 210 23:55 12.04.2020
5009 Clouds 12 1019 82 10000 2.1 210 23:36 12.04.2020
5010 Clouds 13 1019 82 10000 2.1 210 23:18 12.04.2020
5011 Clouds 13 1020 82 10000 1.5 210 22:39 12.04.2020
5012 Clouds 13 1019 82 10000 1.5 220 22:19 12.04.2020
5013 Clouds 14 1020 87 10000 1 230 21:57 12.04.2020
5014 Clouds 14 1020 87 10000 1 230 21:36 12.04.2020
5015 Clouds 15 1019 67 10000 1.5 0 21:18 12.04.2020
5016 Clouds 16 1019 67 10000 1.5 0 20:42 12.04.2020
5017 Clouds 16 1019 59 10000 3.6 230 20:23 12.04.2020
5018 Clouds 17 1019 59 10000 3.6 230 19:57 12.04.2020
5019 Clouds 17 1019 59 10000 3.6 230 19:38 12.04.2020
5020 Clouds 18 1019 59 10000 3.6 230 19:19 12.04.2020
5021 Clouds 19 1019 49 10000 4.1 220 18:41 12.04.2020
5022 Clear 20 1019 49 10000 4.1 220 18:23 12.04.2020
5023 Clear 20 1020 52 10000 3.6 240 17:59 12.04.2020
5024 Clear 20 1020 52 10000 3.6 240 17:41 12.04.2020
5025 Clear 20 1020 49 10000 3.6 210 17:23 12.04.2020
5026 Clear 21 1020 49 10000 3.6 210 16:58 12.04.2020
5027 Clear 21 1020 49 10000 3.6 210 16:39 12.04.2020
5028 Clear 21 1020 49 10000 4.1 220 16:20 12.04.2020
5029 Clear 21 1020 49 10000 4.1 220 15:49 12.04.2020
5030 Clear 21 1020 43 10000 4.1 220 15:30 12.04.2020
5031 Clear 22 1020 43 10000 4.1 220 14:55 12.04.2020
5032 Clear 22 1020 43 10000 4.1 220 14:36 12.04.2020
5033 Clear 22 1021 40 10000 2.6 200 14:18 12.04.2020
5034 Clear 21 1021 40 10000 2.6 200 13:42 12.04.2020
5035 Clear 21 1022 49 10000 3.16 227 13:24 12.04.2020
5036 Clear 21 1022 49 10000 3.16 227 12:55 12.04.2020
5037 Clear 21 1022 49 10000 3.16 227 12:37 12.04.2020
5038 Clear 20 1022 52 10000 0.5 0 12:18 12.04.2020
5039 Clear 20 1022 52 10000 0.5 0 11:55 12.04.2020
5040 Clear 20 1022 52 10000 0.5 0 11:36 12.04.2020
5041 Clear 19 1022 55 10000 1 0 11:18 12.04.2020
5042 Clear 18 1022 67 10000 1 0 10:54 12.04.2020
5043 Clear 17 1022 67 10000 1 0 10:36 12.04.2020
5044 Clear 17 1022 62 10000 1 0 10:18 12.04.2020
5045 Clear 16 1022 58 10000 0.5 0 09:40 12.04.2020
5046 Clear 16 1022 58 10000 0.5 0 09:40 12.04.2020
5047 Clear 14 1022 66 10000 1 0 09:21 12.04.2020
5048 Clear 13 1022 66 10000 1 0 08:52 12.04.2020
5049 Clear 13 1022 66 10000 1 0 08:33 12.04.2020
5050 Clear 12 1022 76 10000 1 180 07:58 12.04.2020
5051 Clear 12 1022 76 10000 1 180 07:40 12.04.2020
5052 Fog 12 1022 93 900 2.6 110 07:18 12.04.2020
5053 Mist 12 1021 87 1200 2.1 120 06:33 12.04.2020
5054 Clear 11 1021 93 10000 2.1 80 05:51 12.04.2020
5055 Clear 11 1021 93 10000 1 0 05:29 12.04.2020
5056 Clear 11 1021 93 10000 2.1 100 03:43 12.04.2020
5057 Clear 11 1021 100 10000 0.5 0 03:19 12.04.2020
5058 Clear 11 1021 100 10000 1.5 30 02:34 12.04.2020
5059 Clear 12 1022 93 10000 1.5 30 01:48 12.04.2020
5060 Clear 12 1021 93 10000 2.1 90 00:57 12.04.2020
5061 Clear 12 1021 93 10000 2.1 90 00:57 12.04.2020
5062 Clear 12 1021 93 10000 2.1 90 00:39 12.04.2020
5063 Clear 13 1022 44 10000 0.5 0 00:19 12.04.2020
5064 Clear 13 1022 44 10000 0.5 0 23:46 11.04.2020
5065 Clear 13 1022 44 10000 0.5 0 23:25 11.04.2020
5066 Clear 14 1021 38 10000 1.5 180 22:42 11.04.2020
5067 Clear 14 1022 44 10000 1.5 190 22:23 11.04.2020
5068 Clear 14 1022 44 10000 1.5 190 22:23 11.04.2020
5069 Clear 15 1021 42 10000 1.5 170 21:57 11.04.2020
5070 Clear 15 1021 42 10000 1.5 170 21:38 11.04.2020
5071 Clear 15 1021 42 10000 1.5 170 21:38 11.04.2020
5072 Clear 15 1021 48 10000 1 0 21:19 11.04.2020
5073 Clear 16 1021 48 10000 1 0 20:58 11.04.2020
5074 Clear 16 1021 48 10000 1 0 20:40 11.04.2020
5075 Clear 17 1020 34 10000 3.1 210 20:21 11.04.2020
5076 Clear 17 1020 34 10000 3.1 210 20:21 11.04.2020
5077 Clear 18 1020 34 10000 3.1 210 19:58 11.04.2020
5078 Clear 18 1020 34 10000 3.1 210 19:40 11.04.2020
5079 Clear 20 1020 32 10000 4.1 240 19:20 11.04.2020
5080 Clear 20 1020 32 10000 4.1 240 18:58 11.04.2020
5081 Clear 20 1020 32 10000 4.1 240 18:39 11.04.2020
5082 Clear 20 1020 46 10000 3.1 250 18:21 11.04.2020
5083 Clear 21 1020 46 10000 3.1 250 17:59 11.04.2020
5084 Clear 21 1020 46 10000 3.1 250 17:41 11.04.2020
5085 Clear 21 1021 49 10000 4.6 240 17:21 11.04.2020
5086 Clear 21 1021 49 10000 4.6 240 16:58 11.04.2020
5087 Clear 22 1021 49 10000 4.6 240 16:40 11.04.2020
5088 Clear 22 1021 46 10000 4.6 260 16:20 11.04.2020
5089 Clear 22 1021 46 10000 4.6 260 16:20 11.04.2020
5090 Clear 22 1021 46 10000 4.6 260 15:39 11.04.2020
5091 Clear 22 1021 29 10000 1.5 0 15:19 11.04.2020
5092 Clear 22 1021 29 10000 1.5 0 14:43 11.04.2020
5093 Clear 22 1022 28 10000 1 0 14:25 11.04.2020
5094 Clear 22 1022 28 10000 1 0 13:59 11.04.2020
5095 Clear 22 1022 28 10000 1 0 13:40 11.04.2020
5096 Clear 21 1022 40 10000 1.73 224 13:22 11.04.2020
5097 Clear 21 1022 40 10000 1.73 224 12:43 11.04.2020
5098 Clear 20 1023 51 10000 0.77 67 12:21 11.04.2020
5099 Clear 20 1023 51 10000 0.77 67 11:58 11.04.2020
5100 Clear 19 1023 51 10000 0.77 67 11:39 11.04.2020
5101 Clear 18 1023 71 10000 1.5 0 11:19 11.04.2020
5102 Clear 18 1023 71 10000 1.5 0 10:55 11.04.2020
5103 Clear 17 1023 71 10000 1.5 0 10:36 11.04.2020
5104 Clear 17 1023 71 10000 1.5 0 10:36 11.04.2020
5105 Clear 17 1022 62 10000 1.5 270 10:18 11.04.2020
5106 Clear 15 1022 58 10000 0.5 0 09:40 11.04.2020
5107 Clear 14 1022 62 10000 0.5 0 09:22 11.04.2020
5108 Clear 13 1022 66 10000 0.5 0 08:51 11.04.2020
5109 Clear 12 1022 66 10000 0.5 70 08:29 11.04.2020
5110 Clear 11 1021 70 10000 0.5 0 07:56 11.04.2020
5111 Clear 11 1021 70 10000 0.5 0 07:38 11.04.2020
5112 Clear 10 1021 75 10000 0.5 180 07:19 11.04.2020
5113 Clear 10 1021 76 10000 0.5 110 06:35 11.04.2020
5114 Clear 10 1021 70 10000 0.5 0 05:56 11.04.2020
5115 Clear 10 1021 66 10000 2.6 60 03:48 11.04.2020
5116 Clear 11 1021 66 10000 2.1 60 02:50 11.04.2020
5117 Clear 11 1021 58 10000 2.1 70 01:26 11.04.2020
5118 Clear 11 1021 54 10000 2.1 80 00:54 11.04.2020
5119 Clear 11 1021 54 10000 2.1 80 00:36 11.04.2020
5120 Clear 12 1022 50 10000 1.5 80 00:18 11.04.2020
5121 Clear 12 1021 58 10000 0.5 0 23:41 10.04.2020
5122 Clear 13 1022 54 10000 1 180 23:19 10.04.2020
5123 Clear 13 1022 71 10000 1 190 22:55 10.04.2020
5124 Clear 13 1022 71 10000 1 190 22:37 10.04.2020
5125 Clear 13 1022 67 10000 1.5 210 22:18 10.04.2020
5126 Clear 13 1022 67 10000 1.5 210 22:18 10.04.2020
5127 Clear 14 1021 67 10000 1.5 200 21:41 10.04.2020
5128 Clear 15 1021 59 10000 2.6 210 21:21 10.04.2020
5129 Clear 15 1021 59 10000 2.6 210 20:57 10.04.2020
5130 Clear 15 1021 59 10000 2.6 210 20:38 10.04.2020
5131 Clear 16 1021 42 10000 3.1 230 20:19 10.04.2020
5132 Clear 17 1021 42 10000 3.1 230 19:54 10.04.2020
5133 Clear 18 1021 42 10000 3.1 230 19:36 10.04.2020
5134 Clear 18 1021 42 10000 3.1 230 19:18 10.04.2020
5135 Clear 19 1021 40 10000 4.1 220 18:55 10.04.2020
5136 Clear 19 1021 40 10000 4.1 220 18:36 10.04.2020
5137 Clear 19 1021 34 10000 5.7 250 18:18 10.04.2020
5138 Clear 20 1021 34 10000 5.7 250 17:56 10.04.2020
5139 Clear 20 1021 34 10000 5.7 250 17:37 10.04.2020
5140 Clear 20 1021 43 10000 3.1 230 17:18 10.04.2020
5141 Clear 21 1021 43 10000 3.1 230 16:41 10.04.2020
5142 Clear 21 1021 46 10000 4.1 220 16:23 10.04.2020
5143 Clear 21 1021 46 10000 4.1 220 15:58 10.04.2020
5144 Clear 21 1021 46 10000 4.1 220 15:39 10.04.2020
5145 Clear 21 1021 33 10000 2.6 280 15:20 10.04.2020
5146 Clear 21 1021 33 10000 2.6 280 14:58 10.04.2020
5147 Clear 21 1021 33 10000 2.6 280 14:39 10.04.2020
5148 Clear 21 1021 33 10000 2.6 280 14:39 10.04.2020
5149 Clear 21 1023 32 10000 0.5 0 14:20 10.04.2020
5150 Clear 20 1023 32 10000 0.5 0 13:45 10.04.2020
5151 Clear 20 1023 45 10000 1.5 0 13:22 10.04.2020
5152 Clear 20 1023 45 10000 1.5 0 12:56 10.04.2020
5153 Clear 19 1023 45 10000 1.5 0 12:37 10.04.2020
5154 Clear 19 1023 58 10000 1 0 12:19 10.04.2020
5155 Clear 18 1023 58 10000 1 0 11:42 10.04.2020
5156 Clear 17 1023 82 10000 1.5 0 11:24 10.04.2020
5157 Clear 17 1023 82 10000 1.5 0 10:57 10.04.2020
5158 Clear 16 1023 82 10000 1.5 0 10:38 10.04.2020
5159 Clear 16 1023 54 10000 0.5 0 10:19 10.04.2020
5160 Clear 14 1023 62 10000 1.5 20 09:43 10.04.2020
5161 Clear 14 1023 62 10000 1.5 20 09:43 10.04.2020
5162 Clear 12 1023 100 10000 1.5 0 09:21 10.04.2020
5163 Clear 11 1023 100 10000 1.5 0 08:48 10.04.2020
5164 Clear 10 1022 70 10000 1.5 40 08:27 10.04.2020
5165 Clear 10 1022 70 10000 1.5 40 08:27 10.04.2020
5166 Clear 9 1022 66 10000 1 0 07:54 10.04.2020
5167 Clear 9 1022 66 10000 1 0 07:36 10.04.2020
5168 Clear 9 1022 87 10000 1 30 07:18 10.04.2020
5169 Fog 9 1022 100 4000 1 350 06:31 10.04.2020
5170 Clear 9 1022 81 10000 2.1 30 05:59 10.04.2020
5171 Clear 9 1022 81 10000 2.1 30 05:59 10.04.2020
5172 Fog 9 1022 100 4000 0.5 10 05:25 10.04.2020
5173 Fog 9 1022 100 4500 0.5 0 04:54 10.04.2020
5174 Clear 9 1022 87 10000 1.5 20 03:35 10.04.2020
5175 Fog 9 1022 100 3000 0.5 50 02:51 10.04.2020
5176 Fog 9 1022 100 3500 1 40 02:32 10.04.2020
5177 Fog 10 1022 100 5000 1 20 01:43 10.04.2020
5178 Fog 10 1022 93 6000 0.5 0 01:25 10.04.2020
5179 Fog 10 1022 100 6000 1 40 00:45 10.04.2020
5180 Clear 10 1022 81 10000 1 170 00:20 10.04.2020
5181 Clear 10 1022 81 10000 1 170 00:20 10.04.2020
5182 Clear 11 1022 81 10000 1 170 23:41 09.04.2020
5183 Clear 11 1022 81 10000 1 170 23:23 09.04.2020
5184 Clear 11 1022 82 10000 1 0 22:57 09.04.2020
5185 Clear 12 1022 82 10000 1 0 22:38 09.04.2020
5186 Clear 12 1022 87 10000 1.5 200 22:20 09.04.2020
5187 Clear 12 1022 82 10000 2.1 210 21:38 09.04.2020
5188 Clear 13 1021 67 10000 3.1 250 21:20 09.04.2020
5189 Clear 14 1021 67 10000 3.1 250 20:47 09.04.2020
5190 Clear 15 1020 55 10000 2.6 220 20:23 09.04.2020
5191 Clear 16 1020 55 10000 2.6 220 19:59 09.04.2020
5192 Clear 16 1020 55 10000 2.6 220 19:39 09.04.2020
5193 Clear 17 1020 45 10000 3.6 260 19:20 09.04.2020
5194 Clear 18 1020 45 10000 3.6 260 18:42 09.04.2020
5195 Clear 19 1020 34 10000 4.1 230 18:21 09.04.2020
5196 Clear 19 1020 34 10000 4.1 230 17:57 09.04.2020
5197 Clear 19 1020 34 10000 4.1 230 17:38 09.04.2020
5198 Clear 19 1020 37 10000 5.1 260 17:18 09.04.2020
5199 Clear 20 1020 37 10000 5.1 260 16:39 09.04.2020
5200 Clear 20 1021 40 10000 3.1 230 16:20 09.04.2020
5201 Clear 20 1021 40 10000 3.1 230 15:56 09.04.2020
5202 Clear 20 1021 40 10000 3.1 230 15:56 09.04.2020
5203 Clear 20 1021 40 10000 3.1 230 15:37 09.04.2020
5204 Clear 20 1021 40 10000 3.1 220 15:19 09.04.2020
5205 Clear 20 1021 40 10000 3.1 220 14:42 09.04.2020
5206 Clear 20 1022 37 10000 1.5 0 14:21 09.04.2020
5207 Clear 20 1022 37 10000 1.5 0 13:58 09.04.2020
5208 Clear 20 1022 37 10000 1.5 0 13:40 09.04.2020
5209 Clear 19 1022 48 10000 1 0 13:21 09.04.2020
5210 Clear 19 1022 48 10000 1 0 12:43 09.04.2020
5211 Clear 18 1023 58 10000 1 0 12:24 09.04.2020
5212 Clear 18 1023 58 10000 1 0 11:59 09.04.2020
5213 Clear 18 1023 58 10000 1 0 11:41 09.04.2020
5214 Clear 17 1023 81 10000 1.5 0 11:20 09.04.2020
5215 Clear 17 1023 81 10000 1.5 0 11:20 09.04.2020
5216 Clear 17 1023 81 10000 1.5 0 11:20 09.04.2020
5217 Clear 16 1023 81 10000 1.5 0 10:58 09.04.2020
5218 Clear 16 1023 81 10000 1.5 0 10:40 09.04.2020
5219 Clear 15 1022 71 10000 1 0 10:21 09.04.2020
5220 Clear 14 1022 71 10000 2.1 20 09:56 09.04.2020
5221 Clear 13 1023 100 10000 1 0 09:38 09.04.2020
5222 Fog 11 1023 100 500 2.1 340 09:20 09.04.2020
5223 Fog 11 1023 100 500 2.1 340 08:44 09.04.2020
5224 Clear 10 1022 81 10000 2.1 50 08:23 09.04.2020
5225 Clear 9 1022 81 9000 1.5 80 07:55 09.04.2020
5226 Clear 9 1021 81 8000 2.1 70 07:27 09.04.2020
5227 Fog 9 1021 100 1500 1 90 06:56 09.04.2020
5228 Fog 8 1021 100 1500 1 80 06:18 09.04.2020
5229 Mist 8 1021 100 1500 1.5 70 05:40 09.04.2020
5230 Mist 9 1022 100 2500 1 0 03:55 09.04.2020
5231 Fog 10 1022 100 1500 2.1 80 02:30 09.04.2020
5232 Fog 10 1022 100 1000 3.1 90 01:41 09.04.2020
5233 Mist 10 1022 93 4000 1 0 01:23 09.04.2020
5234 Mist 11 1022 93 5000 1 180 00:41 09.04.2020
5235 Clear 11 1023 87 10000 1 0 00:20 09.04.2020
5236 Clear 12 1023 87 10000 1 0 23:58 08.04.2020
5237 Clear 12 1023 87 10000 1 0 23:40 08.04.2020
5238 Clear 12 1023 87 10000 1 0 23:40 08.04.2020
5239 Clear 12 1023 87 10000 1 0 23:21 08.04.2020
5240 Clear 12 1023 93 10000 3.1 210 22:43 08.04.2020
5241 Clear 13 1023 82 10000 2.6 230 22:24 08.04.2020
5242 Clear 13 1023 82 10000 2.6 230 22:24 08.04.2020
5243 Clouds 13 1023 76 10000 3.1 200 21:56 08.04.2020
5244 Clouds 13 1022 76 10000 3.1 210 21:38 08.04.2020
5245 Clouds 14 1022 76 10000 3.1 210 21:19 08.04.2020
5246 Clouds 14 1022 72 10000 2.1 230 20:57 08.04.2020
5247 Clouds 15 1022 63 10000 2.6 230 20:38 08.04.2020
5248 Clear 16 1022 48 10000 3.1 220 20:20 08.04.2020
5249 Clear 16 1022 48 10000 3.1 220 19:42 08.04.2020
5250 Clear 17 1022 45 10000 4.1 250 19:22 08.04.2020
5251 Clear 18 1022 45 10000 4.1 250 18:59 08.04.2020
5252 Clear 18 1022 45 10000 4.1 250 18:40 08.04.2020
5253 Clear 18 1022 37 10000 4.1 220 18:22 08.04.2020
5254 Clear 19 1022 37 10000 4.1 220 17:44 08.04.2020
5255 Clear 19 1023 40 10000 4.6 240 17:22 08.04.2020
5256 Clear 19 1023 40 10000 4.6 240 17:22 08.04.2020
5257 Clear 19 1023 40 10000 4.6 240 16:59 08.04.2020
5258 Clear 19 1023 40 10000 4.6 240 16:41 08.04.2020
5259 Clear 20 1023 26 10000 3.6 240 16:22 08.04.2020
5260 Clear 20 1023 26 10000 3.6 240 15:55 08.04.2020
5261 Clear 20 1023 26 10000 3.6 240 15:36 08.04.2020
5262 Clear 20 1024 30 10000 3.6 260 15:18 08.04.2020
5263 Clear 19 1024 30 10000 3.6 260 14:41 08.04.2020
5264 Clear 19 1025 34 10000 4.6 210 14:23 08.04.2020
5265 Clear 19 1025 34 10000 4.6 210 13:45 08.04.2020
5266 Clear 19 1025 39 10000 1 0 13:22 08.04.2020
5267 Clear 19 1025 39 10000 1 0 12:59 08.04.2020
5268 Clear 19 1025 39 10000 1 0 12:41 08.04.2020
5269 Clear 18 1026 51 10000 1.5 0 12:18 08.04.2020
5270 Clear 18 1026 51 10000 1.5 0 11:54 08.04.2020
5271 Clear 18 1026 51 10000 1.5 0 11:36 08.04.2020
5272 Clear 17 1026 66 10000 0.49 103 11:18 08.04.2020
5273 Clear 16 1026 66 10000 0.49 103 10:54 08.04.2020
5274 Clear 16 1025 54 10000 0.5 0 10:36 08.04.2020
5275 Clear 16 1025 54 10000 0.5 0 10:18 08.04.2020
5276 Clear 14 1025 62 10000 1 0 09:42 08.04.2020
5277 Clear 12 1026 93 10000 1.5 0 09:19 08.04.2020
5278 Clear 11 1026 93 10000 1.5 0 08:58 08.04.2020
5279 Clear 11 1026 93 10000 1.5 0 08:58 08.04.2020
5280 Clear 11 1026 93 10000 1.5 0 08:40 08.04.2020
5281 Clear 10 1025 75 10000 1.5 30 08:21 08.04.2020
5282 Clear 9 1025 70 10000 1.5 60 07:43 08.04.2020
5283 Clear 9 1025 93 10000 1.5 60 07:22 08.04.2020
5284 Clear 9 1025 93 10000 1.5 60 06:41 08.04.2020
5285 Fog 9 1025 100 7000 1.5 70 05:30 08.04.2020
5286 Clouds 10 1026 87 10000 1 30 03:20 08.04.2020
5287 Clear 10 1026 93 10000 0.5 310 02:38 08.04.2020
5288 Clear 10 1026 93 10000 1 60 02:18 08.04.2020
5289 Clear 11 1026 93 10000 1 30 01:28 08.04.2020
5290 Clear 11 1026 93 10000 1.5 40 00:50 08.04.2020
5291 Clear 11 1026 87 10000 0.5 0 00:32 08.04.2020
5292 Clouds 12 1026 62 10000 2.1 150 23:58 07.04.2020
5293 Clouds 12 1026 62 10000 2.1 150 23:38 07.04.2020
5294 Clouds 12 1026 62 10000 2.1 150 23:19 07.04.2020
5295 Clouds 12 1026 62 10000 2.1 160 22:56 07.04.2020
5296 Clouds 13 1026 62 10000 2.1 160 22:38 07.04.2020
5297 Clouds 13 1026 62 10000 1 240 22:19 07.04.2020
5298 Clear 13 1026 62 10000 1 270 21:54 07.04.2020
5299 Clear 13 1026 62 10000 1 270 21:36 07.04.2020
5300 Clear 14 1025 48 10000 2.6 230 21:18 07.04.2020
5301 Clear 15 1025 58 10000 2.1 260 20:41 07.04.2020
5302 Clear 16 1025 45 10000 2.6 240 20:21 07.04.2020
5303 Clear 16 1025 45 10000 2.6 240 19:58 07.04.2020
5304 Clear 17 1025 45 10000 2.6 240 19:38 07.04.2020
5305 Clear 17 1025 45 10000 2.6 240 19:38 07.04.2020
5306 Clear 17 1025 45 10000 2.6 240 19:20 07.04.2020
5307 Clear 18 1025 37 10000 3.6 250 18:59 07.04.2020
5308 Clear 19 1025 37 10000 3.6 250 18:41 07.04.2020
5309 Clear 19 1024 35 10000 2.6 210 18:21 07.04.2020
5310 Clear 19 1024 35 10000 2.6 210 17:55 07.04.2020
5311 Clear 19 1024 35 10000 2.6 210 17:37 07.04.2020
5312 Clear 20 1024 35 10000 2.6 210 17:19 07.04.2020
5313 Clear 20 1025 32 10000 3.6 230 16:43 07.04.2020
5314 Clear 20 1025 35 10000 2.6 210 16:25 07.04.2020
5315 Clear 20 1025 35 10000 2.6 210 15:44 07.04.2020
5316 Clear 20 1025 35 10000 2.6 210 15:26 07.04.2020
5317 Clear 20 1025 35 10000 2.6 240 14:56 07.04.2020
5318 Clear 20 1025 35 10000 2.6 240 14:38 07.04.2020
5319 Clear 20 1026 40 10000 2.1 230 14:19 07.04.2020
5320 Clear 20 1026 40 10000 2.1 230 13:42 07.04.2020
5321 Clear 19 1026 39 10000 2.59 216 13:19 07.04.2020
5322 Clear 20 1026 39 10000 2.59 216 12:57 07.04.2020
5323 Clear 19 1026 39 10000 2.59 216 12:38 07.04.2020
5324 Clear 18 1027 51 10000 1 0 12:20 07.04.2020
5325 Clear 18 1027 51 10000 1 0 11:57 07.04.2020
5326 Clear 18 1027 51 10000 1 0 11:39 07.04.2020
5327 Clear 17 1026 62 10000 2.1 360 11:19 07.04.2020
5328 Clear 16 1026 62 10000 2.1 360 10:39 07.04.2020
5329 Clear 15 1026 58 10000 2.1 30 10:20 07.04.2020
5330 Clear 14 1026 58 10000 2.1 30 09:56 07.04.2020
5331 Clear 14 1026 58 10000 2.1 30 09:37 07.04.2020
5332 Clear 12 1020 93 10000 1.5 0 09:18 07.04.2020
5333 Clear 11 1020 93 10000 1.5 0 08:39 07.04.2020
5334 Clear 10 1025 66 10000 1 0 08:20 07.04.2020
5335 Clear 8 1025 70 10000 1 0 07:44 07.04.2020
5336 Clear 8 1025 87 10000 0.5 0 07:26 07.04.2020
5337 Clear 8 1025 81 10000 0.5 0 06:53 07.04.2020
5338 Clear 8 1025 81 10000 1.5 60 06:26 07.04.2020
5339 Clear 8 1025 87 10000 1.5 50 05:56 07.04.2020
5340 Clear 9 1025 87 10000 1 40 05:26 07.04.2020
5341 Clear 9 1025 87 10000 1 0 04:18 07.04.2020
5342 Clear 9 1025 87 10000 2.1 40 03:21 07.04.2020
5343 Clouds 9 1026 93 10000 1.5 350 02:45 07.04.2020
5344 Clouds 10 1026 87 10000 1 90 01:38 07.04.2020
5345 Clouds 10 1026 81 10000 1.5 90 01:20 07.04.2020
5346 Clouds 11 1026 47 10000 1.5 180 00:25 07.04.2020
5347 Clouds 11 1026 47 10000 1.5 180 23:42 06.04.2020
5348 Clouds 12 1026 47 10000 1.5 180 23:21 06.04.2020
5349 Clouds 12 1026 50 10000 1.5 170 22:54 06.04.2020
5350 Clouds 12 1026 50 10000 1.5 170 22:36 06.04.2020
5351 Clouds 13 1026 54 10000 1 0 22:18 06.04.2020
5352 Clouds 13 1025 54 10000 1.5 190 21:43 06.04.2020
5353 Clouds 14 1024 41 10000 2.1 260 21:20 06.04.2020
5354 Clouds 14 1024 41 10000 2.1 260 20:57 06.04.2020
5355 Clouds 14 1024 41 10000 2.1 260 20:39 06.04.2020
5356 Clouds 14 1024 41 10000 2.1 260 20:39 06.04.2020
5357 Clouds 15 1024 42 10000 4.1 250 20:21 06.04.2020
5358 Clouds 15 1024 42 10000 4.1 250 19:58 06.04.2020
5359 Clouds 16 1024 42 10000 4.1 250 19:38 06.04.2020
5360 Clouds 17 1023 36 10000 4.6 240 19:20 06.04.2020
5361 Clouds 17 1023 36 10000 4.6 240 18:43 06.04.2020
5362 Clear 18 1023 36 10000 4.6 240 18:23 06.04.2020
5363 Clear 18 1023 29 10000 6.7 250 17:57 06.04.2020
5364 Clear 18 1023 29 10000 6.7 250 17:39 06.04.2020
5365 Clear 19 1022 30 10000 4.6 240 17:18 06.04.2020
5366 Clear 19 1022 30 10000 4.6 240 16:48 06.04.2020
5367 Clear 19 1022 28 10000 6.2 230 16:30 06.04.2020
5368 Clear 20 1022 22 10000 1.5 0 14:49 06.04.2020
5369 Clear 20 1022 22 10000 1.5 0 14:49 06.04.2020
5370 Clear 20 1022 22 10000 1.5 0 14:49 06.04.2020
5371 Clear 20 1022 22 10000 1.5 0 14:49 06.04.2020
5372 Clear 20 1022 22 10000 1.5 0 14:49 06.04.2020
5373 Clear 20 1023 22 10000 2.6 220 13:45 06.04.2020
5374 Clear 20 1023 22 10000 2.6 220 13:45 06.04.2020
5375 Clear 19 1023 35 10000 1.67 231 13:22 06.04.2020
5376 Clear 19 1023 35 10000 1.67 231 12:46 06.04.2020
5377 Clear 19 1023 39 10000 1 0 12:20 06.04.2020
5378 Clear 18 1023 39 10000 1 0 11:40 06.04.2020
5379 Clear 17 1023 54 10000 1.27 49 11:19 06.04.2020
5380 Clear 17 1023 54 10000 1.27 49 10:40 06.04.2020
5381 Clear 17 1023 54 10000 1.27 49 10:40 06.04.2020
5382 Clear 17 1023 54 10000 1.27 49 10:39 06.04.2020
5383 Clear 17 1023 54 10000 1.27 49 10:39 06.04.2020
5384 Clear 17 1023 54 10000 1.27 49 10:39 06.04.2020
5385 Clear 16 1022 47 10000 3.1 20 10:20 06.04.2020
5386 Clear 16 1022 47 10000 3.1 20 10:20 06.04.2020
5387 Clear 16 1022 47 10000 3.1 20 10:20 06.04.2020
5388 Clear 16 1022 47 10000 3.1 20 10:20 06.04.2020
5389 Clear 16 1022 47 10000 3.1 20 10:20 06.04.2020
5390 Clear 14 1022 66 10000 1.5 0 09:40 06.04.2020
5391 Clear 14 1022 66 10000 1.5 0 09:40 06.04.2020
5392 Clouds 12 1022 87 10000 2.53 22 09:20 06.04.2020
5393 Clouds 12 1022 53 10000 2.6 60 08:47 06.04.2020
5394 Clouds 11 1022 53 10000 2.6 60 08:27 06.04.2020
5395 Clouds 11 1022 53 10000 2.6 60 08:27 06.04.2020
5396 Clouds 11 1022 53 10000 2.6 60 08:27 06.04.2020
5397 Clouds 11 1022 53 10000 2.6 60 08:27 06.04.2020
5398 Clouds 11 1022 53 10000 2.6 60 08:27 06.04.2020
5399 Clouds 9 1021 53 10000 3.1 50 07:23 06.04.2020
5400 Clouds 9 1021 61 10000 2.6 40 07:23 06.04.2020
5401 Clouds 9 1021 61 10000 2.6 40 07:23 06.04.2020
5402 Clouds 10 1021 53 10000 3.1 50 07:23 06.04.2020
5403 Clouds 10 1020 57 10000 2.6 70 06:27 06.04.2020
5404 Clouds 10 1020 53 10000 2.6 50 05:54 06.04.2020
5405 Clouds 10 1020 57 10000 2.6 20 03:57 06.04.2020
5406 Clouds 11 1020 50 10000 3.1 70 02:52 06.04.2020
5407 Clouds 12 1020 46 10000 2.1 70 01:56 06.04.2020
5408 Clouds 12 1020 46 10000 2.1 70 01:56 06.04.2020
5409 Clouds 12 1020 46 10000 2.1 70 01:56 06.04.2020
5410 Clouds 12 1020 43 10000 2.1 20 00:55 06.04.2020
5411 Clouds 13 1020 41 10000 2.1 360 00:28 06.04.2020
5412 Clouds 13 1020 41 10000 2.1 360 00:28 06.04.2020
5413 Clouds 13 1020 41 10000 2.1 360 00:28 06.04.2020
5414 Clouds 13 1020 31 10000 2.6 120 23:55 05.04.2020
5415 Clouds 13 1020 31 10000 2.6 120 23:37 05.04.2020
5416 Clouds 13 1019 60 10000 2.6 150 23:19 05.04.2020
5417 Clouds 13 1019 60 10000 2.6 150 22:54 05.04.2020
5418 Clouds 13 1019 27 10000 1.5 0 22:36 05.04.2020
5419 Clouds 14 1019 29 10000 1 0 22:18 05.04.2020
5420 Clouds 14 1018 60 10000 1.5 0 21:41 05.04.2020
5421 Clouds 14 1018 60 10000 1.5 0 21:41 05.04.2020
5422 Clouds 15 1017 27 10000 2.1 30 21:23 05.04.2020
5423 Clouds 15 1017 27 10000 2.1 30 20:24 05.04.2020
5424 Clouds 16 1016 32 10000 3.6 340 19:43 05.04.2020
5425 Clouds 17 1016 32 10000 3.6 340 19:23 05.04.2020
5426 Clouds 18 1016 28 10000 4.1 340 18:48 05.04.2020
5427 Clouds 18 1016 28 10000 4.1 340 18:48 05.04.2020
5428 Clouds 19 1016 44 10000 3.1 350 18:18 05.04.2020
5429 Clouds 19 1016 44 10000 3.1 350 17:46 05.04.2020
5430 Clouds 19 1016 44 10000 3.1 350 17:46 05.04.2020
5431 Clouds 19 1016 44 10000 3.1 350 17:46 05.04.2020
5432 Clouds 19 1016 44 10000 3.1 350 17:46 05.04.2020
5433 Clouds 19 1016 44 10000 3.1 350 17:46 05.04.2020
5434 Clouds 20 1016 44 10000 3.1 350 17:22 05.04.2020
5435 Clouds 20 1016 21 10000 1.5 0 16:47 05.04.2020
5436 Clouds 20 1017 44 10000 3.6 10 16:19 05.04.2020
5437 Clouds 20 1017 44 10000 3.6 10 15:45 05.04.2020
5438 Clouds 20 1017 44 10000 3.6 10 15:45 05.04.2020
5439 Clouds 20 1017 44 10000 3.6 10 15:45 05.04.2020
5440 Clouds 20 1017 44 10000 3.6 10 15:25 05.04.2020
5441 Clear 20 1017 30 10000 4.1 10 14:48 05.04.2020
5442 Clear 20 1017 30 10000 4.1 10 14:48 05.04.2020
5443 Clear 20 1017 30 10000 4.1 10 14:48 05.04.2020
5444 Clear 20 1017 30 10000 4.1 10 14:48 05.04.2020
5445 Clear 20 1017 30 10000 4.1 10 14:48 05.04.2020
5446 Clouds 19 1018 29 10000 3.6 20 13:59 05.04.2020
5447 Clouds 19 1018 29 10000 3.6 20 13:40 05.04.2020
5448 Clouds 19 1018 29 10000 3.6 20 13:40 05.04.2020
5449 Clouds 19 1018 29 10000 3.6 20 13:40 05.04.2020
5450 Clouds 19 1018 29 10000 3.6 20 13:40 05.04.2020
5451 Clouds 19 1018 29 10000 3.6 20 13:40 05.04.2020
5452 Clear 17 1019 33 10000 4.1 10 12:20 05.04.2020
5453 Clear 17 1019 33 10000 4.1 10 12:18 05.04.2020
5454 Clear 17 1019 33 10000 4.1 10 11:39 05.04.2020
5455 Clear 16 1019 47 10000 3.1 10 11:19 05.04.2020
5456 Clear 16 1019 47 10000 3.1 10 10:47 05.04.2020
5457 Clear 15 1019 50 10000 1.5 0 10:22 05.04.2020
5458 Clear 15 1019 50 10000 1.5 0 10:22 05.04.2020
5459 Clear 14 1019 50 10000 1.5 0 09:53 05.04.2020
5460 Clear 13 1019 50 10000 1.5 0 09:26 05.04.2020
5461 Clear 13 1019 50 10000 1.5 0 09:26 05.04.2020
5462 Clear 13 1019 50 10000 1.5 0 09:26 05.04.2020
5463 Clear 13 1019 50 10000 1.5 0 09:26 05.04.2020
5464 Clear 13 1019 50 10000 1.5 0 09:26 05.04.2020
5465 Clear 10 1018 56 10000 1.5 40 08:18 05.04.2020
5466 Clear 8 1017 52 10000 2.6 30 05:37 05.04.2020
5467 Clear 8 1017 52 10000 2.6 30 05:37 05.04.2020
5468 Clear 8 1017 52 10000 2.6 30 05:37 05.04.2020
5469 Clear 9 1017 49 10000 2.6 40 04:29 05.04.2020
5470 Clear 9 1017 49 10000 2.6 40 04:29 05.04.2020
5471 Clear 9 1017 49 10000 2.6 40 03:27 05.04.2020
5472 Clear 10 1018 45 10000 1.5 340 02:18 05.04.2020
5473 Clear 10 1018 49 10000 2.6 350 01:42 05.04.2020
5474 Clear 10 1018 40 10000 0.5 0 01:18 05.04.2020
5475 Clear 10 1018 40 10000 0.5 0 01:18 05.04.2020
5476 Clear 11 1017 49 10000 2.1 20 00:37 05.04.2020
5477 Clear 11 1017 49 10000 3.1 20 00:18 05.04.2020
5478 Clear 11 1017 40 10000 2.1 40 23:41 04.04.2020
5479 Clear 12 1017 40 10000 2.1 40 23:21 04.04.2020
5480 Clear 12 1017 40 10000 3.6 60 22:57 04.04.2020
5481 Clear 12 1017 37 10000 3.6 60 22:39 04.04.2020
5482 Clear 12 1017 37 10000 4.1 40 22:19 04.04.2020
5483 Clear 13 1017 37 10000 4.1 40 21:57 04.04.2020
5484 Clear 13 1017 35 10000 4.1 30 21:38 04.04.2020
5485 Clear 14 1015 27 10000 5.1 350 21:19 04.04.2020
5486 Clear 14 1015 27 10000 5.1 350 20:54 04.04.2020
5487 Clear 14 1015 27 10000 5.1 350 20:36 04.04.2020
5488 Clear 15 1015 25 10000 6.7 10 20:18 04.04.2020
5489 Clear 16 1015 25 10000 6.7 10 19:41 04.04.2020
5490 Clear 17 1014 20 10000 4.1 60 19:20 04.04.2020
5491 Clear 17 1014 20 10000 4.1 60 18:59 04.04.2020
5492 Clear 17 1014 20 10000 4.1 60 18:59 04.04.2020
5493 Clear 18 1014 20 10000 4.1 60 18:39 04.04.2020
5494 Clear 18 1014 19 10000 5.7 360 18:21 04.04.2020
5495 Clear 19 1014 19 10000 4.1 10 17:58 04.04.2020
5496 Clear 19 1014 19 10000 4.1 10 17:39 04.04.2020
5497 Clear 19 1014 19 10000 6.7 20 17:19 04.04.2020
5498 Clear 19 1014 19 10000 6.7 20 16:45 04.04.2020
5499 Clear 19 1014 19 10000 6.7 20 16:27 04.04.2020
5500 Clear 19 1014 22 10000 6.7 350 15:59 04.04.2020
5501 Clear 19 1014 22 10000 6.7 350 15:39 04.04.2020
5502 Clear 19 1015 24 10000 3.1 350 15:19 04.04.2020
5503 Clear 19 1015 24 10000 3.1 350 14:54 04.04.2020
5504 Clear 19 1015 24 10000 3.1 350 14:36 04.04.2020
5505 Clear 19 1016 25 10000 5.1 50 14:18 04.04.2020
5506 Clear 18 1016 25 10000 5.1 50 13:42 04.04.2020
5507 Clear 18 1015 31 10000 2.1 20 13:21 04.04.2020
5508 Clear 18 1015 31 10000 2.1 20 13:21 04.04.2020
5509 Clear 18 1016 37 10000 3.1 10 12:58 04.04.2020
5510 Clear 17 1016 37 10000 3.1 10 12:40 04.04.2020
5511 Clear 16 1016 36 10000 3.1 360 12:20 04.04.2020
5512 Clear 16 1016 36 10000 3.1 360 11:42 04.04.2020
5513 Clear 16 1016 36 10000 3.1 360 11:42 04.04.2020
5514 Clear 15 1016 41 10000 2.1 50 11:23 04.04.2020
5515 Clear 14 1016 53 10000 1.5 0 10:59 04.04.2020
5516 Clear 13 1016 53 10000 1.5 0 10:41 04.04.2020
5517 Clear 13 1015 53 10000 2.1 10 10:23 04.04.2020
5518 Clear 12 1015 53 10000 2.1 10 09:57 04.04.2020
5519 Clear 12 1015 61 10000 2.1 10 09:39 04.04.2020
5520 -273 0 0 0 0 0 09:20 04.04.2020
5521 Clear 9 1014 75 10000 1 0 08:44 04.04.2020
5522 Clear 8 1014 75 10000 1 0 08:23 04.04.2020
5523 Clear 7 1014 80 10000 1 0 07:59 04.04.2020
5524 Clear 6 1014 86 10000 2.1 50 07:39 04.04.2020
5525 Clear 6 1013 80 10000 2.1 40 07:21 04.04.2020
5526 Clear 6 1013 75 10000 1 0 06:38 04.04.2020
5527 Clear 6 1013 75 10000 1.5 40 05:52 04.04.2020
5528 Clear 6 1013 75 10000 1.5 40 05:52 04.04.2020
5529 Clear 6 1013 75 10000 1.5 40 05:33 04.04.2020
5530 Clear 6 1013 80 10000 1.5 50 04:34 04.04.2020
5531 Clear 6 1013 75 10000 1 0 03:57 04.04.2020
5532 Clear 7 1013 75 10000 1.5 40 03:36 04.04.2020
5533 Clear 7 1013 75 10000 1.5 40 02:46 04.04.2020
5534 Clear 7 1013 75 10000 1.5 40 02:25 04.04.2020
5535 Clear 7 1012 70 10000 1 70 01:31 04.04.2020
5536 Clear 8 1012 70 10000 0.5 0 00:59 04.04.2020
5537 Clear 8 1012 76 10000 0.5 0 00:35 04.04.2020
5538 Clear 8 1012 76 10000 1.5 140 23:59 03.04.2020
5539 Clear 8 1012 81 10000 2.1 160 23:38 03.04.2020
5540 Clear 9 1012 76 10000 2.1 160 23:19 03.04.2020
5541 Clear 9 1012 71 10000 2.6 170 22:41 03.04.2020
5542 Clear 10 1012 66 10000 3.1 170 22:19 03.04.2020
5543 Clear 10 1012 66 10000 3.1 170 21:57 03.04.2020
5544 Clear 10 1011 66 10000 2.6 170 21:38 03.04.2020
5545 Clear 11 1011 62 10000 3.6 240 21:20 03.04.2020
5546 Clear 11 1011 62 10000 3.6 240 20:55 03.04.2020
5547 Clear 11 1011 62 10000 3.6 240 20:36 03.04.2020
5548 Clear 12 1010 54 10000 5.7 240 20:18 03.04.2020
5549 Clear 13 1010 54 10000 5.7 240 19:55 03.04.2020
5550 Clear 13 1010 54 10000 5.7 240 19:36 03.04.2020
5551 Clear 14 1010 54 10000 5.7 240 19:18 03.04.2020
5552 Clear 14 1010 50 10000 4.1 280 18:57 03.04.2020
5553 Clear 15 1010 50 10000 4.1 280 18:39 03.04.2020
5554 Clear 15 1010 50 10000 4.1 280 18:39 03.04.2020
5555 Clear 15 1010 44 10000 4.6 280 18:21 03.04.2020
5556 Clear 16 1010 39 10000 5.1 270 17:41 03.04.2020
5557 Clear 16 1010 34 10000 2.1 310 17:19 03.04.2020
5558 Clear 16 1010 34 10000 2.1 310 16:55 03.04.2020
5559 Clear 16 1010 34 10000 2.1 310 16:36 03.04.2020
5560 Clear 16 1010 34 10000 2.1 310 16:36 03.04.2020
5561 Clear 16 1010 47 10000 1.5 0 16:18 03.04.2020
5562 Clear 16 1010 47 10000 1.5 0 15:55 03.04.2020
5563 Clear 16 1010 47 10000 1.5 0 15:36 03.04.2020
5564 Clear 16 1010 41 10000 1.5 0 15:18 03.04.2020
5565 Clear 16 1011 38 10000 1 0 14:40 03.04.2020
5566 Clear 16 1012 36 10000 1 0 14:22 03.04.2020
5567 Clear 16 1012 36 10000 1 0 13:46 03.04.2020
5568 Clear 16 1012 36 10000 1 0 13:27 03.04.2020
5569 Clear 15 1012 44 10000 1 0 12:57 03.04.2020
5570 Clear 15 1012 44 10000 1 0 12:39 03.04.2020
5571 Clear 14 1012 54 10000 1.5 0 12:18 03.04.2020
5572 Clear 13 1012 54 10000 1.5 0 11:55 03.04.2020
5573 Clear 13 1012 54 10000 1.5 0 11:37 03.04.2020
5574 Clear 12 1013 66 10000 1.5 0 11:18 03.04.2020
5575 Clear 12 1013 66 10000 1.5 0 10:56 03.04.2020
5576 Clear 12 1013 66 10000 1.5 0 10:37 03.04.2020
5577 Clear 11 1012 61 10000 2.1 30 10:19 03.04.2020
5578 Clear 10 1013 93 10000 0.5 0 09:55 03.04.2020
5579 Clear 9 1013 93 10000 0.5 0 09:37 03.04.2020
5580 Clouds 7 1012 70 10000 2.6 20 09:19 03.04.2020
5581 Clouds 6 1012 73 10000 2.1 30 08:44 03.04.2020
5582 Clouds 5 1011 69 10000 2.6 70 08:24 03.04.2020
5583 Clouds 4 1011 74 10000 2.1 80 07:51 03.04.2020
5584 Clouds 4 1011 74 10000 2.1 80 07:33 03.04.2020
5585 Clouds 4 1011 86 10000 1.5 350 06:58 03.04.2020
5586 Clouds 4 1011 72 10000 1.5 30 06:28 03.04.2020
5587 Clouds 4 1011 72 10000 2.1 30 05:42 03.04.2020
5588 Clouds 4 1012 72 10000 1.5 20 04:18 03.04.2020
5589 Clouds 4 1012 72 10000 1.5 340 03:32 03.04.2020
5590 Clouds 5 1012 67 10000 1.5 20 02:31 03.04.2020
5591 Clouds 5 1013 80 10000 1.5 80 01:24 03.04.2020
5592 Clouds 5 1013 86 10000 2.6 60 00:46 03.04.2020
5593 Clouds 5 1013 86 10000 2.6 60 00:27 03.04.2020
5594 Clouds 6 1013 65 10000 1 0 23:43 02.04.2020
5595 Clouds 6 1013 65 10000 1 0 23:25 02.04.2020
5596 Clouds 6 1013 65 10000 1 0 23:00 02.04.2020
5597 Clouds 7 1013 61 10000 1.5 160 22:41 02.04.2020
5598 Clouds 7 1013 61 10000 1.5 170 22:22 02.04.2020
5599 Clouds 7 1013 61 10000 1.5 170 22:22 02.04.2020
5600 Clouds 7 1013 61 10000 1.5 170 21:57 02.04.2020
5601 Clouds 7 1013 57 10000 0.5 0 21:37 02.04.2020
5602 Clouds 8 1012 63 10000 3.1 270 21:18 02.04.2020
5603 Clouds 8 1012 63 10000 3.1 270 20:44 02.04.2020
5604 Clouds 9 1012 40 10000 3.6 260 20:24 02.04.2020
5605 Clouds 10 1012 40 10000 3.6 260 19:57 02.04.2020
5606 Clouds 10 1012 40 10000 3.6 260 19:38 02.04.2020
5607 Clouds 11 1012 37 10000 5.1 270 19:19 02.04.2020
5608 Clouds 12 1012 37 10000 5.1 270 18:42 02.04.2020
5609 Clouds 12 1013 35 10000 2.6 250 18:21 02.04.2020
5610 Clouds 13 1013 35 10000 2.6 250 17:59 02.04.2020
5611 Clouds 13 1013 35 10000 2.6 250 17:59 02.04.2020
5612 Clouds 13 1013 35 10000 2.6 250 17:40 02.04.2020
5613 Clouds 13 1012 51 10000 3.1 230 17:22 02.04.2020
5614 Clouds 13 1012 51 10000 3.1 230 17:22 02.04.2020
5615 Clouds 13 1013 51 10000 4.1 280 16:57 02.04.2020
5616 Clouds 13 1013 51 10000 4.1 280 16:39 02.04.2020
5617 Clouds 13 1013 43 10000 3.6 240 16:21 02.04.2020
5618 Clouds 13 1014 44 10000 3.1 200 15:56 02.04.2020
5619 Clouds 12 1014 44 10000 3.1 200 15:38 02.04.2020
5620 Clouds 12 1014 44 10000 3.1 200 15:38 02.04.2020
5621 Clouds 13 1014 47 10000 3.6 210 15:18 02.04.2020
5622 Clouds 13 1014 47 10000 3.6 210 15:18 02.04.2020
5623 Clouds 12 1014 47 10000 3.6 210 14:55 02.04.2020
5624 Clouds 12 1014 47 10000 3.6 210 14:37 02.04.2020
5625 Clouds 12 1014 47 10000 3.6 210 14:18 02.04.2020
5626 Clouds 12 1014 43 10000 3.1 190 13:40 02.04.2020
5627 Clouds 12 1014 43 10000 4.1 220 13:21 02.04.2020
5628 Clouds 12 1015 46 10000 1.5 0 12:57 02.04.2020
5629 Clouds 12 1015 46 10000 1.5 0 12:39 02.04.2020
5630 Clouds 11 1014 46 10000 4.1 170 12:19 02.04.2020
5631 Clouds 11 1014 46 10000 4.1 170 12:19 02.04.2020
5632 Clouds 11 1014 46 10000 4.1 170 12:19 02.04.2020
5633 Clouds 11 1014 46 10000 4.1 170 12:19 02.04.2020
5634 Clouds 11 1014 46 10000 4.1 170 12:19 02.04.2020
5635 Clouds 11 1014 46 10000 4.1 170 11:57 02.04.2020
5636 Clouds 11 1014 46 10000 4.6 190 11:38 02.04.2020
5637 Clear 10 1015 49 10000 2.1 360 11:19 02.04.2020
5638 Clear 10 1015 49 10000 2.1 360 11:19 02.04.2020
5639 Clear 10 1015 49 10000 2.1 360 11:19 02.04.2020
5640 Clear 10 1015 49 10000 2.1 360 10:55 02.04.2020
5641 Clear 10 1015 49 10000 2.1 360 10:37 02.04.2020
5642 Clear 9 1014 61 10000 1.5 310 10:19 02.04.2020
5643 Clear 8 1014 61 10000 1.5 310 09:55 02.04.2020
5644 Clear 8 1015 74 10000 2.1 350 09:37 02.04.2020
5645 Clear 6 1015 80 10000 1.5 0 09:18 02.04.2020
5646 Clear 5 1015 80 10000 1.5 0 08:45 02.04.2020
5647 Clear 4 1015 80 10000 1.5 0 08:26 02.04.2020
5648 Clear 3 1014 69 10000 1.5 20 07:45 02.04.2020
5649 Clear 3 1014 69 10000 0.5 70 07:20 02.04.2020
5650 Clear 3 1014 69 10000 1 50 06:58 02.04.2020
5651 Clear 3 1014 69 10000 1 0 06:21 02.04.2020
5652 Clear 3 1014 69 10000 1 80 05:45 02.04.2020
5653 Clear 3 1015 64 10000 3.1 50 04:35 02.04.2020
5654 Clear 4 1015 59 10000 2.6 40 01:51 02.04.2020
5655 Clear 5 1016 55 10000 2.1 50 00:50 02.04.2020
5656 Clear 5 1016 55 10000 2.1 50 00:50 02.04.2020
5657 Clear 5 1016 55 10000 2.1 50 00:28 02.04.2020
5658 Clear 5 1015 45 10000 2.6 60 23:57 01.04.2020
5659 Clear 5 1015 45 10000 2.6 60 23:37 01.04.2020
5660 Clear 6 1015 45 10000 2.6 60 23:18 01.04.2020
5661 Clear 6 1015 45 10000 2.6 60 23:18 01.04.2020
5662 Clear 6 1015 45 10000 1.5 20 22:40 01.04.2020
5663 Clear 6 1015 45 10000 1.5 20 22:22 01.04.2020
5664 Clear 6 1015 45 10000 3.1 20 21:55 01.04.2020
5665 Clear 7 1015 42 10000 2.6 40 21:37 01.04.2020
5666 Clear 8 1015 36 10000 2.1 340 21:18 01.04.2020
5667 Clear 8 1015 36 10000 2.1 340 21:18 01.04.2020
5668 Clear 8 1015 36 10000 2.1 340 20:54 01.04.2020
5669 Clear 8 1015 36 10000 2.1 340 20:54 01.04.2020
5670 Clear 8 1015 36 10000 2.1 340 20:36 01.04.2020
5671 Clear 9 1014 32 10000 6.7 350 20:18 01.04.2020
5672 Clear 10 1014 32 10000 6.7 350 19:42 01.04.2020
5673 Clear 11 1014 34 10000 4.6 350 19:21 01.04.2020
5674 Clear 11 1015 32 10000 5.1 350 18:47 01.04.2020
5675 Clear 11 1015 32 10000 5.1 350 18:27 01.04.2020
5676 Clear 12 1015 32 10000 5.1 350 17:59 01.04.2020
5677 Clear 12 1015 30 10000 5.1 10 17:39 01.04.2020
5678 Clear 12 1014 30 10000 3.6 20 17:21 01.04.2020
5679 Clear 12 1014 30 10000 3.6 20 17:21 01.04.2020
5680 Clear 13 1015 35 10000 3.1 10 16:59 01.04.2020
5681 Clear 13 1015 35 10000 3.1 10 16:41 01.04.2020
5682 Clear 12 1015 30 10000 3.6 20 16:22 01.04.2020
5683 Clear 12 1015 30 10000 3.6 20 15:58 01.04.2020
5684 Clear 12 1015 30 10000 3.6 20 15:38 01.04.2020
5685 Clear 12 1015 30 10000 3.6 20 15:38 01.04.2020
5686 Clear 12 1015 32 10000 4.6 40 15:20 01.04.2020
5687 Clear 12 1016 32 10000 4.6 340 14:57 01.04.2020
5688 Clear 12 1016 32 10000 4.6 340 14:57 01.04.2020
5689 Clear 12 1016 32 10000 4.6 340 14:38 01.04.2020
5690 Clear 12 1016 32 10000 6.7 360 14:19 01.04.2020
5691 Clear 12 1016 32 10000 6.7 360 14:19 01.04.2020
5692 Clear 12 1016 32 10000 6.7 360 13:57 01.04.2020
5693 Clear 11 1016 32 10000 6.7 360 13:37 01.04.2020
5694 Clear 11 1016 29 10000 5.7 20 13:18 01.04.2020
5695 Clear 11 1016 29 10000 5.7 20 12:54 01.04.2020
5696 Clear 11 1016 29 10000 5.7 20 12:36 01.04.2020
5697 Clouds 10 1016 29 10000 6.7 40 12:18 01.04.2020
5698 Clouds 10 1016 34 10000 6.2 40 11:40 01.04.2020
5699 Clouds 9 1016 34 10000 6.2 40 11:21 01.04.2020
5700 Clouds 9 1017 36 10000 6.7 20 10:58 01.04.2020
5701 Clouds 9 1017 36 10000 6.7 20 10:37 01.04.2020
5702 Clouds 8 1017 48 10000 8.2 360 10:18 01.04.2020
5703 Clouds 7 1017 48 10000 8.2 360 09:55 01.04.2020
5704 Clouds 7 1017 48 10000 8.2 360 09:37 01.04.2020
5705 Clear 5 1016 52 10000 6.2 350 09:18 01.04.2020
5706 Clear 5 1016 52 10000 6.2 350 08:40 01.04.2020
5707 Clear 5 1015 51 10000 5.1 20 08:18 01.04.2020
5708 Clouds 4 1015 51 10000 8.2 20 07:43 01.04.2020
5709 Clouds 4 1015 48 10000 8.7 20 07:21 01.04.2020
5710 Clear 3 1014 48 10000 7.7 20 06:48 01.04.2020
5711 Clear 4 1014 48 10000 7.2 30 06:24 01.04.2020
5712 Clear 4 1014 48 10000 7.2 30 05:56 01.04.2020
5713 Clear 5 1015 48 10000 3.6 10 04:30 01.04.2020
5714 Clear 5 1014 51 10000 4.6 30 03:28 01.04.2020
5715 Clouds 5 1015 52 10000 4.6 30 02:49 01.04.2020
5716 Clouds 6 1015 56 10000 6.7 20 01:57 01.04.2020
5717 Clouds 6 1015 56 10000 4.6 30 01:37 01.04.2020
5718 Clouds 6 1015 60 10000 4.6 30 01:18 01.04.2020
5719 Clouds 6 1015 56 10000 5.7 40 00:43 01.04.2020
5720 Clouds 7 1015 60 10000 5.7 20 00:18 01.04.2020
5721 Clouds 7 1015 59 10000 4.6 20 23:42 31.03.2020
5722 Clouds 7 1015 65 10000 4.1 30 23:23 31.03.2020
5723 Clouds 7 1015 70 10000 4.1 30 22:57 31.03.2020
5724 Clouds 7 1015 70 10000 4.1 30 22:36 31.03.2020
5725 Clouds 7 1015 70 10000 4.6 30 22:18 31.03.2020
5726 Clouds 8 1015 70 10000 5.1 30 21:55 31.03.2020
5727 Clouds 8 1015 70 10000 5.1 30 21:55 31.03.2020
5728 Clouds 8 1015 70 10000 5.1 30 21:37 31.03.2020
5729 Clouds 8 1015 66 10000 4.1 360 21:19 31.03.2020
5730 Clouds 9 1015 66 10000 4.1 360 20:54 31.03.2020
5731 Clouds 9 1015 70 10000 4.1 40 20:36 31.03.2020
5732 Clouds 9 1015 66 10000 5.7 360 20:18 31.03.2020
5733 Clouds 10 1015 66 10000 5.7 360 19:41 31.03.2020
5734 Clouds 10 1015 66 10000 5.7 360 19:22 31.03.2020
5735 Clouds 11 1015 66 10000 5.7 350 18:55 31.03.2020
5736 Clouds 11 1015 66 10000 5.7 350 18:37 31.03.2020
5737 Clouds 11 1015 66 10000 5.7 350 18:18 31.03.2020
5738 Clouds 12 1014 62 10000 7.7 10 17:54 31.03.2020
5739 Clouds 13 1014 62 10000 7.7 10 17:36 31.03.2020
5740 Clouds 13 1014 62 10000 5.1 10 17:18 31.03.2020
5741 Clouds 14 1014 62 10000 5.1 10 16:38 31.03.2020
5742 Rain 14 1015 58 10000 7.2 350 16:19 31.03.2020
5743 Rain 15 1015 58 10000 7.2 350 15:57 31.03.2020
5744 Rain 15 1015 58 10000 7.2 350 15:38 31.03.2020
5745 Clouds 16 1015 55 10000 1 0 15:19 31.03.2020
5746 Clouds 16 1015 55 10000 1 0 14:56 31.03.2020
5747 Clouds 16 1015 55 10000 1 0 14:38 31.03.2020
5748 Clouds 15 1015 51 10000 4.1 340 14:18 31.03.2020
5749 Clouds 16 1015 51 10000 4.1 340 13:42 31.03.2020
5750 Rain 16 1015 62 10000 3.1 350 13:19 31.03.2020
5751 Rain 15 1015 62 10000 3.1 350 12:55 31.03.2020
5752 Rain 15 1015 62 10000 3.1 350 12:37 31.03.2020
5753 Clear 14 1016 67 10000 4.1 40 12:18 31.03.2020
5754 Clear 14 1016 67 10000 4.1 40 11:38 31.03.2020
5755 Clear 13 1016 87 10000 3.6 20 11:19 31.03.2020
5756 Clear 13 1016 87 10000 3.6 20 10:57 31.03.2020
5757 Clear 12 1016 87 10000 3.6 20 10:39 31.03.2020
5758 Clear 12 1015 76 10000 3.6 20 10:21 31.03.2020
5759 Clear 11 1015 100 10000 2.98 345 09:56 31.03.2020
5760 Clear 10 1015 100 10000 2.98 345 09:37 31.03.2020
5761 Clear 10 1015 100 10000 2.98 345 09:37 31.03.2020
5762 Clouds 10 1014 87 10000 3.1 50 09:19 31.03.2020
5763 Clouds 9 1014 87 10000 3.1 50 08:55 31.03.2020
5764 Clouds 9 1015 100 10000 2.58 357 08:37 31.03.2020
5765 Clouds 8 1014 87 10000 2.6 70 08:18 31.03.2020
5766 Clouds 7 1014 93 10000 2.6 50 07:44 31.03.2020
5767 Clouds 7 1014 93 10000 2.6 50 07:44 31.03.2020
5768 Clouds 7 1014 100 10000 1.5 40 07:25 31.03.2020
5769 Clouds 7 1014 100 10000 1.5 40 06:59 31.03.2020
5770 Clouds 7 1014 93 10000 0.5 0 06:41 31.03.2020
5771 Clouds 7 1014 100 10000 1 40 05:44 31.03.2020
5772 Clouds 7 1014 100 10000 0.5 0 05:24 31.03.2020
5773 Clouds 8 1014 100 10000 1.5 70 02:56 31.03.2020
5774 Clouds 8 1013 93 10000 0.5 0 01:47 31.03.2020
5775 Clouds 8 1013 100 10000 0.5 0 01:22 31.03.2020
5776 Clouds 9 1013 93 10000 1.5 290 00:43 31.03.2020
5777 Clouds 9 1013 93 10000 1.5 290 00:23 31.03.2020
5778 Clouds 10 1013 87 10000 1.5 190 23:40 30.03.2020
5779 Clouds 10 1013 87 10000 1.5 190 23:20 30.03.2020
5780 Clouds 10 1013 87 10000 1.5 190 22:58 30.03.2020
5781 Clouds 10 1013 87 10000 2.1 200 22:38 30.03.2020
5782 Clouds 10 1013 81 10000 1 220 22:19 30.03.2020
5783 Clouds 11 1013 81 10000 1 220 21:57 30.03.2020
5784 Clouds 11 1013 76 10000 1.5 330 21:38 30.03.2020
5785 Clouds 11 1012 67 10000 2.6 50 21:20 30.03.2020
5786 Clouds 11 1012 67 10000 2.6 50 20:58 30.03.2020
5787 Clouds 11 1012 67 10000 2.6 50 20:38 30.03.2020
5788 Clouds 12 1012 58 10000 4.6 140 20:19 30.03.2020
5789 Clouds 13 1012 58 10000 4.6 140 19:54 30.03.2020
5790 Clouds 13 1012 58 10000 4.6 140 19:36 30.03.2020
5791 Clouds 13 1011 63 10000 3.1 280 19:18 30.03.2020
5792 Clouds 14 1011 63 10000 3.1 280 18:41 30.03.2020
5793 Rain 14 1011 62 10000 3.1 280 18:23 30.03.2020
5794 Clouds 14 1011 55 10000 3.6 250 17:57 30.03.2020
5795 Clouds 14 1011 55 10000 3.6 250 17:39 30.03.2020
5796 Clouds 14 1011 63 10000 3.1 260 17:19 30.03.2020
5797 Clouds 15 1011 63 10000 3.1 260 16:57 30.03.2020
5798 Clouds 15 1011 63 10000 3.1 260 16:39 30.03.2020
5799 Clouds 16 1012 59 10000 4.1 260 16:20 30.03.2020
5800 Clouds 16 1012 59 10000 4.1 260 15:55 30.03.2020
5801 Clouds 16 1012 59 10000 4.1 260 15:37 30.03.2020
5802 Clouds 16 1012 55 10000 2.1 190 15:18 30.03.2020
5803 Clouds 16 1012 55 10000 2.1 190 14:55 30.03.2020
5804 Clouds 16 1012 55 10000 2.1 190 14:36 30.03.2020
5805 Rain 16 1012 55 10000 3.99 247 14:18 30.03.2020
5806 Rain 16 1012 55 10000 3.99 247 13:44 30.03.2020
5807 Clouds 16 1012 67 10000 2.1 230 13:21 30.03.2020
5808 Clouds 16 1013 63 10000 3.99 247 12:59 30.03.2020
5809 Clouds 16 1013 63 10000 3.99 247 12:41 30.03.2020
5810 Clouds 15 1013 82 10000 1.5 0 12:19 30.03.2020
5811 Clouds 15 1013 82 10000 1.5 0 11:57 30.03.2020
5812 Clouds 15 1013 82 10000 1.5 0 11:38 30.03.2020
5813 Clouds 14 1013 93 8000 1 0 11:20 30.03.2020
5814 Clouds 14 1013 93 8000 1 0 10:41 30.03.2020
5815 Clouds 14 1013 93 8000 1 0 10:22 30.03.2020
5816 Mist 13 1012 100 5000 2.1 360 09:57 30.03.2020
5817 Mist 12 1012 100 5000 2.1 360 09:38 30.03.2020
5818 Mist 10 1012 100 5000 1 0 09:19 30.03.2020
5819 Mist 10 1012 100 5000 1 0 08:42 30.03.2020
5820 Clouds 9 1011 87 10000 1.5 30 08:22 30.03.2020
5821 Clouds 8 1011 87 10000 2.1 100 07:50 30.03.2020
5822 Clouds 8 1011 87 10000 2.1 100 07:31 30.03.2020
5823 Fog 8 1011 100 3000 1 30 06:57 30.03.2020
5824 Fog 8 1011 93 3000 1 10 06:33 30.03.2020
5825 Fog 8 1011 100 4000 1 360 05:55 30.03.2020
5826 Fog 8 1011 100 4000 1 360 05:33 30.03.2020
5827 Mist 9 1011 100 5000 1 340 04:24 30.03.2020
5828 Mist 9 1012 93 5000 1 0 03:44 30.03.2020
5829 Mist 9 1012 93 5000 1 0 02:42 30.03.2020
5830 Clouds 10 1012 93 10000 1.5 70 01:44 30.03.2020
5831 Clouds 10 1013 87 10000 1.5 80 00:50 30.03.2020
5832 Clouds 10 1013 87 10000 1.5 80 00:23 30.03.2020
5833 Clouds 11 1013 87 10000 1 0 23:42 29.03.2020
5834 Clouds 11 1013 87 10000 1 0 23:24 29.03.2020
5835 Clouds 11 1013 87 10000 1 0 22:58 29.03.2020
5836 Clouds 11 1013 87 10000 2.1 200 22:38 29.03.2020
5837 Clouds 11 1013 87 10000 1 0 22:19 29.03.2020
5838 Clouds 11 1013 87 10000 1 0 21:56 29.03.2020
5839 Clouds 11 1013 81 10000 2.1 210 21:36 29.03.2020
5840 Rain 12 1013 81 10000 1.5 220 21:18 29.03.2020
5841 Rain 12 1013 81 10000 1.5 220 21:18 29.03.2020
5842 Rain 12 1013 81 10000 1.5 220 20:55 29.03.2020
5843 Rain 12 1012 81 10000 1.5 280 20:36 29.03.2020
5844 Rain 12 1012 67 10000 2.1 250 20:18 29.03.2020
5845 Rain 13 1012 67 10000 2.1 250 19:42 29.03.2020
5846 Rain 13 1012 67 10000 2.1 250 19:42 29.03.2020
5847 Clouds 13 1011 71 10000 3.1 270 19:24 29.03.2020
5848 Rain 14 1011 63 10000 5.1 270 18:58 29.03.2020
5849 Rain 14 1011 63 10000 5.1 270 18:40 29.03.2020
5850 Rain 14 1011 63 10000 5.1 270 18:20 29.03.2020
5851 Rain 14 1011 63 10000 5.1 270 18:20 29.03.2020
5852 Rain 14 1011 63 10000 5.7 250 17:57 29.03.2020
5853 Rain 14 1011 63 10000 5.7 250 17:39 29.03.2020
5854 Clouds 15 1011 59 10000 4.6 260 17:20 29.03.2020
5855 Clouds 15 1011 59 10000 4.6 260 16:58 29.03.2020
5856 Clouds 15 1011 59 10000 4.6 260 16:39 29.03.2020
5857 Clouds 15 1011 59 10000 4.6 260 16:39 29.03.2020
5858 Clouds 15 1012 59 10000 5.1 230 16:20 29.03.2020
5859 Clouds 16 1013 52 10000 4.1 280 15:43 29.03.2020
5860 Clouds 16 1013 52 10000 4.1 280 15:25 29.03.2020
5861 Clouds 16 1013 59 10000 1.5 0 14:59 29.03.2020
5862 Clouds 16 1013 59 10000 1.5 0 14:40 29.03.2020
5863 Clouds 16 1013 59 10000 1.5 0 14:21 29.03.2020
5864 Clouds 15 1013 59 10000 1.5 0 13:59 29.03.2020
5865 Clouds 15 1013 55 10000 1 0 13:41 29.03.2020
5866 Clouds 16 1013 55 10000 1 0 13:21 29.03.2020
5867 Rain 15 1014 63 10000 2.6 220 12:57 29.03.2020
5868 Rain 15 1014 63 10000 2.6 220 12:38 29.03.2020
5869 Clear 15 1014 63 10000 2.6 220 12:19 29.03.2020
5870 Clear 14 1014 63 10000 2.6 220 11:57 29.03.2020
5871 Clear 14 1014 63 10000 2.6 220 11:57 29.03.2020
5872 Clear 14 1014 72 10000 0.5 0 11:37 29.03.2020
5873 Clear 14 1014 93 10000 0.5 0 11:19 29.03.2020
5874 Clear 13 1014 93 10000 0.5 0 10:39 29.03.2020
5875 Clear 12 1014 100 10000 2.6 360 10:19 29.03.2020
5876 Clear 11 1014 100 10000 2.6 360 09:54 29.03.2020
5877 Clear 11 1014 100 10000 2.6 360 09:36 29.03.2020
5878 Clouds 10 1014 100 7000 2.1 360 09:18 29.03.2020
5879 Clouds 9 1014 100 7000 2.1 360 08:41 29.03.2020
5880 Clouds 9 1013 87 10000 0.5 0 08:22 29.03.2020
5881 Clouds 7 1013 87 10000 1.5 140 07:45 29.03.2020
5882 Fog 7 1013 100 3000 1 60 07:22 29.03.2020
5883 Fog 8 1014 100 8000 1 60 05:59 29.03.2020
5884 Clouds 8 1014 93 10000 1 30 04:56 29.03.2020
5885 Clouds 9 1014 87 8000 1 0 03:37 29.03.2020
5886 Rain 9 1014 87 9000 0.5 180 01:57 29.03.2020
5887 Rain 10 1015 87 9000 0.5 0 01:37 29.03.2020
5888 Rain 9 1015 93 9000 1 80 01:19 29.03.2020
5889 Rain 10 1015 87 9000 1 100 00:39 29.03.2020
5890 Clouds 10 1014 81 10000 1.5 130 23:59 28.03.2020
5891 Clouds 10 1014 81 10000 1.5 130 23:40 28.03.2020
5892 Clouds 10 1014 81 10000 1.5 130 23:40 28.03.2020
5893 Clouds 10 1014 81 10000 1.5 130 23:22 28.03.2020
5894 Rain 10 1014 87 10000 1.5 120 22:42 28.03.2020
5895 Clouds 11 1014 81 10000 1 140 22:22 28.03.2020
5896 Clouds 11 1014 81 10000 1 140 21:57 28.03.2020
5897 Clouds 11 1014 81 10000 1 150 21:39 28.03.2020
5898 Rain 11 1014 76 10000 1 170 21:19 28.03.2020
5899 Rain 11 1014 76 10000 1 170 20:55 28.03.2020
5900 Rain 11 1014 71 10000 1 0 20:37 28.03.2020
5901 Clouds 11 1014 76 10000 1.5 190 20:18 28.03.2020
5902 Clouds 11 1014 76 10000 1.5 190 19:55 28.03.2020
5903 Clouds 11 1013 76 10000 1.5 210 19:36 28.03.2020
5904 Clouds 11 1013 76 10000 2.1 220 19:18 28.03.2020
5905 Clouds 11 1013 76 10000 2.1 220 19:18 28.03.2020
5906 Clouds 12 1013 76 10000 3.1 210 18:39 28.03.2020
5907 Clouds 12 1013 62 10000 2.6 230 18:20 28.03.2020
5908 Clouds 13 1013 62 10000 2.6 230 17:40 28.03.2020
5909 Clouds 13 1013 62 10000 2.6 230 17:22 28.03.2020
5910 Clouds 13 1013 62 10000 2.6 230 16:59 28.03.2020
5911 Clouds 13 1012 67 10000 3.1 200 16:38 28.03.2020
5912 Clouds 13 1013 45 10000 1 0 16:18 28.03.2020
5913 Clouds 14 1013 45 10000 1 0 15:40 28.03.2020
5914 Clouds 14 1013 55 10000 1.5 0 15:19 28.03.2020
5915 Clouds 14 1013 55 10000 1.5 0 14:57 28.03.2020
5916 Clouds 14 1013 55 10000 1.5 0 14:39 28.03.2020
5917 Rain 13 1013 62 10000 1 0 14:20 28.03.2020
5918 Rain 14 1013 62 10000 1 0 13:43 28.03.2020
5919 Clouds 14 1013 67 10000 2.1 230 13:23 28.03.2020
5920 Clouds 14 1013 62 10000 2.68 243 12:41 28.03.2020
5921 Rain 14 1013 71 10000 1 0 12:22 28.03.2020
5922 Rain 13 1013 71 10000 1 0 11:43 28.03.2020
5923 Rain 13 1013 71 10000 1 0 11:24 28.03.2020
5924 Clouds 13 1013 87 10000 1 0 10:58 28.03.2020
5925 Clouds 13 1013 87 10000 1 0 10:38 28.03.2020
5926 Clouds 12 1013 93 10000 1 0 10:19 28.03.2020
5927 Clouds 11 1013 93 10000 1 0 09:43 28.03.2020
5928 Clouds 11 1013 93 10000 1 0 09:24 28.03.2020
5929 Clouds 10 1013 100 10000 0.62 61 08:57 28.03.2020
5930 Clouds 10 1013 100 10000 0.62 61 08:39 28.03.2020
5931 Clouds 10 1013 100 10000 0.79 94 08:39 28.03.2020
5932 Clouds 10 1012 87 10000 1.5 10 08:20 28.03.2020
5933 Clouds 9 1012 93 10000 2.1 30 07:44 28.03.2020
5934 Clouds 9 1013 93 10000 1.5 80 06:59 28.03.2020
5935 Clouds 8 1012 87 10000 1.5 30 06:36 28.03.2020
5936 Clouds 8 1012 87 10000 1.5 30 05:43 28.03.2020
5937 Clouds 8 1012 87 10000 2.1 30 05:21 28.03.2020
5938 Clouds 9 1013 87 10000 2.6 40 04:41 28.03.2020
5939 Clouds 9 1013 93 10000 1.5 350 03:54 28.03.2020
5940 Clouds 9 1013 93 10000 1 0 02:21 28.03.2020
5941 Clouds 9 1013 93 10000 1.5 360 01:30 28.03.2020
5942 Clouds 9 1013 93 10000 1.5 10 00:59 28.03.2020
5943 Clouds 9 1013 87 10000 2.6 20 00:37 28.03.2020
5944 Clouds 9 1013 87 10000 1 0 23:57 27.03.2020
5945 Clouds 9 1013 87 10000 1 0 23:39 27.03.2020
5946 Clouds 9 1013 87 10000 1 0 23:21 27.03.2020
5947 Clouds 9 1013 87 10000 1.5 80 22:56 27.03.2020
5948 Clouds 9 1013 87 10000 1.5 80 22:37 27.03.2020
5949 Clouds 10 1013 87 10000 2.1 80 22:19 27.03.2020
5950 Clouds 10 1013 87 10000 1.5 60 21:44 27.03.2020
5951 Clouds 10 1013 87 10000 1.5 60 21:25 27.03.2020
5952 Clouds 10 1013 87 10000 1.5 60 21:25 27.03.2020
5953 Clouds 10 1012 87 10000 2.1 70 20:59 27.03.2020
5954 Clouds 10 1012 87 10000 2.1 80 20:41 27.03.2020
5955 Clouds 10 1012 76 10000 1.5 110 20:21 27.03.2020
5956 Clouds 10 1012 76 10000 1.5 110 19:58 27.03.2020
5957 Clouds 11 1011 71 10000 2.1 230 19:40 27.03.2020
5958 Clouds 11 1011 71 10000 2.1 230 19:21 27.03.2020
5959 Clouds 11 1010 71 10000 2.1 220 18:45 27.03.2020
5960 Clouds 12 1010 66 10000 3.1 190 18:25 27.03.2020
5961 Rain 12 1010 87 10000 2.6 200 17:59 27.03.2020
5962 Rain 12 1010 87 10000 2.6 200 17:40 27.03.2020
5963 Rain 12 1010 87 10000 2.6 200 17:20 27.03.2020
5964 Clouds 13 1010 76 10000 2.6 210 16:44 27.03.2020
5965 Rain 13 1009 67 9000 3.1 200 16:26 27.03.2020
5966 Rain 13 1009 67 9000 3.1 200 15:56 27.03.2020
5967 Rain 13 1009 67 9000 3.1 200 15:38 27.03.2020
5968 Clouds 15 1008 62 10000 7.7 170 15:20 27.03.2020
5969 Clouds 16 1009 62 10000 4.6 200 14:45 27.03.2020
5970 Clouds 16 1009 62 10000 4.6 200 14:24 27.03.2020
5971 Clouds 16 1008 58 10000 6.7 180 13:56 27.03.2020
5972 Clouds 16 1008 63 10000 4.6 220 13:37 27.03.2020
5973 Clouds 16 1008 63 10000 4.6 220 13:18 27.03.2020
5974 Clouds 16 1008 59 10000 4.1 230 12:45 27.03.2020
5975 Clouds 16 1008 59 10000 4.1 230 12:20 27.03.2020
5976 Clouds 15 1008 55 10000 2.1 100 11:59 27.03.2020
5977 Clouds 15 1008 55 10000 2.1 100 11:41 27.03.2020
5978 Clouds 15 1008 55 10000 2.1 100 11:41 27.03.2020
5979 Clouds 15 1008 55 10000 2.1 100 11:22 27.03.2020
5980 Clouds 15 1007 71 10000 3.1 120 10:54 27.03.2020
5981 Clouds 15 1007 71 10000 3.1 120 10:54 27.03.2020
5982 Clouds 15 1007 71 10000 3.1 120 10:36 27.03.2020
5983 Clouds 14 1007 71 10000 1 0 10:18 27.03.2020
5984 Rain 14 1006 76 10000 1.5 0 09:55 27.03.2020
5985 Rain 14 1006 76 10000 1.5 0 09:36 27.03.2020
5986 Clouds 13 1006 81 10000 2.6 40 09:18 27.03.2020
5987 Clouds 12 1006 81 10000 2.6 40 08:54 27.03.2020
5988 Rain 12 1006 93 10000 1.5 0 08:36 27.03.2020
5989 Clouds 12 1005 87 10000 1.5 340 08:18 27.03.2020
5990 Clouds 11 1005 87 10000 1.5 0 07:43 27.03.2020
5991 Clouds 10 1005 93 10000 1 30 07:21 27.03.2020
5992 Clouds 9 1004 93 10000 1.5 40 06:41 27.03.2020
5993 Clouds 9 1004 93 10000 1.5 180 06:18 27.03.2020
5994 Clouds 9 1004 87 10000 0.5 0 03:42 27.03.2020
5995 Rain 9 1004 93 10000 1 0 02:25 27.03.2020
5996 Rain 10 1004 81 10000 1 0 01:21 27.03.2020
5997 Rain 10 1004 81 10000 0.5 0 00:45 27.03.2020
5998 Clouds 10 1004 81 10000 0.5 0 00:21 27.03.2020
5999 Clouds 10 1004 87 10000 1.5 260 23:42 26.03.2020
6000 Rain 10 1004 81 10000 1 0 23:19 26.03.2020
6001 Rain 10 1004 81 10000 1.5 330 22:58 26.03.2020
6002 Rain 10 1004 81 10000 1.5 330 22:58 26.03.2020
6003 Rain 10 1004 81 10000 1.5 330 22:37 26.03.2020
6004 Rain 10 1003 81 10000 1.5 140 22:18 26.03.2020
6005 Rain 10 1003 81 10000 1 0 21:40 26.03.2020
6006 Rain 10 1003 76 10000 2.6 10 21:22 26.03.2020
6007 Clouds 10 1002 81 10000 0.5 0 20:59 26.03.2020
6008 Clouds 10 1002 81 10000 0.5 0 20:40 26.03.2020
6009 Clouds 10 1002 81 10000 0.5 0 20:22 26.03.2020
6010 Clouds 10 1002 81 10000 2.1 10 19:58 26.03.2020
6011 Clouds 11 1001 76 10000 2.6 70 19:40 26.03.2020
6012 Clouds 10 1001 87 10000 2.6 360 19:21 26.03.2020
6013 Clouds 11 1001 87 10000 2.6 360 18:58 26.03.2020
6014 Clouds 10 1001 81 10000 2.1 40 18:40 26.03.2020
6015 Clouds 11 1001 76 10000 3.6 30 18:22 26.03.2020
6016 Rain 11 1001 93 10000 2.1 10 17:45 26.03.2020
6017 Rain 11 1001 93 10000 2.1 10 17:20 26.03.2020
6018 Rain 11 1001 81 8000 1 0 16:57 26.03.2020
6019 Rain 11 1001 81 8000 1 0 16:38 26.03.2020
6020 Rain 11 1000 76 6000 4.1 110 16:20 26.03.2020
6021 Rain 11 1000 76 6000 4.1 110 15:56 26.03.2020
6022 Rain 11 1000 81 10000 1 0 15:38 26.03.2020
6023 Rain 11 1000 81 6000 1 0 15:18 26.03.2020
6024 Rain 11 1000 81 10000 1 0 14:43 26.03.2020
6025 Rain 11 1000 81 10000 1 0 14:24 26.03.2020
6026 Rain 10 999 87 10000 2.1 30 13:56 26.03.2020
6027 Rain 10 999 87 10000 2.1 30 13:56 26.03.2020
6028 Rain 10 1000 76 10000 1 0 13:38 26.03.2020
6029 Rain 10 1000 87 10000 3.1 10 13:19 26.03.2020
6030 Rain 9 1000 87 6000 2.6 30 12:39 26.03.2020
6031 Rain 10 1001 62 10000 1 0 12:20 26.03.2020
6032 Rain 9 1001 57 10000 1 0 11:46 26.03.2020
6033 Rain 9 1001 57 10000 1 0 11:23 26.03.2020
6034 Clouds 8 1002 66 10000 1 0 10:59 26.03.2020
6035 Clouds 9 1002 66 10000 1 0 10:41 26.03.2020
6036 Clouds 8 1001 81 10000 1 0 10:20 26.03.2020
6037 Rain 8 1002 65 10000 3.1 10 09:45 26.03.2020
6038 Rain 7 1002 87 10000 1 0 09:21 26.03.2020
6039 Rain 7 1002 70 10000 3.1 10 08:57 26.03.2020
6040 Rain 7 1002 70 10000 3.1 10 08:57 26.03.2020
6041 Clouds 6 1002 70 10000 3.1 10 08:38 26.03.2020
6042 Rain 6 1002 93 10000 0.5 0 08:19 26.03.2020
6043 Rain 6 1002 93 6000 0.5 0 07:45 26.03.2020
6044 Rain 5 1002 93 6000 1 0 07:23 26.03.2020
6045 Rain 5 1002 93 6000 1 0 06:57 26.03.2020
6046 Rain 6 999 92 0 0.89 30 06:32 26.03.2020
6047 Rain 6 1000 91 0 1.34 351 05:29 26.03.2020
6048 Rain 6 1000 89 0 6.07 351 03:45 26.03.2020
6049 Rain 6 1001 88 0 1.79 320 02:56 26.03.2020
6050 Rain 6 1002 88 0 1.79 317 01:51 26.03.2020
6051 Rain 6 1003 86 0 0.89 320 00:56 26.03.2020
6052 Rain 6 1004 85 0 1.79 318 00:22 26.03.2020
6053 Rain 7 1008 75 10000 1 0 23:41 25.03.2020
6054 Rain 7 1008 75 10000 1 0 23:22 25.03.2020
6055 Drizzle 8 1008 75 10000 1 0 22:42 25.03.2020
6056 Rain 8 1008 75 10000 3.1 310 22:22 25.03.2020
6057 Rain 8 1008 75 10000 3.1 310 21:56 25.03.2020
6058 Drizzle 8 1008 75 10000 3.1 310 21:38 25.03.2020
6059 Drizzle 8 1009 58 10000 3.1 100 21:20 25.03.2020
6060 Drizzle 8 1009 58 10000 3.1 100 20:56 25.03.2020
6061 Drizzle 9 1009 52 10000 1.5 140 20:37 25.03.2020
6062 Clouds 9 1009 52 10000 2.6 120 20:18 25.03.2020
6063 Clouds 10 1009 45 10000 4.1 110 19:43 25.03.2020
6064 Clouds 10 1009 45 10000 4.1 110 19:43 25.03.2020
6065 Clouds 10 1009 42 10000 1 0 19:23 25.03.2020
6066 Rain 10 1009 42 10000 2.1 180 18:58 25.03.2020
6067 Rain 10 1009 42 10000 2.1 180 18:40 25.03.2020
6068 Clouds 10 1009 39 10000 2.1 0 18:21 25.03.2020
6069 Clouds 11 1009 27 10000 4.6 70 17:55 25.03.2020
6070 Clouds 11 1009 27 10000 4.6 70 17:55 25.03.2020
6071 Clouds 11 1009 27 10000 4.6 70 17:37 25.03.2020
6072 Clouds 11 1009 27 10000 4.6 70 17:19 25.03.2020
6073 Clouds 12 1009 26 10000 1.5 0 16:43 25.03.2020
6074 Clouds 12 1009 32 10000 3.6 270 16:24 25.03.2020
6075 Clouds 13 1010 20 10000 1 0 15:59 25.03.2020
6076 Clouds 14 1010 20 10000 1 0 15:40 25.03.2020
6077 Clouds 13 1009 22 10000 1.5 0 15:19 25.03.2020
6078 Clouds 13 1009 22 10000 1.5 0 15:19 25.03.2020
6079 Clouds 13 1010 24 10000 3.1 330 14:42 25.03.2020
6080 Clouds 13 1010 23 10000 3.6 270 14:22 25.03.2020
6081 Clouds 13 1010 23 10000 3.6 270 13:56 25.03.2020
6082 Clouds 13 1011 25 10000 2.6 60 13:38 25.03.2020
6083 Clouds 13 1011 32 10000 1.5 0 13:19 25.03.2020
6084 Clear 13 1012 25 10000 3.1 140 12:37 25.03.2020
6085 Clear 12 1012 25 10000 3.1 140 12:19 25.03.2020
6086 Clear 12 1012 31 10000 2.1 110 11:55 25.03.2020
6087 Clear 11 1012 31 10000 2.1 110 11:36 25.03.2020
6088 Clouds 10 1012 31 10000 2.1 110 11:18 25.03.2020
6089 Clouds 9 1013 39 10000 2.1 40 10:55 25.03.2020
6090 Clouds 9 1013 39 10000 2.1 40 10:36 25.03.2020
6091 Clouds 8 1012 42 10000 4.1 30 10:18 25.03.2020
6092 Clouds 7 1014 52 10000 4.1 30 09:42 25.03.2020
6093 Clouds 7 1014 52 10000 4.1 30 09:22 25.03.2020
6094 Clouds 5 1013 51 10000 4.6 20 08:56 25.03.2020
6095 Clouds 5 1014 69 10000 3.6 360 08:38 25.03.2020
6096 Clouds 5 1014 69 10000 3.6 360 08:38 25.03.2020
6097 Clear 4 1013 69 10000 4.1 30 08:19 25.03.2020
6098 Clear 3 1013 74 10000 3.6 40 07:39 25.03.2020
6099 Clear 3 1014 80 10000 3.6 60 07:20 25.03.2020
6100 Clear 2 1011 72 0 2.24 23 06:47 25.03.2020
6101 Clear 2 1011 73 0 2.24 48 06:26 25.03.2020
6102 Clear 1 1011 74 0 0.89 28 05:53 25.03.2020
6103 Clouds 2 1011 74 0 1.34 40 04:59 25.03.2020
6104 Clouds 2 1011 73 0 1.79 35 04:39 25.03.2020
6105 Clouds 2 1012 73 0 2.24 44 03:36 25.03.2020
6106 Rain 3 1013 70 0 2.24 36 01:58 25.03.2020
6107 Rain 3 1013 70 0 1.34 69 01:21 25.03.2020
6108 Rain 3 1013 69 0 1.79 41 00:48 25.03.2020
6109 Rain 3 1017 59 10000 3.6 40 00:19 25.03.2020
6110 Rain 4 1017 59 10000 3.6 40 23:45 24.03.2020
6111 Rain 4 1017 59 10000 3.6 40 23:25 24.03.2020
6112 Clear 4 1017 59 10000 4.1 50 22:56 24.03.2020
6113 Clear 4 1017 59 10000 4.1 50 22:37 24.03.2020
6114 Clear 4 1018 59 10000 4.6 40 22:19 24.03.2020
6115 Clear 4 1018 59 10000 4.6 40 21:55 24.03.2020
6116 Clear 5 1018 55 10000 4.1 30 21:37 24.03.2020
6117 Clear 5 1018 55 10000 4.1 30 21:18 24.03.2020
6118 Clear 6 1018 52 10000 5.7 30 20:43 24.03.2020
6119 Clear 6 1018 52 10000 6.2 20 20:24 24.03.2020
6120 Clouds 6 1018 52 10000 6.2 20 19:59 24.03.2020
6121 Clouds 7 1017 48 10000 6.7 20 19:41 24.03.2020
6122 Clouds 7 1017 48 10000 7.7 10 19:19 24.03.2020
6123 Clouds 7 1017 48 10000 7.7 10 18:55 24.03.2020
6124 Clouds 8 1017 42 10000 8.2 10 18:36 24.03.2020
6125 Clouds 8 1017 39 10000 7.7 10 18:18 24.03.2020
6126 Clouds 9 1018 39 10000 6.2 350 17:42 24.03.2020
6127 Clouds 9 1018 39 10000 6.2 350 17:23 24.03.2020
6128 Clouds 8 1017 39 10000 7.2 360 16:58 24.03.2020
6129 Clouds 9 1017 39 10000 7.2 360 16:40 24.03.2020
6130 Clouds 9 1017 39 10000 8.2 360 16:22 24.03.2020
6131 Clouds 9 1017 39 10000 8.2 360 15:58 24.03.2020
6132 Clouds 9 1017 39 10000 7.2 10 15:37 24.03.2020
6133 Clouds 9 1018 39 10000 7.2 10 15:19 24.03.2020
6134 Clouds 9 1018 39 10000 7.7 20 14:43 24.03.2020
6135 Clouds 10 1018 39 10000 6.7 350 14:19 24.03.2020
6136 Clouds 9 1020 45 10000 6.2 350 13:44 24.03.2020
6137 Clouds 9 1019 42 10000 6.2 350 13:24 24.03.2020
6138 Clouds 9 1019 42 10000 6.2 350 12:57 24.03.2020
6139 Clouds 9 1021 49 10000 7.2 330 12:37 24.03.2020
6140 Clouds 8 1021 49 10000 7.2 330 12:19 24.03.2020
6141 Clouds 9 1021 45 10000 7.2 360 11:40 24.03.2020
6142 Clouds 7 1021 45 10000 7.2 360 11:20 24.03.2020
6143 Clear 7 1020 48 10000 7.2 360 10:43 24.03.2020
6144 Clear 7 1020 52 10000 7.7 20 10:20 24.03.2020
6145 Clear 7 1020 52 10000 7.7 20 10:20 24.03.2020
6146 Clear 6 1020 52 10000 7.7 20 09:59 24.03.2020
6147 Clear 6 1020 48 10000 8.7 20 09:41 24.03.2020
6148 Clear 6 1020 48 10000 8.7 20 09:22 24.03.2020
6149 Clear 5 1020 48 10000 7.2 20 08:39 24.03.2020
6150 Clear 4 1020 51 10000 4.6 20 08:21 24.03.2020
6151 Clear 3 1020 51 10000 2.1 60 07:50 24.03.2020
6152 Clear 2 1021 55 10000 2.1 50 07:25 24.03.2020
6153 Clear 2 1021 55 10000 2.1 50 06:58 24.03.2020
6154 Clear 2 1021 55 10000 2.1 50 06:58 24.03.2020
6155 Clear 1 1021 55 10000 4.1 20 06:32 24.03.2020
6156 Clear 2 1022 44 10000 5.7 20 05:27 24.03.2020
6157 Clear 2 1022 47 10000 4.1 30 04:31 24.03.2020
6158 Clear 3 1021 40 10000 4.6 20 03:18 24.03.2020
6159 Clouds 3 1021 37 10000 5.7 40 01:49 24.03.2020
6160 Clear 4 1021 32 10000 7.2 30 00:49 24.03.2020
6161 Clear 4 1021 32 10000 7.2 30 00:26 24.03.2020
6162 Clear 4 1021 30 10000 7.2 30 23:46 23.03.2020
6163 Clouds 4 1020 27 10000 6.2 40 23:26 23.03.2020
6164 Clouds 4 1020 27 10000 7.2 50 22:56 23.03.2020
6165 Clouds 5 1020 27 10000 7.2 50 22:37 23.03.2020
6166 Clouds 5 1020 27 10000 6.2 40 22:19 23.03.2020
6167 Clouds 6 1020 28 10000 5.1 50 21:44 23.03.2020
6168 Clouds 6 1019 30 10000 6.7 60 21:21 23.03.2020
6169 Clouds 5 1019 30 10000 6.7 60 20:58 23.03.2020
6170 Clear 6 1019 36 10000 5.7 50 20:40 23.03.2020
6171 Clear 6 1019 38 10000 4.6 30 20:22 23.03.2020
6172 Clear 6 1018 35 10000 7.7 20 19:54 23.03.2020
6173 Clear 7 1018 35 10000 7.7 20 19:36 23.03.2020
6174 Clear 7 1017 33 10000 7.2 20 19:18 23.03.2020
6175 Clear 7 1017 33 10000 8.7 20 18:42 23.03.2020
6176 Clear 8 1017 31 10000 8.2 10 18:22 23.03.2020
6177 Clear 9 1017 31 10000 7.7 360 17:56 23.03.2020
6178 Clear 9 1017 31 10000 7.7 360 17:38 23.03.2020
6179 Clear 10 1018 29 10000 9.8 10 17:18 23.03.2020
6180 Clear 11 1016 31 10000 8.2 350 16:43 23.03.2020
6181 Clear 11 1016 29 10000 8.7 360 16:24 23.03.2020
6182 Clear 12 1016 27 10000 8.7 10 15:43 23.03.2020
6183 Clear 12 1017 32 10000 7.2 360 15:21 23.03.2020
6184 Clear 11 1017 32 10000 7.2 360 14:57 23.03.2020
6185 Clear 11 1017 30 10000 7.7 10 14:37 23.03.2020
6186 Clear 12 1017 27 10000 8.2 10 14:18 23.03.2020
6187 Clear 12 1017 30 10000 8.2 360 13:41 23.03.2020
6188 Clear 12 1017 30 10000 8.7 360 13:22 23.03.2020
6189 Clear 12 1017 30 10000 8.7 360 12:58 23.03.2020
6190 Clear 12 1017 30 10000 8.7 360 12:58 23.03.2020
6191 Clear 12 1018 28 10000 7.7 10 12:40 23.03.2020
6192 Clear 12 1019 27 10000 9.8 360 12:21 23.03.2020
6193 Clear 12 1018 35 10000 7.7 20 11:42 23.03.2020
6194 Clear 12 1019 30 10000 9.3 350 11:21 23.03.2020
6195 Clear 12 1018 40 10000 6.7 20 10:58 23.03.2020
6196 Clear 12 1018 40 10000 6.7 20 10:39 23.03.2020
6197 Clear 11 1018 43 10000 8.2 20 10:21 23.03.2020
6198 Clear 11 1018 43 10000 8.2 20 09:57 23.03.2020
6199 Clear 11 1018 46 10000 7.7 20 09:37 23.03.2020
6200 Clear 10 1018 49 10000 7.7 20 09:18 23.03.2020
6201 Clear 10 1018 49 10000 6.7 30 08:37 23.03.2020
6202 Clouds 9 1018 52 10000 4.6 30 08:19 23.03.2020
6203 Clouds 9 1018 49 10000 5.1 30 07:50 23.03.2020
6204 Clouds 8 1017 52 10000 5.1 30 07:31 23.03.2020
6205 Clouds 8 1017 49 10000 6.7 20 06:53 23.03.2020
6206 Clouds 8 1016 70 10000 6.7 20 06:25 23.03.2020
6207 Clouds 9 1017 46 10000 6.2 30 05:34 23.03.2020
6208 Clouds 9 1016 57 10000 4.6 30 03:45 23.03.2020
6209 Clouds 9 1016 61 10000 5.7 30 02:40 23.03.2020
6210 Clouds 10 1016 61 10000 5.1 30 01:34 23.03.2020
6211 Clouds 10 1016 62 10000 5.1 30 00:43 23.03.2020
6212 Clouds 11 1016 71 10000 3.6 20 23:54 22.03.2020
6213 Clouds 11 1016 71 10000 3.6 20 23:27 22.03.2020
6214 Clouds 11 1015 66 10000 3.1 110 22:59 22.03.2020
6215 Clouds 11 1015 71 10000 2.1 110 22:39 22.03.2020
6216 Clouds 11 1015 71 10000 2.6 90 22:18 22.03.2020
6217 Clouds 11 1015 71 10000 2.6 130 21:40 22.03.2020
6218 Clouds 12 1015 71 10000 2.6 160 21:20 22.03.2020
6219 Clouds 12 1015 71 10000 2.6 160 20:58 22.03.2020
6220 Clouds 12 1015 71 10000 3.1 160 20:39 22.03.2020
6221 Clouds 12 1014 71 10000 3.6 170 20:21 22.03.2020
6222 Clouds 12 1014 71 10000 3.6 170 19:55 22.03.2020
6223 Clouds 13 1014 71 10000 3.6 180 19:37 22.03.2020
6224 Rain 13 1014 81 10000 5.7 200 19:18 22.03.2020
6225 Rain 13 1014 66 8000 3.1 170 18:56 22.03.2020
6226 Rain 13 1014 66 8000 3.1 170 18:37 22.03.2020
6227 Rain 14 1014 58 10000 1.5 190 18:18 22.03.2020
6228 Clouds 15 1013 51 10000 4.1 220 17:56 22.03.2020
6229 Clouds 15 1013 51 10000 4.1 220 17:36 22.03.2020
6230 Clouds 15 1013 51 10000 4.1 220 17:36 22.03.2020
6231 Clouds 15 1013 51 10000 4.1 220 17:36 22.03.2020
6232 Clouds 16 1012 44 10000 4.1 230 17:18 22.03.2020
6233 Clouds 16 1012 44 10000 4.6 230 16:54 22.03.2020
6234 Clouds 16 1012 44 10000 4.6 230 16:36 22.03.2020
6235 Clouds 17 1012 45 10000 4.1 250 16:18 22.03.2020
6236 Clouds 18 1012 42 10000 4.6 270 15:39 22.03.2020
6237 Clouds 18 1012 48 10000 3.6 260 14:48 22.03.2020
6238 Clouds 18 1012 42 10000 3.1 310 14:20 22.03.2020
6239 Clouds 18 1012 42 10000 3.1 310 13:58 22.03.2020
6240 Clouds 18 1012 42 10000 3.1 310 13:58 22.03.2020
6241 Clouds 18 1012 39 10000 3.1 310 13:40 22.03.2020
6242 Clouds 17 1012 45 10000 3.1 330 13:19 22.03.2020
6243 Rain 17 1013 45 10000 2.1 290 12:44 22.03.2020
6244 Rain 17 1013 45 10000 2.1 290 12:44 22.03.2020
6245 Rain 17 1013 45 10000 1.5 0 12:22 22.03.2020
6246 Rain 17 1013 45 10000 1.5 0 12:22 22.03.2020
6247 Rain 17 1013 48 10000 2.1 270 11:58 22.03.2020
6248 Rain 17 1013 48 10000 2.1 270 11:39 22.03.2020
6249 Clouds 16 1013 48 10000 1.5 0 11:21 22.03.2020
6250 Clouds 16 1013 51 10000 1 0 10:43 22.03.2020
6251 Clouds 16 1013 67 8000 1 0 10:24 22.03.2020
6252 Clouds 15 1013 67 8000 1 0 09:55 22.03.2020
6253 Clouds 15 1013 58 10000 2.1 360 09:36 22.03.2020
6254 Clouds 14 1013 62 10000 2.1 30 09:18 22.03.2020
6255 Clouds 13 1012 62 10000 1.5 30 08:41 22.03.2020
6256 Clouds 12 1012 62 10000 1.5 30 08:21 22.03.2020
6257 Clouds 10 1012 76 10000 0.5 0 07:50 22.03.2020
6258 Clouds 9 1012 75 10000 1 90 07:22 22.03.2020
6259 Clouds 9 1012 93 10000 1.5 30 05:57 22.03.2020
6260 Clouds 9 1012 100 10000 1 30 05:21 22.03.2020
6261 Clouds 9 1012 100 10000 1.5 60 02:58 22.03.2020
6262 Clouds 10 1013 100 10000 1.5 100 01:22 22.03.2020
6263 Clouds 10 1013 100 10000 1 40 00:41 22.03.2020
6264 Clouds 10 1013 93 10000 1.5 50 00:23 22.03.2020
6265 Clouds 11 1013 93 10000 1 340 23:42 21.03.2020
6266 Clouds 11 1013 50 10000 2.1 100 23:19 21.03.2020
6267 Clouds 11 1013 58 10000 2.1 90 22:39 21.03.2020
6268 Clouds 11 1013 58 10000 1.5 90 22:20 21.03.2020
6269 Clouds 11 1013 58 10000 1.5 90 21:59 21.03.2020
6270 Clouds 11 1013 62 10000 1 90 21:41 21.03.2020
6271 Clouds 11 1013 62 10000 1 90 21:22 21.03.2020
6272 Clouds 11 1013 62 10000 1 90 21:22 21.03.2020
6273 Clouds 12 1013 62 10000 1 90 20:56 21.03.2020
6274 Clouds 12 1013 58 10000 0.5 0 20:38 21.03.2020
6275 Clouds 12 1013 58 10000 0.5 0 20:18 21.03.2020
6276 Clouds 13 1013 62 10000 1 320 19:43 21.03.2020
6277 Clouds 13 1013 62 10000 1 320 19:23 21.03.2020
6278 Clouds 13 1013 62 10000 1.5 280 18:55 21.03.2020
6279 Clouds 14 1013 62 10000 1.5 280 18:37 21.03.2020
6280 Clouds 15 1012 58 10000 1.5 310 18:19 21.03.2020
6281 Clouds 15 1013 58 10000 2.6 270 17:43 21.03.2020
6282 Clouds 15 1013 58 10000 2.6 270 17:43 21.03.2020
6283 Clouds 15 1013 58 10000 2.6 270 17:43 21.03.2020
6284 Clouds 15 1013 55 10000 3.1 300 17:24 21.03.2020
6285 Clouds 16 1013 48 10000 2.6 240 16:57 21.03.2020
6286 Clouds 16 1013 48 10000 2.6 240 16:39 21.03.2020
6287 Clouds 16 1013 42 10000 3.1 270 16:18 21.03.2020
6288 Clouds 17 1013 45 10000 3.1 260 15:43 21.03.2020
6289 Clouds 17 1013 45 10000 3.1 260 15:23 21.03.2020
6290 Clouds 17 1013 42 10000 3.6 270 14:58 21.03.2020
6291 Clouds 17 1014 45 10000 3.6 240 14:40 21.03.2020
6292 Clouds 17 1014 48 10000 3.6 260 14:20 21.03.2020
6293 Clouds 17 1014 48 10000 3.6 260 13:59 21.03.2020
6294 Clouds 17 1014 45 10000 2.6 250 13:40 21.03.2020
6295 Clouds 17 1015 48 10000 2.6 240 13:22 21.03.2020
6296 Clouds 17 1015 48 10000 2.6 240 12:59 21.03.2020
6297 Clouds 17 1015 45 10000 1.5 260 12:38 21.03.2020
6298 Clouds 17 1015 36 10000 2.1 230 12:19 21.03.2020
6299 Clouds 17 1015 51 10000 1.5 0 11:56 21.03.2020
6300 Clouds 16 1015 51 10000 1.5 0 11:38 21.03.2020
6301 Clouds 16 1016 48 10000 0.25 248 11:19 21.03.2020
6302 Clouds 16 1016 58 10000 1 0 10:57 21.03.2020
6303 Clouds 16 1016 58 10000 1 0 10:38 21.03.2020
6304 Clouds 15 1016 54 10000 1.5 10 10:19 21.03.2020
6305 Clouds 15 1016 54 10000 1.5 10 09:56 21.03.2020
6306 Clouds 14 1016 66 10000 1.5 40 09:37 21.03.2020
6307 Clouds 13 1016 71 10000 1.5 30 09:19 21.03.2020
6308 Clouds 12 1016 66 10000 1 0 08:43 21.03.2020
6309 Clear 11 1016 66 10000 1 0 08:24 21.03.2020
6310 Clear 9 1017 70 10000 0.5 0 07:45 21.03.2020
6311 Clear 8 1017 70 10000 0.5 0 07:27 21.03.2020
6312 Fog 8 1017 93 8000 1.5 80 06:48 21.03.2020
6313 Fog 7 1017 93 8000 1.5 80 06:28 21.03.2020
6314 Fog 8 1017 100 8000 2.1 80 05:48 21.03.2020
6315 Fog 7 1018 93 8000 1.5 90 04:47 21.03.2020
6316 Clear 8 1018 93 8000 1.5 70 02:55 21.03.2020
6317 Clear 8 1018 93 10000 1 80 02:33 21.03.2020
6318 Clear 8 1019 93 10000 2.1 90 01:33 21.03.2020
6319 Clear 9 1019 87 10000 2.1 110 00:56 21.03.2020
6320 Clear 9 1019 93 10000 2.1 90 00:37 21.03.2020
6321 Clear 9 1020 87 10000 2.1 90 23:53 20.03.2020
6322 Clear 9 1020 87 10000 2.1 90 23:28 20.03.2020
6323 Clear 9 1020 66 10000 0.5 0 22:59 20.03.2020
6324 Clear 9 1020 66 10000 0.5 0 22:59 20.03.2020
6325 Clear 10 1020 71 10000 0.5 200 22:40 20.03.2020
6326 Clear 10 1020 71 10000 0.5 0 22:21 20.03.2020
6327 Clear 10 1020 71 10000 0.5 0 21:56 20.03.2020
6328 Clear 11 1020 62 10000 1 0 21:38 20.03.2020
6329 Clear 11 1020 62 10000 1 170 21:18 20.03.2020
6330 Clear 11 1020 62 10000 1 170 20:57 20.03.2020
6331 Clear 11 1020 62 10000 1.5 240 20:38 20.03.2020
6332 Clear 12 1020 58 10000 1 240 20:18 20.03.2020
6333 Clear 12 1020 58 10000 1 200 19:45 20.03.2020
6334 Clear 13 1020 54 10000 1.5 230 19:19 20.03.2020
6335 Clear 14 1020 54 10000 2.1 220 18:55 20.03.2020
6336 Clear 14 1020 54 10000 2.1 220 18:37 20.03.2020
6337 Clear 15 1021 47 10000 2.6 240 18:19 20.03.2020
6338 Clear 15 1021 47 10000 2.6 240 18:19 20.03.2020
6339 Clear 16 1021 44 10000 2.6 250 17:39 20.03.2020
6340 Clear 17 1020 34 10000 3.1 220 17:21 20.03.2020
6341 Clear 17 1021 39 10000 3.6 240 16:58 20.03.2020
6342 Clear 17 1021 39 10000 3.6 240 16:58 20.03.2020
6343 Clear 17 1021 39 10000 3.6 240 16:40 20.03.2020
6344 Clear 18 1021 45 10000 3.1 250 16:18 20.03.2020
6345 Clear 18 1021 48 10000 3.6 250 15:42 20.03.2020
6346 Clear 18 1021 45 10000 4.1 250 15:22 20.03.2020
6347 Clear 18 1021 45 10000 4.1 250 14:56 20.03.2020
6348 Clear 18 1021 42 10000 4.1 250 14:37 20.03.2020
6349 Clear 18 1021 42 10000 3.6 240 14:18 20.03.2020
6350 Clear 19 1022 42 10000 3.6 230 13:43 20.03.2020
6351 Clear 18 1022 48 10000 4.1 260 13:19 20.03.2020
6352 Clear 18 1022 45 10000 3.1 210 12:41 20.03.2020
6353 Clear 18 1023 34 10000 2.1 240 12:23 20.03.2020
6354 Clear 18 1023 48 10000 2.1 260 11:58 20.03.2020
6355 Clear 17 1023 48 10000 2.1 260 11:38 20.03.2020
6356 Clear 17 1023 51 10000 0.49 345 11:19 20.03.2020
6357 Clear 16 1023 62 10000 2.1 240 10:42 20.03.2020
6358 Clear 15 1023 67 10000 2.1 270 10:21 20.03.2020
6359 Clear 15 1023 67 10000 2.1 270 09:59 20.03.2020
6360 Clear 15 1023 67 10000 2.1 270 09:59 20.03.2020
6361 Clear 14 1023 71 10000 1.5 250 09:41 20.03.2020
6362 Clear 13 1023 76 10000 1.5 290 09:19 20.03.2020
6363 Clear 12 1023 71 10000 1 0 08:43 20.03.2020
6364 Clear 10 1023 81 10000 0.5 0 08:22 20.03.2020
6365 Clear 10 1023 81 10000 0.5 0 08:22 20.03.2020
6366 Clear 9 1023 81 10000 0.5 0 07:55 20.03.2020
6367 Clear 9 1023 87 10000 1 20 07:37 20.03.2020
6368 Fog 8 1023 93 7000 1 340 07:18 20.03.2020
6369 Fog 8 1023 100 7000 0.5 0 06:41 20.03.2020
6370 Fog 8 1023 100 8000 2.1 100 04:54 20.03.2020
6371 Fog 8 1023 100 7000 1.5 80 03:50 20.03.2020
6372 Clear 9 1024 100 8000 0.5 90 02:21 20.03.2020
6373 Fog 9 1024 93 7000 0.5 50 01:33 20.03.2020
6374 Fog 9 1024 100 8000 1 60 00:33 20.03.2020
6375 Clear 9 1024 100 8000 1.5 50 23:49 19.03.2020
6376 Clear 10 1024 100 8000 1.5 50 23:30 19.03.2020
6377 Clear 10 1024 66 10000 0.5 0 22:58 19.03.2020
6378 Clear 10 1024 66 10000 0.5 0 22:38 19.03.2020
6379 Clear 10 1024 71 10000 0.5 0 22:20 19.03.2020
6380 Clear 10 1024 71 10000 0.5 0 21:55 19.03.2020
6381 Clear 10 1024 71 10000 1 160 21:37 19.03.2020
6382 Clear 11 1024 76 10000 0.5 170 21:18 19.03.2020
6383 Clear 12 1024 71 10000 0.5 0 20:42 19.03.2020
6384 Clear 12 1023 71 10000 1.5 230 20:23 19.03.2020
6385 Clear 12 1023 71 10000 1.5 230 19:57 19.03.2020
6386 Clear 13 1023 67 10000 2.1 200 19:38 19.03.2020
6387 Clear 14 1023 67 10000 2.1 220 19:20 19.03.2020
6388 Clear 14 1023 67 10000 2.1 220 18:56 19.03.2020
6389 Clear 15 1023 62 10000 1.5 240 18:38 19.03.2020
6390 Clear 15 1023 62 10000 1.5 240 18:38 19.03.2020
6391 Clear 16 1023 59 10000 2.6 240 18:19 19.03.2020
6392 Clear 17 1023 55 10000 3.1 240 17:42 19.03.2020
6393 Clear 17 1023 42 10000 3.6 230 17:19 19.03.2020
6394 Clear 18 1023 39 10000 3.6 220 16:45 19.03.2020
6395 Clear 18 1023 39 10000 4.1 240 16:25 19.03.2020
6396 Clear 19 1023 39 10000 4.1 240 15:55 19.03.2020
6397 Clear 19 1023 39 10000 4.1 230 15:36 19.03.2020
6398 Clear 19 1023 39 10000 4.6 260 15:18 19.03.2020
6399 Clear 19 1024 42 10000 4.6 260 14:43 19.03.2020
6400 Clear 20 1024 39 10000 4.6 260 14:21 19.03.2020
6401 Clear 20 1024 32 10000 4.1 250 13:41 19.03.2020
6402 Clear 19 1024 26 10000 1.17 242 13:19 19.03.2020
6403 Clear 19 1024 32 10000 5.1 220 12:57 19.03.2020
6404 Clear 19 1024 32 10000 5.1 220 12:39 19.03.2020
6405 Clear 19 1025 37 10000 1 0 12:21 19.03.2020
6406 Clear 18 1025 34 10000 3.1 230 11:42 19.03.2020
6407 Clear 18 1025 48 10000 1 0 11:23 19.03.2020
6408 Clear 17 1025 55 10000 2.1 350 10:57 19.03.2020
6409 Clear 17 1025 55 10000 2.1 350 10:38 19.03.2020
6410 Clear 16 1025 62 10000 1 0 10:19 19.03.2020
6411 Clear 15 1025 66 10000 1 0 09:45 19.03.2020
6412 Clear 15 1025 66 10000 1 0 09:27 19.03.2020
6413 Clear 13 1025 71 10000 2.1 30 08:58 19.03.2020
6414 Clear 13 1025 71 10000 1.5 10 08:40 19.03.2020
6415 Clear 10 1024 81 10000 1 360 08:19 19.03.2020
6416 Clear 9 1024 81 10000 1 0 07:44 19.03.2020
6417 Clear 9 1024 93 10000 1.5 40 07:23 19.03.2020
6418 Clear 8 1024 93 10000 2.1 70 06:32 19.03.2020
6419 Clear 8 1024 93 10000 1.5 70 05:46 19.03.2020
6420 Clear 8 1024 93 10000 1.5 100 04:53 19.03.2020
6421 Clear 8 1024 93 10000 1.5 100 04:34 19.03.2020
6422 Clear 9 1024 100 8000 2.1 70 02:34 19.03.2020
6423 Clear 9 1024 93 8000 0.5 0 00:57 19.03.2020
6424 Clear 10 1024 87 10000 1.5 60 00:21 19.03.2020
6425 Clear 10 1024 100 9000 1 70 23:46 18.03.2020
6426 Clear 10 1024 66 10000 2.1 150 23:26 18.03.2020
6427 Clear 11 1024 62 10000 3.1 100 22:44 18.03.2020
6428 Clear 11 1024 66 10000 1.5 150 22:24 18.03.2020
6429 Clear 11 1024 66 10000 1.5 150 21:59 18.03.2020
6430 Clear 11 1024 66 10000 0.5 0 21:41 18.03.2020
6431 Clear 12 1024 66 10000 1 160 21:21 18.03.2020
6432 Clear 12 1024 66 10000 1 160 20:57 18.03.2020
6433 Clear 12 1024 66 10000 1.5 160 20:38 18.03.2020
6434 Clouds 13 1024 66 10000 1.5 170 20:19 18.03.2020
6435 Clouds 13 1024 62 10000 1.5 230 19:45 18.03.2020
6436 Clouds 14 1023 62 10000 1.5 260 19:21 18.03.2020
6437 Clouds 14 1023 62 10000 1.5 260 18:59 18.03.2020
6438 Clouds 14 1023 62 10000 1.5 260 18:40 18.03.2020
6439 Clouds 15 1023 55 10000 2.1 290 18:20 18.03.2020
6440 Clouds 16 1023 63 10000 2.6 300 17:57 18.03.2020
6441 Clouds 16 1023 63 10000 2.6 300 17:39 18.03.2020
6442 Clouds 16 1023 63 10000 2.6 300 17:39 18.03.2020
6443 Clouds 17 1023 45 10000 3.6 220 17:19 18.03.2020
6444 Clouds 17 1023 59 10000 3.1 270 16:54 18.03.2020
6445 Clouds 17 1023 59 10000 3.1 270 16:36 18.03.2020
6446 Clouds 18 1023 59 10000 2.6 250 16:18 18.03.2020
6447 Clouds 18 1023 59 10000 3.1 250 15:44 18.03.2020
6448 Clouds 18 1024 55 10000 3.6 240 15:20 18.03.2020
6449 Clouds 18 1024 55 10000 4.1 270 14:44 18.03.2020
6450 Clouds 18 1024 45 10000 3.6 220 14:21 18.03.2020
6451 Clear 18 1025 48 10000 2.6 280 13:42 18.03.2020
6452 Clear 18 1025 39 10000 1 0 13:20 18.03.2020
6453 Clear 18 1025 39 10000 1 0 12:59 18.03.2020
6454 Clouds 17 1025 55 10000 2.6 300 12:41 18.03.2020
6455 Clouds 17 1026 48 10000 1 0 12:19 18.03.2020
6456 Clear 17 1025 59 10000 1.5 270 11:39 18.03.2020
6457 Clear 16 1026 51 10000 1 0 11:20 18.03.2020
6458 Clear 15 1026 66 10000 1 0 10:58 18.03.2020
6459 Clear 15 1026 66 10000 1 0 10:38 18.03.2020
6460 Clear 15 1026 71 10000 2.1 10 10:20 18.03.2020
6461 Clear 13 1026 76 10000 1.5 30 09:43 18.03.2020
6462 Clear 13 1026 76 10000 2.6 20 09:25 18.03.2020
6463 Clear 11 1026 81 10000 2.1 40 08:56 18.03.2020
6464 Clear 11 1026 81 10000 2.1 40 08:38 18.03.2020
6465 Clouds 9 1026 87 10000 1.5 40 08:20 18.03.2020
6466 Clouds 8 1026 87 10000 1.5 60 07:44 18.03.2020
6467 Clouds 8 1027 93 10000 2.1 30 07:26 18.03.2020
6468 Fog 7 1026 100 6000 0.5 60 06:44 18.03.2020
6469 Clouds 7 1026 100 8000 1 30 06:20 18.03.2020
6470 Clouds 8 1027 93 8000 2.1 50 05:34 18.03.2020
6471 Clouds 8 1027 100 10000 1 50 04:25 18.03.2020
6472 Clouds 8 1027 100 10000 0.5 0 02:44 18.03.2020
6473 Clouds 9 1028 100 10000 1.5 350 01:48 18.03.2020
6474 Clouds 9 1028 87 10000 2.1 350 01:26 18.03.2020
6475 Clouds 9 1028 93 10000 1 20 00:24 18.03.2020
6476 Clouds 9 1029 100 8000 0.5 0 23:48 17.03.2020
6477 Clouds 10 1028 76 10000 1 180 23:27 17.03.2020
6478 Clouds 10 1029 87 10000 1 170 22:57 17.03.2020
6479 Clouds 10 1029 87 10000 1 170 22:37 17.03.2020
6480 Clouds 10 1029 81 10000 1 140 22:19 17.03.2020
6481 Clouds 11 1029 81 10000 1.5 110 21:39 17.03.2020
6482 Clouds 11 1029 81 10000 1 0 21:21 17.03.2020
6483 Clouds 11 1029 87 10000 0.5 0 20:40 17.03.2020
6484 Clouds 12 1029 82 10000 0.5 0 20:22 17.03.2020
6485 Clouds 12 1029 82 10000 0.5 0 19:59 17.03.2020
6486 Clouds 12 1028 82 10000 1 240 19:40 17.03.2020
6487 Clouds 12 1028 82 10000 1.5 240 19:18 17.03.2020
6488 Clouds 13 1028 71 10000 1.5 290 18:56 17.03.2020
6489 Clouds 13 1028 71 10000 1.5 290 18:37 17.03.2020
6490 Clouds 14 1028 76 10000 2.6 260 18:19 17.03.2020
6491 Clouds 15 1028 72 10000 2.6 260 17:40 17.03.2020
6492 Clouds 15 1028 72 10000 2.6 260 17:40 17.03.2020
6493 Clouds 15 1028 59 10000 4.1 260 17:21 17.03.2020
6494 Clouds 15 1028 59 10000 2.6 280 16:55 17.03.2020
6495 Clouds 16 1028 59 10000 2.6 280 16:37 17.03.2020
6496 Clouds 16 1028 59 10000 3.6 270 16:18 17.03.2020
6497 Clouds 17 1028 59 10000 3.1 280 15:43 17.03.2020
6498 Clouds 17 1028 59 10000 3.6 250 15:20 17.03.2020
6499 Clouds 16 1029 51 10000 2.1 310 14:42 17.03.2020
6500 Clouds 16 1029 48 10000 2.6 0 14:21 17.03.2020
6501 Clear 16 1029 51 10000 1.5 280 13:44 17.03.2020
6502 Clear 16 1030 55 10000 2.1 0 13:26 17.03.2020
6503 Clouds 16 1030 55 10000 2.1 0 12:58 17.03.2020
6504 Clouds 16 1030 51 10000 2.1 280 12:40 17.03.2020
6505 Clear 16 1030 51 10000 0.5 0 12:21 17.03.2020
6506 Clear 16 1030 54 10000 1 0 11:46 17.03.2020
6507 Clear 16 1030 54 10000 1 0 11:46 17.03.2020
6508 Clear 16 1031 67 10000 2.1 350 11:28 17.03.2020
6509 Clouds 15 1030 66 10000 2.1 30 10:58 17.03.2020
6510 Clouds 15 1030 66 10000 2.1 30 10:38 17.03.2020
6511 Clouds 14 1030 62 10000 2.1 40 10:20 17.03.2020
6512 Clouds 14 1030 66 10000 2.1 30 09:57 17.03.2020
6513 Clear 14 1030 66 10000 2.1 30 09:39 17.03.2020
6514 Clear 12 1030 71 10000 2.6 40 09:18 17.03.2020
6515 Clear 11 1030 76 10000 2.6 30 08:43 17.03.2020
6516 Clear 10 1029 81 10000 1.5 20 08:21 17.03.2020
6517 Clear 9 1029 81 10000 1.5 40 07:50 17.03.2020
6518 Clear 8 1029 81 10000 1.5 40 07:26 17.03.2020
6519 Clear 7 1029 87 10000 2.1 60 06:58 17.03.2020
6520 Clear 7 1029 87 10000 2.1 90 06:33 17.03.2020
6521 Clear 7 1029 87 10000 1.5 80 05:46 17.03.2020
6522 Clear 8 1028 81 10000 1.5 100 03:40 17.03.2020
6523 Clear 8 1028 81 10000 2.6 90 02:45 17.03.2020
6524 Clear 8 1028 75 10000 1.5 60 01:42 17.03.2020
6525 Clear 8 1028 75 10000 1.5 60 01:24 17.03.2020
6526 Clear 8 1028 87 10000 1 30 00:31 17.03.2020
6527 Clear 9 1028 81 10000 1.5 50 23:45 16.03.2020
6528 Clear 9 1027 62 10000 2.1 80 23:25 16.03.2020
6529 Clear 9 1027 62 10000 3.1 80 22:40 16.03.2020
6530 Clear 10 1027 62 10000 2.1 60 22:22 16.03.2020
6531 Clear 10 1027 62 10000 2.1 60 21:57 16.03.2020
6532 Clear 10 1027 62 10000 2.1 60 21:57 16.03.2020
6533 Clear 10 1027 58 10000 1.5 80 21:38 16.03.2020
6534 Clear 10 1027 62 10000 1.5 100 21:20 16.03.2020
6535 Clear 10 1026 58 10000 1 110 20:55 16.03.2020
6536 Clear 10 1026 58 10000 1 110 20:37 16.03.2020
6537 Clear 11 1026 58 10000 1 160 20:18 16.03.2020
6538 Clear 11 1026 58 10000 1 160 20:18 16.03.2020
6539 Clear 12 1026 54 10000 1 230 19:40 16.03.2020
6540 Clear 13 1026 54 10000 1.5 260 19:20 16.03.2020
6541 Clear 13 1025 54 10000 2.1 250 18:41 16.03.2020
6542 Clear 14 1025 54 10000 2.6 250 18:20 16.03.2020
6543 Clear 15 1025 54 10000 3.6 260 17:47 16.03.2020
6544 Clear 15 1025 51 10000 3.6 250 17:26 16.03.2020
6545 Clear 16 1025 51 10000 3.6 250 16:59 16.03.2020
6546 Clear 16 1024 48 10000 4.1 240 16:41 16.03.2020
6547 Clear 16 1024 51 10000 4.6 240 16:22 16.03.2020
6548 Clear 17 1024 48 10000 4.1 270 15:44 16.03.2020
6549 Clear 17 1024 48 10000 4.1 270 15:25 16.03.2020
6550 Clear 17 1024 51 10000 4.1 220 14:49 16.03.2020
6551 Clear 17 1024 51 10000 4.1 220 14:25 16.03.2020
6552 Clear 17 1024 42 10000 1.5 0 13:55 16.03.2020
6553 Clear 17 1024 42 10000 1.5 0 13:37 16.03.2020
6554 Clear 17 1024 42 10000 2.1 0 13:18 16.03.2020
6555 Clear 16 1024 41 10000 2.6 330 12:42 16.03.2020
6556 Clear 16 1025 38 10000 1.5 0 12:23 16.03.2020
6557 Clear 16 1024 44 10000 1.5 360 11:45 16.03.2020
6558 Clear 15 1025 41 10000 1 0 11:26 16.03.2020
6559 Clear 14 1024 50 10000 3.6 10 10:47 16.03.2020
6560 Clear 14 1024 50 10000 3.6 10 10:25 16.03.2020
6561 Clear 13 1024 47 10000 3.6 20 09:59 16.03.2020
6562 Clear 13 1024 58 10000 2.1 20 09:40 16.03.2020
6563 Clear 12 1024 66 10000 2.1 20 09:20 16.03.2020
6564 Clear 10 1023 70 10000 2.1 40 08:43 16.03.2020
6565 Clear 9 1023 75 10000 2.1 30 08:23 16.03.2020
6566 Clear 8 1023 81 10000 1 40 07:44 16.03.2020
6567 Clear 7 1023 70 10000 2.6 60 07:21 16.03.2020
6568 Clear 6 1023 75 10000 3.1 50 06:46 16.03.2020
6569 Clear 6 1022 75 10000 1.5 40 06:22 16.03.2020
6570 Clear 7 1022 75 10000 1 80 04:53 16.03.2020
6571 Clouds 8 1021 70 10000 1.5 70 01:49 16.03.2020
6572 Clouds 9 1021 75 10000 1.5 60 00:48 16.03.2020
6573 Clouds 9 1021 75 10000 1.5 60 00:28 16.03.2020
6574 Clouds 10 1020 76 10000 1.5 60 23:41 15.03.2020
6575 Clouds 10 1021 81 10000 2.6 40 23:19 15.03.2020
6576 Clouds 10 1020 76 10000 2.1 50 22:42 15.03.2020
6577 Clouds 10 1020 76 10000 2.1 50 22:42 15.03.2020
6578 Clouds 11 1020 71 10000 1.5 50 22:22 15.03.2020
6579 Clouds 11 1020 66 10000 0.5 0 21:40 15.03.2020
6580 Clouds 11 1020 76 10000 1.5 130 21:22 15.03.2020
6581 Clouds 11 1020 76 10000 1.5 130 20:58 15.03.2020
6582 Clouds 11 1020 76 10000 1.5 130 20:58 15.03.2020
6583 Clouds 11 1020 76 10000 2.1 190 20:40 15.03.2020
6584 Clouds 11 1020 76 10000 2.6 200 20:20 15.03.2020
6585 Clouds 11 1020 76 10000 2.6 200 19:56 15.03.2020
6586 Clouds 12 1019 76 10000 2.6 200 19:38 15.03.2020
6587 Clouds 12 1019 71 10000 2.6 200 19:19 15.03.2020
6588 Clouds 13 1019 71 10000 2.6 220 18:55 15.03.2020
6589 Clouds 13 1019 71 10000 2.6 220 18:36 15.03.2020
6590 Clouds 14 1019 67 10000 3.1 220 18:18 15.03.2020
6591 Clouds 15 1019 62 10000 4.1 220 17:40 15.03.2020
6592 Clouds 15 1018 51 10000 4.1 230 17:20 15.03.2020
6593 Clouds 16 1018 59 10000 5.1 220 16:56 15.03.2020
6594 Clouds 16 1018 59 10000 5.1 220 16:37 15.03.2020
6595 Clouds 16 1018 63 10000 4.6 240 16:18 15.03.2020
6596 Clouds 17 1018 55 10000 5.1 230 15:43 15.03.2020
6597 Clouds 17 1018 55 10000 5.1 230 15:25 15.03.2020
6598 Clouds 17 1018 63 10000 4.1 230 14:47 15.03.2020
6599 Clouds 17 1018 63 10000 4.1 230 14:28 15.03.2020
6600 Clouds 17 1018 59 10000 3.6 230 13:59 15.03.2020
6601 Clouds 17 1018 63 10000 2.6 280 13:40 15.03.2020
6602 Clouds 17 1018 59 10000 1.5 310 13:21 15.03.2020
6603 Clouds 17 1018 59 10000 1.5 320 12:58 15.03.2020
6604 Clouds 16 1018 59 10000 1.5 320 12:38 15.03.2020
6605 Clouds 16 1018 42 10000 2.1 340 12:20 15.03.2020
6606 Clouds 15 1018 58 10000 2.6 20 11:42 15.03.2020
6607 Clouds 15 1019 44 10000 5.1 30 11:22 15.03.2020
6608 Clouds 15 1018 62 10000 3.1 40 10:57 15.03.2020
6609 Clouds 14 1018 62 10000 3.1 40 10:38 15.03.2020
6610 Clouds 14 1018 62 10000 4.1 40 10:20 15.03.2020
6611 Clear 13 1018 66 10000 4.6 40 09:42 15.03.2020
6612 Clouds 12 1018 66 10000 4.1 40 09:22 15.03.2020
6613 Clouds 12 1018 66 10000 4.1 40 08:58 15.03.2020
6614 Clouds 11 1018 71 10000 3.6 60 08:39 15.03.2020
6615 Clouds 10 1017 76 10000 3.1 60 08:18 15.03.2020
6616 Clouds 9 1017 76 10000 3.1 70 07:44 15.03.2020
6617 Clear 9 1016 76 10000 3.6 20 06:55 15.03.2020
6618 Clear 9 1016 76 10000 3.6 20 06:34 15.03.2020
6619 Clear 9 1016 76 10000 3.6 20 05:43 15.03.2020
6620 Clouds 9 1016 87 10000 2.6 320 04:47 15.03.2020
6621 Clouds 10 1016 87 10000 2.6 320 04:28 15.03.2020
6622 Clouds 10 1016 81 10000 2.6 30 03:55 15.03.2020
6623 Clouds 10 1016 81 10000 2.6 360 02:48 15.03.2020
6624 Clouds 11 1016 87 10000 2.6 320 01:50 15.03.2020
6625 Clouds 11 1016 87 10000 2.1 330 00:51 15.03.2020
6626 Clouds 11 1016 87 10000 2.1 330 00:51 15.03.2020
6627 Clouds 11 1015 93 10000 2.6 340 00:28 15.03.2020
6628 Clouds 11 1016 93 10000 2.1 330 23:58 14.03.2020
6629 Clouds 11 1016 93 10000 2.1 330 23:37 14.03.2020
6630 Clouds 12 1015 87 10000 0.5 0 23:18 14.03.2020
6631 Clouds 12 1015 87 10000 1.5 320 22:44 14.03.2020
6632 Clouds 12 1015 82 10000 1.5 300 22:26 14.03.2020
6633 Clouds 12 1015 82 8000 1.5 300 21:57 14.03.2020
6634 Clouds 12 1015 82 8000 1.5 300 21:36 14.03.2020
6635 Clouds 12 1015 87 10000 1.5 300 21:18 14.03.2020
6636 Clouds 12 1015 87 10000 1.5 300 20:59 14.03.2020
6637 Clouds 12 1015 87 10000 1 280 20:40 14.03.2020
6638 Clouds 12 1015 82 10000 0.5 0 20:19 14.03.2020
6639 Clouds 12 1015 82 10000 0.5 0 19:56 14.03.2020
6640 Clouds 12 1014 82 10000 1 90 19:38 14.03.2020
6641 Clouds 12 1014 82 10000 1 90 19:19 14.03.2020
6642 Clouds 13 1014 87 10000 1.5 80 18:37 14.03.2020
6643 Clouds 14 1014 82 10000 2.1 60 18:19 14.03.2020
6644 Clouds 14 1014 76 10000 1.5 50 17:39 14.03.2020
6645 Clouds 14 1014 77 10000 1 0 17:20 14.03.2020
6646 Clouds 14 1014 82 10000 2.1 40 16:41 14.03.2020
6647 Clouds 14 1014 87 10000 2.6 30 16:23 14.03.2020
6648 Clouds 14 1014 87 10000 2.6 30 16:23 14.03.2020
6649 Clouds 14 1014 87 10000 2.6 30 15:59 14.03.2020
6650 Clouds 14 1014 82 10000 2.6 10 15:27 14.03.2020
6651 Clouds 14 1014 82 10000 2.6 360 14:59 14.03.2020
6652 Clouds 14 1014 82 10000 2.1 310 14:37 14.03.2020
6653 Clouds 14 1015 76 10000 2.6 300 14:19 14.03.2020
6654 Clouds 14 1015 76 10000 2.6 300 13:54 14.03.2020
6655 Clouds 14 1015 76 10000 2.6 260 13:36 14.03.2020
6656 Clouds 14 1016 82 7000 3.1 260 13:18 14.03.2020
6657 Clouds 14 1015 82 10000 3.1 290 12:42 14.03.2020
6658 Clouds 14 1016 87 8000 1.5 0 12:23 14.03.2020
6659 Clouds 13 1015 82 10000 2.6 250 11:43 14.03.2020
6660 Clouds 13 1015 87 7000 1 0 11:24 14.03.2020
6661 Clouds 14 1015 82 10000 2.1 250 10:47 14.03.2020
6662 Clouds 14 1015 82 10000 1 0 10:28 14.03.2020
6663 Clouds 13 1015 76 10000 0.5 0 09:59 14.03.2020
6664 Clouds 13 1015 76 10000 0.5 0 09:40 14.03.2020
6665 Clouds 13 1015 87 10000 1 0 09:20 14.03.2020
6666 Clouds 12 1015 87 10000 1 10 08:46 14.03.2020
6667 Clouds 12 1015 93 10000 1 0 08:26 14.03.2020
6668 Clouds 12 1015 93 10000 1 0 07:40 14.03.2020
6669 Clouds 11 1015 93 7000 1 80 07:21 14.03.2020
6670 Clouds 11 1015 93 7000 0.5 50 06:45 14.03.2020
6671 Clouds 11 1015 87 10000 1.5 110 06:26 14.03.2020
6672 Clouds 11 1015 93 10000 1.5 80 04:53 14.03.2020
6673 Clouds 11 1015 93 10000 1 90 03:34 14.03.2020
6674 Clouds 11 1015 93 10000 1 90 02:43 14.03.2020
6675 Clouds 12 1016 93 10000 1.5 100 01:42 14.03.2020
6676 Clouds 12 1016 100 10000 1 70 00:23 14.03.2020
6677 Clouds 12 1016 100 10000 0.5 190 23:42 13.03.2020
6678 Clouds 12 1016 93 8000 1.5 220 23:22 13.03.2020
6679 Clouds 12 1016 93 8000 1.5 220 22:41 13.03.2020
6680 Clouds 12 1016 93 10000 0.5 0 22:22 13.03.2020
6681 Clouds 12 1016 87 10000 0.5 0 21:40 13.03.2020
6682 Clouds 12 1016 87 10000 0.66 267 21:18 13.03.2020
6683 Clouds 12 1016 87 10000 0.5 240 20:42 13.03.2020
6684 Clouds 13 1016 87 10000 1.5 280 20:22 13.03.2020
6685 Clouds 13 1016 87 10000 1.5 260 19:55 13.03.2020
6686 Clouds 13 1016 87 10000 1.5 260 19:36 13.03.2020
6687 Clouds 13 1015 87 10000 2.6 220 19:18 13.03.2020
6688 Clouds 14 1015 93 10000 2.1 270 18:39 13.03.2020
6689 Clouds 14 1016 82 10000 2.6 260 18:21 13.03.2020
6690 Clouds 14 1016 82 10000 2.6 300 17:42 13.03.2020
6691 Clouds 14 1016 82 10000 3.6 290 17:21 13.03.2020
6692 Clouds 15 1016 87 10000 3.1 300 16:56 13.03.2020
6693 Clouds 15 1016 87 10000 3.1 300 16:38 13.03.2020
6694 Clouds 15 1016 82 10000 2.6 260 16:19 13.03.2020
6695 Clouds 15 1016 82 10000 2.6 250 15:42 13.03.2020
6696 Clouds 15 1016 82 10000 3.1 250 15:21 13.03.2020
6697 Clouds 15 1016 82 10000 2.6 250 14:55 13.03.2020
6698</